<?xml version="1.0" encoding="UTF-8" standalone="no" ?>
<gpx xmlns="http://www.topografix.com/GPX/1/1" xmlns:xsi="http://www.w3.org/2001/XMLSchema-instance" xsi:schemaLocation="http://www.topografix.com/GPX/1/1 http://www.topografix.com/GPX/1/1/gpx.xsd" version="1.1" creator="VisuGPX - https://www.visugpx.com">
  <metadata>
    <name>BPM - Cires les mello</name>
    <desc><![CDATA[Bon Pied Marlysien - Cires les Mello]]></desc>
  </metadata>
  <trk>
    <name><![CDATA[BPM - Cires les mello_1]]></name>
    <trkseg>
      <trkpt lat="49.27172" lon="2.35994">
        <ele>82.6</ele>
        <time>2017-05-07T07:46:38Z</time>
      </trkpt>
      <trkpt lat="49.27172" lon="2.35994">
        <ele>82.6</ele>
        <time>2017-05-07T07:48:07Z</time>
      </trkpt>
      <trkpt lat="49.27166" lon="2.35993">
        <ele>82.2</ele>
        <time>2017-05-07T07:48:14Z</time>
      </trkpt>
      <trkpt lat="49.2716" lon="2.35991">
        <ele>81.7</ele>
        <time>2017-05-07T07:48:23Z</time>
      </trkpt>
      <trkpt lat="49.27154" lon="2.35992">
        <ele>81.8</ele>
        <time>2017-05-07T07:48:29Z</time>
      </trkpt>
      <trkpt lat="49.2715" lon="2.35989">
        <ele>81.4</ele>
        <time>2017-05-07T07:48:36Z</time>
      </trkpt>
      <trkpt lat="49.27142" lon="2.35993">
        <ele>81.2</ele>
        <time>2017-05-07T07:48:39Z</time>
      </trkpt>
      <trkpt lat="49.27135" lon="2.35991">
        <ele>81.1</ele>
        <time>2017-05-07T07:48:46Z</time>
      </trkpt>
      <trkpt lat="49.27127" lon="2.3599">
        <ele>80</ele>
        <time>2017-05-07T07:48:53Z</time>
      </trkpt>
      <trkpt lat="49.27121" lon="2.35991">
        <ele>79.4</ele>
        <time>2017-05-07T07:49:00Z</time>
      </trkpt>
      <trkpt lat="49.27113" lon="2.3599">
        <ele>79.5</ele>
        <time>2017-05-07T07:49:07Z</time>
      </trkpt>
      <trkpt lat="49.27106" lon="2.35985">
        <ele>79.5</ele>
        <time>2017-05-07T07:49:14Z</time>
      </trkpt>
      <trkpt lat="49.27098" lon="2.35988">
        <ele>79.4</ele>
        <time>2017-05-07T07:49:21Z</time>
      </trkpt>
      <trkpt lat="49.27094" lon="2.35986">
        <ele>79.5</ele>
        <time>2017-05-07T07:49:28Z</time>
      </trkpt>
      <trkpt lat="49.27088" lon="2.35984">
        <ele>79.2</ele>
        <time>2017-05-07T07:49:35Z</time>
      </trkpt>
      <trkpt lat="49.2708" lon="2.35984">
        <ele>79</ele>
        <time>2017-05-07T07:49:39Z</time>
      </trkpt>
      <trkpt lat="49.27074" lon="2.3598">
        <ele>79</ele>
        <time>2017-05-07T07:49:46Z</time>
      </trkpt>
      <trkpt lat="49.27068" lon="2.35973">
        <ele>79.7</ele>
        <time>2017-05-07T07:49:54Z</time>
      </trkpt>
      <trkpt lat="49.27061" lon="2.35974">
        <ele>79.9</ele>
        <time>2017-05-07T07:50:00Z</time>
      </trkpt>
      <trkpt lat="49.27053" lon="2.35976">
        <ele>79.9</ele>
        <time>2017-05-07T07:50:07Z</time>
      </trkpt>
      <trkpt lat="49.27045" lon="2.35973">
        <ele>79.9</ele>
        <time>2017-05-07T07:50:13Z</time>
      </trkpt>
      <trkpt lat="49.27037" lon="2.35975">
        <ele>79.7</ele>
        <time>2017-05-07T07:50:19Z</time>
      </trkpt>
      <trkpt lat="49.27031" lon="2.35977">
        <ele>79.2</ele>
        <time>2017-05-07T07:50:26Z</time>
      </trkpt>
      <trkpt lat="49.27026" lon="2.35971">
        <ele>79.9</ele>
        <time>2017-05-07T07:50:33Z</time>
      </trkpt>
      <trkpt lat="49.27021" lon="2.35962">
        <ele>80.9</ele>
        <time>2017-05-07T07:50:38Z</time>
      </trkpt>
      <trkpt lat="49.27013" lon="2.35956">
        <ele>81.7</ele>
        <time>2017-05-07T07:50:45Z</time>
      </trkpt>
      <trkpt lat="49.27008" lon="2.35949">
        <ele>82.1</ele>
        <time>2017-05-07T07:50:50Z</time>
      </trkpt>
      <trkpt lat="49.27002" lon="2.35942">
        <ele>82.1</ele>
        <time>2017-05-07T07:50:57Z</time>
      </trkpt>
      <trkpt lat="49.26997" lon="2.35931">
        <ele>81.7</ele>
        <time>2017-05-07T07:51:02Z</time>
      </trkpt>
      <trkpt lat="49.26993" lon="2.35925">
        <ele>81.2</ele>
        <time>2017-05-07T07:51:09Z</time>
      </trkpt>
      <trkpt lat="49.26988" lon="2.35916">
        <ele>80.9</ele>
        <time>2017-05-07T07:51:16Z</time>
      </trkpt>
      <trkpt lat="49.26984" lon="2.35908">
        <ele>80.5</ele>
        <time>2017-05-07T07:51:22Z</time>
      </trkpt>
      <trkpt lat="49.26978" lon="2.359">
        <ele>80.3</ele>
        <time>2017-05-07T07:51:27Z</time>
      </trkpt>
      <trkpt lat="49.26972" lon="2.35892">
        <ele>80.6</ele>
        <time>2017-05-07T07:51:32Z</time>
      </trkpt>
      <trkpt lat="49.26966" lon="2.35887">
        <ele>80.8</ele>
        <time>2017-05-07T07:51:38Z</time>
      </trkpt>
      <trkpt lat="49.2696" lon="2.35879">
        <ele>81.2</ele>
        <time>2017-05-07T07:51:45Z</time>
      </trkpt>
      <trkpt lat="49.26954" lon="2.35872">
        <ele>81.4</ele>
        <time>2017-05-07T07:51:51Z</time>
      </trkpt>
      <trkpt lat="49.26948" lon="2.35865">
        <ele>81.9</ele>
        <time>2017-05-07T07:51:58Z</time>
      </trkpt>
      <trkpt lat="49.26942" lon="2.35856">
        <ele>82</ele>
        <time>2017-05-07T07:52:05Z</time>
      </trkpt>
      <trkpt lat="49.26937" lon="2.35847">
        <ele>82.3</ele>
        <time>2017-05-07T07:52:12Z</time>
      </trkpt>
      <trkpt lat="49.26931" lon="2.35839">
        <ele>82.2</ele>
        <time>2017-05-07T07:52:19Z</time>
      </trkpt>
      <trkpt lat="49.26925" lon="2.35833">
        <ele>81.9</ele>
        <time>2017-05-07T07:52:25Z</time>
      </trkpt>
      <trkpt lat="49.2692" lon="2.35825">
        <ele>81.2</ele>
        <time>2017-05-07T07:52:32Z</time>
      </trkpt>
      <trkpt lat="49.26917" lon="2.3582">
        <ele>80.8</ele>
        <time>2017-05-07T07:52:40Z</time>
      </trkpt>
      <trkpt lat="49.26911" lon="2.35815">
        <ele>81</ele>
        <time>2017-05-07T07:52:45Z</time>
      </trkpt>
      <trkpt lat="49.26904" lon="2.35809">
        <ele>81.3</ele>
        <time>2017-05-07T07:52:51Z</time>
      </trkpt>
      <trkpt lat="49.269" lon="2.35804">
        <ele>81.8</ele>
        <time>2017-05-07T07:52:58Z</time>
      </trkpt>
      <trkpt lat="49.26892" lon="2.358">
        <ele>82.4</ele>
        <time>2017-05-07T07:53:04Z</time>
      </trkpt>
      <trkpt lat="49.26885" lon="2.35797">
        <ele>82.7</ele>
        <time>2017-05-07T07:53:10Z</time>
      </trkpt>
      <trkpt lat="49.26879" lon="2.35795">
        <ele>83.7</ele>
        <time>2017-05-07T07:53:17Z</time>
      </trkpt>
      <trkpt lat="49.26874" lon="2.35798">
        <ele>84.5</ele>
        <time>2017-05-07T07:53:24Z</time>
      </trkpt>
      <trkpt lat="49.26867" lon="2.35801">
        <ele>84.6</ele>
        <time>2017-05-07T07:53:31Z</time>
      </trkpt>
      <trkpt lat="49.26859" lon="2.35803">
        <ele>84</ele>
        <time>2017-05-07T07:53:38Z</time>
      </trkpt>
      <trkpt lat="49.26852" lon="2.35804">
        <ele>83.2</ele>
        <time>2017-05-07T07:53:45Z</time>
      </trkpt>
      <trkpt lat="49.26845" lon="2.35806">
        <ele>83</ele>
        <time>2017-05-07T07:53:51Z</time>
      </trkpt>
      <trkpt lat="49.26838" lon="2.35807">
        <ele>83.1</ele>
        <time>2017-05-07T07:53:57Z</time>
      </trkpt>
      <trkpt lat="49.26829" lon="2.3581">
        <ele>83.5</ele>
        <time>2017-05-07T07:54:04Z</time>
      </trkpt>
      <trkpt lat="49.26822" lon="2.35812">
        <ele>83.5</ele>
        <time>2017-05-07T07:54:11Z</time>
      </trkpt>
      <trkpt lat="49.26814" lon="2.35816">
        <ele>83.3</ele>
        <time>2017-05-07T07:54:18Z</time>
      </trkpt>
      <trkpt lat="49.26807" lon="2.35819">
        <ele>82.7</ele>
        <time>2017-05-07T07:54:24Z</time>
      </trkpt>
      <trkpt lat="49.268" lon="2.35823">
        <ele>82.8</ele>
        <time>2017-05-07T07:54:31Z</time>
      </trkpt>
      <trkpt lat="49.26793" lon="2.35827">
        <ele>83.1</ele>
        <time>2017-05-07T07:54:38Z</time>
      </trkpt>
      <trkpt lat="49.26786" lon="2.3583">
        <ele>83.2</ele>
        <time>2017-05-07T07:54:43Z</time>
      </trkpt>
      <trkpt lat="49.26779" lon="2.35835">
        <ele>83</ele>
        <time>2017-05-07T07:54:49Z</time>
      </trkpt>
      <trkpt lat="49.26772" lon="2.3584">
        <ele>83</ele>
        <time>2017-05-07T07:54:55Z</time>
      </trkpt>
      <trkpt lat="49.26765" lon="2.35842">
        <ele>83.1</ele>
        <time>2017-05-07T07:55:02Z</time>
      </trkpt>
      <trkpt lat="49.26758" lon="2.35847">
        <ele>82.3</ele>
        <time>2017-05-07T07:55:09Z</time>
      </trkpt>
      <trkpt lat="49.26751" lon="2.35852">
        <ele>81.9</ele>
        <time>2017-05-07T07:55:15Z</time>
      </trkpt>
      <trkpt lat="49.26745" lon="2.35856">
        <ele>82.3</ele>
        <time>2017-05-07T07:55:20Z</time>
      </trkpt>
      <trkpt lat="49.26736" lon="2.35862">
        <ele>82.9</ele>
        <time>2017-05-07T07:55:26Z</time>
      </trkpt>
      <trkpt lat="49.2673" lon="2.35868">
        <ele>83.2</ele>
        <time>2017-05-07T07:55:32Z</time>
      </trkpt>
      <trkpt lat="49.26722" lon="2.35872">
        <ele>83.7</ele>
        <time>2017-05-07T07:55:39Z</time>
      </trkpt>
      <trkpt lat="49.26715" lon="2.35877">
        <ele>84.5</ele>
        <time>2017-05-07T07:55:46Z</time>
      </trkpt>
      <trkpt lat="49.26708" lon="2.3588">
        <ele>85.5</ele>
        <time>2017-05-07T07:55:53Z</time>
      </trkpt>
      <trkpt lat="49.26702" lon="2.35886">
        <ele>86</ele>
        <time>2017-05-07T07:55:59Z</time>
      </trkpt>
      <trkpt lat="49.26698" lon="2.35889">
        <ele>86.4</ele>
        <time>2017-05-07T07:56:06Z</time>
      </trkpt>
      <trkpt lat="49.26691" lon="2.35893">
        <ele>86.2</ele>
        <time>2017-05-07T07:56:11Z</time>
      </trkpt>
      <trkpt lat="49.26683" lon="2.35898">
        <ele>85.9</ele>
        <time>2017-05-07T07:56:18Z</time>
      </trkpt>
      <trkpt lat="49.26677" lon="2.35903">
        <ele>85.9</ele>
        <time>2017-05-07T07:56:25Z</time>
      </trkpt>
      <trkpt lat="49.2667" lon="2.3591">
        <ele>85.9</ele>
        <time>2017-05-07T07:56:30Z</time>
      </trkpt>
      <trkpt lat="49.26663" lon="2.35914">
        <ele>85.8</ele>
        <time>2017-05-07T07:56:35Z</time>
      </trkpt>
      <trkpt lat="49.26658" lon="2.35919">
        <ele>85.5</ele>
        <time>2017-05-07T07:56:42Z</time>
      </trkpt>
      <trkpt lat="49.26651" lon="2.35922">
        <ele>85.1</ele>
        <time>2017-05-07T07:56:48Z</time>
      </trkpt>
      <trkpt lat="49.26644" lon="2.35924">
        <ele>84.9</ele>
        <time>2017-05-07T07:56:52Z</time>
      </trkpt>
      <trkpt lat="49.26637" lon="2.3592">
        <ele>84.8</ele>
        <time>2017-05-07T07:56:59Z</time>
      </trkpt>
      <trkpt lat="49.26631" lon="2.35913">
        <ele>85.2</ele>
        <time>2017-05-07T07:57:05Z</time>
      </trkpt>
      <trkpt lat="49.26626" lon="2.35907">
        <ele>85.5</ele>
        <time>2017-05-07T07:57:12Z</time>
      </trkpt>
      <trkpt lat="49.26619" lon="2.35901">
        <ele>86</ele>
        <time>2017-05-07T07:57:19Z</time>
      </trkpt>
      <trkpt lat="49.26612" lon="2.35897">
        <ele>86.3</ele>
        <time>2017-05-07T07:57:24Z</time>
      </trkpt>
      <trkpt lat="49.26606" lon="2.35889">
        <ele>86.5</ele>
        <time>2017-05-07T07:57:29Z</time>
      </trkpt>
      <trkpt lat="49.26601" lon="2.35882">
        <ele>86.8</ele>
        <time>2017-05-07T07:57:36Z</time>
      </trkpt>
      <trkpt lat="49.26596" lon="2.35875">
        <ele>86.9</ele>
        <time>2017-05-07T07:57:43Z</time>
      </trkpt>
      <trkpt lat="49.2659" lon="2.35866">
        <ele>86.9</ele>
        <time>2017-05-07T07:57:49Z</time>
      </trkpt>
      <trkpt lat="49.26583" lon="2.35861">
        <ele>87.4</ele>
        <time>2017-05-07T07:57:55Z</time>
      </trkpt>
      <trkpt lat="49.26576" lon="2.35855">
        <ele>87.6</ele>
        <time>2017-05-07T07:58:01Z</time>
      </trkpt>
      <trkpt lat="49.26569" lon="2.35849">
        <ele>87.7</ele>
        <time>2017-05-07T07:58:08Z</time>
      </trkpt>
      <trkpt lat="49.26563" lon="2.35849">
        <ele>88</ele>
        <time>2017-05-07T07:58:15Z</time>
      </trkpt>
      <trkpt lat="49.26558" lon="2.35858">
        <ele>87.9</ele>
        <time>2017-05-07T07:58:20Z</time>
      </trkpt>
      <trkpt lat="49.26554" lon="2.35867">
        <ele>88.2</ele>
        <time>2017-05-07T07:58:27Z</time>
      </trkpt>
      <trkpt lat="49.26549" lon="2.35877">
        <ele>88.3</ele>
        <time>2017-05-07T07:58:31Z</time>
      </trkpt>
      <trkpt lat="49.26544" lon="2.35885">
        <ele>87.9</ele>
        <time>2017-05-07T07:58:38Z</time>
      </trkpt>
      <trkpt lat="49.2654" lon="2.35893">
        <ele>88.1</ele>
        <time>2017-05-07T07:58:45Z</time>
      </trkpt>
      <trkpt lat="49.26534" lon="2.35901">
        <ele>88</ele>
        <time>2017-05-07T07:58:51Z</time>
      </trkpt>
      <trkpt lat="49.26528" lon="2.35912">
        <ele>87.6</ele>
        <time>2017-05-07T07:58:57Z</time>
      </trkpt>
      <trkpt lat="49.26523" lon="2.35921">
        <ele>86.9</ele>
        <time>2017-05-07T07:59:04Z</time>
      </trkpt>
      <trkpt lat="49.26517" lon="2.3593">
        <ele>87</ele>
        <time>2017-05-07T07:59:10Z</time>
      </trkpt>
      <trkpt lat="49.26517" lon="2.35931">
        <ele>87</ele>
        <time>2017-05-07T07:59:17Z</time>
      </trkpt>
      <trkpt lat="49.26515" lon="2.3594">
        <ele>87.9</ele>
        <time>2017-05-07T07:59:24Z</time>
      </trkpt>
      <trkpt lat="49.26511" lon="2.3595">
        <ele>89.2</ele>
        <time>2017-05-07T07:59:31Z</time>
      </trkpt>
      <trkpt lat="49.26513" lon="2.35951">
        <ele>89.3</ele>
        <time>2017-05-07T07:59:38Z</time>
      </trkpt>
      <trkpt lat="49.2651" lon="2.35953">
        <ele>89</ele>
        <time>2017-05-07T07:59:49Z</time>
      </trkpt>
      <trkpt lat="49.26509" lon="2.35956">
        <ele>88.7</ele>
        <time>2017-05-07T08:00:06Z</time>
      </trkpt>
      <trkpt lat="49.26502" lon="2.35963">
        <ele>86.1</ele>
        <time>2017-05-07T08:00:57Z</time>
      </trkpt>
      <trkpt lat="49.26499" lon="2.3597">
        <ele>86.5</ele>
        <time>2017-05-07T08:01:04Z</time>
      </trkpt>
      <trkpt lat="49.26496" lon="2.35974">
        <ele>86.4</ele>
        <time>2017-05-07T08:01:11Z</time>
      </trkpt>
      <trkpt lat="49.26494" lon="2.35981">
        <ele>86.6</ele>
        <time>2017-05-07T08:01:18Z</time>
      </trkpt>
      <trkpt lat="49.26491" lon="2.35985">
        <ele>86.5</ele>
        <time>2017-05-07T08:01:25Z</time>
      </trkpt>
      <trkpt lat="49.26491" lon="2.35992">
        <ele>87.8</ele>
        <time>2017-05-07T08:01:42Z</time>
      </trkpt>
      <trkpt lat="49.26486" lon="2.35999">
        <ele>88.7</ele>
        <time>2017-05-07T08:01:49Z</time>
      </trkpt>
      <trkpt lat="49.26482" lon="2.36004">
        <ele>89.8</ele>
        <time>2017-05-07T08:01:56Z</time>
      </trkpt>
      <trkpt lat="49.26479" lon="2.36013">
        <ele>90.9</ele>
        <time>2017-05-07T08:02:03Z</time>
      </trkpt>
      <trkpt lat="49.26473" lon="2.36023">
        <ele>91.9</ele>
        <time>2017-05-07T08:02:09Z</time>
      </trkpt>
      <trkpt lat="49.26469" lon="2.36033">
        <ele>92.4</ele>
        <time>2017-05-07T08:02:15Z</time>
      </trkpt>
      <trkpt lat="49.26465" lon="2.36043">
        <ele>92.7</ele>
        <time>2017-05-07T08:02:21Z</time>
      </trkpt>
      <trkpt lat="49.26468" lon="2.36054">
        <ele>92.9</ele>
        <time>2017-05-07T08:02:27Z</time>
      </trkpt>
      <trkpt lat="49.26465" lon="2.36062">
        <ele>93.3</ele>
        <time>2017-05-07T08:02:34Z</time>
      </trkpt>
      <trkpt lat="49.26461" lon="2.36073">
        <ele>93.8</ele>
        <time>2017-05-07T08:02:41Z</time>
      </trkpt>
      <trkpt lat="49.26457" lon="2.36082">
        <ele>94.1</ele>
        <time>2017-05-07T08:02:46Z</time>
      </trkpt>
      <trkpt lat="49.26451" lon="2.36089">
        <ele>94.1</ele>
        <time>2017-05-07T08:02:52Z</time>
      </trkpt>
      <trkpt lat="49.26444" lon="2.36098">
        <ele>94.6</ele>
        <time>2017-05-07T08:02:59Z</time>
      </trkpt>
      <trkpt lat="49.2644" lon="2.36108">
        <ele>95.2</ele>
        <time>2017-05-07T08:03:05Z</time>
      </trkpt>
      <trkpt lat="49.26434" lon="2.36117">
        <ele>96</ele>
        <time>2017-05-07T08:03:12Z</time>
      </trkpt>
      <trkpt lat="49.26427" lon="2.36123">
        <ele>96.5</ele>
        <time>2017-05-07T08:03:17Z</time>
      </trkpt>
      <trkpt lat="49.26422" lon="2.36133">
        <ele>96.9</ele>
        <time>2017-05-07T08:03:23Z</time>
      </trkpt>
      <trkpt lat="49.26419" lon="2.36144">
        <ele>97</ele>
        <time>2017-05-07T08:03:29Z</time>
      </trkpt>
      <trkpt lat="49.26419" lon="2.36155">
        <ele>96.8</ele>
        <time>2017-05-07T08:03:36Z</time>
      </trkpt>
      <trkpt lat="49.26413" lon="2.36164">
        <ele>97.1</ele>
        <time>2017-05-07T08:03:42Z</time>
      </trkpt>
      <trkpt lat="49.26409" lon="2.36169">
        <ele>97.1</ele>
        <time>2017-05-07T08:03:49Z</time>
      </trkpt>
      <trkpt lat="49.26404" lon="2.36179">
        <ele>97.4</ele>
        <time>2017-05-07T08:03:56Z</time>
      </trkpt>
      <trkpt lat="49.26397" lon="2.36186">
        <ele>97.9</ele>
        <time>2017-05-07T08:04:02Z</time>
      </trkpt>
      <trkpt lat="49.2639" lon="2.36193">
        <ele>98.5</ele>
        <time>2017-05-07T08:04:08Z</time>
      </trkpt>
      <trkpt lat="49.26388" lon="2.36202">
        <ele>98.5</ele>
        <time>2017-05-07T08:04:15Z</time>
      </trkpt>
      <trkpt lat="49.26384" lon="2.36212">
        <ele>97.8</ele>
        <time>2017-05-07T08:04:22Z</time>
      </trkpt>
      <trkpt lat="49.2638" lon="2.36222">
        <ele>97.3</ele>
        <time>2017-05-07T08:04:27Z</time>
      </trkpt>
      <trkpt lat="49.26375" lon="2.36231">
        <ele>97.1</ele>
        <time>2017-05-07T08:04:34Z</time>
      </trkpt>
      <trkpt lat="49.26368" lon="2.36242">
        <ele>97.5</ele>
        <time>2017-05-07T08:04:41Z</time>
      </trkpt>
      <trkpt lat="49.26365" lon="2.3625">
        <ele>97.6</ele>
        <time>2017-05-07T08:04:48Z</time>
      </trkpt>
      <trkpt lat="49.2636" lon="2.36259">
        <ele>97.5</ele>
        <time>2017-05-07T08:04:50Z</time>
      </trkpt>
      <trkpt lat="49.26359" lon="2.36268">
        <ele>97.3</ele>
        <time>2017-05-07T08:04:57Z</time>
      </trkpt>
      <trkpt lat="49.26358" lon="2.36275">
        <ele>97.5</ele>
        <time>2017-05-07T08:05:04Z</time>
      </trkpt>
      <trkpt lat="49.26355" lon="2.36285">
        <ele>97.5</ele>
        <time>2017-05-07T08:05:09Z</time>
      </trkpt>
      <trkpt lat="49.26351" lon="2.36298">
        <ele>97.5</ele>
        <time>2017-05-07T08:05:14Z</time>
      </trkpt>
      <trkpt lat="49.26349" lon="2.36305">
        <ele>99.3</ele>
        <time>2017-05-07T08:05:21Z</time>
      </trkpt>
      <trkpt lat="49.26344" lon="2.36314">
        <ele>100.9</ele>
        <time>2017-05-07T08:05:26Z</time>
      </trkpt>
      <trkpt lat="49.26344" lon="2.36327">
        <ele>102.6</ele>
        <time>2017-05-07T08:05:33Z</time>
      </trkpt>
      <trkpt lat="49.2634" lon="2.36336">
        <ele>103</ele>
        <time>2017-05-07T08:05:38Z</time>
      </trkpt>
      <trkpt lat="49.2634" lon="2.36344">
        <ele>102.4</ele>
        <time>2017-05-07T08:05:45Z</time>
      </trkpt>
      <trkpt lat="49.26342" lon="2.36358">
        <ele>102.5</ele>
        <time>2017-05-07T08:05:51Z</time>
      </trkpt>
      <trkpt lat="49.26341" lon="2.36369">
        <ele>103.6</ele>
        <time>2017-05-07T08:05:57Z</time>
      </trkpt>
      <trkpt lat="49.26335" lon="2.36379">
        <ele>104.3</ele>
        <time>2017-05-07T08:06:02Z</time>
      </trkpt>
      <trkpt lat="49.26332" lon="2.36387">
        <ele>105.1</ele>
        <time>2017-05-07T08:06:09Z</time>
      </trkpt>
      <trkpt lat="49.26326" lon="2.36394">
        <ele>105.4</ele>
        <time>2017-05-07T08:06:14Z</time>
      </trkpt>
      <trkpt lat="49.26319" lon="2.36399">
        <ele>105</ele>
        <time>2017-05-07T08:06:19Z</time>
      </trkpt>
      <trkpt lat="49.26314" lon="2.3641">
        <ele>104.9</ele>
        <time>2017-05-07T08:06:24Z</time>
      </trkpt>
      <trkpt lat="49.26311" lon="2.36426">
        <ele>104.2</ele>
        <time>2017-05-07T08:06:31Z</time>
      </trkpt>
      <trkpt lat="49.26306" lon="2.36434">
        <ele>102.8</ele>
        <time>2017-05-07T08:06:34Z</time>
      </trkpt>
      <trkpt lat="49.26299" lon="2.36441">
        <ele>101.5</ele>
        <time>2017-05-07T08:06:38Z</time>
      </trkpt>
      <trkpt lat="49.26297" lon="2.36447">
        <ele>101.8</ele>
        <time>2017-05-07T08:06:45Z</time>
      </trkpt>
      <trkpt lat="49.26295" lon="2.36455">
        <ele>102.1</ele>
        <time>2017-05-07T08:06:52Z</time>
      </trkpt>
      <trkpt lat="49.26297" lon="2.36466">
        <ele>101.8</ele>
        <time>2017-05-07T08:06:59Z</time>
      </trkpt>
      <trkpt lat="49.26296" lon="2.36479">
        <ele>102.2</ele>
        <time>2017-05-07T08:07:06Z</time>
      </trkpt>
      <trkpt lat="49.26294" lon="2.36486">
        <ele>102.5</ele>
        <time>2017-05-07T08:07:13Z</time>
      </trkpt>
      <trkpt lat="49.26294" lon="2.36498">
        <ele>101.6</ele>
        <time>2017-05-07T08:07:20Z</time>
      </trkpt>
      <trkpt lat="49.26292" lon="2.36509">
        <ele>100.3</ele>
        <time>2017-05-07T08:07:27Z</time>
      </trkpt>
      <trkpt lat="49.26287" lon="2.36518">
        <ele>99.6</ele>
        <time>2017-05-07T08:07:34Z</time>
      </trkpt>
      <trkpt lat="49.26285" lon="2.36524">
        <ele>98.5</ele>
        <time>2017-05-07T08:07:41Z</time>
      </trkpt>
      <trkpt lat="49.2628" lon="2.36534">
        <ele>97.4</ele>
        <time>2017-05-07T08:07:47Z</time>
      </trkpt>
      <trkpt lat="49.26274" lon="2.36544">
        <ele>96.4</ele>
        <time>2017-05-07T08:07:53Z</time>
      </trkpt>
      <trkpt lat="49.26268" lon="2.36555">
        <ele>95.3</ele>
        <time>2017-05-07T08:08:00Z</time>
      </trkpt>
      <trkpt lat="49.26265" lon="2.36568">
        <ele>94.5</ele>
        <time>2017-05-07T08:08:07Z</time>
      </trkpt>
      <trkpt lat="49.26268" lon="2.36571">
        <ele>93.7</ele>
        <time>2017-05-07T08:08:14Z</time>
      </trkpt>
      <trkpt lat="49.26268" lon="2.3658">
        <ele>94</ele>
        <time>2017-05-07T08:08:21Z</time>
      </trkpt>
      <trkpt lat="49.26261" lon="2.36591">
        <ele>94.4</ele>
        <time>2017-05-07T08:08:27Z</time>
      </trkpt>
      <trkpt lat="49.26254" lon="2.36597">
        <ele>94.6</ele>
        <time>2017-05-07T08:08:29Z</time>
      </trkpt>
      <trkpt lat="49.26252" lon="2.36608">
        <ele>95.2</ele>
        <time>2017-05-07T08:08:34Z</time>
      </trkpt>
      <trkpt lat="49.26249" lon="2.36616">
        <ele>95.8</ele>
        <time>2017-05-07T08:08:41Z</time>
      </trkpt>
      <trkpt lat="49.26251" lon="2.36628">
        <ele>96.7</ele>
        <time>2017-05-07T08:08:46Z</time>
      </trkpt>
      <trkpt lat="49.26254" lon="2.36639">
        <ele>98</ele>
        <time>2017-05-07T08:08:54Z</time>
      </trkpt>
      <trkpt lat="49.26253" lon="2.36647">
        <ele>99</ele>
        <time>2017-05-07T08:09:01Z</time>
      </trkpt>
      <trkpt lat="49.26245" lon="2.36654">
        <ele>99.6</ele>
        <time>2017-05-07T08:09:06Z</time>
      </trkpt>
      <trkpt lat="49.26242" lon="2.36668">
        <ele>100.4</ele>
        <time>2017-05-07T08:09:13Z</time>
      </trkpt>
      <trkpt lat="49.26236" lon="2.36675">
        <ele>100.8</ele>
        <time>2017-05-07T08:09:18Z</time>
      </trkpt>
      <trkpt lat="49.26232" lon="2.36685">
        <ele>100.5</ele>
        <time>2017-05-07T08:09:24Z</time>
      </trkpt>
      <trkpt lat="49.26229" lon="2.36695">
        <ele>100.1</ele>
        <time>2017-05-07T08:09:30Z</time>
      </trkpt>
      <trkpt lat="49.26228" lon="2.36703">
        <ele>100</ele>
        <time>2017-05-07T08:09:37Z</time>
      </trkpt>
      <trkpt lat="49.26229" lon="2.36715">
        <ele>99.8</ele>
        <time>2017-05-07T08:09:44Z</time>
      </trkpt>
      <trkpt lat="49.26226" lon="2.36725">
        <ele>99.7</ele>
        <time>2017-05-07T08:09:48Z</time>
      </trkpt>
      <trkpt lat="49.26223" lon="2.3673">
        <ele>99.9</ele>
        <time>2017-05-07T08:09:55Z</time>
      </trkpt>
      <trkpt lat="49.26218" lon="2.36744">
        <ele>99.7</ele>
        <time>2017-05-07T08:10:02Z</time>
      </trkpt>
      <trkpt lat="49.26213" lon="2.36754">
        <ele>100</ele>
        <time>2017-05-07T08:10:08Z</time>
      </trkpt>
      <trkpt lat="49.26206" lon="2.36763">
        <ele>100.7</ele>
        <time>2017-05-07T08:10:13Z</time>
      </trkpt>
      <trkpt lat="49.26202" lon="2.36772">
        <ele>101.6</ele>
        <time>2017-05-07T08:10:19Z</time>
      </trkpt>
      <trkpt lat="49.262" lon="2.36784">
        <ele>101.6</ele>
        <time>2017-05-07T08:10:24Z</time>
      </trkpt>
      <trkpt lat="49.26198" lon="2.36796">
        <ele>101.9</ele>
        <time>2017-05-07T08:10:30Z</time>
      </trkpt>
      <trkpt lat="49.26198" lon="2.36803">
        <ele>102.1</ele>
        <time>2017-05-07T08:10:37Z</time>
      </trkpt>
      <trkpt lat="49.26196" lon="2.3681">
        <ele>101.3</ele>
        <time>2017-05-07T08:10:44Z</time>
      </trkpt>
      <trkpt lat="49.26196" lon="2.36822">
        <ele>100.9</ele>
        <time>2017-05-07T08:10:49Z</time>
      </trkpt>
      <trkpt lat="49.26199" lon="2.36834">
        <ele>100.8</ele>
        <time>2017-05-07T08:10:53Z</time>
      </trkpt>
      <trkpt lat="49.26195" lon="2.36843">
        <ele>100.7</ele>
        <time>2017-05-07T08:10:59Z</time>
      </trkpt>
      <trkpt lat="49.26196" lon="2.36852">
        <ele>100.3</ele>
        <time>2017-05-07T08:11:06Z</time>
      </trkpt>
      <trkpt lat="49.2619" lon="2.36858">
        <ele>99.8</ele>
        <time>2017-05-07T08:11:11Z</time>
      </trkpt>
      <trkpt lat="49.26187" lon="2.36869">
        <ele>98.7</ele>
        <time>2017-05-07T08:11:16Z</time>
      </trkpt>
      <trkpt lat="49.26183" lon="2.36881">
        <ele>97.6</ele>
        <time>2017-05-07T08:11:23Z</time>
      </trkpt>
      <trkpt lat="49.26177" lon="2.3689">
        <ele>97.3</ele>
        <time>2017-05-07T08:11:26Z</time>
      </trkpt>
      <trkpt lat="49.26178" lon="2.36896">
        <ele>96.4</ele>
        <time>2017-05-07T08:11:33Z</time>
      </trkpt>
      <trkpt lat="49.26176" lon="2.36905">
        <ele>95.8</ele>
        <time>2017-05-07T08:11:40Z</time>
      </trkpt>
      <trkpt lat="49.26171" lon="2.36913">
        <ele>97</ele>
        <time>2017-05-07T08:11:46Z</time>
      </trkpt>
      <trkpt lat="49.26167" lon="2.36923">
        <ele>98</ele>
        <time>2017-05-07T08:11:50Z</time>
      </trkpt>
      <trkpt lat="49.26165" lon="2.36935">
        <ele>98.3</ele>
        <time>2017-05-07T08:11:54Z</time>
      </trkpt>
      <trkpt lat="49.26166" lon="2.36943">
        <ele>98.7</ele>
        <time>2017-05-07T08:12:01Z</time>
      </trkpt>
      <trkpt lat="49.26165" lon="2.36953">
        <ele>98.3</ele>
        <time>2017-05-07T08:12:08Z</time>
      </trkpt>
      <trkpt lat="49.26162" lon="2.36963">
        <ele>97.2</ele>
        <time>2017-05-07T08:12:15Z</time>
      </trkpt>
      <trkpt lat="49.26162" lon="2.36975">
        <ele>97.2</ele>
        <time>2017-05-07T08:12:19Z</time>
      </trkpt>
      <trkpt lat="49.26159" lon="2.36984">
        <ele>98.3</ele>
        <time>2017-05-07T08:12:26Z</time>
      </trkpt>
      <trkpt lat="49.26159" lon="2.36996">
        <ele>98.6</ele>
        <time>2017-05-07T08:12:33Z</time>
      </trkpt>
      <trkpt lat="49.26154" lon="2.37008">
        <ele>98.8</ele>
        <time>2017-05-07T08:12:39Z</time>
      </trkpt>
      <trkpt lat="49.26154" lon="2.37019">
        <ele>99.5</ele>
        <time>2017-05-07T08:12:46Z</time>
      </trkpt>
      <trkpt lat="49.26158" lon="2.37029">
        <ele>99.6</ele>
        <time>2017-05-07T08:12:53Z</time>
      </trkpt>
      <trkpt lat="49.26161" lon="2.37039">
        <ele>100.3</ele>
        <time>2017-05-07T08:13:00Z</time>
      </trkpt>
      <trkpt lat="49.26159" lon="2.37051">
        <ele>101.1</ele>
        <time>2017-05-07T08:13:06Z</time>
      </trkpt>
      <trkpt lat="49.26151" lon="2.37058">
        <ele>101.8</ele>
        <time>2017-05-07T08:13:11Z</time>
      </trkpt>
      <trkpt lat="49.26146" lon="2.37066">
        <ele>102.8</ele>
        <time>2017-05-07T08:13:16Z</time>
      </trkpt>
      <trkpt lat="49.26144" lon="2.37072">
        <ele>104</ele>
        <time>2017-05-07T08:13:23Z</time>
      </trkpt>
      <trkpt lat="49.26143" lon="2.37086">
        <ele>104.5</ele>
        <time>2017-05-07T08:13:27Z</time>
      </trkpt>
      <trkpt lat="49.26144" lon="2.37097">
        <ele>105.5</ele>
        <time>2017-05-07T08:13:31Z</time>
      </trkpt>
      <trkpt lat="49.26144" lon="2.37106">
        <ele>106.4</ele>
        <time>2017-05-07T08:13:38Z</time>
      </trkpt>
      <trkpt lat="49.26142" lon="2.37113">
        <ele>107.2</ele>
        <time>2017-05-07T08:13:45Z</time>
      </trkpt>
      <trkpt lat="49.26136" lon="2.3712">
        <ele>111.1</ele>
        <time>2017-05-07T08:13:49Z</time>
      </trkpt>
      <trkpt lat="49.26137" lon="2.37132">
        <ele>111.9</ele>
        <time>2017-05-07T08:13:53Z</time>
      </trkpt>
      <trkpt lat="49.26133" lon="2.37144">
        <ele>113.1</ele>
        <time>2017-05-07T08:13:58Z</time>
      </trkpt>
      <trkpt lat="49.26132" lon="2.37155">
        <ele>113.5</ele>
        <time>2017-05-07T08:14:02Z</time>
      </trkpt>
      <trkpt lat="49.26133" lon="2.37163">
        <ele>113.7</ele>
        <time>2017-05-07T08:14:09Z</time>
      </trkpt>
      <trkpt lat="49.26134" lon="2.37173">
        <ele>113.3</ele>
        <time>2017-05-07T08:14:16Z</time>
      </trkpt>
      <trkpt lat="49.26133" lon="2.3719">
        <ele>112.9</ele>
        <time>2017-05-07T08:14:22Z</time>
      </trkpt>
      <trkpt lat="49.26129" lon="2.37199">
        <ele>112.5</ele>
        <time>2017-05-07T08:14:24Z</time>
      </trkpt>
      <trkpt lat="49.26123" lon="2.37208">
        <ele>112.2</ele>
        <time>2017-05-07T08:14:27Z</time>
      </trkpt>
      <trkpt lat="49.26116" lon="2.37212">
        <ele>112.1</ele>
        <time>2017-05-07T08:14:31Z</time>
      </trkpt>
      <trkpt lat="49.26116" lon="2.37218">
        <ele>112.1</ele>
        <time>2017-05-07T08:14:38Z</time>
      </trkpt>
      <trkpt lat="49.26112" lon="2.37228">
        <ele>111.4</ele>
        <time>2017-05-07T08:14:43Z</time>
      </trkpt>
      <trkpt lat="49.26112" lon="2.37239">
        <ele>110.7</ele>
        <time>2017-05-07T08:14:50Z</time>
      </trkpt>
      <trkpt lat="49.26109" lon="2.3724">
        <ele>109.6</ele>
        <time>2017-05-07T08:14:57Z</time>
      </trkpt>
      <trkpt lat="49.26108" lon="2.37242">
        <ele>108.5</ele>
        <time>2017-05-07T08:15:04Z</time>
      </trkpt>
      <trkpt lat="49.26104" lon="2.37245">
        <ele>108.6</ele>
        <time>2017-05-07T08:15:11Z</time>
      </trkpt>
      <trkpt lat="49.26102" lon="2.37247">
        <ele>108.3</ele>
        <time>2017-05-07T08:15:18Z</time>
      </trkpt>
      <trkpt lat="49.26102" lon="2.3725">
        <ele>105.4</ele>
        <time>2017-05-07T08:15:33Z</time>
      </trkpt>
      <trkpt lat="49.26103" lon="2.37246">
        <ele>97.5</ele>
        <time>2017-05-07T08:16:56Z</time>
      </trkpt>
      <trkpt lat="49.26106" lon="2.37247">
        <ele>96.8</ele>
        <time>2017-05-07T08:17:03Z</time>
      </trkpt>
      <trkpt lat="49.26107" lon="2.37248">
        <ele>96.1</ele>
        <time>2017-05-07T08:16:45Z</time>
      </trkpt>
      <trkpt lat="49.26112" lon="2.37258">
        <ele>95</ele>
        <time>2017-05-07T08:17:57Z</time>
      </trkpt>
      <trkpt lat="49.26113" lon="2.37263">
        <ele>94.1</ele>
        <time>2017-05-07T08:18:04Z</time>
      </trkpt>
      <trkpt lat="49.26113" lon="2.37261">
        <ele>93.3</ele>
        <time>2017-05-07T08:17:51Z</time>
      </trkpt>
      <trkpt lat="49.26116" lon="2.37262">
        <ele>91.8</ele>
        <time>2017-05-07T08:18:00Z</time>
      </trkpt>
      <trkpt lat="49.26116" lon="2.37269">
        <ele>88.4</ele>
        <time>2017-05-07T08:19:35Z</time>
      </trkpt>
      <trkpt lat="49.26116" lon="2.37272">
        <ele>87.5</ele>
        <time>2017-05-07T08:19:42Z</time>
      </trkpt>
      <trkpt lat="49.26112" lon="2.37282">
        <ele>89.4</ele>
        <time>2017-05-07T08:19:56Z</time>
      </trkpt>
      <trkpt lat="49.26107" lon="2.37288">
        <ele>91.1</ele>
        <time>2017-05-07T08:20:03Z</time>
      </trkpt>
      <trkpt lat="49.261" lon="2.37291">
        <ele>91.9</ele>
        <time>2017-05-07T08:20:07Z</time>
      </trkpt>
      <trkpt lat="49.26092" lon="2.37293">
        <ele>93.3</ele>
        <time>2017-05-07T08:20:12Z</time>
      </trkpt>
      <trkpt lat="49.26087" lon="2.37302">
        <ele>95.1</ele>
        <time>2017-05-07T08:20:17Z</time>
      </trkpt>
      <trkpt lat="49.26083" lon="2.3731">
        <ele>96.2</ele>
        <time>2017-05-07T08:20:22Z</time>
      </trkpt>
      <trkpt lat="49.2608" lon="2.37322">
        <ele>96.7</ele>
        <time>2017-05-07T08:20:29Z</time>
      </trkpt>
      <trkpt lat="49.26085" lon="2.37336">
        <ele>96.5</ele>
        <time>2017-05-07T08:20:33Z</time>
      </trkpt>
      <trkpt lat="49.26082" lon="2.37344">
        <ele>96.1</ele>
        <time>2017-05-07T08:20:40Z</time>
      </trkpt>
      <trkpt lat="49.26078" lon="2.37351">
        <ele>95</ele>
        <time>2017-05-07T08:20:47Z</time>
      </trkpt>
      <trkpt lat="49.26073" lon="2.37356">
        <ele>94.2</ele>
        <time>2017-05-07T08:20:54Z</time>
      </trkpt>
      <trkpt lat="49.26065" lon="2.37361">
        <ele>92.8</ele>
        <time>2017-05-07T08:21:00Z</time>
      </trkpt>
      <trkpt lat="49.26057" lon="2.37364">
        <ele>91.7</ele>
        <time>2017-05-07T08:21:05Z</time>
      </trkpt>
      <trkpt lat="49.2605" lon="2.3737">
        <ele>90.5</ele>
        <time>2017-05-07T08:21:12Z</time>
      </trkpt>
      <trkpt lat="49.26044" lon="2.37374">
        <ele>89.8</ele>
        <time>2017-05-07T08:21:17Z</time>
      </trkpt>
      <trkpt lat="49.26046" lon="2.37387">
        <ele>89.4</ele>
        <time>2017-05-07T08:21:24Z</time>
      </trkpt>
      <trkpt lat="49.26041" lon="2.37392">
        <ele>89.6</ele>
        <time>2017-05-07T08:21:31Z</time>
      </trkpt>
      <trkpt lat="49.26033" lon="2.37396">
        <ele>89.8</ele>
        <time>2017-05-07T08:21:36Z</time>
      </trkpt>
      <trkpt lat="49.26028" lon="2.37399">
        <ele>89.8</ele>
        <time>2017-05-07T08:21:43Z</time>
      </trkpt>
      <trkpt lat="49.26024" lon="2.37398">
        <ele>89.1</ele>
        <time>2017-05-07T08:21:50Z</time>
      </trkpt>
      <trkpt lat="49.26018" lon="2.3739">
        <ele>88.1</ele>
        <time>2017-05-07T08:21:57Z</time>
      </trkpt>
      <trkpt lat="49.2601" lon="2.37386">
        <ele>87</ele>
        <time>2017-05-07T08:22:03Z</time>
      </trkpt>
      <trkpt lat="49.26007" lon="2.3738">
        <ele>85.2</ele>
        <time>2017-05-07T08:22:10Z</time>
      </trkpt>
      <trkpt lat="49.26" lon="2.37377">
        <ele>83.6</ele>
        <time>2017-05-07T08:22:17Z</time>
      </trkpt>
      <trkpt lat="49.25993" lon="2.37374">
        <ele>83.1</ele>
        <time>2017-05-07T08:22:19Z</time>
      </trkpt>
      <trkpt lat="49.2599" lon="2.37369">
        <ele>82.4</ele>
        <time>2017-05-07T08:22:26Z</time>
      </trkpt>
      <trkpt lat="49.25985" lon="2.37366">
        <ele>82.6</ele>
        <time>2017-05-07T08:22:33Z</time>
      </trkpt>
      <trkpt lat="49.25978" lon="2.37369">
        <ele>82.6</ele>
        <time>2017-05-07T08:22:40Z</time>
      </trkpt>
      <trkpt lat="49.2597" lon="2.37364">
        <ele>82.6</ele>
        <time>2017-05-07T08:22:45Z</time>
      </trkpt>
      <trkpt lat="49.2596" lon="2.37358">
        <ele>83</ele>
        <time>2017-05-07T08:22:50Z</time>
      </trkpt>
      <trkpt lat="49.25954" lon="2.37356">
        <ele>83.6</ele>
        <time>2017-05-07T08:22:57Z</time>
      </trkpt>
      <trkpt lat="49.25946" lon="2.37353">
        <ele>83.9</ele>
        <time>2017-05-07T08:23:04Z</time>
      </trkpt>
      <trkpt lat="49.25943" lon="2.37353">
        <ele>84.2</ele>
        <time>2017-05-07T08:23:11Z</time>
      </trkpt>
      <trkpt lat="49.25934" lon="2.37352">
        <ele>84.9</ele>
        <time>2017-05-07T08:23:17Z</time>
      </trkpt>
      <trkpt lat="49.25925" lon="2.37351">
        <ele>85.1</ele>
        <time>2017-05-07T08:23:22Z</time>
      </trkpt>
      <trkpt lat="49.25918" lon="2.37351">
        <ele>85.5</ele>
        <time>2017-05-07T08:23:29Z</time>
      </trkpt>
      <trkpt lat="49.25914" lon="2.37349">
        <ele>85.9</ele>
        <time>2017-05-07T08:23:36Z</time>
      </trkpt>
      <trkpt lat="49.25911" lon="2.37346">
        <ele>85.8</ele>
        <time>2017-05-07T08:23:43Z</time>
      </trkpt>
      <trkpt lat="49.25905" lon="2.37338">
        <ele>85.8</ele>
        <time>2017-05-07T08:23:47Z</time>
      </trkpt>
      <trkpt lat="49.25898" lon="2.37329">
        <ele>86.3</ele>
        <time>2017-05-07T08:23:56Z</time>
      </trkpt>
      <trkpt lat="49.25892" lon="2.37323">
        <ele>87.2</ele>
        <time>2017-05-07T08:24:01Z</time>
      </trkpt>
      <trkpt lat="49.25886" lon="2.37322">
        <ele>87.6</ele>
        <time>2017-05-07T08:24:08Z</time>
      </trkpt>
      <trkpt lat="49.25878" lon="2.3732">
        <ele>87.7</ele>
        <time>2017-05-07T08:24:11Z</time>
      </trkpt>
      <trkpt lat="49.25872" lon="2.37321">
        <ele>87.2</ele>
        <time>2017-05-07T08:24:18Z</time>
      </trkpt>
      <trkpt lat="49.25864" lon="2.37321">
        <ele>87.1</ele>
        <time>2017-05-07T08:24:20Z</time>
      </trkpt>
      <trkpt lat="49.25856" lon="2.37326">
        <ele>87</ele>
        <time>2017-05-07T08:24:24Z</time>
      </trkpt>
      <trkpt lat="49.25849" lon="2.37322">
        <ele>87.6</ele>
        <time>2017-05-07T08:24:30Z</time>
      </trkpt>
      <trkpt lat="49.25842" lon="2.37318">
        <ele>88.3</ele>
        <time>2017-05-07T08:24:37Z</time>
      </trkpt>
      <trkpt lat="49.25834" lon="2.37324">
        <ele>89.4</ele>
        <time>2017-05-07T08:24:44Z</time>
      </trkpt>
      <trkpt lat="49.25827" lon="2.37323">
        <ele>89.8</ele>
        <time>2017-05-07T08:24:49Z</time>
      </trkpt>
      <trkpt lat="49.25821" lon="2.37318">
        <ele>89.9</ele>
        <time>2017-05-07T08:24:56Z</time>
      </trkpt>
      <trkpt lat="49.25813" lon="2.37316">
        <ele>90.5</ele>
        <time>2017-05-07T08:25:03Z</time>
      </trkpt>
      <trkpt lat="49.25809" lon="2.37312">
        <ele>90.8</ele>
        <time>2017-05-07T08:25:10Z</time>
      </trkpt>
      <trkpt lat="49.25804" lon="2.37313">
        <ele>90.3</ele>
        <time>2017-05-07T08:25:17Z</time>
      </trkpt>
      <trkpt lat="49.25798" lon="2.3731">
        <ele>90.1</ele>
        <time>2017-05-07T08:25:24Z</time>
      </trkpt>
      <trkpt lat="49.25799" lon="2.37302">
        <ele>90</ele>
        <time>2017-05-07T08:25:31Z</time>
      </trkpt>
      <trkpt lat="49.25798" lon="2.37299">
        <ele>89.7</ele>
        <time>2017-05-07T08:25:38Z</time>
      </trkpt>
      <trkpt lat="49.25798" lon="2.37293">
        <ele>89.2</ele>
        <time>2017-05-07T08:25:45Z</time>
      </trkpt>
      <trkpt lat="49.25798" lon="2.37292">
        <ele>88.7</ele>
        <time>2017-05-07T08:25:52Z</time>
      </trkpt>
      <trkpt lat="49.25801" lon="2.37292">
        <ele>88.3</ele>
        <time>2017-05-07T08:25:59Z</time>
      </trkpt>
      <trkpt lat="49.25801" lon="2.37291">
        <ele>87.6</ele>
        <time>2017-05-07T08:26:06Z</time>
      </trkpt>
      <trkpt lat="49.25802" lon="2.37305">
        <ele>89.3</ele>
        <time>2017-05-07T08:27:51Z</time>
      </trkpt>
      <trkpt lat="49.25802" lon="2.37321">
        <ele>88.1</ele>
        <time>2017-05-07T08:28:03Z</time>
      </trkpt>
      <trkpt lat="49.25799" lon="2.37332">
        <ele>88</ele>
        <time>2017-05-07T08:28:10Z</time>
      </trkpt>
      <trkpt lat="49.25795" lon="2.37342">
        <ele>88</ele>
        <time>2017-05-07T08:28:14Z</time>
      </trkpt>
      <trkpt lat="49.2579" lon="2.37347">
        <ele>87.7</ele>
        <time>2017-05-07T08:28:21Z</time>
      </trkpt>
      <trkpt lat="49.25787" lon="2.37356">
        <ele>87.2</ele>
        <time>2017-05-07T08:28:28Z</time>
      </trkpt>
      <trkpt lat="49.2578" lon="2.37363">
        <ele>87.1</ele>
        <time>2017-05-07T08:28:35Z</time>
      </trkpt>
      <trkpt lat="49.25774" lon="2.37369">
        <ele>87.4</ele>
        <time>2017-05-07T08:28:42Z</time>
      </trkpt>
      <trkpt lat="49.2577" lon="2.37374">
        <ele>88.3</ele>
        <time>2017-05-07T08:28:49Z</time>
      </trkpt>
      <trkpt lat="49.25768" lon="2.37385">
        <ele>88.9</ele>
        <time>2017-05-07T08:28:54Z</time>
      </trkpt>
      <trkpt lat="49.25761" lon="2.37386">
        <ele>89.6</ele>
        <time>2017-05-07T08:29:01Z</time>
      </trkpt>
      <trkpt lat="49.25752" lon="2.37388">
        <ele>90.1</ele>
        <time>2017-05-07T08:29:06Z</time>
      </trkpt>
      <trkpt lat="49.25745" lon="2.37394">
        <ele>90.8</ele>
        <time>2017-05-07T08:29:11Z</time>
      </trkpt>
      <trkpt lat="49.25737" lon="2.37399">
        <ele>92.6</ele>
        <time>2017-05-07T08:29:18Z</time>
      </trkpt>
      <trkpt lat="49.2573" lon="2.37408">
        <ele>93.6</ele>
        <time>2017-05-07T08:29:26Z</time>
      </trkpt>
      <trkpt lat="49.25724" lon="2.37417">
        <ele>93.2</ele>
        <time>2017-05-07T08:29:31Z</time>
      </trkpt>
      <trkpt lat="49.25718" lon="2.37425">
        <ele>93.3</ele>
        <time>2017-05-07T08:29:35Z</time>
      </trkpt>
      <trkpt lat="49.25711" lon="2.3743">
        <ele>93.9</ele>
        <time>2017-05-07T08:29:41Z</time>
      </trkpt>
      <trkpt lat="49.25703" lon="2.37437">
        <ele>94.5</ele>
        <time>2017-05-07T08:29:46Z</time>
      </trkpt>
      <trkpt lat="49.25697" lon="2.37439">
        <ele>95.8</ele>
        <time>2017-05-07T08:29:53Z</time>
      </trkpt>
      <trkpt lat="49.2569" lon="2.37442">
        <ele>96.9</ele>
        <time>2017-05-07T08:30:00Z</time>
      </trkpt>
      <trkpt lat="49.25688" lon="2.37448">
        <ele>97.6</ele>
        <time>2017-05-07T08:30:07Z</time>
      </trkpt>
      <trkpt lat="49.25684" lon="2.37453">
        <ele>98</ele>
        <time>2017-05-07T08:30:14Z</time>
      </trkpt>
      <trkpt lat="49.25677" lon="2.37462">
        <ele>98.6</ele>
        <time>2017-05-07T08:30:19Z</time>
      </trkpt>
      <trkpt lat="49.2567" lon="2.37465">
        <ele>99.4</ele>
        <time>2017-05-07T08:30:26Z</time>
      </trkpt>
      <trkpt lat="49.25663" lon="2.37464">
        <ele>99.9</ele>
        <time>2017-05-07T08:30:33Z</time>
      </trkpt>
      <trkpt lat="49.25659" lon="2.37466">
        <ele>99.9</ele>
        <time>2017-05-07T08:30:40Z</time>
      </trkpt>
      <trkpt lat="49.25652" lon="2.37469">
        <ele>100</ele>
        <time>2017-05-07T08:30:44Z</time>
      </trkpt>
      <trkpt lat="49.25644" lon="2.37471">
        <ele>99.8</ele>
        <time>2017-05-07T08:30:51Z</time>
      </trkpt>
      <trkpt lat="49.25639" lon="2.37473">
        <ele>99.8</ele>
        <time>2017-05-07T08:30:58Z</time>
      </trkpt>
      <trkpt lat="49.25634" lon="2.37473">
        <ele>99.5</ele>
        <time>2017-05-07T08:31:05Z</time>
      </trkpt>
      <trkpt lat="49.25628" lon="2.37467">
        <ele>99.6</ele>
        <time>2017-05-07T08:31:10Z</time>
      </trkpt>
      <trkpt lat="49.25619" lon="2.37474">
        <ele>100.3</ele>
        <time>2017-05-07T08:31:16Z</time>
      </trkpt>
      <trkpt lat="49.25613" lon="2.37472">
        <ele>101.1</ele>
        <time>2017-05-07T08:31:23Z</time>
      </trkpt>
      <trkpt lat="49.25606" lon="2.37475">
        <ele>101.9</ele>
        <time>2017-05-07T08:31:30Z</time>
      </trkpt>
      <trkpt lat="49.25598" lon="2.37474">
        <ele>102.7</ele>
        <time>2017-05-07T08:31:35Z</time>
      </trkpt>
      <trkpt lat="49.25592" lon="2.37464">
        <ele>104.2</ele>
        <time>2017-05-07T08:31:41Z</time>
      </trkpt>
      <trkpt lat="49.25584" lon="2.37462">
        <ele>106</ele>
        <time>2017-05-07T08:31:48Z</time>
      </trkpt>
      <trkpt lat="49.2558" lon="2.37464">
        <ele>106.1</ele>
        <time>2017-05-07T08:31:55Z</time>
      </trkpt>
      <trkpt lat="49.25573" lon="2.37469">
        <ele>105.9</ele>
        <time>2017-05-07T08:32:02Z</time>
      </trkpt>
      <trkpt lat="49.25565" lon="2.37473">
        <ele>105</ele>
        <time>2017-05-07T08:32:09Z</time>
      </trkpt>
      <trkpt lat="49.25559" lon="2.37478">
        <ele>104.9</ele>
        <time>2017-05-07T08:32:16Z</time>
      </trkpt>
      <trkpt lat="49.25553" lon="2.37482">
        <ele>105</ele>
        <time>2017-05-07T08:32:23Z</time>
      </trkpt>
      <trkpt lat="49.25547" lon="2.37477">
        <ele>105</ele>
        <time>2017-05-07T08:32:26Z</time>
      </trkpt>
      <trkpt lat="49.25538" lon="2.37479">
        <ele>104.6</ele>
        <time>2017-05-07T08:32:30Z</time>
      </trkpt>
      <trkpt lat="49.2553" lon="2.37478">
        <ele>103.8</ele>
        <time>2017-05-07T08:32:36Z</time>
      </trkpt>
      <trkpt lat="49.25525" lon="2.37476">
        <ele>103.5</ele>
        <time>2017-05-07T08:32:43Z</time>
      </trkpt>
      <trkpt lat="49.25519" lon="2.37471">
        <ele>103.9</ele>
        <time>2017-05-07T08:32:50Z</time>
      </trkpt>
      <trkpt lat="49.25512" lon="2.3747">
        <ele>104.5</ele>
        <time>2017-05-07T08:32:56Z</time>
      </trkpt>
      <trkpt lat="49.25504" lon="2.3747">
        <ele>105.4</ele>
        <time>2017-05-07T08:33:03Z</time>
      </trkpt>
      <trkpt lat="49.25496" lon="2.3747">
        <ele>105.8</ele>
        <time>2017-05-07T08:33:08Z</time>
      </trkpt>
      <trkpt lat="49.25488" lon="2.3747">
        <ele>106.5</ele>
        <time>2017-05-07T08:33:14Z</time>
      </trkpt>
      <trkpt lat="49.25481" lon="2.37468">
        <ele>107.3</ele>
        <time>2017-05-07T08:33:19Z</time>
      </trkpt>
      <trkpt lat="49.25477" lon="2.37467">
        <ele>108</ele>
        <time>2017-05-07T08:33:26Z</time>
      </trkpt>
      <trkpt lat="49.25468" lon="2.37469">
        <ele>108.5</ele>
        <time>2017-05-07T08:33:29Z</time>
      </trkpt>
      <trkpt lat="49.25463" lon="2.37465">
        <ele>109</ele>
        <time>2017-05-07T08:33:36Z</time>
      </trkpt>
      <trkpt lat="49.25457" lon="2.37471">
        <ele>110.2</ele>
        <time>2017-05-07T08:33:43Z</time>
      </trkpt>
      <trkpt lat="49.25452" lon="2.37478">
        <ele>111.4</ele>
        <time>2017-05-07T08:33:50Z</time>
      </trkpt>
      <trkpt lat="49.25444" lon="2.37479">
        <ele>111.9</ele>
        <time>2017-05-07T08:33:55Z</time>
      </trkpt>
      <trkpt lat="49.25436" lon="2.37479">
        <ele>112</ele>
        <time>2017-05-07T08:34:00Z</time>
      </trkpt>
      <trkpt lat="49.25428" lon="2.3748">
        <ele>111.9</ele>
        <time>2017-05-07T08:34:06Z</time>
      </trkpt>
      <trkpt lat="49.25423" lon="2.3748">
        <ele>111.8</ele>
        <time>2017-05-07T08:34:13Z</time>
      </trkpt>
      <trkpt lat="49.25418" lon="2.3749">
        <ele>111.5</ele>
        <time>2017-05-07T08:34:19Z</time>
      </trkpt>
      <trkpt lat="49.25413" lon="2.37498">
        <ele>111.6</ele>
        <time>2017-05-07T08:34:24Z</time>
      </trkpt>
      <trkpt lat="49.25407" lon="2.37497">
        <ele>111</ele>
        <time>2017-05-07T08:34:31Z</time>
      </trkpt>
      <trkpt lat="49.25403" lon="2.37497">
        <ele>110.1</ele>
        <time>2017-05-07T08:34:38Z</time>
      </trkpt>
      <trkpt lat="49.25397" lon="2.37501">
        <ele>109.5</ele>
        <time>2017-05-07T08:34:45Z</time>
      </trkpt>
      <trkpt lat="49.2539" lon="2.37503">
        <ele>108.9</ele>
        <time>2017-05-07T08:34:52Z</time>
      </trkpt>
      <trkpt lat="49.25381" lon="2.37505">
        <ele>108.4</ele>
        <time>2017-05-07T08:34:59Z</time>
      </trkpt>
      <trkpt lat="49.25374" lon="2.37499">
        <ele>108.4</ele>
        <time>2017-05-07T08:35:04Z</time>
      </trkpt>
      <trkpt lat="49.25366" lon="2.37498">
        <ele>108.4</ele>
        <time>2017-05-07T08:35:11Z</time>
      </trkpt>
      <trkpt lat="49.25361" lon="2.37491">
        <ele>108.8</ele>
        <time>2017-05-07T08:35:18Z</time>
      </trkpt>
      <trkpt lat="49.25354" lon="2.3749">
        <ele>109.5</ele>
        <time>2017-05-07T08:35:24Z</time>
      </trkpt>
      <trkpt lat="49.25344" lon="2.37488">
        <ele>110.1</ele>
        <time>2017-05-07T08:35:30Z</time>
      </trkpt>
      <trkpt lat="49.25336" lon="2.37489">
        <ele>110.9</ele>
        <time>2017-05-07T08:35:37Z</time>
      </trkpt>
      <trkpt lat="49.25329" lon="2.37489">
        <ele>111.3</ele>
        <time>2017-05-07T08:35:44Z</time>
      </trkpt>
      <trkpt lat="49.25323" lon="2.37489">
        <ele>111.1</ele>
        <time>2017-05-07T08:35:51Z</time>
      </trkpt>
      <trkpt lat="49.25317" lon="2.37488">
        <ele>111.7</ele>
        <time>2017-05-07T08:35:58Z</time>
      </trkpt>
      <trkpt lat="49.2531" lon="2.37487">
        <ele>112.2</ele>
        <time>2017-05-07T08:36:02Z</time>
      </trkpt>
      <trkpt lat="49.25304" lon="2.37484">
        <ele>112.9</ele>
        <time>2017-05-07T08:36:09Z</time>
      </trkpt>
      <trkpt lat="49.25297" lon="2.37488">
        <ele>113.8</ele>
        <time>2017-05-07T08:36:16Z</time>
      </trkpt>
      <trkpt lat="49.25289" lon="2.37486">
        <ele>114.6</ele>
        <time>2017-05-07T08:36:23Z</time>
      </trkpt>
      <trkpt lat="49.25281" lon="2.37486">
        <ele>114.8</ele>
        <time>2017-05-07T08:36:28Z</time>
      </trkpt>
      <trkpt lat="49.25274" lon="2.37483">
        <ele>114.6</ele>
        <time>2017-05-07T08:36:35Z</time>
      </trkpt>
      <trkpt lat="49.25267" lon="2.37477">
        <ele>114.6</ele>
        <time>2017-05-07T08:36:42Z</time>
      </trkpt>
      <trkpt lat="49.25259" lon="2.37474">
        <ele>114.7</ele>
        <time>2017-05-07T08:36:48Z</time>
      </trkpt>
      <trkpt lat="49.2525" lon="2.37471">
        <ele>115.4</ele>
        <time>2017-05-07T08:36:55Z</time>
      </trkpt>
      <trkpt lat="49.25244" lon="2.37475">
        <ele>115.9</ele>
        <time>2017-05-07T08:37:00Z</time>
      </trkpt>
      <trkpt lat="49.25236" lon="2.37476">
        <ele>116.2</ele>
        <time>2017-05-07T08:37:06Z</time>
      </trkpt>
      <trkpt lat="49.25229" lon="2.37479">
        <ele>116.1</ele>
        <time>2017-05-07T08:37:12Z</time>
      </trkpt>
      <trkpt lat="49.25222" lon="2.37479">
        <ele>115.6</ele>
        <time>2017-05-07T08:37:17Z</time>
      </trkpt>
      <trkpt lat="49.25214" lon="2.3748">
        <ele>115.5</ele>
        <time>2017-05-07T08:37:24Z</time>
      </trkpt>
      <trkpt lat="49.25206" lon="2.37485">
        <ele>115.5</ele>
        <time>2017-05-07T08:37:30Z</time>
      </trkpt>
      <trkpt lat="49.25198" lon="2.37486">
        <ele>116</ele>
        <time>2017-05-07T08:37:37Z</time>
      </trkpt>
      <trkpt lat="49.25191" lon="2.37487">
        <ele>115.6</ele>
        <time>2017-05-07T08:37:44Z</time>
      </trkpt>
      <trkpt lat="49.25184" lon="2.37486">
        <ele>115.3</ele>
        <time>2017-05-07T08:37:49Z</time>
      </trkpt>
      <trkpt lat="49.25176" lon="2.37482">
        <ele>115.1</ele>
        <time>2017-05-07T08:37:56Z</time>
      </trkpt>
      <trkpt lat="49.25169" lon="2.37483">
        <ele>114.9</ele>
        <time>2017-05-07T08:38:03Z</time>
      </trkpt>
      <trkpt lat="49.25162" lon="2.37488">
        <ele>115</ele>
        <time>2017-05-07T08:38:09Z</time>
      </trkpt>
      <trkpt lat="49.25155" lon="2.37489">
        <ele>115.1</ele>
        <time>2017-05-07T08:38:14Z</time>
      </trkpt>
      <trkpt lat="49.2515" lon="2.3749">
        <ele>115.5</ele>
        <time>2017-05-07T08:38:21Z</time>
      </trkpt>
      <trkpt lat="49.25141" lon="2.37485">
        <ele>116.4</ele>
        <time>2017-05-07T08:38:26Z</time>
      </trkpt>
      <trkpt lat="49.25133" lon="2.37485">
        <ele>117</ele>
        <time>2017-05-07T08:38:32Z</time>
      </trkpt>
      <trkpt lat="49.25127" lon="2.37483">
        <ele>117.2</ele>
        <time>2017-05-07T08:38:39Z</time>
      </trkpt>
      <trkpt lat="49.25119" lon="2.37484">
        <ele>116.8</ele>
        <time>2017-05-07T08:38:45Z</time>
      </trkpt>
      <trkpt lat="49.25111" lon="2.37484">
        <ele>116.5</ele>
        <time>2017-05-07T08:38:51Z</time>
      </trkpt>
      <trkpt lat="49.25106" lon="2.3748">
        <ele>116.7</ele>
        <time>2017-05-07T08:38:58Z</time>
      </trkpt>
      <trkpt lat="49.25097" lon="2.37478">
        <ele>116.8</ele>
        <time>2017-05-07T08:39:03Z</time>
      </trkpt>
      <trkpt lat="49.2509" lon="2.37474">
        <ele>116.8</ele>
        <time>2017-05-07T08:39:10Z</time>
      </trkpt>
      <trkpt lat="49.25083" lon="2.37474">
        <ele>117.1</ele>
        <time>2017-05-07T08:39:15Z</time>
      </trkpt>
      <trkpt lat="49.25077" lon="2.37474">
        <ele>117.8</ele>
        <time>2017-05-07T08:39:22Z</time>
      </trkpt>
      <trkpt lat="49.25068" lon="2.3747">
        <ele>118.3</ele>
        <time>2017-05-07T08:39:29Z</time>
      </trkpt>
      <trkpt lat="49.2506" lon="2.37467">
        <ele>118.9</ele>
        <time>2017-05-07T08:39:36Z</time>
      </trkpt>
      <trkpt lat="49.25053" lon="2.37463">
        <ele>119.9</ele>
        <time>2017-05-07T08:39:42Z</time>
      </trkpt>
      <trkpt lat="49.25045" lon="2.3746">
        <ele>121</ele>
        <time>2017-05-07T08:39:49Z</time>
      </trkpt>
      <trkpt lat="49.25037" lon="2.37463">
        <ele>121.8</ele>
        <time>2017-05-07T08:39:56Z</time>
      </trkpt>
      <trkpt lat="49.25029" lon="2.37462">
        <ele>121.9</ele>
        <time>2017-05-07T08:40:02Z</time>
      </trkpt>
      <trkpt lat="49.25024" lon="2.37462">
        <ele>122.2</ele>
        <time>2017-05-07T08:40:09Z</time>
      </trkpt>
      <trkpt lat="49.25017" lon="2.37459">
        <ele>122.6</ele>
        <time>2017-05-07T08:40:15Z</time>
      </trkpt>
      <trkpt lat="49.25011" lon="2.37459">
        <ele>123.4</ele>
        <time>2017-05-07T08:40:22Z</time>
      </trkpt>
      <trkpt lat="49.25003" lon="2.37456">
        <ele>123.8</ele>
        <time>2017-05-07T08:40:27Z</time>
      </trkpt>
      <trkpt lat="49.24996" lon="2.37456">
        <ele>124.1</ele>
        <time>2017-05-07T08:40:32Z</time>
      </trkpt>
      <trkpt lat="49.24989" lon="2.37454">
        <ele>124.7</ele>
        <time>2017-05-07T08:40:39Z</time>
      </trkpt>
      <trkpt lat="49.24982" lon="2.37452">
        <ele>124.9</ele>
        <time>2017-05-07T08:40:45Z</time>
      </trkpt>
      <trkpt lat="49.24975" lon="2.37451">
        <ele>124.7</ele>
        <time>2017-05-07T08:40:52Z</time>
      </trkpt>
      <trkpt lat="49.24969" lon="2.37449">
        <ele>125.2</ele>
        <time>2017-05-07T08:40:59Z</time>
      </trkpt>
      <trkpt lat="49.24962" lon="2.37445">
        <ele>125.9</ele>
        <time>2017-05-07T08:41:06Z</time>
      </trkpt>
      <trkpt lat="49.24956" lon="2.37443">
        <ele>125.9</ele>
        <time>2017-05-07T08:41:13Z</time>
      </trkpt>
      <trkpt lat="49.24949" lon="2.37436">
        <ele>126.1</ele>
        <time>2017-05-07T08:41:19Z</time>
      </trkpt>
      <trkpt lat="49.24944" lon="2.37435">
        <ele>126.4</ele>
        <time>2017-05-07T08:41:26Z</time>
      </trkpt>
      <trkpt lat="49.24937" lon="2.37432">
        <ele>126.9</ele>
        <time>2017-05-07T08:41:30Z</time>
      </trkpt>
      <trkpt lat="49.24927" lon="2.37426">
        <ele>126.7</ele>
        <time>2017-05-07T08:41:36Z</time>
      </trkpt>
      <trkpt lat="49.24921" lon="2.37421">
        <ele>126.9</ele>
        <time>2017-05-07T08:41:42Z</time>
      </trkpt>
      <trkpt lat="49.24914" lon="2.37413">
        <ele>126.5</ele>
        <time>2017-05-07T08:41:47Z</time>
      </trkpt>
      <trkpt lat="49.24909" lon="2.37407">
        <ele>126.3</ele>
        <time>2017-05-07T08:41:54Z</time>
      </trkpt>
      <trkpt lat="49.24906" lon="2.3741">
        <ele>127.2</ele>
        <time>2017-05-07T08:42:01Z</time>
      </trkpt>
      <trkpt lat="49.24901" lon="2.3742">
        <ele>127.9</ele>
        <time>2017-05-07T08:42:07Z</time>
      </trkpt>
      <trkpt lat="49.249" lon="2.37426">
        <ele>128.2</ele>
        <time>2017-05-07T08:42:14Z</time>
      </trkpt>
      <trkpt lat="49.24902" lon="2.37417">
        <ele>129.3</ele>
        <time>2017-05-07T08:42:21Z</time>
      </trkpt>
      <trkpt lat="49.24904" lon="2.37406">
        <ele>130.2</ele>
        <time>2017-05-07T08:42:24Z</time>
      </trkpt>
      <trkpt lat="49.249" lon="2.37402">
        <ele>131.7</ele>
        <time>2017-05-07T08:42:31Z</time>
      </trkpt>
      <trkpt lat="49.24897" lon="2.37398">
        <ele>132.5</ele>
        <time>2017-05-07T08:42:38Z</time>
      </trkpt>
      <trkpt lat="49.2489" lon="2.37391">
        <ele>133.9</ele>
        <time>2017-05-07T08:42:43Z</time>
      </trkpt>
      <trkpt lat="49.24888" lon="2.37387">
        <ele>135.4</ele>
        <time>2017-05-07T08:42:50Z</time>
      </trkpt>
      <trkpt lat="49.2488" lon="2.37386">
        <ele>137.3</ele>
        <time>2017-05-07T08:43:08Z</time>
      </trkpt>
      <trkpt lat="49.24875" lon="2.37382">
        <ele>138.8</ele>
        <time>2017-05-07T08:43:15Z</time>
      </trkpt>
      <trkpt lat="49.24866" lon="2.37376">
        <ele>139.5</ele>
        <time>2017-05-07T08:43:17Z</time>
      </trkpt>
      <trkpt lat="49.24866" lon="2.37375">
        <ele>140.5</ele>
        <time>2017-05-07T08:43:24Z</time>
      </trkpt>
      <trkpt lat="49.24856" lon="2.3737">
        <ele>141.5</ele>
        <time>2017-05-07T08:43:29Z</time>
      </trkpt>
      <trkpt lat="49.24847" lon="2.37365">
        <ele>141.9</ele>
        <time>2017-05-07T08:43:32Z</time>
      </trkpt>
      <trkpt lat="49.2484" lon="2.37367">
        <ele>143.5</ele>
        <time>2017-05-07T08:43:38Z</time>
      </trkpt>
      <trkpt lat="49.2483" lon="2.37363">
        <ele>144.8</ele>
        <time>2017-05-07T08:43:44Z</time>
      </trkpt>
      <trkpt lat="49.24823" lon="2.37366">
        <ele>146.5</ele>
        <time>2017-05-07T08:43:50Z</time>
      </trkpt>
      <trkpt lat="49.24821" lon="2.37364">
        <ele>148.3</ele>
        <time>2017-05-07T08:43:57Z</time>
      </trkpt>
      <trkpt lat="49.2482" lon="2.37366">
        <ele>149.8</ele>
        <time>2017-05-07T08:44:04Z</time>
      </trkpt>
      <trkpt lat="49.2481" lon="2.37364">
        <ele>150.6</ele>
        <time>2017-05-07T08:44:11Z</time>
      </trkpt>
      <trkpt lat="49.24802" lon="2.37364">
        <ele>151</ele>
        <time>2017-05-07T08:44:13Z</time>
      </trkpt>
      <trkpt lat="49.24795" lon="2.37361">
        <ele>152.1</ele>
        <time>2017-05-07T08:44:18Z</time>
      </trkpt>
      <trkpt lat="49.24788" lon="2.37359">
        <ele>153.7</ele>
        <time>2017-05-07T08:44:25Z</time>
      </trkpt>
      <trkpt lat="49.24781" lon="2.37353">
        <ele>154.1</ele>
        <time>2017-05-07T08:44:31Z</time>
      </trkpt>
      <trkpt lat="49.24775" lon="2.37346">
        <ele>154.9</ele>
        <time>2017-05-07T08:44:34Z</time>
      </trkpt>
      <trkpt lat="49.24768" lon="2.37345">
        <ele>156.3</ele>
        <time>2017-05-07T08:44:41Z</time>
      </trkpt>
      <trkpt lat="49.24764" lon="2.37345">
        <ele>157.3</ele>
        <time>2017-05-07T08:44:48Z</time>
      </trkpt>
      <trkpt lat="49.24763" lon="2.37346">
        <ele>158.6</ele>
        <time>2017-05-07T08:44:55Z</time>
      </trkpt>
      <trkpt lat="49.24759" lon="2.37347">
        <ele>159.5</ele>
        <time>2017-05-07T08:45:02Z</time>
      </trkpt>
      <trkpt lat="49.24754" lon="2.37346">
        <ele>160.7</ele>
        <time>2017-05-07T08:45:09Z</time>
      </trkpt>
      <trkpt lat="49.24745" lon="2.37346">
        <ele>161.9</ele>
        <time>2017-05-07T08:45:15Z</time>
      </trkpt>
      <trkpt lat="49.24736" lon="2.37345">
        <ele>162.5</ele>
        <time>2017-05-07T08:45:17Z</time>
      </trkpt>
      <trkpt lat="49.24735" lon="2.37346">
        <ele>163.6</ele>
        <time>2017-05-07T08:45:24Z</time>
      </trkpt>
      <trkpt lat="49.24729" lon="2.37349">
        <ele>165.4</ele>
        <time>2017-05-07T08:45:31Z</time>
      </trkpt>
      <trkpt lat="49.24722" lon="2.37348">
        <ele>166.9</ele>
        <time>2017-05-07T08:45:38Z</time>
      </trkpt>
      <trkpt lat="49.24711" lon="2.37345">
        <ele>167.6</ele>
        <time>2017-05-07T08:45:41Z</time>
      </trkpt>
      <trkpt lat="49.24703" lon="2.37345">
        <ele>168.1</ele>
        <time>2017-05-07T08:45:43Z</time>
      </trkpt>
      <trkpt lat="49.24696" lon="2.37345">
        <ele>169.3</ele>
        <time>2017-05-07T08:45:50Z</time>
      </trkpt>
      <trkpt lat="49.24692" lon="2.3735">
        <ele>170.4</ele>
        <time>2017-05-07T08:45:57Z</time>
      </trkpt>
      <trkpt lat="49.24694" lon="2.37351">
        <ele>171.4</ele>
        <time>2017-05-07T08:46:04Z</time>
      </trkpt>
      <trkpt lat="49.24691" lon="2.37353">
        <ele>172.1</ele>
        <time>2017-05-07T08:46:11Z</time>
      </trkpt>
      <trkpt lat="49.24688" lon="2.37353">
        <ele>172.9</ele>
        <time>2017-05-07T08:46:18Z</time>
      </trkpt>
      <trkpt lat="49.24677" lon="2.37355">
        <ele>173.4</ele>
        <time>2017-05-07T08:46:28Z</time>
      </trkpt>
      <trkpt lat="49.24669" lon="2.37355">
        <ele>173.8</ele>
        <time>2017-05-07T08:46:30Z</time>
      </trkpt>
      <trkpt lat="49.24658" lon="2.37355">
        <ele>174</ele>
        <time>2017-05-07T08:46:32Z</time>
      </trkpt>
      <trkpt lat="49.24651" lon="2.37354">
        <ele>174.9</ele>
        <time>2017-05-07T08:46:39Z</time>
      </trkpt>
      <trkpt lat="49.24646" lon="2.37351">
        <ele>175.1</ele>
        <time>2017-05-07T08:46:46Z</time>
      </trkpt>
      <trkpt lat="49.2464" lon="2.37353">
        <ele>175.4</ele>
        <time>2017-05-07T08:46:53Z</time>
      </trkpt>
      <trkpt lat="49.24633" lon="2.37354">
        <ele>175.3</ele>
        <time>2017-05-07T08:46:55Z</time>
      </trkpt>
      <trkpt lat="49.24623" lon="2.37351">
        <ele>175.2</ele>
        <time>2017-05-07T08:46:57Z</time>
      </trkpt>
      <trkpt lat="49.24618" lon="2.37345">
        <ele>177.1</ele>
        <time>2017-05-07T08:47:04Z</time>
      </trkpt>
      <trkpt lat="49.24619" lon="2.37352">
        <ele>177.7</ele>
        <time>2017-05-07T08:47:11Z</time>
      </trkpt>
      <trkpt lat="49.24611" lon="2.37353">
        <ele>178.3</ele>
        <time>2017-05-07T08:47:18Z</time>
      </trkpt>
      <trkpt lat="49.24601" lon="2.37354">
        <ele>178.4</ele>
        <time>2017-05-07T08:47:23Z</time>
      </trkpt>
      <trkpt lat="49.24595" lon="2.37353">
        <ele>178.7</ele>
        <time>2017-05-07T08:47:30Z</time>
      </trkpt>
      <trkpt lat="49.24584" lon="2.3735">
        <ele>178.2</ele>
        <time>2017-05-07T08:47:37Z</time>
      </trkpt>
      <trkpt lat="49.24583" lon="2.3735">
        <ele>178.6</ele>
        <time>2017-05-07T08:47:44Z</time>
      </trkpt>
      <trkpt lat="49.24581" lon="2.37349">
        <ele>179.7</ele>
        <time>2017-05-07T08:47:52Z</time>
      </trkpt>
      <trkpt lat="49.24571" lon="2.37349">
        <ele>181.5</ele>
        <time>2017-05-07T08:48:04Z</time>
      </trkpt>
      <trkpt lat="49.24564" lon="2.37349">
        <ele>182.7</ele>
        <time>2017-05-07T08:48:10Z</time>
      </trkpt>
      <trkpt lat="49.24553" lon="2.37348">
        <ele>183.4</ele>
        <time>2017-05-07T08:48:17Z</time>
      </trkpt>
      <trkpt lat="49.24551" lon="2.37347">
        <ele>184.8</ele>
        <time>2017-05-07T08:48:24Z</time>
      </trkpt>
      <trkpt lat="49.2455" lon="2.37349">
        <ele>185.3</ele>
        <time>2017-05-07T08:48:31Z</time>
      </trkpt>
      <trkpt lat="49.24545" lon="2.37348">
        <ele>187</ele>
        <time>2017-05-07T08:48:42Z</time>
      </trkpt>
      <trkpt lat="49.24544" lon="2.37348">
        <ele>187.8</ele>
        <time>2017-05-07T08:48:49Z</time>
      </trkpt>
      <trkpt lat="49.24534" lon="2.37349">
        <ele>187.9</ele>
        <time>2017-05-07T08:49:12Z</time>
      </trkpt>
      <trkpt lat="49.24524" lon="2.37348">
        <ele>187.5</ele>
        <time>2017-05-07T08:49:19Z</time>
      </trkpt>
      <trkpt lat="49.24516" lon="2.37347">
        <ele>187.2</ele>
        <time>2017-05-07T08:49:21Z</time>
      </trkpt>
      <trkpt lat="49.24512" lon="2.37343">
        <ele>186.4</ele>
        <time>2017-05-07T08:49:28Z</time>
      </trkpt>
      <trkpt lat="49.24509" lon="2.37342">
        <ele>185.2</ele>
        <time>2017-05-07T08:49:35Z</time>
      </trkpt>
      <trkpt lat="49.24499" lon="2.37341">
        <ele>184.8</ele>
        <time>2017-05-07T08:49:42Z</time>
      </trkpt>
      <trkpt lat="49.2449" lon="2.37341">
        <ele>184.4</ele>
        <time>2017-05-07T08:49:47Z</time>
      </trkpt>
      <trkpt lat="49.24482" lon="2.3734">
        <ele>184.1</ele>
        <time>2017-05-07T08:49:51Z</time>
      </trkpt>
      <trkpt lat="49.24475" lon="2.37336">
        <ele>184.4</ele>
        <time>2017-05-07T08:49:58Z</time>
      </trkpt>
      <trkpt lat="49.24468" lon="2.37333">
        <ele>184.3</ele>
        <time>2017-05-07T08:50:03Z</time>
      </trkpt>
      <trkpt lat="49.24464" lon="2.37329">
        <ele>184.8</ele>
        <time>2017-05-07T08:50:10Z</time>
      </trkpt>
      <trkpt lat="49.24459" lon="2.37321">
        <ele>185</ele>
        <time>2017-05-07T08:50:17Z</time>
      </trkpt>
      <trkpt lat="49.2446" lon="2.37318">
        <ele>185.3</ele>
        <time>2017-05-07T08:50:24Z</time>
      </trkpt>
      <trkpt lat="49.24457" lon="2.37316">
        <ele>185.3</ele>
        <time>2017-05-07T08:50:31Z</time>
      </trkpt>
      <trkpt lat="49.24452" lon="2.37312">
        <ele>185.8</ele>
        <time>2017-05-07T08:50:38Z</time>
      </trkpt>
      <trkpt lat="49.24445" lon="2.37309">
        <ele>186</ele>
        <time>2017-05-07T08:50:42Z</time>
      </trkpt>
      <trkpt lat="49.24445" lon="2.37304">
        <ele>186</ele>
        <time>2017-05-07T08:50:49Z</time>
      </trkpt>
      <trkpt lat="49.24437" lon="2.37298">
        <ele>185.7</ele>
        <time>2017-05-07T08:50:54Z</time>
      </trkpt>
      <trkpt lat="49.24432" lon="2.37294">
        <ele>185</ele>
        <time>2017-05-07T08:51:01Z</time>
      </trkpt>
      <trkpt lat="49.24425" lon="2.37289">
        <ele>184.7</ele>
        <time>2017-05-07T08:51:08Z</time>
      </trkpt>
      <trkpt lat="49.24419" lon="2.37289">
        <ele>183.6</ele>
        <time>2017-05-07T08:51:15Z</time>
      </trkpt>
      <trkpt lat="49.24414" lon="2.37286">
        <ele>183</ele>
        <time>2017-05-07T08:51:22Z</time>
      </trkpt>
      <trkpt lat="49.24405" lon="2.37288">
        <ele>182.3</ele>
        <time>2017-05-07T08:51:26Z</time>
      </trkpt>
      <trkpt lat="49.24399" lon="2.37279">
        <ele>181.9</ele>
        <time>2017-05-07T08:51:32Z</time>
      </trkpt>
      <trkpt lat="49.24394" lon="2.37272">
        <ele>182.2</ele>
        <time>2017-05-07T08:51:39Z</time>
      </trkpt>
      <trkpt lat="49.24389" lon="2.37263">
        <ele>182.8</ele>
        <time>2017-05-07T08:51:45Z</time>
      </trkpt>
      <trkpt lat="49.24382" lon="2.37255">
        <ele>183.3</ele>
        <time>2017-05-07T08:51:50Z</time>
      </trkpt>
      <trkpt lat="49.24378" lon="2.37254">
        <ele>183.8</ele>
        <time>2017-05-07T08:51:57Z</time>
      </trkpt>
      <trkpt lat="49.24371" lon="2.37247">
        <ele>183.7</ele>
        <time>2017-05-07T08:52:04Z</time>
      </trkpt>
      <trkpt lat="49.24364" lon="2.37242">
        <ele>183.8</ele>
        <time>2017-05-07T08:52:08Z</time>
      </trkpt>
      <trkpt lat="49.24357" lon="2.37239">
        <ele>184.1</ele>
        <time>2017-05-07T08:52:15Z</time>
      </trkpt>
      <trkpt lat="49.24349" lon="2.37233">
        <ele>184.2</ele>
        <time>2017-05-07T08:52:20Z</time>
      </trkpt>
      <trkpt lat="49.24342" lon="2.37229">
        <ele>184.2</ele>
        <time>2017-05-07T08:52:25Z</time>
      </trkpt>
      <trkpt lat="49.24339" lon="2.37229">
        <ele>183.8</ele>
        <time>2017-05-07T08:52:32Z</time>
      </trkpt>
      <trkpt lat="49.24336" lon="2.37227">
        <ele>183</ele>
        <time>2017-05-07T08:52:39Z</time>
      </trkpt>
      <trkpt lat="49.2433" lon="2.37226">
        <ele>182.6</ele>
        <time>2017-05-07T08:52:46Z</time>
      </trkpt>
      <trkpt lat="49.24325" lon="2.37224">
        <ele>182.8</ele>
        <time>2017-05-07T08:52:53Z</time>
      </trkpt>
      <trkpt lat="49.24317" lon="2.37222">
        <ele>183.2</ele>
        <time>2017-05-07T08:52:59Z</time>
      </trkpt>
      <trkpt lat="49.24309" lon="2.37219">
        <ele>183.2</ele>
        <time>2017-05-07T08:53:02Z</time>
      </trkpt>
      <trkpt lat="49.24301" lon="2.37217">
        <ele>182.9</ele>
        <time>2017-05-07T08:53:09Z</time>
      </trkpt>
      <trkpt lat="49.24293" lon="2.37212">
        <ele>182.4</ele>
        <time>2017-05-07T08:53:14Z</time>
      </trkpt>
      <trkpt lat="49.24286" lon="2.37208">
        <ele>182.2</ele>
        <time>2017-05-07T08:53:17Z</time>
      </trkpt>
      <trkpt lat="49.2428" lon="2.37201">
        <ele>182.5</ele>
        <time>2017-05-07T08:53:22Z</time>
      </trkpt>
      <trkpt lat="49.24271" lon="2.37201">
        <ele>182.4</ele>
        <time>2017-05-07T08:53:28Z</time>
      </trkpt>
      <trkpt lat="49.24263" lon="2.37196">
        <ele>182.6</ele>
        <time>2017-05-07T08:53:35Z</time>
      </trkpt>
      <trkpt lat="49.24259" lon="2.37192">
        <ele>182.7</ele>
        <time>2017-05-07T08:53:42Z</time>
      </trkpt>
      <trkpt lat="49.24251" lon="2.3719">
        <ele>183.9</ele>
        <time>2017-05-07T08:53:48Z</time>
      </trkpt>
      <trkpt lat="49.24242" lon="2.37194">
        <ele>186</ele>
        <time>2017-05-07T08:53:55Z</time>
      </trkpt>
      <trkpt lat="49.24235" lon="2.37202">
        <ele>186.6</ele>
        <time>2017-05-07T08:53:57Z</time>
      </trkpt>
      <trkpt lat="49.2423" lon="2.37215">
        <ele>187.1</ele>
        <time>2017-05-07T08:54:00Z</time>
      </trkpt>
      <trkpt lat="49.24221" lon="2.37215">
        <ele>187.9</ele>
        <time>2017-05-07T08:54:06Z</time>
      </trkpt>
      <trkpt lat="49.24217" lon="2.37214">
        <ele>188.6</ele>
        <time>2017-05-07T08:54:13Z</time>
      </trkpt>
      <trkpt lat="49.24217" lon="2.37216">
        <ele>189.2</ele>
        <time>2017-05-07T08:54:20Z</time>
      </trkpt>
      <trkpt lat="49.24219" lon="2.37211">
        <ele>189.8</ele>
        <time>2017-05-07T08:54:32Z</time>
      </trkpt>
      <trkpt lat="49.24214" lon="2.37208">
        <ele>188.6</ele>
        <time>2017-05-07T08:54:39Z</time>
      </trkpt>
      <trkpt lat="49.24206" lon="2.37207">
        <ele>186.4</ele>
        <time>2017-05-07T08:54:46Z</time>
      </trkpt>
      <trkpt lat="49.24195" lon="2.37205">
        <ele>185.1</ele>
        <time>2017-05-07T08:54:51Z</time>
      </trkpt>
      <trkpt lat="49.24191" lon="2.37203">
        <ele>184.8</ele>
        <time>2017-05-07T08:54:58Z</time>
      </trkpt>
      <trkpt lat="49.24183" lon="2.37204">
        <ele>183.7</ele>
        <time>2017-05-07T08:55:05Z</time>
      </trkpt>
      <trkpt lat="49.24175" lon="2.37202">
        <ele>183.3</ele>
        <time>2017-05-07T08:55:08Z</time>
      </trkpt>
      <trkpt lat="49.24166" lon="2.37203">
        <ele>183</ele>
        <time>2017-05-07T08:55:15Z</time>
      </trkpt>
      <trkpt lat="49.24159" lon="2.37212">
        <ele>183</ele>
        <time>2017-05-07T08:55:21Z</time>
      </trkpt>
      <trkpt lat="49.24153" lon="2.37216">
        <ele>182.9</ele>
        <time>2017-05-07T08:55:28Z</time>
      </trkpt>
      <trkpt lat="49.24146" lon="2.37217">
        <ele>182.5</ele>
        <time>2017-05-07T08:55:33Z</time>
      </trkpt>
      <trkpt lat="49.24139" lon="2.37222">
        <ele>182.1</ele>
        <time>2017-05-07T08:55:37Z</time>
      </trkpt>
      <trkpt lat="49.24132" lon="2.37227">
        <ele>181.7</ele>
        <time>2017-05-07T08:55:43Z</time>
      </trkpt>
      <trkpt lat="49.24132" lon="2.37224">
        <ele>181.6</ele>
        <time>2017-05-07T08:55:50Z</time>
      </trkpt>
      <trkpt lat="49.2413" lon="2.37219">
        <ele>181</ele>
        <time>2017-05-07T08:55:57Z</time>
      </trkpt>
      <trkpt lat="49.24121" lon="2.3722">
        <ele>180.1</ele>
        <time>2017-05-07T08:56:04Z</time>
      </trkpt>
      <trkpt lat="49.24114" lon="2.37219">
        <ele>179.5</ele>
        <time>2017-05-07T08:56:08Z</time>
      </trkpt>
      <trkpt lat="49.24108" lon="2.37218">
        <ele>178.3</ele>
        <time>2017-05-07T08:56:15Z</time>
      </trkpt>
      <trkpt lat="49.24102" lon="2.37219">
        <ele>177.8</ele>
        <time>2017-05-07T08:56:22Z</time>
      </trkpt>
      <trkpt lat="49.24096" lon="2.37218">
        <ele>177.6</ele>
        <time>2017-05-07T08:56:29Z</time>
      </trkpt>
      <trkpt lat="49.24091" lon="2.37217">
        <ele>178</ele>
        <time>2017-05-07T08:56:36Z</time>
      </trkpt>
      <trkpt lat="49.24085" lon="2.37215">
        <ele>179</ele>
        <time>2017-05-07T08:56:43Z</time>
      </trkpt>
      <trkpt lat="49.24085" lon="2.37214">
        <ele>179.5</ele>
        <time>2017-05-07T08:56:50Z</time>
      </trkpt>
      <trkpt lat="49.24081" lon="2.37213">
        <ele>180.9</ele>
        <time>2017-05-07T08:56:57Z</time>
      </trkpt>
      <trkpt lat="49.24071" lon="2.37208">
        <ele>181.3</ele>
        <time>2017-05-07T08:57:00Z</time>
      </trkpt>
      <trkpt lat="49.24069" lon="2.3721">
        <ele>182.1</ele>
        <time>2017-05-07T08:57:07Z</time>
      </trkpt>
      <trkpt lat="49.24067" lon="2.37212">
        <ele>182.7</ele>
        <time>2017-05-07T08:57:14Z</time>
      </trkpt>
      <trkpt lat="49.24066" lon="2.37214">
        <ele>182.8</ele>
        <time>2017-05-07T08:57:21Z</time>
      </trkpt>
      <trkpt lat="49.24065" lon="2.37218">
        <ele>183.2</ele>
        <time>2017-05-07T08:57:28Z</time>
      </trkpt>
      <trkpt lat="49.24061" lon="2.37225">
        <ele>182.4</ele>
        <time>2017-05-07T08:57:35Z</time>
      </trkpt>
      <trkpt lat="49.2406" lon="2.37225">
        <ele>181.6</ele>
        <time>2017-05-07T08:57:42Z</time>
      </trkpt>
      <trkpt lat="49.24061" lon="2.37225">
        <ele>181.5</ele>
        <time>2017-05-07T08:57:54Z</time>
      </trkpt>
      <trkpt lat="49.24059" lon="2.37218">
        <ele>180.4</ele>
        <time>2017-05-07T08:58:09Z</time>
      </trkpt>
      <trkpt lat="49.24062" lon="2.37207">
        <ele>180.5</ele>
        <time>2017-05-07T08:58:14Z</time>
      </trkpt>
      <trkpt lat="49.24062" lon="2.37205">
        <ele>180.6</ele>
        <time>2017-05-07T08:58:21Z</time>
      </trkpt>
      <trkpt lat="49.2406" lon="2.37204">
        <ele>181.6</ele>
        <time>2017-05-07T08:58:28Z</time>
      </trkpt>
      <trkpt lat="49.24059" lon="2.37208">
        <ele>175.6</ele>
        <time>2017-05-07T08:58:21Z</time>
      </trkpt>
      <trkpt lat="49.2406" lon="2.37212">
        <ele>178.3</ele>
        <time>2017-05-07T08:57:51Z</time>
      </trkpt>
      <trkpt lat="49.24058" lon="2.37217">
        <ele>179.5</ele>
        <time>2017-05-07T09:00:09Z</time>
      </trkpt>
      <trkpt lat="49.24059" lon="2.37224">
        <ele>181.9</ele>
        <time>2017-05-07T08:59:39Z</time>
      </trkpt>
      <trkpt lat="49.24052" lon="2.37232">
        <ele>181.9</ele>
        <time>2017-05-07T09:00:51Z</time>
      </trkpt>
      <trkpt lat="49.24041" lon="2.37237">
        <ele>182.3</ele>
        <time>2017-05-07T09:01:21Z</time>
      </trkpt>
      <trkpt lat="49.24037" lon="2.37246">
        <ele>182.3</ele>
        <time>2017-05-07T09:01:28Z</time>
      </trkpt>
      <trkpt lat="49.24037" lon="2.3725">
        <ele>182.4</ele>
        <time>2017-05-07T09:01:35Z</time>
      </trkpt>
      <trkpt lat="49.24033" lon="2.37258">
        <ele>183</ele>
        <time>2017-05-07T09:01:42Z</time>
      </trkpt>
      <trkpt lat="49.24028" lon="2.37265">
        <ele>182.9</ele>
        <time>2017-05-07T09:01:48Z</time>
      </trkpt>
      <trkpt lat="49.24023" lon="2.37273">
        <ele>182.5</ele>
        <time>2017-05-07T09:01:53Z</time>
      </trkpt>
      <trkpt lat="49.2402" lon="2.37281">
        <ele>181.8</ele>
        <time>2017-05-07T09:02:00Z</time>
      </trkpt>
      <trkpt lat="49.24016" lon="2.37291">
        <ele>181</ele>
        <time>2017-05-07T09:02:07Z</time>
      </trkpt>
      <trkpt lat="49.24013" lon="2.37301">
        <ele>180.2</ele>
        <time>2017-05-07T09:02:14Z</time>
      </trkpt>
      <trkpt lat="49.2401" lon="2.3731">
        <ele>180.5</ele>
        <time>2017-05-07T09:02:21Z</time>
      </trkpt>
      <trkpt lat="49.24005" lon="2.37319">
        <ele>179.9</ele>
        <time>2017-05-07T09:02:27Z</time>
      </trkpt>
      <trkpt lat="49.24002" lon="2.37329">
        <ele>178.9</ele>
        <time>2017-05-07T09:02:34Z</time>
      </trkpt>
      <trkpt lat="49.23995" lon="2.37336">
        <ele>178.3</ele>
        <time>2017-05-07T09:02:38Z</time>
      </trkpt>
      <trkpt lat="49.2399" lon="2.37345">
        <ele>178.1</ele>
        <time>2017-05-07T09:02:41Z</time>
      </trkpt>
      <trkpt lat="49.23986" lon="2.3735">
        <ele>178.5</ele>
        <time>2017-05-07T09:02:48Z</time>
      </trkpt>
      <trkpt lat="49.23983" lon="2.37358">
        <ele>178.4</ele>
        <time>2017-05-07T09:02:55Z</time>
      </trkpt>
      <trkpt lat="49.2398" lon="2.37369">
        <ele>178.3</ele>
        <time>2017-05-07T09:03:02Z</time>
      </trkpt>
      <trkpt lat="49.23978" lon="2.37376">
        <ele>178.4</ele>
        <time>2017-05-07T09:03:09Z</time>
      </trkpt>
      <trkpt lat="49.23979" lon="2.37389">
        <ele>178.6</ele>
        <time>2017-05-07T09:03:12Z</time>
      </trkpt>
      <trkpt lat="49.23978" lon="2.37398">
        <ele>178.1</ele>
        <time>2017-05-07T09:03:19Z</time>
      </trkpt>
      <trkpt lat="49.23972" lon="2.37404">
        <ele>178.2</ele>
        <time>2017-05-07T09:03:24Z</time>
      </trkpt>
      <trkpt lat="49.23966" lon="2.37413">
        <ele>179.1</ele>
        <time>2017-05-07T09:03:31Z</time>
      </trkpt>
      <trkpt lat="49.23961" lon="2.37423">
        <ele>179.3</ele>
        <time>2017-05-07T09:03:37Z</time>
      </trkpt>
      <trkpt lat="49.23957" lon="2.37434">
        <ele>179</ele>
        <time>2017-05-07T09:03:44Z</time>
      </trkpt>
      <trkpt lat="49.23953" lon="2.37444">
        <ele>178.4</ele>
        <time>2017-05-07T09:03:49Z</time>
      </trkpt>
      <trkpt lat="49.23948" lon="2.37452">
        <ele>177.8</ele>
        <time>2017-05-07T09:03:56Z</time>
      </trkpt>
      <trkpt lat="49.23944" lon="2.37461">
        <ele>177.3</ele>
        <time>2017-05-07T09:04:01Z</time>
      </trkpt>
      <trkpt lat="49.23942" lon="2.37471">
        <ele>176.4</ele>
        <time>2017-05-07T09:04:08Z</time>
      </trkpt>
      <trkpt lat="49.23939" lon="2.3748">
        <ele>176.1</ele>
        <time>2017-05-07T09:04:15Z</time>
      </trkpt>
      <trkpt lat="49.23934" lon="2.37491">
        <ele>176</ele>
        <time>2017-05-07T09:04:21Z</time>
      </trkpt>
      <trkpt lat="49.23929" lon="2.37499">
        <ele>175.1</ele>
        <time>2017-05-07T09:04:27Z</time>
      </trkpt>
      <trkpt lat="49.23925" lon="2.3751">
        <ele>174.4</ele>
        <time>2017-05-07T09:04:32Z</time>
      </trkpt>
      <trkpt lat="49.23923" lon="2.37521">
        <ele>173.9</ele>
        <time>2017-05-07T09:04:39Z</time>
      </trkpt>
      <trkpt lat="49.23919" lon="2.3753">
        <ele>173.1</ele>
        <time>2017-05-07T09:04:45Z</time>
      </trkpt>
      <trkpt lat="49.23914" lon="2.3754">
        <ele>173.5</ele>
        <time>2017-05-07T09:04:52Z</time>
      </trkpt>
      <trkpt lat="49.23911" lon="2.3755">
        <ele>173.8</ele>
        <time>2017-05-07T09:04:59Z</time>
      </trkpt>
      <trkpt lat="49.2391" lon="2.37559">
        <ele>173.9</ele>
        <time>2017-05-07T09:05:06Z</time>
      </trkpt>
      <trkpt lat="49.23904" lon="2.37569">
        <ele>174.1</ele>
        <time>2017-05-07T09:05:13Z</time>
      </trkpt>
      <trkpt lat="49.23901" lon="2.37579">
        <ele>174.3</ele>
        <time>2017-05-07T09:05:18Z</time>
      </trkpt>
      <trkpt lat="49.23899" lon="2.3759">
        <ele>174.6</ele>
        <time>2017-05-07T09:05:25Z</time>
      </trkpt>
      <trkpt lat="49.23899" lon="2.37599">
        <ele>174.8</ele>
        <time>2017-05-07T09:05:32Z</time>
      </trkpt>
      <trkpt lat="49.23893" lon="2.37608">
        <ele>174.3</ele>
        <time>2017-05-07T09:05:39Z</time>
      </trkpt>
      <trkpt lat="49.23889" lon="2.3762">
        <ele>174.9</ele>
        <time>2017-05-07T09:05:45Z</time>
      </trkpt>
      <trkpt lat="49.23885" lon="2.37631">
        <ele>175.5</ele>
        <time>2017-05-07T09:05:50Z</time>
      </trkpt>
      <trkpt lat="49.2388" lon="2.3764">
        <ele>176.8</ele>
        <time>2017-05-07T09:05:57Z</time>
      </trkpt>
      <trkpt lat="49.23878" lon="2.37647">
        <ele>177.2</ele>
        <time>2017-05-07T09:06:04Z</time>
      </trkpt>
      <trkpt lat="49.23873" lon="2.37659">
        <ele>177.6</ele>
        <time>2017-05-07T09:06:11Z</time>
      </trkpt>
      <trkpt lat="49.23871" lon="2.37667">
        <ele>178</ele>
        <time>2017-05-07T09:06:18Z</time>
      </trkpt>
      <trkpt lat="49.23868" lon="2.3768">
        <ele>178.3</ele>
        <time>2017-05-07T09:06:24Z</time>
      </trkpt>
      <trkpt lat="49.23865" lon="2.3769">
        <ele>178.3</ele>
        <time>2017-05-07T09:06:30Z</time>
      </trkpt>
      <trkpt lat="49.23862" lon="2.377">
        <ele>178.3</ele>
        <time>2017-05-07T09:06:37Z</time>
      </trkpt>
      <trkpt lat="49.23859" lon="2.37711">
        <ele>177.8</ele>
        <time>2017-05-07T09:06:42Z</time>
      </trkpt>
      <trkpt lat="49.23855" lon="2.37721">
        <ele>177</ele>
        <time>2017-05-07T09:06:47Z</time>
      </trkpt>
      <trkpt lat="49.23854" lon="2.37731">
        <ele>176.3</ele>
        <time>2017-05-07T09:06:54Z</time>
      </trkpt>
      <trkpt lat="49.23849" lon="2.37739">
        <ele>175.7</ele>
        <time>2017-05-07T09:07:01Z</time>
      </trkpt>
      <trkpt lat="49.23842" lon="2.37747">
        <ele>175.1</ele>
        <time>2017-05-07T09:07:07Z</time>
      </trkpt>
      <trkpt lat="49.23836" lon="2.37754">
        <ele>175.2</ele>
        <time>2017-05-07T09:07:14Z</time>
      </trkpt>
      <trkpt lat="49.23833" lon="2.37762">
        <ele>174.8</ele>
        <time>2017-05-07T09:07:21Z</time>
      </trkpt>
      <trkpt lat="49.23831" lon="2.37773">
        <ele>174.6</ele>
        <time>2017-05-07T09:07:28Z</time>
      </trkpt>
      <trkpt lat="49.23828" lon="2.37783">
        <ele>173.5</ele>
        <time>2017-05-07T09:07:35Z</time>
      </trkpt>
      <trkpt lat="49.23824" lon="2.37795">
        <ele>171.6</ele>
        <time>2017-05-07T09:07:42Z</time>
      </trkpt>
      <trkpt lat="49.23819" lon="2.37802">
        <ele>170</ele>
        <time>2017-05-07T09:07:49Z</time>
      </trkpt>
      <trkpt lat="49.23818" lon="2.37807">
        <ele>169.5</ele>
        <time>2017-05-07T09:07:56Z</time>
      </trkpt>
      <trkpt lat="49.23814" lon="2.37813">
        <ele>168</ele>
        <time>2017-05-07T09:08:03Z</time>
      </trkpt>
      <trkpt lat="49.23811" lon="2.37819">
        <ele>166.7</ele>
        <time>2017-05-07T09:08:10Z</time>
      </trkpt>
      <trkpt lat="49.23807" lon="2.37825">
        <ele>165.9</ele>
        <time>2017-05-07T09:08:17Z</time>
      </trkpt>
      <trkpt lat="49.23804" lon="2.37829">
        <ele>165.9</ele>
        <time>2017-05-07T09:08:24Z</time>
      </trkpt>
      <trkpt lat="49.23798" lon="2.37838">
        <ele>166.1</ele>
        <time>2017-05-07T09:08:31Z</time>
      </trkpt>
      <trkpt lat="49.23796" lon="2.37847">
        <ele>165.7</ele>
        <time>2017-05-07T09:08:38Z</time>
      </trkpt>
      <trkpt lat="49.23792" lon="2.37854">
        <ele>164.9</ele>
        <time>2017-05-07T09:08:45Z</time>
      </trkpt>
      <trkpt lat="49.23786" lon="2.37866">
        <ele>164.5</ele>
        <time>2017-05-07T09:08:50Z</time>
      </trkpt>
      <trkpt lat="49.23782" lon="2.37877">
        <ele>164.2</ele>
        <time>2017-05-07T09:08:54Z</time>
      </trkpt>
      <trkpt lat="49.23778" lon="2.3789">
        <ele>164.1</ele>
        <time>2017-05-07T09:09:00Z</time>
      </trkpt>
      <trkpt lat="49.23776" lon="2.37896">
        <ele>163.3</ele>
        <time>2017-05-07T09:09:07Z</time>
      </trkpt>
      <trkpt lat="49.23774" lon="2.37906">
        <ele>162.6</ele>
        <time>2017-05-07T09:09:14Z</time>
      </trkpt>
      <trkpt lat="49.23771" lon="2.37918">
        <ele>161.7</ele>
        <time>2017-05-07T09:09:19Z</time>
      </trkpt>
      <trkpt lat="49.2377" lon="2.37926">
        <ele>161</ele>
        <time>2017-05-07T09:09:26Z</time>
      </trkpt>
      <trkpt lat="49.23767" lon="2.37934">
        <ele>159.8</ele>
        <time>2017-05-07T09:09:33Z</time>
      </trkpt>
      <trkpt lat="49.23762" lon="2.37943">
        <ele>159.4</ele>
        <time>2017-05-07T09:09:39Z</time>
      </trkpt>
      <trkpt lat="49.23754" lon="2.37949">
        <ele>159.1</ele>
        <time>2017-05-07T09:09:45Z</time>
      </trkpt>
      <trkpt lat="49.23749" lon="2.37963">
        <ele>158.3</ele>
        <time>2017-05-07T09:09:50Z</time>
      </trkpt>
      <trkpt lat="49.23745" lon="2.37973">
        <ele>157.4</ele>
        <time>2017-05-07T09:09:56Z</time>
      </trkpt>
      <trkpt lat="49.23742" lon="2.37975">
        <ele>157.3</ele>
        <time>2017-05-07T09:10:03Z</time>
      </trkpt>
      <trkpt lat="49.2374" lon="2.37982">
        <ele>157.4</ele>
        <time>2017-05-07T09:10:10Z</time>
      </trkpt>
      <trkpt lat="49.23738" lon="2.3799">
        <ele>156.5</ele>
        <time>2017-05-07T09:10:17Z</time>
      </trkpt>
      <trkpt lat="49.23735" lon="2.38001">
        <ele>155.9</ele>
        <time>2017-05-07T09:10:20Z</time>
      </trkpt>
      <trkpt lat="49.23732" lon="2.38008">
        <ele>154.6</ele>
        <time>2017-05-07T09:10:27Z</time>
      </trkpt>
      <trkpt lat="49.23726" lon="2.38017">
        <ele>153.8</ele>
        <time>2017-05-07T09:10:32Z</time>
      </trkpt>
      <trkpt lat="49.2372" lon="2.38023">
        <ele>153.5</ele>
        <time>2017-05-07T09:10:39Z</time>
      </trkpt>
      <trkpt lat="49.23716" lon="2.38033">
        <ele>153</ele>
        <time>2017-05-07T09:10:46Z</time>
      </trkpt>
      <trkpt lat="49.23713" lon="2.38043">
        <ele>152.8</ele>
        <time>2017-05-07T09:10:52Z</time>
      </trkpt>
      <trkpt lat="49.23711" lon="2.38054">
        <ele>152.1</ele>
        <time>2017-05-07T09:10:59Z</time>
      </trkpt>
      <trkpt lat="49.23706" lon="2.38065">
        <ele>151.1</ele>
        <time>2017-05-07T09:11:06Z</time>
      </trkpt>
      <trkpt lat="49.23703" lon="2.3807">
        <ele>150.2</ele>
        <time>2017-05-07T09:11:13Z</time>
      </trkpt>
      <trkpt lat="49.23693" lon="2.3807">
        <ele>149.3</ele>
        <time>2017-05-07T09:11:18Z</time>
      </trkpt>
      <trkpt lat="49.23686" lon="2.38076">
        <ele>148.7</ele>
        <time>2017-05-07T09:11:25Z</time>
      </trkpt>
      <trkpt lat="49.23684" lon="2.38084">
        <ele>148.4</ele>
        <time>2017-05-07T09:11:32Z</time>
      </trkpt>
      <trkpt lat="49.23679" lon="2.3809">
        <ele>148.1</ele>
        <time>2017-05-07T09:11:39Z</time>
      </trkpt>
      <trkpt lat="49.23672" lon="2.38096">
        <ele>148.1</ele>
        <time>2017-05-07T09:11:46Z</time>
      </trkpt>
      <trkpt lat="49.23666" lon="2.381">
        <ele>148</ele>
        <time>2017-05-07T09:11:53Z</time>
      </trkpt>
      <trkpt lat="49.23661" lon="2.38109">
        <ele>148.6</ele>
        <time>2017-05-07T09:11:58Z</time>
      </trkpt>
      <trkpt lat="49.23653" lon="2.38111">
        <ele>149.4</ele>
        <time>2017-05-07T09:12:03Z</time>
      </trkpt>
      <trkpt lat="49.23651" lon="2.38111">
        <ele>149.5</ele>
        <time>2017-05-07T09:12:10Z</time>
      </trkpt>
      <trkpt lat="49.23655" lon="2.38113">
        <ele>149.1</ele>
        <time>2017-05-07T09:11:50Z</time>
      </trkpt>
      <trkpt lat="49.2365" lon="2.38125">
        <ele>147.2</ele>
        <time>2017-05-07T09:14:34Z</time>
      </trkpt>
      <trkpt lat="49.23643" lon="2.38135">
        <ele>146.6</ele>
        <time>2017-05-07T09:14:36Z</time>
      </trkpt>
      <trkpt lat="49.23635" lon="2.38135">
        <ele>146.5</ele>
        <time>2017-05-07T09:14:38Z</time>
      </trkpt>
      <trkpt lat="49.23629" lon="2.38133">
        <ele>145.8</ele>
        <time>2017-05-07T09:14:45Z</time>
      </trkpt>
      <trkpt lat="49.23626" lon="2.38138">
        <ele>144.9</ele>
        <time>2017-05-07T09:14:52Z</time>
      </trkpt>
      <trkpt lat="49.23626" lon="2.38149">
        <ele>143.9</ele>
        <time>2017-05-07T09:14:59Z</time>
      </trkpt>
      <trkpt lat="49.23623" lon="2.3816">
        <ele>143.7</ele>
        <time>2017-05-07T09:15:05Z</time>
      </trkpt>
      <trkpt lat="49.23623" lon="2.38172">
        <ele>144</ele>
        <time>2017-05-07T09:15:10Z</time>
      </trkpt>
      <trkpt lat="49.23624" lon="2.38182">
        <ele>144.6</ele>
        <time>2017-05-07T09:15:17Z</time>
      </trkpt>
      <trkpt lat="49.23621" lon="2.38187">
        <ele>146.3</ele>
        <time>2017-05-07T09:15:24Z</time>
      </trkpt>
      <trkpt lat="49.23617" lon="2.38202">
        <ele>147.9</ele>
        <time>2017-05-07T09:15:30Z</time>
      </trkpt>
      <trkpt lat="49.23615" lon="2.38209">
        <ele>148.9</ele>
        <time>2017-05-07T09:15:37Z</time>
      </trkpt>
      <trkpt lat="49.23617" lon="2.38228">
        <ele>147.8</ele>
        <time>2017-05-07T09:15:43Z</time>
      </trkpt>
      <trkpt lat="49.23619" lon="2.38239">
        <ele>147.4</ele>
        <time>2017-05-07T09:15:46Z</time>
      </trkpt>
      <trkpt lat="49.23619" lon="2.38249">
        <ele>146.9</ele>
        <time>2017-05-07T09:15:53Z</time>
      </trkpt>
      <trkpt lat="49.23619" lon="2.38259">
        <ele>146.1</ele>
        <time>2017-05-07T09:16:00Z</time>
      </trkpt>
      <trkpt lat="49.23619" lon="2.38272">
        <ele>145.8</ele>
        <time>2017-05-07T09:16:06Z</time>
      </trkpt>
      <trkpt lat="49.23621" lon="2.38285">
        <ele>145.7</ele>
        <time>2017-05-07T09:16:11Z</time>
      </trkpt>
      <trkpt lat="49.23623" lon="2.38291">
        <ele>145.2</ele>
        <time>2017-05-07T09:16:18Z</time>
      </trkpt>
      <trkpt lat="49.23623" lon="2.38301">
        <ele>146.1</ele>
        <time>2017-05-07T09:16:25Z</time>
      </trkpt>
      <trkpt lat="49.23622" lon="2.38314">
        <ele>147.9</ele>
        <time>2017-05-07T09:16:32Z</time>
      </trkpt>
      <trkpt lat="49.23623" lon="2.38325">
        <ele>149</ele>
        <time>2017-05-07T09:16:38Z</time>
      </trkpt>
      <trkpt lat="49.23627" lon="2.38338">
        <ele>148.6</ele>
        <time>2017-05-07T09:16:44Z</time>
      </trkpt>
      <trkpt lat="49.23626" lon="2.3835">
        <ele>148.2</ele>
        <time>2017-05-07T09:16:49Z</time>
      </trkpt>
      <trkpt lat="49.23625" lon="2.38361">
        <ele>148</ele>
        <time>2017-05-07T09:16:55Z</time>
      </trkpt>
      <trkpt lat="49.23626" lon="2.38364">
        <ele>148.9</ele>
        <time>2017-05-07T09:17:02Z</time>
      </trkpt>
      <trkpt lat="49.23623" lon="2.38374">
        <ele>149.3</ele>
        <time>2017-05-07T09:17:05Z</time>
      </trkpt>
      <trkpt lat="49.23624" lon="2.38386">
        <ele>150.8</ele>
        <time>2017-05-07T09:17:12Z</time>
      </trkpt>
      <trkpt lat="49.23622" lon="2.38399">
        <ele>151.3</ele>
        <time>2017-05-07T09:17:19Z</time>
      </trkpt>
      <trkpt lat="49.2362" lon="2.38407">
        <ele>151.6</ele>
        <time>2017-05-07T09:17:26Z</time>
      </trkpt>
      <trkpt lat="49.23619" lon="2.38418">
        <ele>151.4</ele>
        <time>2017-05-07T09:17:32Z</time>
      </trkpt>
      <trkpt lat="49.23615" lon="2.38428">
        <ele>151.7</ele>
        <time>2017-05-07T09:17:37Z</time>
      </trkpt>
      <trkpt lat="49.23613" lon="2.38439">
        <ele>152</ele>
        <time>2017-05-07T09:17:42Z</time>
      </trkpt>
      <trkpt lat="49.23614" lon="2.38447">
        <ele>152.3</ele>
        <time>2017-05-07T09:17:49Z</time>
      </trkpt>
      <trkpt lat="49.23614" lon="2.3846">
        <ele>152.7</ele>
        <time>2017-05-07T09:17:53Z</time>
      </trkpt>
      <trkpt lat="49.23614" lon="2.38471">
        <ele>152.8</ele>
        <time>2017-05-07T09:17:59Z</time>
      </trkpt>
      <trkpt lat="49.23615" lon="2.38482">
        <ele>152.4</ele>
        <time>2017-05-07T09:18:06Z</time>
      </trkpt>
      <trkpt lat="49.23617" lon="2.38492">
        <ele>151.4</ele>
        <time>2017-05-07T09:18:13Z</time>
      </trkpt>
      <trkpt lat="49.23616" lon="2.38501">
        <ele>150.5</ele>
        <time>2017-05-07T09:18:20Z</time>
      </trkpt>
      <trkpt lat="49.23616" lon="2.38511">
        <ele>150</ele>
        <time>2017-05-07T09:18:27Z</time>
      </trkpt>
      <trkpt lat="49.23616" lon="2.38524">
        <ele>149.9</ele>
        <time>2017-05-07T09:18:34Z</time>
      </trkpt>
      <trkpt lat="49.23614" lon="2.38535">
        <ele>149.6</ele>
        <time>2017-05-07T09:18:40Z</time>
      </trkpt>
      <trkpt lat="49.23613" lon="2.38544">
        <ele>149.3</ele>
        <time>2017-05-07T09:18:47Z</time>
      </trkpt>
      <trkpt lat="49.23609" lon="2.38551">
        <ele>148.4</ele>
        <time>2017-05-07T09:18:54Z</time>
      </trkpt>
      <trkpt lat="49.23606" lon="2.38561">
        <ele>148</ele>
        <time>2017-05-07T09:19:00Z</time>
      </trkpt>
      <trkpt lat="49.23604" lon="2.38572">
        <ele>147.1</ele>
        <time>2017-05-07T09:19:06Z</time>
      </trkpt>
      <trkpt lat="49.236" lon="2.38583">
        <ele>146.4</ele>
        <time>2017-05-07T09:19:12Z</time>
      </trkpt>
      <trkpt lat="49.23598" lon="2.38592">
        <ele>145.7</ele>
        <time>2017-05-07T09:19:19Z</time>
      </trkpt>
      <trkpt lat="49.23596" lon="2.38606">
        <ele>145.2</ele>
        <time>2017-05-07T09:19:25Z</time>
      </trkpt>
      <trkpt lat="49.23593" lon="2.38617">
        <ele>144.9</ele>
        <time>2017-05-07T09:19:31Z</time>
      </trkpt>
      <trkpt lat="49.23592" lon="2.38626">
        <ele>143.9</ele>
        <time>2017-05-07T09:19:38Z</time>
      </trkpt>
      <trkpt lat="49.23589" lon="2.38637">
        <ele>143.2</ele>
        <time>2017-05-07T09:19:45Z</time>
      </trkpt>
      <trkpt lat="49.23588" lon="2.38648">
        <ele>142.9</ele>
        <time>2017-05-07T09:19:50Z</time>
      </trkpt>
      <trkpt lat="49.23584" lon="2.38662">
        <ele>141.7</ele>
        <time>2017-05-07T09:19:57Z</time>
      </trkpt>
      <trkpt lat="49.23584" lon="2.38669">
        <ele>140.3</ele>
        <time>2017-05-07T09:20:04Z</time>
      </trkpt>
      <trkpt lat="49.23579" lon="2.3868">
        <ele>139.5</ele>
        <time>2017-05-07T09:20:09Z</time>
      </trkpt>
      <trkpt lat="49.23577" lon="2.3869">
        <ele>138.9</ele>
        <time>2017-05-07T09:20:16Z</time>
      </trkpt>
      <trkpt lat="49.23575" lon="2.387">
        <ele>138.5</ele>
        <time>2017-05-07T09:20:21Z</time>
      </trkpt>
      <trkpt lat="49.23573" lon="2.38711">
        <ele>138</ele>
        <time>2017-05-07T09:20:28Z</time>
      </trkpt>
      <trkpt lat="49.2357" lon="2.38717">
        <ele>137.8</ele>
        <time>2017-05-07T09:20:36Z</time>
      </trkpt>
      <trkpt lat="49.2357" lon="2.38729">
        <ele>137.5</ele>
        <time>2017-05-07T09:20:40Z</time>
      </trkpt>
      <trkpt lat="49.2357" lon="2.38741">
        <ele>136.6</ele>
        <time>2017-05-07T09:20:46Z</time>
      </trkpt>
      <trkpt lat="49.23569" lon="2.38746">
        <ele>135.6</ele>
        <time>2017-05-07T09:20:53Z</time>
      </trkpt>
      <trkpt lat="49.23572" lon="2.38743">
        <ele>135</ele>
        <time>2017-05-07T09:21:50Z</time>
      </trkpt>
      <trkpt lat="49.23572" lon="2.38739">
        <ele>134.9</ele>
        <time>2017-05-07T09:21:57Z</time>
      </trkpt>
      <trkpt lat="49.2357" lon="2.38752">
        <ele>133.6</ele>
        <time>2017-05-07T09:22:19Z</time>
      </trkpt>
      <trkpt lat="49.23567" lon="2.38763">
        <ele>133.3</ele>
        <time>2017-05-07T09:22:24Z</time>
      </trkpt>
      <trkpt lat="49.23563" lon="2.38774">
        <ele>133.1</ele>
        <time>2017-05-07T09:22:30Z</time>
      </trkpt>
      <trkpt lat="49.23562" lon="2.38785">
        <ele>133.1</ele>
        <time>2017-05-07T09:22:36Z</time>
      </trkpt>
      <trkpt lat="49.23561" lon="2.38798">
        <ele>133.2</ele>
        <time>2017-05-07T09:22:43Z</time>
      </trkpt>
      <trkpt lat="49.23562" lon="2.38808">
        <ele>133</ele>
        <time>2017-05-07T09:22:50Z</time>
      </trkpt>
      <trkpt lat="49.23561" lon="2.38823">
        <ele>133.1</ele>
        <time>2017-05-07T09:22:57Z</time>
      </trkpt>
      <trkpt lat="49.23559" lon="2.38833">
        <ele>133</ele>
        <time>2017-05-07T09:23:02Z</time>
      </trkpt>
      <trkpt lat="49.23557" lon="2.38843">
        <ele>133.1</ele>
        <time>2017-05-07T09:23:09Z</time>
      </trkpt>
      <trkpt lat="49.23555" lon="2.38854">
        <ele>133</ele>
        <time>2017-05-07T09:23:14Z</time>
      </trkpt>
      <trkpt lat="49.23556" lon="2.38867">
        <ele>132.6</ele>
        <time>2017-05-07T09:23:21Z</time>
      </trkpt>
      <trkpt lat="49.23553" lon="2.38875">
        <ele>132.5</ele>
        <time>2017-05-07T09:23:27Z</time>
      </trkpt>
      <trkpt lat="49.23552" lon="2.38887">
        <ele>132.5</ele>
        <time>2017-05-07T09:23:32Z</time>
      </trkpt>
      <trkpt lat="49.2355" lon="2.38895">
        <ele>132.5</ele>
        <time>2017-05-07T09:23:39Z</time>
      </trkpt>
      <trkpt lat="49.23548" lon="2.38907">
        <ele>132.4</ele>
        <time>2017-05-07T09:23:45Z</time>
      </trkpt>
      <trkpt lat="49.23547" lon="2.38919">
        <ele>132.2</ele>
        <time>2017-05-07T09:23:51Z</time>
      </trkpt>
      <trkpt lat="49.23548" lon="2.3893">
        <ele>132</ele>
        <time>2017-05-07T09:23:58Z</time>
      </trkpt>
      <trkpt lat="49.23547" lon="2.38941">
        <ele>132.2</ele>
        <time>2017-05-07T09:24:05Z</time>
      </trkpt>
      <trkpt lat="49.23545" lon="2.38951">
        <ele>132.4</ele>
        <time>2017-05-07T09:24:12Z</time>
      </trkpt>
      <trkpt lat="49.23544" lon="2.38962">
        <ele>132.4</ele>
        <time>2017-05-07T09:24:19Z</time>
      </trkpt>
      <trkpt lat="49.23542" lon="2.38973">
        <ele>132.3</ele>
        <time>2017-05-07T09:24:24Z</time>
      </trkpt>
      <trkpt lat="49.23541" lon="2.38985">
        <ele>132.2</ele>
        <time>2017-05-07T09:24:31Z</time>
      </trkpt>
      <trkpt lat="49.23537" lon="2.38995">
        <ele>132.1</ele>
        <time>2017-05-07T09:24:36Z</time>
      </trkpt>
      <trkpt lat="49.23537" lon="2.39004">
        <ele>132.1</ele>
        <time>2017-05-07T09:24:43Z</time>
      </trkpt>
      <trkpt lat="49.23536" lon="2.39016">
        <ele>131.9</ele>
        <time>2017-05-07T09:24:50Z</time>
      </trkpt>
      <trkpt lat="49.23534" lon="2.39027">
        <ele>132.1</ele>
        <time>2017-05-07T09:24:56Z</time>
      </trkpt>
      <trkpt lat="49.23532" lon="2.39039">
        <ele>132.1</ele>
        <time>2017-05-07T09:25:03Z</time>
      </trkpt>
      <trkpt lat="49.23531" lon="2.39051">
        <ele>132.4</ele>
        <time>2017-05-07T09:25:10Z</time>
      </trkpt>
      <trkpt lat="49.23529" lon="2.39061">
        <ele>132.2</ele>
        <time>2017-05-07T09:25:17Z</time>
      </trkpt>
      <trkpt lat="49.23527" lon="2.39074">
        <ele>132.2</ele>
        <time>2017-05-07T09:25:24Z</time>
      </trkpt>
      <trkpt lat="49.23525" lon="2.39086">
        <ele>132</ele>
        <time>2017-05-07T09:25:31Z</time>
      </trkpt>
      <trkpt lat="49.23525" lon="2.39096">
        <ele>132</ele>
        <time>2017-05-07T09:25:38Z</time>
      </trkpt>
      <trkpt lat="49.23524" lon="2.39107">
        <ele>132.2</ele>
        <time>2017-05-07T09:25:45Z</time>
      </trkpt>
      <trkpt lat="49.23524" lon="2.39119">
        <ele>132</ele>
        <time>2017-05-07T09:25:51Z</time>
      </trkpt>
      <trkpt lat="49.23524" lon="2.39129">
        <ele>131.5</ele>
        <time>2017-05-07T09:25:58Z</time>
      </trkpt>
      <trkpt lat="49.23524" lon="2.39138">
        <ele>131.1</ele>
        <time>2017-05-07T09:26:05Z</time>
      </trkpt>
      <trkpt lat="49.23522" lon="2.39148">
        <ele>131.1</ele>
        <time>2017-05-07T09:26:11Z</time>
      </trkpt>
      <trkpt lat="49.2352" lon="2.39162">
        <ele>131</ele>
        <time>2017-05-07T09:26:18Z</time>
      </trkpt>
      <trkpt lat="49.23517" lon="2.39175">
        <ele>130.8</ele>
        <time>2017-05-07T09:26:25Z</time>
      </trkpt>
      <trkpt lat="49.23515" lon="2.39186">
        <ele>130.8</ele>
        <time>2017-05-07T09:26:31Z</time>
      </trkpt>
      <trkpt lat="49.23512" lon="2.39197">
        <ele>130.8</ele>
        <time>2017-05-07T09:26:37Z</time>
      </trkpt>
      <trkpt lat="49.2351" lon="2.39208">
        <ele>130.9</ele>
        <time>2017-05-07T09:26:44Z</time>
      </trkpt>
      <trkpt lat="49.23509" lon="2.3922">
        <ele>130.9</ele>
        <time>2017-05-07T09:26:51Z</time>
      </trkpt>
      <trkpt lat="49.23506" lon="2.39231">
        <ele>131.1</ele>
        <time>2017-05-07T09:26:57Z</time>
      </trkpt>
      <trkpt lat="49.23505" lon="2.39241">
        <ele>131.3</ele>
        <time>2017-05-07T09:27:04Z</time>
      </trkpt>
      <trkpt lat="49.23503" lon="2.39253">
        <ele>131.5</ele>
        <time>2017-05-07T09:27:10Z</time>
      </trkpt>
      <trkpt lat="49.23499" lon="2.39265">
        <ele>131.8</ele>
        <time>2017-05-07T09:27:16Z</time>
      </trkpt>
      <trkpt lat="49.23496" lon="2.39275">
        <ele>132</ele>
        <time>2017-05-07T09:27:23Z</time>
      </trkpt>
      <trkpt lat="49.23495" lon="2.39286">
        <ele>131.9</ele>
        <time>2017-05-07T09:27:29Z</time>
      </trkpt>
      <trkpt lat="49.23493" lon="2.39296">
        <ele>131.6</ele>
        <time>2017-05-07T09:27:36Z</time>
      </trkpt>
      <trkpt lat="49.23491" lon="2.39307">
        <ele>131.4</ele>
        <time>2017-05-07T09:27:41Z</time>
      </trkpt>
      <trkpt lat="49.23488" lon="2.39318">
        <ele>131</ele>
        <time>2017-05-07T09:27:48Z</time>
      </trkpt>
      <trkpt lat="49.23485" lon="2.39327">
        <ele>131.2</ele>
        <time>2017-05-07T09:27:55Z</time>
      </trkpt>
      <trkpt lat="49.23482" lon="2.39337">
        <ele>131.3</ele>
        <time>2017-05-07T09:28:01Z</time>
      </trkpt>
      <trkpt lat="49.23478" lon="2.39348">
        <ele>131.7</ele>
        <time>2017-05-07T09:28:07Z</time>
      </trkpt>
      <trkpt lat="49.23475" lon="2.39358">
        <ele>131.8</ele>
        <time>2017-05-07T09:28:14Z</time>
      </trkpt>
      <trkpt lat="49.23472" lon="2.3937">
        <ele>132.2</ele>
        <time>2017-05-07T09:28:20Z</time>
      </trkpt>
      <trkpt lat="49.23469" lon="2.39381">
        <ele>132.7</ele>
        <time>2017-05-07T09:28:26Z</time>
      </trkpt>
      <trkpt lat="49.23465" lon="2.3939">
        <ele>132.8</ele>
        <time>2017-05-07T09:28:33Z</time>
      </trkpt>
      <trkpt lat="49.23462" lon="2.39401">
        <ele>133.3</ele>
        <time>2017-05-07T09:28:39Z</time>
      </trkpt>
      <trkpt lat="49.23458" lon="2.3941">
        <ele>133.9</ele>
        <time>2017-05-07T09:28:45Z</time>
      </trkpt>
      <trkpt lat="49.23455" lon="2.39422">
        <ele>134.3</ele>
        <time>2017-05-07T09:28:52Z</time>
      </trkpt>
      <trkpt lat="49.23451" lon="2.39433">
        <ele>134.1</ele>
        <time>2017-05-07T09:28:59Z</time>
      </trkpt>
      <trkpt lat="49.23448" lon="2.39443">
        <ele>133.9</ele>
        <time>2017-05-07T09:29:05Z</time>
      </trkpt>
      <trkpt lat="49.23444" lon="2.39455">
        <ele>133.6</ele>
        <time>2017-05-07T09:29:11Z</time>
      </trkpt>
      <trkpt lat="49.23441" lon="2.39464">
        <ele>134.1</ele>
        <time>2017-05-07T09:29:18Z</time>
      </trkpt>
      <trkpt lat="49.23445" lon="2.39475">
        <ele>134.5</ele>
        <time>2017-05-07T09:29:25Z</time>
      </trkpt>
      <trkpt lat="49.23453" lon="2.39477">
        <ele>134.6</ele>
        <time>2017-05-07T09:29:29Z</time>
      </trkpt>
      <trkpt lat="49.2346" lon="2.39479">
        <ele>134.6</ele>
        <time>2017-05-07T09:29:36Z</time>
      </trkpt>
      <trkpt lat="49.23468" lon="2.39482">
        <ele>134.6</ele>
        <time>2017-05-07T09:29:43Z</time>
      </trkpt>
      <trkpt lat="49.23475" lon="2.39484">
        <ele>135</ele>
        <time>2017-05-07T09:29:49Z</time>
      </trkpt>
      <trkpt lat="49.23484" lon="2.39485">
        <ele>135.4</ele>
        <time>2017-05-07T09:29:56Z</time>
      </trkpt>
      <trkpt lat="49.23491" lon="2.39484">
        <ele>135.8</ele>
        <time>2017-05-07T09:30:03Z</time>
      </trkpt>
      <trkpt lat="49.23498" lon="2.39484">
        <ele>136</ele>
        <time>2017-05-07T09:30:09Z</time>
      </trkpt>
      <trkpt lat="49.23506" lon="2.39483">
        <ele>136</ele>
        <time>2017-05-07T09:30:16Z</time>
      </trkpt>
      <trkpt lat="49.23515" lon="2.39483">
        <ele>136.2</ele>
        <time>2017-05-07T09:30:23Z</time>
      </trkpt>
      <trkpt lat="49.23521" lon="2.39483">
        <ele>136.5</ele>
        <time>2017-05-07T09:30:30Z</time>
      </trkpt>
      <trkpt lat="49.23528" lon="2.39483">
        <ele>136.8</ele>
        <time>2017-05-07T09:30:35Z</time>
      </trkpt>
      <trkpt lat="49.23536" lon="2.39484">
        <ele>136.7</ele>
        <time>2017-05-07T09:30:41Z</time>
      </trkpt>
      <trkpt lat="49.23544" lon="2.39483">
        <ele>136.7</ele>
        <time>2017-05-07T09:30:48Z</time>
      </trkpt>
      <trkpt lat="49.23551" lon="2.39484">
        <ele>136.7</ele>
        <time>2017-05-07T09:30:55Z</time>
      </trkpt>
      <trkpt lat="49.23558" lon="2.39483">
        <ele>136.5</ele>
        <time>2017-05-07T09:31:01Z</time>
      </trkpt>
      <trkpt lat="49.23567" lon="2.39485">
        <ele>136.3</ele>
        <time>2017-05-07T09:31:06Z</time>
      </trkpt>
      <trkpt lat="49.23573" lon="2.39487">
        <ele>136.4</ele>
        <time>2017-05-07T09:31:13Z</time>
      </trkpt>
      <trkpt lat="49.23581" lon="2.39489">
        <ele>136</ele>
        <time>2017-05-07T09:31:19Z</time>
      </trkpt>
      <trkpt lat="49.23589" lon="2.39489">
        <ele>135.6</ele>
        <time>2017-05-07T09:31:26Z</time>
      </trkpt>
      <trkpt lat="49.23596" lon="2.3949">
        <ele>135</ele>
        <time>2017-05-07T09:31:31Z</time>
      </trkpt>
      <trkpt lat="49.23604" lon="2.39489">
        <ele>134.8</ele>
        <time>2017-05-07T09:31:37Z</time>
      </trkpt>
      <trkpt lat="49.23611" lon="2.39489">
        <ele>134.4</ele>
        <time>2017-05-07T09:31:44Z</time>
      </trkpt>
      <trkpt lat="49.23619" lon="2.39489">
        <ele>134.3</ele>
        <time>2017-05-07T09:31:51Z</time>
      </trkpt>
      <trkpt lat="49.23627" lon="2.39489">
        <ele>133.7</ele>
        <time>2017-05-07T09:31:57Z</time>
      </trkpt>
      <trkpt lat="49.23634" lon="2.39489">
        <ele>133.8</ele>
        <time>2017-05-07T09:32:04Z</time>
      </trkpt>
      <trkpt lat="49.23641" lon="2.39488">
        <ele>134.1</ele>
        <time>2017-05-07T09:32:11Z</time>
      </trkpt>
      <trkpt lat="49.23648" lon="2.39487">
        <ele>134</ele>
        <time>2017-05-07T09:32:17Z</time>
      </trkpt>
      <trkpt lat="49.23657" lon="2.39488">
        <ele>134</ele>
        <time>2017-05-07T09:32:24Z</time>
      </trkpt>
      <trkpt lat="49.23665" lon="2.39489">
        <ele>133.8</ele>
        <time>2017-05-07T09:32:31Z</time>
      </trkpt>
      <trkpt lat="49.23673" lon="2.3949">
        <ele>133.5</ele>
        <time>2017-05-07T09:32:37Z</time>
      </trkpt>
      <trkpt lat="49.23681" lon="2.39491">
        <ele>133.1</ele>
        <time>2017-05-07T09:32:43Z</time>
      </trkpt>
      <trkpt lat="49.23688" lon="2.39491">
        <ele>132</ele>
        <time>2017-05-07T09:32:50Z</time>
      </trkpt>
      <trkpt lat="49.23695" lon="2.3949">
        <ele>131.9</ele>
        <time>2017-05-07T09:32:56Z</time>
      </trkpt>
      <trkpt lat="49.23702" lon="2.39491">
        <ele>132.2</ele>
        <time>2017-05-07T09:33:03Z</time>
      </trkpt>
      <trkpt lat="49.2371" lon="2.39491">
        <ele>132.4</ele>
        <time>2017-05-07T09:33:09Z</time>
      </trkpt>
      <trkpt lat="49.23718" lon="2.39491">
        <ele>132.4</ele>
        <time>2017-05-07T09:33:16Z</time>
      </trkpt>
      <trkpt lat="49.23724" lon="2.39491">
        <ele>132.2</ele>
        <time>2017-05-07T09:33:23Z</time>
      </trkpt>
      <trkpt lat="49.23732" lon="2.39491">
        <ele>132.2</ele>
        <time>2017-05-07T09:33:28Z</time>
      </trkpt>
      <trkpt lat="49.23741" lon="2.39492">
        <ele>132.4</ele>
        <time>2017-05-07T09:33:35Z</time>
      </trkpt>
      <trkpt lat="49.23748" lon="2.39492">
        <ele>132.4</ele>
        <time>2017-05-07T09:33:41Z</time>
      </trkpt>
      <trkpt lat="49.23756" lon="2.39493">
        <ele>132.8</ele>
        <time>2017-05-07T09:33:48Z</time>
      </trkpt>
      <trkpt lat="49.23763" lon="2.39492">
        <ele>132.2</ele>
        <time>2017-05-07T09:33:55Z</time>
      </trkpt>
      <trkpt lat="49.23771" lon="2.39493">
        <ele>131.2</ele>
        <time>2017-05-07T09:34:00Z</time>
      </trkpt>
      <trkpt lat="49.23778" lon="2.39496">
        <ele>130.5</ele>
        <time>2017-05-07T09:34:06Z</time>
      </trkpt>
      <trkpt lat="49.23784" lon="2.39496">
        <ele>130.5</ele>
        <time>2017-05-07T09:34:13Z</time>
      </trkpt>
      <trkpt lat="49.23792" lon="2.39496">
        <ele>129.6</ele>
        <time>2017-05-07T09:34:20Z</time>
      </trkpt>
      <trkpt lat="49.23801" lon="2.39497">
        <ele>128.8</ele>
        <time>2017-05-07T09:34:27Z</time>
      </trkpt>
      <trkpt lat="49.23808" lon="2.39497">
        <ele>129.2</ele>
        <time>2017-05-07T09:34:34Z</time>
      </trkpt>
      <trkpt lat="49.23817" lon="2.39498">
        <ele>130.1</ele>
        <time>2017-05-07T09:34:41Z</time>
      </trkpt>
      <trkpt lat="49.23824" lon="2.39499">
        <ele>130.5</ele>
        <time>2017-05-07T09:34:46Z</time>
      </trkpt>
      <trkpt lat="49.23829" lon="2.39502">
        <ele>131.6</ele>
        <time>2017-05-07T09:34:53Z</time>
      </trkpt>
      <trkpt lat="49.23837" lon="2.39504">
        <ele>131.6</ele>
        <time>2017-05-07T09:35:00Z</time>
      </trkpt>
      <trkpt lat="49.23843" lon="2.39511">
        <ele>131.7</ele>
        <time>2017-05-07T09:35:05Z</time>
      </trkpt>
      <trkpt lat="49.23845" lon="2.39512">
        <ele>133.1</ele>
        <time>2017-05-07T09:35:12Z</time>
      </trkpt>
      <trkpt lat="49.23852" lon="2.39516">
        <ele>133.6</ele>
        <time>2017-05-07T09:35:18Z</time>
      </trkpt>
      <trkpt lat="49.23859" lon="2.39521">
        <ele>133.4</ele>
        <time>2017-05-07T09:35:24Z</time>
      </trkpt>
      <trkpt lat="49.23865" lon="2.39529">
        <ele>132.7</ele>
        <time>2017-05-07T09:35:31Z</time>
      </trkpt>
      <trkpt lat="49.23872" lon="2.39536">
        <ele>132.5</ele>
        <time>2017-05-07T09:35:38Z</time>
      </trkpt>
      <trkpt lat="49.2388" lon="2.39541">
        <ele>132.9</ele>
        <time>2017-05-07T09:35:44Z</time>
      </trkpt>
      <trkpt lat="49.23887" lon="2.39545">
        <ele>133.5</ele>
        <time>2017-05-07T09:35:51Z</time>
      </trkpt>
      <trkpt lat="49.2389" lon="2.39548">
        <ele>134.2</ele>
        <time>2017-05-07T09:35:58Z</time>
      </trkpt>
      <trkpt lat="49.23897" lon="2.39555">
        <ele>134.6</ele>
        <time>2017-05-07T09:36:02Z</time>
      </trkpt>
      <trkpt lat="49.23904" lon="2.39557">
        <ele>137.4</ele>
        <time>2017-05-07T09:36:09Z</time>
      </trkpt>
      <trkpt lat="49.2391" lon="2.39565">
        <ele>137.8</ele>
        <time>2017-05-07T09:36:15Z</time>
      </trkpt>
      <trkpt lat="49.23915" lon="2.39573">
        <ele>138</ele>
        <time>2017-05-07T09:36:22Z</time>
      </trkpt>
      <trkpt lat="49.23921" lon="2.3958">
        <ele>137.2</ele>
        <time>2017-05-07T09:36:28Z</time>
      </trkpt>
      <trkpt lat="49.23928" lon="2.39586">
        <ele>135.7</ele>
        <time>2017-05-07T09:36:35Z</time>
      </trkpt>
      <trkpt lat="49.23934" lon="2.39592">
        <ele>134.9</ele>
        <time>2017-05-07T09:36:42Z</time>
      </trkpt>
      <trkpt lat="49.23941" lon="2.39596">
        <ele>134.4</ele>
        <time>2017-05-07T09:36:48Z</time>
      </trkpt>
      <trkpt lat="49.23948" lon="2.39599">
        <ele>133.9</ele>
        <time>2017-05-07T09:36:54Z</time>
      </trkpt>
      <trkpt lat="49.23956" lon="2.39603">
        <ele>133.5</ele>
        <time>2017-05-07T09:37:01Z</time>
      </trkpt>
      <trkpt lat="49.23963" lon="2.39609">
        <ele>133.4</ele>
        <time>2017-05-07T09:37:08Z</time>
      </trkpt>
      <trkpt lat="49.23969" lon="2.39615">
        <ele>133.5</ele>
        <time>2017-05-07T09:37:13Z</time>
      </trkpt>
      <trkpt lat="49.23974" lon="2.39621">
        <ele>133.6</ele>
        <time>2017-05-07T09:37:20Z</time>
      </trkpt>
      <trkpt lat="49.2398" lon="2.39629">
        <ele>133.7</ele>
        <time>2017-05-07T09:37:26Z</time>
      </trkpt>
      <trkpt lat="49.23987" lon="2.39637">
        <ele>133.5</ele>
        <time>2017-05-07T09:37:32Z</time>
      </trkpt>
      <trkpt lat="49.23993" lon="2.39642">
        <ele>133</ele>
        <time>2017-05-07T09:37:39Z</time>
      </trkpt>
      <trkpt lat="49.24" lon="2.3965">
        <ele>132.4</ele>
        <time>2017-05-07T09:37:46Z</time>
      </trkpt>
      <trkpt lat="49.24005" lon="2.39657">
        <ele>131.9</ele>
        <time>2017-05-07T09:37:53Z</time>
      </trkpt>
      <trkpt lat="49.24011" lon="2.39664">
        <ele>132</ele>
        <time>2017-05-07T09:38:00Z</time>
      </trkpt>
      <trkpt lat="49.24018" lon="2.39669">
        <ele>131.9</ele>
        <time>2017-05-07T09:38:06Z</time>
      </trkpt>
      <trkpt lat="49.24025" lon="2.39675">
        <ele>132.1</ele>
        <time>2017-05-07T09:38:12Z</time>
      </trkpt>
      <trkpt lat="49.24032" lon="2.3968">
        <ele>132.4</ele>
        <time>2017-05-07T09:38:19Z</time>
      </trkpt>
      <trkpt lat="49.24039" lon="2.39684">
        <ele>132.6</ele>
        <time>2017-05-07T09:38:25Z</time>
      </trkpt>
      <trkpt lat="49.24045" lon="2.39689">
        <ele>133.3</ele>
        <time>2017-05-07T09:38:31Z</time>
      </trkpt>
      <trkpt lat="49.24052" lon="2.39694">
        <ele>134</ele>
        <time>2017-05-07T09:38:36Z</time>
      </trkpt>
      <trkpt lat="49.24056" lon="2.39698">
        <ele>134.3</ele>
        <time>2017-05-07T09:38:43Z</time>
      </trkpt>
      <trkpt lat="49.24063" lon="2.39704">
        <ele>134.1</ele>
        <time>2017-05-07T09:38:50Z</time>
      </trkpt>
      <trkpt lat="49.24069" lon="2.39711">
        <ele>133.8</ele>
        <time>2017-05-07T09:38:57Z</time>
      </trkpt>
      <trkpt lat="49.24076" lon="2.39716">
        <ele>133.8</ele>
        <time>2017-05-07T09:39:02Z</time>
      </trkpt>
      <trkpt lat="49.24082" lon="2.39721">
        <ele>134</ele>
        <time>2017-05-07T09:39:07Z</time>
      </trkpt>
      <trkpt lat="49.24087" lon="2.39728">
        <ele>133.9</ele>
        <time>2017-05-07T09:39:14Z</time>
      </trkpt>
      <trkpt lat="49.24094" lon="2.39736">
        <ele>133.7</ele>
        <time>2017-05-07T09:39:21Z</time>
      </trkpt>
      <trkpt lat="49.241" lon="2.39742">
        <ele>134</ele>
        <time>2017-05-07T09:39:27Z</time>
      </trkpt>
      <trkpt lat="49.24107" lon="2.39748">
        <ele>134.3</ele>
        <time>2017-05-07T09:39:34Z</time>
      </trkpt>
      <trkpt lat="49.24113" lon="2.39756">
        <ele>134.3</ele>
        <time>2017-05-07T09:39:41Z</time>
      </trkpt>
      <trkpt lat="49.24118" lon="2.39764">
        <ele>134.3</ele>
        <time>2017-05-07T09:39:47Z</time>
      </trkpt>
      <trkpt lat="49.24125" lon="2.39768">
        <ele>134.7</ele>
        <time>2017-05-07T09:39:54Z</time>
      </trkpt>
      <trkpt lat="49.24132" lon="2.39777">
        <ele>135.1</ele>
        <time>2017-05-07T09:40:00Z</time>
      </trkpt>
      <trkpt lat="49.24139" lon="2.39785">
        <ele>135.9</ele>
        <time>2017-05-07T09:40:07Z</time>
      </trkpt>
      <trkpt lat="49.24145" lon="2.39789">
        <ele>136</ele>
        <time>2017-05-07T09:40:14Z</time>
      </trkpt>
      <trkpt lat="49.24151" lon="2.39796">
        <ele>135.5</ele>
        <time>2017-05-07T09:40:21Z</time>
      </trkpt>
      <trkpt lat="49.24157" lon="2.39803">
        <ele>135.3</ele>
        <time>2017-05-07T09:40:28Z</time>
      </trkpt>
      <trkpt lat="49.24163" lon="2.39812">
        <ele>135.5</ele>
        <time>2017-05-07T09:40:35Z</time>
      </trkpt>
      <trkpt lat="49.24168" lon="2.39821">
        <ele>135.8</ele>
        <time>2017-05-07T09:40:40Z</time>
      </trkpt>
      <trkpt lat="49.24174" lon="2.39826">
        <ele>136.1</ele>
        <time>2017-05-07T09:40:47Z</time>
      </trkpt>
      <trkpt lat="49.24178" lon="2.39831">
        <ele>135.8</ele>
        <time>2017-05-07T09:40:54Z</time>
      </trkpt>
      <trkpt lat="49.24185" lon="2.39836">
        <ele>135.7</ele>
        <time>2017-05-07T09:40:59Z</time>
      </trkpt>
      <trkpt lat="49.24191" lon="2.39843">
        <ele>135.5</ele>
        <time>2017-05-07T09:41:06Z</time>
      </trkpt>
      <trkpt lat="49.24197" lon="2.3985">
        <ele>135.2</ele>
        <time>2017-05-07T09:41:12Z</time>
      </trkpt>
      <trkpt lat="49.24203" lon="2.39856">
        <ele>135.4</ele>
        <time>2017-05-07T09:41:18Z</time>
      </trkpt>
      <trkpt lat="49.2421" lon="2.39865">
        <ele>135.5</ele>
        <time>2017-05-07T09:41:25Z</time>
      </trkpt>
      <trkpt lat="49.24217" lon="2.39872">
        <ele>135.3</ele>
        <time>2017-05-07T09:41:32Z</time>
      </trkpt>
      <trkpt lat="49.24224" lon="2.39878">
        <ele>135.5</ele>
        <time>2017-05-07T09:41:39Z</time>
      </trkpt>
      <trkpt lat="49.2423" lon="2.39884">
        <ele>135.9</ele>
        <time>2017-05-07T09:41:46Z</time>
      </trkpt>
      <trkpt lat="49.24236" lon="2.39892">
        <ele>135.8</ele>
        <time>2017-05-07T09:41:52Z</time>
      </trkpt>
      <trkpt lat="49.24243" lon="2.39898">
        <ele>135.3</ele>
        <time>2017-05-07T09:41:59Z</time>
      </trkpt>
      <trkpt lat="49.2425" lon="2.39901">
        <ele>135.1</ele>
        <time>2017-05-07T09:42:05Z</time>
      </trkpt>
      <trkpt lat="49.24257" lon="2.39907">
        <ele>135.3</ele>
        <time>2017-05-07T09:42:12Z</time>
      </trkpt>
      <trkpt lat="49.24264" lon="2.39913">
        <ele>135.4</ele>
        <time>2017-05-07T09:42:18Z</time>
      </trkpt>
      <trkpt lat="49.24272" lon="2.39919">
        <ele>136.1</ele>
        <time>2017-05-07T09:42:25Z</time>
      </trkpt>
      <trkpt lat="49.24277" lon="2.39927">
        <ele>136.6</ele>
        <time>2017-05-07T09:42:32Z</time>
      </trkpt>
      <trkpt lat="49.24286" lon="2.39931">
        <ele>137.1</ele>
        <time>2017-05-07T09:42:39Z</time>
      </trkpt>
      <trkpt lat="49.24291" lon="2.39937">
        <ele>137.3</ele>
        <time>2017-05-07T09:42:46Z</time>
      </trkpt>
      <trkpt lat="49.24298" lon="2.39942">
        <ele>137.4</ele>
        <time>2017-05-07T09:42:52Z</time>
      </trkpt>
      <trkpt lat="49.24304" lon="2.39949">
        <ele>137.3</ele>
        <time>2017-05-07T09:42:59Z</time>
      </trkpt>
      <trkpt lat="49.24312" lon="2.39952">
        <ele>136.9</ele>
        <time>2017-05-07T09:43:06Z</time>
      </trkpt>
      <trkpt lat="49.24318" lon="2.39959">
        <ele>137.1</ele>
        <time>2017-05-07T09:43:12Z</time>
      </trkpt>
      <trkpt lat="49.24324" lon="2.39966">
        <ele>137.6</ele>
        <time>2017-05-07T09:43:18Z</time>
      </trkpt>
      <trkpt lat="49.24332" lon="2.39972">
        <ele>138.3</ele>
        <time>2017-05-07T09:43:25Z</time>
      </trkpt>
      <trkpt lat="49.24338" lon="2.39979">
        <ele>138.8</ele>
        <time>2017-05-07T09:43:32Z</time>
      </trkpt>
      <trkpt lat="49.24342" lon="2.39985">
        <ele>139.5</ele>
        <time>2017-05-07T09:43:39Z</time>
      </trkpt>
      <trkpt lat="49.24349" lon="2.39987">
        <ele>139.7</ele>
        <time>2017-05-07T09:43:44Z</time>
      </trkpt>
      <trkpt lat="49.24355" lon="2.39994">
        <ele>139.7</ele>
        <time>2017-05-07T09:43:49Z</time>
      </trkpt>
      <trkpt lat="49.24361" lon="2.4">
        <ele>139.7</ele>
        <time>2017-05-07T09:43:56Z</time>
      </trkpt>
      <trkpt lat="49.24367" lon="2.40008">
        <ele>139.6</ele>
        <time>2017-05-07T09:44:02Z</time>
      </trkpt>
      <trkpt lat="49.24373" lon="2.40015">
        <ele>139.3</ele>
        <time>2017-05-07T09:44:09Z</time>
      </trkpt>
      <trkpt lat="49.2438" lon="2.4002">
        <ele>139</ele>
        <time>2017-05-07T09:44:15Z</time>
      </trkpt>
      <trkpt lat="49.24387" lon="2.40027">
        <ele>138.5</ele>
        <time>2017-05-07T09:44:21Z</time>
      </trkpt>
      <trkpt lat="49.24393" lon="2.40032">
        <ele>138.5</ele>
        <time>2017-05-07T09:44:28Z</time>
      </trkpt>
      <trkpt lat="49.24398" lon="2.40039">
        <ele>138.5</ele>
        <time>2017-05-07T09:44:34Z</time>
      </trkpt>
      <trkpt lat="49.24403" lon="2.40046">
        <ele>138.2</ele>
        <time>2017-05-07T09:44:41Z</time>
      </trkpt>
      <trkpt lat="49.2441" lon="2.40051">
        <ele>138</ele>
        <time>2017-05-07T09:44:47Z</time>
      </trkpt>
      <trkpt lat="49.24416" lon="2.40058">
        <ele>137.7</ele>
        <time>2017-05-07T09:44:54Z</time>
      </trkpt>
      <trkpt lat="49.24423" lon="2.40065">
        <ele>138</ele>
        <time>2017-05-07T09:45:00Z</time>
      </trkpt>
      <trkpt lat="49.24431" lon="2.40073">
        <ele>137.7</ele>
        <time>2017-05-07T09:45:07Z</time>
      </trkpt>
      <trkpt lat="49.24438" lon="2.40078">
        <ele>137.5</ele>
        <time>2017-05-07T09:45:12Z</time>
      </trkpt>
      <trkpt lat="49.24443" lon="2.40081">
        <ele>137.9</ele>
        <time>2017-05-07T09:45:19Z</time>
      </trkpt>
      <trkpt lat="49.2445" lon="2.40087">
        <ele>138.7</ele>
        <time>2017-05-07T09:45:25Z</time>
      </trkpt>
      <trkpt lat="49.24457" lon="2.40094">
        <ele>139</ele>
        <time>2017-05-07T09:45:32Z</time>
      </trkpt>
      <trkpt lat="49.24464" lon="2.40099">
        <ele>139.6</ele>
        <time>2017-05-07T09:45:39Z</time>
      </trkpt>
      <trkpt lat="49.24472" lon="2.40105">
        <ele>140.1</ele>
        <time>2017-05-07T09:45:45Z</time>
      </trkpt>
      <trkpt lat="49.24479" lon="2.4011">
        <ele>140.4</ele>
        <time>2017-05-07T09:45:50Z</time>
      </trkpt>
      <trkpt lat="49.24485" lon="2.40115">
        <ele>140.9</ele>
        <time>2017-05-07T09:45:57Z</time>
      </trkpt>
      <trkpt lat="49.24493" lon="2.40119">
        <ele>141.3</ele>
        <time>2017-05-07T09:46:03Z</time>
      </trkpt>
      <trkpt lat="49.245" lon="2.40123">
        <ele>141.3</ele>
        <time>2017-05-07T09:46:09Z</time>
      </trkpt>
      <trkpt lat="49.24506" lon="2.4013">
        <ele>141</ele>
        <time>2017-05-07T09:46:16Z</time>
      </trkpt>
      <trkpt lat="49.24512" lon="2.40134">
        <ele>141</ele>
        <time>2017-05-07T09:46:21Z</time>
      </trkpt>
      <trkpt lat="49.24519" lon="2.4014">
        <ele>140.8</ele>
        <time>2017-05-07T09:46:27Z</time>
      </trkpt>
      <trkpt lat="49.24526" lon="2.40146">
        <ele>140.6</ele>
        <time>2017-05-07T09:46:34Z</time>
      </trkpt>
      <trkpt lat="49.24533" lon="2.4015">
        <ele>140.4</ele>
        <time>2017-05-07T09:46:39Z</time>
      </trkpt>
      <trkpt lat="49.2454" lon="2.40155">
        <ele>140.1</ele>
        <time>2017-05-07T09:46:46Z</time>
      </trkpt>
      <trkpt lat="49.24547" lon="2.4016">
        <ele>139.8</ele>
        <time>2017-05-07T09:46:52Z</time>
      </trkpt>
      <trkpt lat="49.24555" lon="2.40163">
        <ele>139.8</ele>
        <time>2017-05-07T09:46:58Z</time>
      </trkpt>
      <trkpt lat="49.24562" lon="2.40169">
        <ele>139.5</ele>
        <time>2017-05-07T09:47:04Z</time>
      </trkpt>
      <trkpt lat="49.24568" lon="2.40176">
        <ele>139.1</ele>
        <time>2017-05-07T09:47:10Z</time>
      </trkpt>
      <trkpt lat="49.24576" lon="2.40181">
        <ele>138.7</ele>
        <time>2017-05-07T09:47:17Z</time>
      </trkpt>
      <trkpt lat="49.24583" lon="2.40186">
        <ele>138.1</ele>
        <time>2017-05-07T09:47:24Z</time>
      </trkpt>
      <trkpt lat="49.24591" lon="2.4019">
        <ele>138</ele>
        <time>2017-05-07T09:47:29Z</time>
      </trkpt>
      <trkpt lat="49.24598" lon="2.40193">
        <ele>137.8</ele>
        <time>2017-05-07T09:47:35Z</time>
      </trkpt>
      <trkpt lat="49.24605" lon="2.40198">
        <ele>137.7</ele>
        <time>2017-05-07T09:47:42Z</time>
      </trkpt>
      <trkpt lat="49.24611" lon="2.40204">
        <ele>137.5</ele>
        <time>2017-05-07T09:47:49Z</time>
      </trkpt>
      <trkpt lat="49.24618" lon="2.4021">
        <ele>137.3</ele>
        <time>2017-05-07T09:47:55Z</time>
      </trkpt>
      <trkpt lat="49.24624" lon="2.40215">
        <ele>137.1</ele>
        <time>2017-05-07T09:48:02Z</time>
      </trkpt>
      <trkpt lat="49.24632" lon="2.4022">
        <ele>136.9</ele>
        <time>2017-05-07T09:48:09Z</time>
      </trkpt>
      <trkpt lat="49.24636" lon="2.40223">
        <ele>136.6</ele>
        <time>2017-05-07T09:48:16Z</time>
      </trkpt>
      <trkpt lat="49.24637" lon="2.4022">
        <ele>137</ele>
        <time>2017-05-07T09:48:23Z</time>
      </trkpt>
      <trkpt lat="49.24637" lon="2.40222">
        <ele>137.4</ele>
        <time>2017-05-07T09:48:30Z</time>
      </trkpt>
      <trkpt lat="49.24633" lon="2.4022">
        <ele>135.4</ele>
        <time>2017-05-07T09:48:49Z</time>
      </trkpt>
      <trkpt lat="49.24635" lon="2.40226">
        <ele>132.1</ele>
        <time>2017-05-07T09:48:42Z</time>
      </trkpt>
      <trkpt lat="49.24641" lon="2.40228">
        <ele>132.3</ele>
        <time>2017-05-07T09:49:54Z</time>
      </trkpt>
      <trkpt lat="49.24646" lon="2.40231">
        <ele>132.7</ele>
        <time>2017-05-07T09:50:01Z</time>
      </trkpt>
      <trkpt lat="49.24649" lon="2.40232">
        <ele>133.2</ele>
        <time>2017-05-07T09:50:08Z</time>
      </trkpt>
      <trkpt lat="49.24654" lon="2.40235">
        <ele>133.7</ele>
        <time>2017-05-07T09:50:19Z</time>
      </trkpt>
      <trkpt lat="49.2466" lon="2.40239">
        <ele>133.8</ele>
        <time>2017-05-07T09:50:25Z</time>
      </trkpt>
      <trkpt lat="49.24666" lon="2.40243">
        <ele>133.6</ele>
        <time>2017-05-07T09:50:32Z</time>
      </trkpt>
      <trkpt lat="49.24673" lon="2.40245">
        <ele>133.4</ele>
        <time>2017-05-07T09:50:38Z</time>
      </trkpt>
      <trkpt lat="49.2468" lon="2.40249">
        <ele>133.2</ele>
        <time>2017-05-07T09:50:43Z</time>
      </trkpt>
      <trkpt lat="49.24688" lon="2.40254">
        <ele>132.6</ele>
        <time>2017-05-07T09:50:50Z</time>
      </trkpt>
      <trkpt lat="49.24694" lon="2.40258">
        <ele>132</ele>
        <time>2017-05-07T09:50:56Z</time>
      </trkpt>
      <trkpt lat="49.24702" lon="2.40262">
        <ele>131.8</ele>
        <time>2017-05-07T09:51:03Z</time>
      </trkpt>
      <trkpt lat="49.24709" lon="2.40266">
        <ele>131.8</ele>
        <time>2017-05-07T09:51:08Z</time>
      </trkpt>
      <trkpt lat="49.24718" lon="2.4027">
        <ele>131.4</ele>
        <time>2017-05-07T09:51:15Z</time>
      </trkpt>
      <trkpt lat="49.24725" lon="2.40274">
        <ele>131.3</ele>
        <time>2017-05-07T09:51:22Z</time>
      </trkpt>
      <trkpt lat="49.24732" lon="2.40278">
        <ele>131.5</ele>
        <time>2017-05-07T09:51:28Z</time>
      </trkpt>
      <trkpt lat="49.24739" lon="2.40283">
        <ele>131.5</ele>
        <time>2017-05-07T09:51:34Z</time>
      </trkpt>
      <trkpt lat="49.24747" lon="2.40287">
        <ele>131.8</ele>
        <time>2017-05-07T09:51:40Z</time>
      </trkpt>
      <trkpt lat="49.24754" lon="2.40292">
        <ele>132.2</ele>
        <time>2017-05-07T09:51:46Z</time>
      </trkpt>
      <trkpt lat="49.24761" lon="2.40297">
        <ele>132.6</ele>
        <time>2017-05-07T09:51:52Z</time>
      </trkpt>
      <trkpt lat="49.24768" lon="2.40301">
        <ele>132.6</ele>
        <time>2017-05-07T09:51:57Z</time>
      </trkpt>
      <trkpt lat="49.24774" lon="2.40303">
        <ele>132.5</ele>
        <time>2017-05-07T09:52:04Z</time>
      </trkpt>
      <trkpt lat="49.24782" lon="2.40305">
        <ele>132.5</ele>
        <time>2017-05-07T09:52:11Z</time>
      </trkpt>
      <trkpt lat="49.2479" lon="2.40305">
        <ele>132.6</ele>
        <time>2017-05-07T09:52:18Z</time>
      </trkpt>
      <trkpt lat="49.24797" lon="2.40306">
        <ele>132.8</ele>
        <time>2017-05-07T09:52:23Z</time>
      </trkpt>
      <trkpt lat="49.24804" lon="2.40304">
        <ele>132.3</ele>
        <time>2017-05-07T09:52:30Z</time>
      </trkpt>
      <trkpt lat="49.24811" lon="2.40306">
        <ele>131.4</ele>
        <time>2017-05-07T09:52:37Z</time>
      </trkpt>
      <trkpt lat="49.24819" lon="2.40308">
        <ele>130.8</ele>
        <time>2017-05-07T09:52:43Z</time>
      </trkpt>
      <trkpt lat="49.24827" lon="2.4031">
        <ele>130.3</ele>
        <time>2017-05-07T09:52:50Z</time>
      </trkpt>
      <trkpt lat="49.24833" lon="2.40313">
        <ele>130.2</ele>
        <time>2017-05-07T09:52:57Z</time>
      </trkpt>
      <trkpt lat="49.24841" lon="2.40313">
        <ele>130.2</ele>
        <time>2017-05-07T09:53:03Z</time>
      </trkpt>
      <trkpt lat="49.24848" lon="2.40314">
        <ele>130.1</ele>
        <time>2017-05-07T09:53:10Z</time>
      </trkpt>
      <trkpt lat="49.24855" lon="2.40316">
        <ele>129.7</ele>
        <time>2017-05-07T09:53:16Z</time>
      </trkpt>
      <trkpt lat="49.24863" lon="2.40314">
        <ele>129.5</ele>
        <time>2017-05-07T09:53:23Z</time>
      </trkpt>
      <trkpt lat="49.2487" lon="2.40316">
        <ele>129.2</ele>
        <time>2017-05-07T09:53:30Z</time>
      </trkpt>
      <trkpt lat="49.24878" lon="2.40319">
        <ele>128.8</ele>
        <time>2017-05-07T09:53:37Z</time>
      </trkpt>
      <trkpt lat="49.24885" lon="2.40325">
        <ele>128.6</ele>
        <time>2017-05-07T09:53:44Z</time>
      </trkpt>
      <trkpt lat="49.24892" lon="2.40329">
        <ele>128.7</ele>
        <time>2017-05-07T09:53:51Z</time>
      </trkpt>
      <trkpt lat="49.24899" lon="2.40333">
        <ele>128.5</ele>
        <time>2017-05-07T09:53:58Z</time>
      </trkpt>
      <trkpt lat="49.24904" lon="2.40339">
        <ele>128.1</ele>
        <time>2017-05-07T09:54:05Z</time>
      </trkpt>
      <trkpt lat="49.24909" lon="2.40345">
        <ele>128.4</ele>
        <time>2017-05-07T09:54:12Z</time>
      </trkpt>
      <trkpt lat="49.24916" lon="2.40346">
        <ele>128.3</ele>
        <time>2017-05-07T09:54:19Z</time>
      </trkpt>
      <trkpt lat="49.24923" lon="2.4035">
        <ele>128.4</ele>
        <time>2017-05-07T09:54:26Z</time>
      </trkpt>
      <trkpt lat="49.2493" lon="2.40355">
        <ele>128.4</ele>
        <time>2017-05-07T09:54:33Z</time>
      </trkpt>
      <trkpt lat="49.24935" lon="2.40359">
        <ele>127.5</ele>
        <time>2017-05-07T09:54:40Z</time>
      </trkpt>
      <trkpt lat="49.24944" lon="2.40359">
        <ele>126.3</ele>
        <time>2017-05-07T09:54:46Z</time>
      </trkpt>
      <trkpt lat="49.24952" lon="2.40356">
        <ele>125.5</ele>
        <time>2017-05-07T09:54:52Z</time>
      </trkpt>
      <trkpt lat="49.24957" lon="2.40356">
        <ele>124.4</ele>
        <time>2017-05-07T09:54:59Z</time>
      </trkpt>
      <trkpt lat="49.24963" lon="2.40358">
        <ele>124.1</ele>
        <time>2017-05-07T09:55:06Z</time>
      </trkpt>
      <trkpt lat="49.24971" lon="2.4036">
        <ele>124.2</ele>
        <time>2017-05-07T09:55:13Z</time>
      </trkpt>
      <trkpt lat="49.24977" lon="2.40363">
        <ele>124.5</ele>
        <time>2017-05-07T09:55:20Z</time>
      </trkpt>
      <trkpt lat="49.24983" lon="2.40365">
        <ele>125.5</ele>
        <time>2017-05-07T09:55:27Z</time>
      </trkpt>
      <trkpt lat="49.24991" lon="2.40366">
        <ele>126.1</ele>
        <time>2017-05-07T09:55:33Z</time>
      </trkpt>
      <trkpt lat="49.24996" lon="2.40368">
        <ele>127.2</ele>
        <time>2017-05-07T09:55:40Z</time>
      </trkpt>
      <trkpt lat="49.25005" lon="2.40368">
        <ele>128</ele>
        <time>2017-05-07T09:55:47Z</time>
      </trkpt>
      <trkpt lat="49.25012" lon="2.40368">
        <ele>128.7</ele>
        <time>2017-05-07T09:55:54Z</time>
      </trkpt>
      <trkpt lat="49.2502" lon="2.4037">
        <ele>128.7</ele>
        <time>2017-05-07T09:56:01Z</time>
      </trkpt>
      <trkpt lat="49.25027" lon="2.40369">
        <ele>128.6</ele>
        <time>2017-05-07T09:56:08Z</time>
      </trkpt>
      <trkpt lat="49.25036" lon="2.40368">
        <ele>128.7</ele>
        <time>2017-05-07T09:56:14Z</time>
      </trkpt>
      <trkpt lat="49.25041" lon="2.40368">
        <ele>128.5</ele>
        <time>2017-05-07T09:56:21Z</time>
      </trkpt>
      <trkpt lat="49.25048" lon="2.40368">
        <ele>128.1</ele>
        <time>2017-05-07T09:56:28Z</time>
      </trkpt>
      <trkpt lat="49.25056" lon="2.4037">
        <ele>127.9</ele>
        <time>2017-05-07T09:56:35Z</time>
      </trkpt>
      <trkpt lat="49.25063" lon="2.4037">
        <ele>127.6</ele>
        <time>2017-05-07T09:56:40Z</time>
      </trkpt>
      <trkpt lat="49.25071" lon="2.40366">
        <ele>127</ele>
        <time>2017-05-07T09:56:46Z</time>
      </trkpt>
      <trkpt lat="49.25079" lon="2.40363">
        <ele>127.2</ele>
        <time>2017-05-07T09:56:53Z</time>
      </trkpt>
      <trkpt lat="49.25086" lon="2.40362">
        <ele>127.2</ele>
        <time>2017-05-07T09:56:59Z</time>
      </trkpt>
      <trkpt lat="49.25093" lon="2.40359">
        <ele>127.3</ele>
        <time>2017-05-07T09:57:06Z</time>
      </trkpt>
      <trkpt lat="49.25101" lon="2.40358">
        <ele>127</ele>
        <time>2017-05-07T09:57:13Z</time>
      </trkpt>
      <trkpt lat="49.25108" lon="2.40355">
        <ele>126.7</ele>
        <time>2017-05-07T09:57:19Z</time>
      </trkpt>
      <trkpt lat="49.25116" lon="2.40353">
        <ele>126.6</ele>
        <time>2017-05-07T09:57:26Z</time>
      </trkpt>
      <trkpt lat="49.2512" lon="2.40352">
        <ele>126.5</ele>
        <time>2017-05-07T09:57:33Z</time>
      </trkpt>
      <trkpt lat="49.25123" lon="2.40349">
        <ele>126</ele>
        <time>2017-05-07T09:57:40Z</time>
      </trkpt>
      <trkpt lat="49.2513" lon="2.40346">
        <ele>125.6</ele>
        <time>2017-05-07T09:57:47Z</time>
      </trkpt>
      <trkpt lat="49.25135" lon="2.40344">
        <ele>125.7</ele>
        <time>2017-05-07T09:57:54Z</time>
      </trkpt>
      <trkpt lat="49.25138" lon="2.40342">
        <ele>125.1</ele>
        <time>2017-05-07T09:58:01Z</time>
      </trkpt>
      <trkpt lat="49.25142" lon="2.40341">
        <ele>124.4</ele>
        <time>2017-05-07T09:58:08Z</time>
      </trkpt>
      <trkpt lat="49.25148" lon="2.40338">
        <ele>124</ele>
        <time>2017-05-07T09:58:15Z</time>
      </trkpt>
      <trkpt lat="49.25157" lon="2.40333">
        <ele>123.3</ele>
        <time>2017-05-07T09:58:21Z</time>
      </trkpt>
      <trkpt lat="49.25164" lon="2.40329">
        <ele>122.6</ele>
        <time>2017-05-07T09:58:26Z</time>
      </trkpt>
      <trkpt lat="49.25169" lon="2.40327">
        <ele>121.7</ele>
        <time>2017-05-07T09:58:33Z</time>
      </trkpt>
      <trkpt lat="49.25175" lon="2.40325">
        <ele>121.6</ele>
        <time>2017-05-07T09:58:40Z</time>
      </trkpt>
      <trkpt lat="49.25183" lon="2.40322">
        <ele>122.1</ele>
        <time>2017-05-07T09:58:46Z</time>
      </trkpt>
      <trkpt lat="49.2519" lon="2.4032">
        <ele>122.7</ele>
        <time>2017-05-07T09:58:52Z</time>
      </trkpt>
      <trkpt lat="49.25197" lon="2.40318">
        <ele>122.9</ele>
        <time>2017-05-07T09:58:59Z</time>
      </trkpt>
      <trkpt lat="49.25204" lon="2.40314">
        <ele>123</ele>
        <time>2017-05-07T09:59:05Z</time>
      </trkpt>
      <trkpt lat="49.25211" lon="2.40312">
        <ele>122.5</ele>
        <time>2017-05-07T09:59:12Z</time>
      </trkpt>
      <trkpt lat="49.25219" lon="2.4031">
        <ele>122.2</ele>
        <time>2017-05-07T09:59:18Z</time>
      </trkpt>
      <trkpt lat="49.25222" lon="2.40308">
        <ele>122.1</ele>
        <time>2017-05-07T09:59:25Z</time>
      </trkpt>
      <trkpt lat="49.25229" lon="2.40304">
        <ele>122</ele>
        <time>2017-05-07T09:59:31Z</time>
      </trkpt>
      <trkpt lat="49.25237" lon="2.40298">
        <ele>122.2</ele>
        <time>2017-05-07T09:59:37Z</time>
      </trkpt>
      <trkpt lat="49.25244" lon="2.40297">
        <ele>121.9</ele>
        <time>2017-05-07T09:59:44Z</time>
      </trkpt>
      <trkpt lat="49.25252" lon="2.40297">
        <ele>122</ele>
        <time>2017-05-07T09:59:49Z</time>
      </trkpt>
      <trkpt lat="49.2526" lon="2.40294">
        <ele>121.7</ele>
        <time>2017-05-07T09:59:55Z</time>
      </trkpt>
      <trkpt lat="49.25267" lon="2.4029">
        <ele>121.8</ele>
        <time>2017-05-07T10:00:01Z</time>
      </trkpt>
      <trkpt lat="49.25275" lon="2.40284">
        <ele>121.6</ele>
        <time>2017-05-07T10:00:07Z</time>
      </trkpt>
      <trkpt lat="49.25282" lon="2.40279">
        <ele>121.3</ele>
        <time>2017-05-07T10:00:13Z</time>
      </trkpt>
      <trkpt lat="49.25288" lon="2.40274">
        <ele>121.1</ele>
        <time>2017-05-07T10:00:18Z</time>
      </trkpt>
      <trkpt lat="49.25294" lon="2.40268">
        <ele>120.8</ele>
        <time>2017-05-07T10:00:25Z</time>
      </trkpt>
      <trkpt lat="49.253" lon="2.40263">
        <ele>120.2</ele>
        <time>2017-05-07T10:00:32Z</time>
      </trkpt>
      <trkpt lat="49.25306" lon="2.40258">
        <ele>120.1</ele>
        <time>2017-05-07T10:00:39Z</time>
      </trkpt>
      <trkpt lat="49.25307" lon="2.40255">
        <ele>120.3</ele>
        <time>2017-05-07T10:00:46Z</time>
      </trkpt>
      <trkpt lat="49.25309" lon="2.40255">
        <ele>120.6</ele>
        <time>2017-05-07T10:00:53Z</time>
      </trkpt>
      <trkpt lat="49.2531" lon="2.40252">
        <ele>119.8</ele>
        <time>2017-05-07T10:01:00Z</time>
      </trkpt>
      <trkpt lat="49.25313" lon="2.40247">
        <ele>118.9</ele>
        <time>2017-05-07T10:01:16Z</time>
      </trkpt>
      <trkpt lat="49.25317" lon="2.40244">
        <ele>118.6</ele>
        <time>2017-05-07T10:01:23Z</time>
      </trkpt>
      <trkpt lat="49.25321" lon="2.4024">
        <ele>117.5</ele>
        <time>2017-05-07T10:01:30Z</time>
      </trkpt>
      <trkpt lat="49.25323" lon="2.40238">
        <ele>117.3</ele>
        <time>2017-05-07T10:01:37Z</time>
      </trkpt>
      <trkpt lat="49.25332" lon="2.40233">
        <ele>114.6</ele>
        <time>2017-05-07T10:01:34Z</time>
      </trkpt>
      <trkpt lat="49.25336" lon="2.40233">
        <ele>114.6</ele>
        <time>2017-05-07T10:02:50Z</time>
      </trkpt>
      <trkpt lat="49.25343" lon="2.40226">
        <ele>115.3</ele>
        <time>2017-05-07T10:03:04Z</time>
      </trkpt>
      <trkpt lat="49.25349" lon="2.40222">
        <ele>115.1</ele>
        <time>2017-05-07T10:03:11Z</time>
      </trkpt>
      <trkpt lat="49.25355" lon="2.40216">
        <ele>115.1</ele>
        <time>2017-05-07T10:03:18Z</time>
      </trkpt>
      <trkpt lat="49.2536" lon="2.40209">
        <ele>115</ele>
        <time>2017-05-07T10:03:23Z</time>
      </trkpt>
      <trkpt lat="49.25362" lon="2.40203">
        <ele>114.4</ele>
        <time>2017-05-07T10:03:30Z</time>
      </trkpt>
      <trkpt lat="49.25366" lon="2.40195">
        <ele>113.7</ele>
        <time>2017-05-07T10:03:37Z</time>
      </trkpt>
      <trkpt lat="49.25372" lon="2.4019">
        <ele>112.6</ele>
        <time>2017-05-07T10:03:44Z</time>
      </trkpt>
      <trkpt lat="49.25374" lon="2.40188">
        <ele>111.5</ele>
        <time>2017-05-07T10:03:51Z</time>
      </trkpt>
      <trkpt lat="49.25379" lon="2.40184">
        <ele>110.6</ele>
        <time>2017-05-07T10:03:58Z</time>
      </trkpt>
      <trkpt lat="49.25376" lon="2.40181">
        <ele>109</ele>
        <time>2017-05-07T10:04:05Z</time>
      </trkpt>
      <trkpt lat="49.25373" lon="2.40175">
        <ele>106.8</ele>
        <time>2017-05-07T10:04:25Z</time>
      </trkpt>
      <trkpt lat="49.25366" lon="2.40188">
        <ele>110</ele>
        <time>2017-05-07T10:05:01Z</time>
      </trkpt>
      <trkpt lat="49.25369" lon="2.40189">
        <ele>110.8</ele>
        <time>2017-05-07T10:05:08Z</time>
      </trkpt>
      <trkpt lat="49.25376" lon="2.40192">
        <ele>111.1</ele>
        <time>2017-05-07T10:05:15Z</time>
      </trkpt>
      <trkpt lat="49.25374" lon="2.4019">
        <ele>110.3</ele>
        <time>2017-05-07T10:05:22Z</time>
      </trkpt>
      <trkpt lat="49.25383" lon="2.40183">
        <ele>109.3</ele>
        <time>2017-05-07T10:05:27Z</time>
      </trkpt>
      <trkpt lat="49.25389" lon="2.40178">
        <ele>109.1</ele>
        <time>2017-05-07T10:05:34Z</time>
      </trkpt>
      <trkpt lat="49.25393" lon="2.40176">
        <ele>109.1</ele>
        <time>2017-05-07T10:05:41Z</time>
      </trkpt>
      <trkpt lat="49.25399" lon="2.40171">
        <ele>109.2</ele>
        <time>2017-05-07T10:05:48Z</time>
      </trkpt>
      <trkpt lat="49.25404" lon="2.40167">
        <ele>109.1</ele>
        <time>2017-05-07T10:05:55Z</time>
      </trkpt>
      <trkpt lat="49.25411" lon="2.40162">
        <ele>109.1</ele>
        <time>2017-05-07T10:06:01Z</time>
      </trkpt>
      <trkpt lat="49.25418" lon="2.40157">
        <ele>108</ele>
        <time>2017-05-07T10:06:08Z</time>
      </trkpt>
      <trkpt lat="49.25425" lon="2.40151">
        <ele>107.4</ele>
        <time>2017-05-07T10:06:15Z</time>
      </trkpt>
      <trkpt lat="49.25432" lon="2.40146">
        <ele>107.1</ele>
        <time>2017-05-07T10:06:22Z</time>
      </trkpt>
      <trkpt lat="49.25438" lon="2.40141">
        <ele>106.3</ele>
        <time>2017-05-07T10:06:28Z</time>
      </trkpt>
      <trkpt lat="49.25444" lon="2.40133">
        <ele>105.7</ele>
        <time>2017-05-07T10:06:34Z</time>
      </trkpt>
      <trkpt lat="49.25447" lon="2.40133">
        <ele>105</ele>
        <time>2017-05-07T10:06:41Z</time>
      </trkpt>
      <trkpt lat="49.25449" lon="2.40135">
        <ele>105.4</ele>
        <time>2017-05-07T10:06:48Z</time>
      </trkpt>
      <trkpt lat="49.2545" lon="2.40135">
        <ele>104.8</ele>
        <time>2017-05-07T10:06:55Z</time>
      </trkpt>
      <trkpt lat="49.2545" lon="2.4014">
        <ele>104.1</ele>
        <time>2017-05-07T10:07:06Z</time>
      </trkpt>
      <trkpt lat="49.25451" lon="2.40136">
        <ele>102.3</ele>
        <time>2017-05-07T10:07:20Z</time>
      </trkpt>
      <trkpt lat="49.25456" lon="2.40135">
        <ele>102.2</ele>
        <time>2017-05-07T10:07:27Z</time>
      </trkpt>
      <trkpt lat="49.25457" lon="2.40134">
        <ele>100.6</ele>
        <time>2017-05-07T10:08:13Z</time>
      </trkpt>
      <trkpt lat="49.25462" lon="2.40134">
        <ele>101.1</ele>
        <time>2017-05-07T10:08:20Z</time>
      </trkpt>
      <trkpt lat="49.25466" lon="2.40127">
        <ele>102.1</ele>
        <time>2017-05-07T10:08:27Z</time>
      </trkpt>
      <trkpt lat="49.2547" lon="2.40123">
        <ele>102.6</ele>
        <time>2017-05-07T10:08:34Z</time>
      </trkpt>
      <trkpt lat="49.25473" lon="2.40121">
        <ele>102.4</ele>
        <time>2017-05-07T10:08:41Z</time>
      </trkpt>
      <trkpt lat="49.25476" lon="2.40117">
        <ele>102.3</ele>
        <time>2017-05-07T10:08:48Z</time>
      </trkpt>
      <trkpt lat="49.2548" lon="2.40112">
        <ele>101.7</ele>
        <time>2017-05-07T10:08:55Z</time>
      </trkpt>
      <trkpt lat="49.25485" lon="2.40104">
        <ele>100.9</ele>
        <time>2017-05-07T10:09:01Z</time>
      </trkpt>
      <trkpt lat="49.25487" lon="2.401">
        <ele>100.2</ele>
        <time>2017-05-07T10:09:08Z</time>
      </trkpt>
      <trkpt lat="49.25491" lon="2.40095">
        <ele>99.9</ele>
        <time>2017-05-07T10:09:15Z</time>
      </trkpt>
      <trkpt lat="49.25494" lon="2.40089">
        <ele>99.1</ele>
        <time>2017-05-07T10:09:22Z</time>
      </trkpt>
      <trkpt lat="49.25497" lon="2.40084">
        <ele>98.5</ele>
        <time>2017-05-07T10:09:29Z</time>
      </trkpt>
      <trkpt lat="49.255" lon="2.40084">
        <ele>98.3</ele>
        <time>2017-05-07T10:09:36Z</time>
      </trkpt>
      <trkpt lat="49.25501" lon="2.40084">
        <ele>98.3</ele>
        <time>2017-05-07T10:09:43Z</time>
      </trkpt>
      <trkpt lat="49.25507" lon="2.40081">
        <ele>97.2</ele>
        <time>2017-05-07T10:09:54Z</time>
      </trkpt>
      <trkpt lat="49.25511" lon="2.40079">
        <ele>96.6</ele>
        <time>2017-05-07T10:10:01Z</time>
      </trkpt>
      <trkpt lat="49.25512" lon="2.40079">
        <ele>95.7</ele>
        <time>2017-05-07T10:10:08Z</time>
      </trkpt>
      <trkpt lat="49.25515" lon="2.40082">
        <ele>92.8</ele>
        <time>2017-05-07T10:10:26Z</time>
      </trkpt>
      <trkpt lat="49.25531" lon="2.40078">
        <ele>95.6</ele>
        <time>2017-05-07T10:11:19Z</time>
      </trkpt>
      <trkpt lat="49.25533" lon="2.40077">
        <ele>94.9</ele>
        <time>2017-05-07T10:11:26Z</time>
      </trkpt>
      <trkpt lat="49.25535" lon="2.40073">
        <ele>93.5</ele>
        <time>2017-05-07T10:11:37Z</time>
      </trkpt>
      <trkpt lat="49.25538" lon="2.40064">
        <ele>92.8</ele>
        <time>2017-05-07T10:11:44Z</time>
      </trkpt>
      <trkpt lat="49.25537" lon="2.40063">
        <ele>91.6</ele>
        <time>2017-05-07T10:11:51Z</time>
      </trkpt>
      <trkpt lat="49.25538" lon="2.40061">
        <ele>90.1</ele>
        <time>2017-05-07T10:11:58Z</time>
      </trkpt>
      <trkpt lat="49.25546" lon="2.40062">
        <ele>85.9</ele>
        <time>2017-05-07T10:12:09Z</time>
      </trkpt>
      <trkpt lat="49.25553" lon="2.40063">
        <ele>84.5</ele>
        <time>2017-05-07T10:12:16Z</time>
      </trkpt>
      <trkpt lat="49.25559" lon="2.40064">
        <ele>84.5</ele>
        <time>2017-05-07T10:12:23Z</time>
      </trkpt>
      <trkpt lat="49.25566" lon="2.40064">
        <ele>85.5</ele>
        <time>2017-05-07T10:12:30Z</time>
      </trkpt>
      <trkpt lat="49.2557" lon="2.40065">
        <ele>86.9</ele>
        <time>2017-05-07T10:12:37Z</time>
      </trkpt>
      <trkpt lat="49.25571" lon="2.40066">
        <ele>87.6</ele>
        <time>2017-05-07T10:12:44Z</time>
      </trkpt>
      <trkpt lat="49.25574" lon="2.40061">
        <ele>88.2</ele>
        <time>2017-05-07T10:12:51Z</time>
      </trkpt>
      <trkpt lat="49.2558" lon="2.40058">
        <ele>88.4</ele>
        <time>2017-05-07T10:12:58Z</time>
      </trkpt>
      <trkpt lat="49.25589" lon="2.40056">
        <ele>88</ele>
        <time>2017-05-07T10:13:04Z</time>
      </trkpt>
      <trkpt lat="49.25595" lon="2.40053">
        <ele>87.8</ele>
        <time>2017-05-07T10:13:11Z</time>
      </trkpt>
      <trkpt lat="49.25596" lon="2.40053">
        <ele>88.4</ele>
        <time>2017-05-07T10:13:18Z</time>
      </trkpt>
      <trkpt lat="49.25605" lon="2.40051">
        <ele>88.8</ele>
        <time>2017-05-07T10:13:25Z</time>
      </trkpt>
      <trkpt lat="49.25609" lon="2.40049">
        <ele>89</ele>
        <time>2017-05-07T10:13:32Z</time>
      </trkpt>
      <trkpt lat="49.25615" lon="2.40048">
        <ele>88</ele>
        <time>2017-05-07T10:13:39Z</time>
      </trkpt>
      <trkpt lat="49.25621" lon="2.40048">
        <ele>86.6</ele>
        <time>2017-05-07T10:13:46Z</time>
      </trkpt>
      <trkpt lat="49.25629" lon="2.40045">
        <ele>85.5</ele>
        <time>2017-05-07T10:13:53Z</time>
      </trkpt>
      <trkpt lat="49.25635" lon="2.40046">
        <ele>84.6</ele>
        <time>2017-05-07T10:14:00Z</time>
      </trkpt>
      <trkpt lat="49.25643" lon="2.40045">
        <ele>84.3</ele>
        <time>2017-05-07T10:14:04Z</time>
      </trkpt>
      <trkpt lat="49.2565" lon="2.40044">
        <ele>83.8</ele>
        <time>2017-05-07T10:14:11Z</time>
      </trkpt>
      <trkpt lat="49.25658" lon="2.4004">
        <ele>82.8</ele>
        <time>2017-05-07T10:14:18Z</time>
      </trkpt>
      <trkpt lat="49.25665" lon="2.40036">
        <ele>82.3</ele>
        <time>2017-05-07T10:14:23Z</time>
      </trkpt>
      <trkpt lat="49.25673" lon="2.40034">
        <ele>81.6</ele>
        <time>2017-05-07T10:14:28Z</time>
      </trkpt>
      <trkpt lat="49.25679" lon="2.40031">
        <ele>80.5</ele>
        <time>2017-05-07T10:14:34Z</time>
      </trkpt>
      <trkpt lat="49.25686" lon="2.40031">
        <ele>79.8</ele>
        <time>2017-05-07T10:14:41Z</time>
      </trkpt>
      <trkpt lat="49.25695" lon="2.40028">
        <ele>79.3</ele>
        <time>2017-05-07T10:14:48Z</time>
      </trkpt>
      <trkpt lat="49.25699" lon="2.40026">
        <ele>78</ele>
        <time>2017-05-07T10:14:55Z</time>
      </trkpt>
      <trkpt lat="49.25703" lon="2.40023">
        <ele>76.6</ele>
        <time>2017-05-07T10:15:02Z</time>
      </trkpt>
      <trkpt lat="49.2571" lon="2.40017">
        <ele>75.1</ele>
        <time>2017-05-07T10:15:09Z</time>
      </trkpt>
      <trkpt lat="49.25717" lon="2.40012">
        <ele>74.6</ele>
        <time>2017-05-07T10:15:14Z</time>
      </trkpt>
      <trkpt lat="49.25723" lon="2.40006">
        <ele>73.6</ele>
        <time>2017-05-07T10:15:21Z</time>
      </trkpt>
      <trkpt lat="49.2573" lon="2.40001">
        <ele>73.5</ele>
        <time>2017-05-07T10:15:27Z</time>
      </trkpt>
      <trkpt lat="49.25736" lon="2.39998">
        <ele>73.7</ele>
        <time>2017-05-07T10:15:34Z</time>
      </trkpt>
      <trkpt lat="49.25741" lon="2.39995">
        <ele>73.8</ele>
        <time>2017-05-07T10:15:41Z</time>
      </trkpt>
      <trkpt lat="49.25746" lon="2.39993">
        <ele>74.3</ele>
        <time>2017-05-07T10:15:48Z</time>
      </trkpt>
      <trkpt lat="49.25754" lon="2.39989">
        <ele>74.5</ele>
        <time>2017-05-07T10:15:54Z</time>
      </trkpt>
      <trkpt lat="49.25759" lon="2.39985">
        <ele>74.6</ele>
        <time>2017-05-07T10:16:01Z</time>
      </trkpt>
      <trkpt lat="49.25766" lon="2.3998">
        <ele>74.9</ele>
        <time>2017-05-07T10:16:08Z</time>
      </trkpt>
      <trkpt lat="49.25772" lon="2.39977">
        <ele>73.7</ele>
        <time>2017-05-07T10:16:14Z</time>
      </trkpt>
      <trkpt lat="49.25777" lon="2.39973">
        <ele>72.6</ele>
        <time>2017-05-07T10:16:21Z</time>
      </trkpt>
      <trkpt lat="49.25781" lon="2.3997">
        <ele>73.6</ele>
        <time>2017-05-07T10:16:28Z</time>
      </trkpt>
      <trkpt lat="49.25788" lon="2.39964">
        <ele>74.9</ele>
        <time>2017-05-07T10:16:35Z</time>
      </trkpt>
      <trkpt lat="49.25793" lon="2.39958">
        <ele>76.2</ele>
        <time>2017-05-07T10:16:42Z</time>
      </trkpt>
      <trkpt lat="49.258" lon="2.39955">
        <ele>76.9</ele>
        <time>2017-05-07T10:16:49Z</time>
      </trkpt>
      <trkpt lat="49.25806" lon="2.39952">
        <ele>77.8</ele>
        <time>2017-05-07T10:16:56Z</time>
      </trkpt>
      <trkpt lat="49.25808" lon="2.39954">
        <ele>78.4</ele>
        <time>2017-05-07T10:17:03Z</time>
      </trkpt>
      <trkpt lat="49.25815" lon="2.39954">
        <ele>78.1</ele>
        <time>2017-05-07T10:17:10Z</time>
      </trkpt>
      <trkpt lat="49.25822" lon="2.39949">
        <ele>77.9</ele>
        <time>2017-05-07T10:17:16Z</time>
      </trkpt>
      <trkpt lat="49.25828" lon="2.39946">
        <ele>77.7</ele>
        <time>2017-05-07T10:17:23Z</time>
      </trkpt>
      <trkpt lat="49.25836" lon="2.39945">
        <ele>77.9</ele>
        <time>2017-05-07T10:17:29Z</time>
      </trkpt>
      <trkpt lat="49.25842" lon="2.39949">
        <ele>78.7</ele>
        <time>2017-05-07T10:17:36Z</time>
      </trkpt>
      <trkpt lat="49.25843" lon="2.39946">
        <ele>78.2</ele>
        <time>2017-05-07T10:17:43Z</time>
      </trkpt>
      <trkpt lat="49.25849" lon="2.39946">
        <ele>76.3</ele>
        <time>2017-05-07T10:17:50Z</time>
      </trkpt>
      <trkpt lat="49.2585" lon="2.39946">
        <ele>76.9</ele>
        <time>2017-05-07T10:17:57Z</time>
      </trkpt>
      <trkpt lat="49.25858" lon="2.39947">
        <ele>77.5</ele>
        <time>2017-05-07T10:18:07Z</time>
      </trkpt>
      <trkpt lat="49.25864" lon="2.39946">
        <ele>78</ele>
        <time>2017-05-07T10:18:14Z</time>
      </trkpt>
      <trkpt lat="49.25869" lon="2.39946">
        <ele>78</ele>
        <time>2017-05-07T10:18:21Z</time>
      </trkpt>
      <trkpt lat="49.25874" lon="2.39945">
        <ele>77.5</ele>
        <time>2017-05-07T10:18:28Z</time>
      </trkpt>
      <trkpt lat="49.25882" lon="2.39946">
        <ele>76.9</ele>
        <time>2017-05-07T10:18:34Z</time>
      </trkpt>
      <trkpt lat="49.25889" lon="2.39948">
        <ele>76.9</ele>
        <time>2017-05-07T10:18:41Z</time>
      </trkpt>
      <trkpt lat="49.25896" lon="2.39947">
        <ele>77.4</ele>
        <time>2017-05-07T10:18:48Z</time>
      </trkpt>
      <trkpt lat="49.25904" lon="2.39949">
        <ele>77.7</ele>
        <time>2017-05-07T10:18:53Z</time>
      </trkpt>
      <trkpt lat="49.2591" lon="2.39949">
        <ele>78.1</ele>
        <time>2017-05-07T10:19:00Z</time>
      </trkpt>
      <trkpt lat="49.25917" lon="2.39946">
        <ele>78.1</ele>
        <time>2017-05-07T10:19:07Z</time>
      </trkpt>
      <trkpt lat="49.25924" lon="2.39947">
        <ele>78.3</ele>
        <time>2017-05-07T10:19:14Z</time>
      </trkpt>
      <trkpt lat="49.25933" lon="2.39947">
        <ele>78.1</ele>
        <time>2017-05-07T10:19:19Z</time>
      </trkpt>
      <trkpt lat="49.25937" lon="2.39947">
        <ele>77.6</ele>
        <time>2017-05-07T10:19:26Z</time>
      </trkpt>
      <trkpt lat="49.25944" lon="2.39949">
        <ele>77.7</ele>
        <time>2017-05-07T10:19:33Z</time>
      </trkpt>
      <trkpt lat="49.25951" lon="2.39949">
        <ele>77.8</ele>
        <time>2017-05-07T10:19:40Z</time>
      </trkpt>
      <trkpt lat="49.2596" lon="2.39947">
        <ele>78.2</ele>
        <time>2017-05-07T10:19:46Z</time>
      </trkpt>
      <trkpt lat="49.25962" lon="2.39948">
        <ele>79</ele>
        <time>2017-05-07T10:19:53Z</time>
      </trkpt>
      <trkpt lat="49.25969" lon="2.39945">
        <ele>79.5</ele>
        <time>2017-05-07T10:19:59Z</time>
      </trkpt>
      <trkpt lat="49.2598" lon="2.39946">
        <ele>80</ele>
        <time>2017-05-07T10:20:05Z</time>
      </trkpt>
      <trkpt lat="49.25985" lon="2.39946">
        <ele>80.9</ele>
        <time>2017-05-07T10:20:12Z</time>
      </trkpt>
      <trkpt lat="49.25994" lon="2.39948">
        <ele>81.9</ele>
        <time>2017-05-07T10:20:19Z</time>
      </trkpt>
      <trkpt lat="49.26001" lon="2.39953">
        <ele>82.7</ele>
        <time>2017-05-07T10:20:25Z</time>
      </trkpt>
      <trkpt lat="49.26008" lon="2.39953">
        <ele>83.2</ele>
        <time>2017-05-07T10:20:32Z</time>
      </trkpt>
      <trkpt lat="49.26016" lon="2.39955">
        <ele>83.1</ele>
        <time>2017-05-07T10:20:39Z</time>
      </trkpt>
      <trkpt lat="49.26023" lon="2.39955">
        <ele>83</ele>
        <time>2017-05-07T10:20:44Z</time>
      </trkpt>
      <trkpt lat="49.26028" lon="2.39957">
        <ele>82.8</ele>
        <time>2017-05-07T10:20:51Z</time>
      </trkpt>
      <trkpt lat="49.26036" lon="2.39957">
        <ele>82.4</ele>
        <time>2017-05-07T10:20:57Z</time>
      </trkpt>
      <trkpt lat="49.26041" lon="2.39958">
        <ele>82.1</ele>
        <time>2017-05-07T10:21:04Z</time>
      </trkpt>
      <trkpt lat="49.26048" lon="2.39959">
        <ele>82.3</ele>
        <time>2017-05-07T10:21:11Z</time>
      </trkpt>
      <trkpt lat="49.26057" lon="2.39958">
        <ele>82</ele>
        <time>2017-05-07T10:21:17Z</time>
      </trkpt>
      <trkpt lat="49.26065" lon="2.39958">
        <ele>81.8</ele>
        <time>2017-05-07T10:21:22Z</time>
      </trkpt>
      <trkpt lat="49.26071" lon="2.39959">
        <ele>81.6</ele>
        <time>2017-05-07T10:21:29Z</time>
      </trkpt>
      <trkpt lat="49.26078" lon="2.39959">
        <ele>82.8</ele>
        <time>2017-05-07T10:21:36Z</time>
      </trkpt>
      <trkpt lat="49.26085" lon="2.39958">
        <ele>84.9</ele>
        <time>2017-05-07T10:21:43Z</time>
      </trkpt>
      <trkpt lat="49.26094" lon="2.39959">
        <ele>85.1</ele>
        <time>2017-05-07T10:21:47Z</time>
      </trkpt>
      <trkpt lat="49.26101" lon="2.39957">
        <ele>85.5</ele>
        <time>2017-05-07T10:21:54Z</time>
      </trkpt>
      <trkpt lat="49.26108" lon="2.39954">
        <ele>86.1</ele>
        <time>2017-05-07T10:22:01Z</time>
      </trkpt>
      <trkpt lat="49.26116" lon="2.39954">
        <ele>86.1</ele>
        <time>2017-05-07T10:22:07Z</time>
      </trkpt>
      <trkpt lat="49.26122" lon="2.39954">
        <ele>86</ele>
        <time>2017-05-07T10:22:14Z</time>
      </trkpt>
      <trkpt lat="49.26128" lon="2.39955">
        <ele>86.6</ele>
        <time>2017-05-07T10:22:21Z</time>
      </trkpt>
      <trkpt lat="49.26136" lon="2.39952">
        <ele>87.3</ele>
        <time>2017-05-07T10:22:25Z</time>
      </trkpt>
      <trkpt lat="49.26143" lon="2.39949">
        <ele>87.9</ele>
        <time>2017-05-07T10:22:30Z</time>
      </trkpt>
      <trkpt lat="49.26149" lon="2.39945">
        <ele>88.2</ele>
        <time>2017-05-07T10:22:37Z</time>
      </trkpt>
      <trkpt lat="49.26156" lon="2.39939">
        <ele>88</ele>
        <time>2017-05-07T10:22:44Z</time>
      </trkpt>
      <trkpt lat="49.26164" lon="2.39938">
        <ele>87.7</ele>
        <time>2017-05-07T10:22:48Z</time>
      </trkpt>
      <trkpt lat="49.2617" lon="2.39934">
        <ele>87</ele>
        <time>2017-05-07T10:22:55Z</time>
      </trkpt>
      <trkpt lat="49.26177" lon="2.39928">
        <ele>87.1</ele>
        <time>2017-05-07T10:23:00Z</time>
      </trkpt>
      <trkpt lat="49.26185" lon="2.39924">
        <ele>87.1</ele>
        <time>2017-05-07T10:23:06Z</time>
      </trkpt>
      <trkpt lat="49.26192" lon="2.3992">
        <ele>86.6</ele>
        <time>2017-05-07T10:23:11Z</time>
      </trkpt>
      <trkpt lat="49.262" lon="2.39919">
        <ele>86.4</ele>
        <time>2017-05-07T10:23:16Z</time>
      </trkpt>
      <trkpt lat="49.26206" lon="2.39917">
        <ele>86.4</ele>
        <time>2017-05-07T10:23:23Z</time>
      </trkpt>
      <trkpt lat="49.26212" lon="2.39914">
        <ele>86.5</ele>
        <time>2017-05-07T10:23:30Z</time>
      </trkpt>
      <trkpt lat="49.2622" lon="2.39909">
        <ele>86.7</ele>
        <time>2017-05-07T10:23:36Z</time>
      </trkpt>
      <trkpt lat="49.26227" lon="2.39905">
        <ele>86.6</ele>
        <time>2017-05-07T10:23:43Z</time>
      </trkpt>
      <trkpt lat="49.2623" lon="2.39904">
        <ele>86.2</ele>
        <time>2017-05-07T10:23:50Z</time>
      </trkpt>
      <trkpt lat="49.26238" lon="2.39905">
        <ele>85.7</ele>
        <time>2017-05-07T10:23:57Z</time>
      </trkpt>
      <trkpt lat="49.26245" lon="2.39905">
        <ele>85.4</ele>
        <time>2017-05-07T10:24:01Z</time>
      </trkpt>
      <trkpt lat="49.26252" lon="2.39902">
        <ele>85.4</ele>
        <time>2017-05-07T10:24:08Z</time>
      </trkpt>
      <trkpt lat="49.26255" lon="2.399">
        <ele>85.3</ele>
        <time>2017-05-07T10:24:15Z</time>
      </trkpt>
      <trkpt lat="49.26261" lon="2.3989">
        <ele>85</ele>
        <time>2017-05-07T10:24:22Z</time>
      </trkpt>
      <trkpt lat="49.26267" lon="2.39883">
        <ele>84.8</ele>
        <time>2017-05-07T10:24:25Z</time>
      </trkpt>
      <trkpt lat="49.26274" lon="2.39875">
        <ele>84.7</ele>
        <time>2017-05-07T10:24:29Z</time>
      </trkpt>
      <trkpt lat="49.26281" lon="2.3987">
        <ele>84.1</ele>
        <time>2017-05-07T10:24:35Z</time>
      </trkpt>
      <trkpt lat="49.26288" lon="2.39865">
        <ele>83.7</ele>
        <time>2017-05-07T10:24:40Z</time>
      </trkpt>
      <trkpt lat="49.26295" lon="2.3986">
        <ele>83.6</ele>
        <time>2017-05-07T10:24:46Z</time>
      </trkpt>
      <trkpt lat="49.26302" lon="2.39857">
        <ele>83.2</ele>
        <time>2017-05-07T10:24:52Z</time>
      </trkpt>
      <trkpt lat="49.2631" lon="2.39854">
        <ele>82.6</ele>
        <time>2017-05-07T10:24:59Z</time>
      </trkpt>
      <trkpt lat="49.26316" lon="2.39849">
        <ele>82.3</ele>
        <time>2017-05-07T10:25:03Z</time>
      </trkpt>
      <trkpt lat="49.26323" lon="2.39844">
        <ele>81.8</ele>
        <time>2017-05-07T10:25:08Z</time>
      </trkpt>
      <trkpt lat="49.26329" lon="2.39837">
        <ele>80.8</ele>
        <time>2017-05-07T10:25:13Z</time>
      </trkpt>
      <trkpt lat="49.26332" lon="2.39828">
        <ele>79.8</ele>
        <time>2017-05-07T10:25:20Z</time>
      </trkpt>
      <trkpt lat="49.26328" lon="2.39819">
        <ele>78.5</ele>
        <time>2017-05-07T10:25:27Z</time>
      </trkpt>
      <trkpt lat="49.26323" lon="2.39811">
        <ele>77.9</ele>
        <time>2017-05-07T10:25:34Z</time>
      </trkpt>
      <trkpt lat="49.2632" lon="2.39801">
        <ele>77.8</ele>
        <time>2017-05-07T10:25:39Z</time>
      </trkpt>
      <trkpt lat="49.26315" lon="2.39793">
        <ele>77.3</ele>
        <time>2017-05-07T10:25:45Z</time>
      </trkpt>
      <trkpt lat="49.2631" lon="2.39785">
        <ele>77.2</ele>
        <time>2017-05-07T10:25:49Z</time>
      </trkpt>
      <trkpt lat="49.26308" lon="2.39777">
        <ele>76.9</ele>
        <time>2017-05-07T10:25:56Z</time>
      </trkpt>
      <trkpt lat="49.26308" lon="2.39767">
        <ele>77.1</ele>
        <time>2017-05-07T10:26:03Z</time>
      </trkpt>
      <trkpt lat="49.26306" lon="2.39756">
        <ele>77.1</ele>
        <time>2017-05-07T10:26:10Z</time>
      </trkpt>
      <trkpt lat="49.26299" lon="2.39749">
        <ele>76.8</ele>
        <time>2017-05-07T10:26:15Z</time>
      </trkpt>
      <trkpt lat="49.26294" lon="2.3974">
        <ele>76.5</ele>
        <time>2017-05-07T10:26:21Z</time>
      </trkpt>
      <trkpt lat="49.26288" lon="2.39732">
        <ele>76.7</ele>
        <time>2017-05-07T10:26:27Z</time>
      </trkpt>
      <trkpt lat="49.26284" lon="2.39725">
        <ele>77.2</ele>
        <time>2017-05-07T10:26:34Z</time>
      </trkpt>
      <trkpt lat="49.26276" lon="2.39722">
        <ele>77.8</ele>
        <time>2017-05-07T10:26:38Z</time>
      </trkpt>
      <trkpt lat="49.26272" lon="2.39713">
        <ele>78.6</ele>
        <time>2017-05-07T10:26:44Z</time>
      </trkpt>
      <trkpt lat="49.26269" lon="2.39704">
        <ele>79</ele>
        <time>2017-05-07T10:26:51Z</time>
      </trkpt>
      <trkpt lat="49.26268" lon="2.39692">
        <ele>78.8</ele>
        <time>2017-05-07T10:26:58Z</time>
      </trkpt>
      <trkpt lat="49.26268" lon="2.39681">
        <ele>78.4</ele>
        <time>2017-05-07T10:27:05Z</time>
      </trkpt>
      <trkpt lat="49.26267" lon="2.39672">
        <ele>78.3</ele>
        <time>2017-05-07T10:27:12Z</time>
      </trkpt>
      <trkpt lat="49.26264" lon="2.39661">
        <ele>78</ele>
        <time>2017-05-07T10:27:18Z</time>
      </trkpt>
      <trkpt lat="49.26263" lon="2.3965">
        <ele>77</ele>
        <time>2017-05-07T10:27:25Z</time>
      </trkpt>
      <trkpt lat="49.26263" lon="2.39637">
        <ele>76.8</ele>
        <time>2017-05-07T10:27:32Z</time>
      </trkpt>
      <trkpt lat="49.26263" lon="2.39626">
        <ele>76.5</ele>
        <time>2017-05-07T10:27:38Z</time>
      </trkpt>
      <trkpt lat="49.26261" lon="2.39614">
        <ele>76.1</ele>
        <time>2017-05-07T10:27:44Z</time>
      </trkpt>
      <trkpt lat="49.26259" lon="2.39605">
        <ele>75.6</ele>
        <time>2017-05-07T10:27:51Z</time>
      </trkpt>
      <trkpt lat="49.26256" lon="2.39594">
        <ele>75.4</ele>
        <time>2017-05-07T10:27:57Z</time>
      </trkpt>
      <trkpt lat="49.2625" lon="2.39586">
        <ele>74.8</ele>
        <time>2017-05-07T10:28:03Z</time>
      </trkpt>
      <trkpt lat="49.26241" lon="2.39584">
        <ele>75</ele>
        <time>2017-05-07T10:28:09Z</time>
      </trkpt>
      <trkpt lat="49.26234" lon="2.39582">
        <ele>75.2</ele>
        <time>2017-05-07T10:28:14Z</time>
      </trkpt>
      <trkpt lat="49.26229" lon="2.39578">
        <ele>75.3</ele>
        <time>2017-05-07T10:28:21Z</time>
      </trkpt>
      <trkpt lat="49.26227" lon="2.39571">
        <ele>75.4</ele>
        <time>2017-05-07T10:28:28Z</time>
      </trkpt>
      <trkpt lat="49.26221" lon="2.39568">
        <ele>76.2</ele>
        <time>2017-05-07T10:28:41Z</time>
      </trkpt>
      <trkpt lat="49.26212" lon="2.39564">
        <ele>76</ele>
        <time>2017-05-07T10:28:47Z</time>
      </trkpt>
      <trkpt lat="49.26205" lon="2.39558">
        <ele>76</ele>
        <time>2017-05-07T10:28:54Z</time>
      </trkpt>
      <trkpt lat="49.262" lon="2.39549">
        <ele>76</ele>
        <time>2017-05-07T10:29:00Z</time>
      </trkpt>
      <trkpt lat="49.26194" lon="2.39545">
        <ele>76.2</ele>
        <time>2017-05-07T10:29:07Z</time>
      </trkpt>
      <trkpt lat="49.2619" lon="2.39542">
        <ele>75.8</ele>
        <time>2017-05-07T10:29:14Z</time>
      </trkpt>
      <trkpt lat="49.26182" lon="2.39537">
        <ele>75.5</ele>
        <time>2017-05-07T10:29:19Z</time>
      </trkpt>
      <trkpt lat="49.26174" lon="2.39532">
        <ele>75.1</ele>
        <time>2017-05-07T10:29:24Z</time>
      </trkpt>
      <trkpt lat="49.2617" lon="2.39526">
        <ele>74.6</ele>
        <time>2017-05-07T10:29:31Z</time>
      </trkpt>
      <trkpt lat="49.26166" lon="2.39526">
        <ele>75</ele>
        <time>2017-05-07T10:29:38Z</time>
      </trkpt>
      <trkpt lat="49.26158" lon="2.39523">
        <ele>75.2</ele>
        <time>2017-05-07T10:29:43Z</time>
      </trkpt>
      <trkpt lat="49.26151" lon="2.39516">
        <ele>74.7</ele>
        <time>2017-05-07T10:29:50Z</time>
      </trkpt>
      <trkpt lat="49.26145" lon="2.39508">
        <ele>74.1</ele>
        <time>2017-05-07T10:29:56Z</time>
      </trkpt>
      <trkpt lat="49.26137" lon="2.39505">
        <ele>74.2</ele>
        <time>2017-05-07T10:30:02Z</time>
      </trkpt>
      <trkpt lat="49.26131" lon="2.39498">
        <ele>74.6</ele>
        <time>2017-05-07T10:30:08Z</time>
      </trkpt>
      <trkpt lat="49.26124" lon="2.39492">
        <ele>74.6</ele>
        <time>2017-05-07T10:30:14Z</time>
      </trkpt>
      <trkpt lat="49.26121" lon="2.39489">
        <ele>74</ele>
        <time>2017-05-07T10:30:21Z</time>
      </trkpt>
      <trkpt lat="49.26115" lon="2.39483">
        <ele>73.5</ele>
        <time>2017-05-07T10:30:26Z</time>
      </trkpt>
      <trkpt lat="49.26111" lon="2.39478">
        <ele>72.9</ele>
        <time>2017-05-07T10:30:33Z</time>
      </trkpt>
      <trkpt lat="49.26112" lon="2.39483">
        <ele>73</ele>
        <time>2017-05-07T10:30:40Z</time>
      </trkpt>
      <trkpt lat="49.26107" lon="2.39479">
        <ele>73</ele>
        <time>2017-05-07T10:30:47Z</time>
      </trkpt>
      <trkpt lat="49.26102" lon="2.39473">
        <ele>72.8</ele>
        <time>2017-05-07T10:30:54Z</time>
      </trkpt>
      <trkpt lat="49.26101" lon="2.39471">
        <ele>72.7</ele>
        <time>2017-05-07T10:31:01Z</time>
      </trkpt>
      <trkpt lat="49.26105" lon="2.39467">
        <ele>71.7</ele>
        <time>2017-05-07T10:31:25Z</time>
      </trkpt>
      <trkpt lat="49.26114" lon="2.39468">
        <ele>70.5</ele>
        <time>2017-05-07T10:31:32Z</time>
      </trkpt>
      <trkpt lat="49.26116" lon="2.39467">
        <ele>70.9</ele>
        <time>2017-05-07T10:31:39Z</time>
      </trkpt>
      <trkpt lat="49.2612" lon="2.3946">
        <ele>71.8</ele>
        <time>2017-05-07T10:31:46Z</time>
      </trkpt>
      <trkpt lat="49.26126" lon="2.39453">
        <ele>72.4</ele>
        <time>2017-05-07T10:31:53Z</time>
      </trkpt>
      <trkpt lat="49.2613" lon="2.39443">
        <ele>73.4</ele>
        <time>2017-05-07T10:31:59Z</time>
      </trkpt>
      <trkpt lat="49.26133" lon="2.39433">
        <ele>74</ele>
        <time>2017-05-07T10:32:03Z</time>
      </trkpt>
      <trkpt lat="49.26136" lon="2.39423">
        <ele>74.5</ele>
        <time>2017-05-07T10:32:08Z</time>
      </trkpt>
      <trkpt lat="49.26138" lon="2.3941">
        <ele>74.5</ele>
        <time>2017-05-07T10:32:15Z</time>
      </trkpt>
      <trkpt lat="49.2614" lon="2.39398">
        <ele>74.5</ele>
        <time>2017-05-07T10:32:22Z</time>
      </trkpt>
      <trkpt lat="49.26142" lon="2.39386">
        <ele>73.8</ele>
        <time>2017-05-07T10:32:28Z</time>
      </trkpt>
      <trkpt lat="49.26144" lon="2.39373">
        <ele>73.7</ele>
        <time>2017-05-07T10:32:35Z</time>
      </trkpt>
      <trkpt lat="49.26146" lon="2.39362">
        <ele>73.9</ele>
        <time>2017-05-07T10:32:42Z</time>
      </trkpt>
      <trkpt lat="49.26149" lon="2.39351">
        <ele>74</ele>
        <time>2017-05-07T10:32:49Z</time>
      </trkpt>
      <trkpt lat="49.26151" lon="2.39341">
        <ele>73.9</ele>
        <time>2017-05-07T10:32:55Z</time>
      </trkpt>
      <trkpt lat="49.26151" lon="2.39329">
        <ele>73.9</ele>
        <time>2017-05-07T10:33:02Z</time>
      </trkpt>
      <trkpt lat="49.26153" lon="2.39317">
        <ele>74.3</ele>
        <time>2017-05-07T10:33:09Z</time>
      </trkpt>
      <trkpt lat="49.26154" lon="2.39306">
        <ele>74.6</ele>
        <time>2017-05-07T10:33:15Z</time>
      </trkpt>
      <trkpt lat="49.26154" lon="2.39294">
        <ele>75.4</ele>
        <time>2017-05-07T10:33:22Z</time>
      </trkpt>
      <trkpt lat="49.26157" lon="2.39284">
        <ele>75.6</ele>
        <time>2017-05-07T10:33:28Z</time>
      </trkpt>
      <trkpt lat="49.26159" lon="2.39273">
        <ele>75.6</ele>
        <time>2017-05-07T10:33:35Z</time>
      </trkpt>
      <trkpt lat="49.2616" lon="2.39259">
        <ele>75.3</ele>
        <time>2017-05-07T10:33:42Z</time>
      </trkpt>
      <trkpt lat="49.26162" lon="2.39248">
        <ele>75.1</ele>
        <time>2017-05-07T10:33:46Z</time>
      </trkpt>
      <trkpt lat="49.26162" lon="2.39239">
        <ele>75.2</ele>
        <time>2017-05-07T10:33:53Z</time>
      </trkpt>
      <trkpt lat="49.26164" lon="2.39229">
        <ele>75.3</ele>
        <time>2017-05-07T10:34:00Z</time>
      </trkpt>
      <trkpt lat="49.26165" lon="2.39219">
        <ele>76.5</ele>
        <time>2017-05-07T10:34:07Z</time>
      </trkpt>
      <trkpt lat="49.26168" lon="2.39207">
        <ele>76.9</ele>
        <time>2017-05-07T10:34:13Z</time>
      </trkpt>
      <trkpt lat="49.26169" lon="2.39196">
        <ele>76.7</ele>
        <time>2017-05-07T10:34:20Z</time>
      </trkpt>
      <trkpt lat="49.26169" lon="2.39184">
        <ele>77</ele>
        <time>2017-05-07T10:34:25Z</time>
      </trkpt>
      <trkpt lat="49.26166" lon="2.39171">
        <ele>77.1</ele>
        <time>2017-05-07T10:34:32Z</time>
      </trkpt>
      <trkpt lat="49.26167" lon="2.39161">
        <ele>76.9</ele>
        <time>2017-05-07T10:34:39Z</time>
      </trkpt>
      <trkpt lat="49.26168" lon="2.3915">
        <ele>76.8</ele>
        <time>2017-05-07T10:34:45Z</time>
      </trkpt>
      <trkpt lat="49.26169" lon="2.39139">
        <ele>76.6</ele>
        <time>2017-05-07T10:34:52Z</time>
      </trkpt>
      <trkpt lat="49.26169" lon="2.39128">
        <ele>76.7</ele>
        <time>2017-05-07T10:34:58Z</time>
      </trkpt>
      <trkpt lat="49.26169" lon="2.39116">
        <ele>77.3</ele>
        <time>2017-05-07T10:35:04Z</time>
      </trkpt>
      <trkpt lat="49.26167" lon="2.39105">
        <ele>78</ele>
        <time>2017-05-07T10:35:11Z</time>
      </trkpt>
      <trkpt lat="49.26168" lon="2.39094">
        <ele>77.3</ele>
        <time>2017-05-07T10:35:18Z</time>
      </trkpt>
      <trkpt lat="49.26169" lon="2.39083">
        <ele>76.9</ele>
        <time>2017-05-07T10:35:22Z</time>
      </trkpt>
      <trkpt lat="49.26171" lon="2.39071">
        <ele>76.7</ele>
        <time>2017-05-07T10:35:29Z</time>
      </trkpt>
      <trkpt lat="49.26171" lon="2.39058">
        <ele>76.4</ele>
        <time>2017-05-07T10:35:36Z</time>
      </trkpt>
      <trkpt lat="49.26171" lon="2.39047">
        <ele>76.3</ele>
        <time>2017-05-07T10:35:41Z</time>
      </trkpt>
      <trkpt lat="49.26173" lon="2.39035">
        <ele>75.9</ele>
        <time>2017-05-07T10:35:47Z</time>
      </trkpt>
      <trkpt lat="49.26171" lon="2.39023">
        <ele>76.1</ele>
        <time>2017-05-07T10:35:54Z</time>
      </trkpt>
      <trkpt lat="49.2617" lon="2.39012">
        <ele>77.2</ele>
        <time>2017-05-07T10:36:01Z</time>
      </trkpt>
      <trkpt lat="49.26171" lon="2.39002">
        <ele>77.9</ele>
        <time>2017-05-07T10:36:08Z</time>
      </trkpt>
      <trkpt lat="49.26171" lon="2.3899">
        <ele>78.3</ele>
        <time>2017-05-07T10:36:14Z</time>
      </trkpt>
      <trkpt lat="49.26171" lon="2.38978">
        <ele>78.4</ele>
        <time>2017-05-07T10:36:21Z</time>
      </trkpt>
      <trkpt lat="49.26171" lon="2.38967">
        <ele>78.5</ele>
        <time>2017-05-07T10:36:28Z</time>
      </trkpt>
      <trkpt lat="49.26169" lon="2.38958">
        <ele>78.4</ele>
        <time>2017-05-07T10:36:35Z</time>
      </trkpt>
      <trkpt lat="49.26169" lon="2.38947">
        <ele>78.1</ele>
        <time>2017-05-07T10:36:41Z</time>
      </trkpt>
      <trkpt lat="49.26171" lon="2.38936">
        <ele>78.4</ele>
        <time>2017-05-07T10:36:48Z</time>
      </trkpt>
      <trkpt lat="49.26171" lon="2.38926">
        <ele>78.5</ele>
        <time>2017-05-07T10:36:53Z</time>
      </trkpt>
      <trkpt lat="49.26171" lon="2.38914">
        <ele>78.4</ele>
        <time>2017-05-07T10:37:00Z</time>
      </trkpt>
      <trkpt lat="49.26169" lon="2.38902">
        <ele>78.7</ele>
        <time>2017-05-07T10:37:07Z</time>
      </trkpt>
      <trkpt lat="49.26169" lon="2.38889">
        <ele>79.5</ele>
        <time>2017-05-07T10:37:14Z</time>
      </trkpt>
      <trkpt lat="49.26169" lon="2.38878">
        <ele>79.9</ele>
        <time>2017-05-07T10:37:21Z</time>
      </trkpt>
      <trkpt lat="49.26171" lon="2.38867">
        <ele>80</ele>
        <time>2017-05-07T10:37:27Z</time>
      </trkpt>
      <trkpt lat="49.26169" lon="2.38855">
        <ele>80.5</ele>
        <time>2017-05-07T10:37:33Z</time>
      </trkpt>
      <trkpt lat="49.26169" lon="2.38843">
        <ele>80.4</ele>
        <time>2017-05-07T10:37:38Z</time>
      </trkpt>
      <trkpt lat="49.26169" lon="2.38834">
        <ele>80</ele>
        <time>2017-05-07T10:37:45Z</time>
      </trkpt>
      <trkpt lat="49.26169" lon="2.38824">
        <ele>79.7</ele>
        <time>2017-05-07T10:37:52Z</time>
      </trkpt>
      <trkpt lat="49.26171" lon="2.38812">
        <ele>79.3</ele>
        <time>2017-05-07T10:37:58Z</time>
      </trkpt>
      <trkpt lat="49.26171" lon="2.388">
        <ele>78.5</ele>
        <time>2017-05-07T10:38:04Z</time>
      </trkpt>
      <trkpt lat="49.26171" lon="2.38788">
        <ele>77.5</ele>
        <time>2017-05-07T10:38:10Z</time>
      </trkpt>
      <trkpt lat="49.26171" lon="2.38778">
        <ele>76.8</ele>
        <time>2017-05-07T10:38:17Z</time>
      </trkpt>
      <trkpt lat="49.26171" lon="2.38768">
        <ele>76.6</ele>
        <time>2017-05-07T10:38:24Z</time>
      </trkpt>
      <trkpt lat="49.26173" lon="2.38756">
        <ele>76.5</ele>
        <time>2017-05-07T10:38:29Z</time>
      </trkpt>
      <trkpt lat="49.26174" lon="2.38745">
        <ele>76.2</ele>
        <time>2017-05-07T10:38:36Z</time>
      </trkpt>
      <trkpt lat="49.26173" lon="2.38735">
        <ele>76.3</ele>
        <time>2017-05-07T10:38:43Z</time>
      </trkpt>
      <trkpt lat="49.26173" lon="2.38723">
        <ele>76</ele>
        <time>2017-05-07T10:38:49Z</time>
      </trkpt>
      <trkpt lat="49.26174" lon="2.38713">
        <ele>74.8</ele>
        <time>2017-05-07T10:38:56Z</time>
      </trkpt>
      <trkpt lat="49.26176" lon="2.387">
        <ele>74</ele>
        <time>2017-05-07T10:39:03Z</time>
      </trkpt>
      <trkpt lat="49.26177" lon="2.3869">
        <ele>73.8</ele>
        <time>2017-05-07T10:39:10Z</time>
      </trkpt>
      <trkpt lat="49.26176" lon="2.38681">
        <ele>74</ele>
        <time>2017-05-07T10:39:17Z</time>
      </trkpt>
      <trkpt lat="49.26174" lon="2.38669">
        <ele>74.2</ele>
        <time>2017-05-07T10:39:23Z</time>
      </trkpt>
      <trkpt lat="49.26174" lon="2.38664">
        <ele>74.6</ele>
        <time>2017-05-07T10:39:30Z</time>
      </trkpt>
      <trkpt lat="49.26173" lon="2.38654">
        <ele>75.2</ele>
        <time>2017-05-07T10:39:37Z</time>
      </trkpt>
      <trkpt lat="49.26172" lon="2.38642">
        <ele>75.5</ele>
        <time>2017-05-07T10:39:42Z</time>
      </trkpt>
      <trkpt lat="49.26174" lon="2.38631">
        <ele>76</ele>
        <time>2017-05-07T10:39:48Z</time>
      </trkpt>
      <trkpt lat="49.26175" lon="2.3862">
        <ele>76.6</ele>
        <time>2017-05-07T10:39:54Z</time>
      </trkpt>
      <trkpt lat="49.26175" lon="2.3861">
        <ele>77</ele>
        <time>2017-05-07T10:40:01Z</time>
      </trkpt>
      <trkpt lat="49.26176" lon="2.38598">
        <ele>77.4</ele>
        <time>2017-05-07T10:40:07Z</time>
      </trkpt>
      <trkpt lat="49.26177" lon="2.38589">
        <ele>77.5</ele>
        <time>2017-05-07T10:40:14Z</time>
      </trkpt>
      <trkpt lat="49.26178" lon="2.38577">
        <ele>77.1</ele>
        <time>2017-05-07T10:40:20Z</time>
      </trkpt>
      <trkpt lat="49.26177" lon="2.38567">
        <ele>77</ele>
        <time>2017-05-07T10:40:27Z</time>
      </trkpt>
      <trkpt lat="49.26176" lon="2.38556">
        <ele>76.3</ele>
        <time>2017-05-07T10:40:33Z</time>
      </trkpt>
      <trkpt lat="49.26177" lon="2.38552">
        <ele>75.5</ele>
        <time>2017-05-07T10:40:40Z</time>
      </trkpt>
      <trkpt lat="49.26176" lon="2.38554">
        <ele>74.3</ele>
        <time>2017-05-07T10:40:49Z</time>
      </trkpt>
      <trkpt lat="49.26173" lon="2.38546">
        <ele>74</ele>
        <time>2017-05-07T10:40:58Z</time>
      </trkpt>
      <trkpt lat="49.26171" lon="2.38542">
        <ele>74.4</ele>
        <time>2017-05-07T10:41:05Z</time>
      </trkpt>
      <trkpt lat="49.2618" lon="2.38535">
        <ele>75.2</ele>
        <time>2017-05-07T10:40:38Z</time>
      </trkpt>
      <trkpt lat="49.26179" lon="2.38526">
        <ele>75.8</ele>
        <time>2017-05-07T10:41:50Z</time>
      </trkpt>
      <trkpt lat="49.26178" lon="2.38514">
        <ele>76.1</ele>
        <time>2017-05-07T10:41:57Z</time>
      </trkpt>
      <trkpt lat="49.26178" lon="2.38502">
        <ele>76.5</ele>
        <time>2017-05-07T10:42:04Z</time>
      </trkpt>
      <trkpt lat="49.26178" lon="2.38493">
        <ele>76.9</ele>
        <time>2017-05-07T10:42:11Z</time>
      </trkpt>
      <trkpt lat="49.2618" lon="2.38482">
        <ele>77</ele>
        <time>2017-05-07T10:42:18Z</time>
      </trkpt>
      <trkpt lat="49.26181" lon="2.38472">
        <ele>77.5</ele>
        <time>2017-05-07T10:42:25Z</time>
      </trkpt>
      <trkpt lat="49.26178" lon="2.38463">
        <ele>78.1</ele>
        <time>2017-05-07T10:42:32Z</time>
      </trkpt>
      <trkpt lat="49.2618" lon="2.38453">
        <ele>77.8</ele>
        <time>2017-05-07T10:42:39Z</time>
      </trkpt>
      <trkpt lat="49.26182" lon="2.38441">
        <ele>77.7</ele>
        <time>2017-05-07T10:42:46Z</time>
      </trkpt>
      <trkpt lat="49.26183" lon="2.3843">
        <ele>77.5</ele>
        <time>2017-05-07T10:42:52Z</time>
      </trkpt>
      <trkpt lat="49.26184" lon="2.38419">
        <ele>77.9</ele>
        <time>2017-05-07T10:42:58Z</time>
      </trkpt>
      <trkpt lat="49.26182" lon="2.38406">
        <ele>78</ele>
        <time>2017-05-07T10:43:04Z</time>
      </trkpt>
      <trkpt lat="49.26184" lon="2.38394">
        <ele>78.4</ele>
        <time>2017-05-07T10:43:10Z</time>
      </trkpt>
      <trkpt lat="49.26185" lon="2.38383">
        <ele>78.2</ele>
        <time>2017-05-07T10:43:16Z</time>
      </trkpt>
      <trkpt lat="49.26186" lon="2.38371">
        <ele>77.8</ele>
        <time>2017-05-07T10:43:23Z</time>
      </trkpt>
      <trkpt lat="49.26186" lon="2.38361">
        <ele>77.7</ele>
        <time>2017-05-07T10:43:30Z</time>
      </trkpt>
      <trkpt lat="49.26187" lon="2.38354">
        <ele>77.7</ele>
        <time>2017-05-07T10:43:37Z</time>
      </trkpt>
      <trkpt lat="49.26186" lon="2.38341">
        <ele>77.5</ele>
        <time>2017-05-07T10:43:44Z</time>
      </trkpt>
      <trkpt lat="49.26185" lon="2.38332">
        <ele>77.9</ele>
        <time>2017-05-07T10:43:51Z</time>
      </trkpt>
      <trkpt lat="49.26187" lon="2.3832">
        <ele>78.2</ele>
        <time>2017-05-07T10:43:57Z</time>
      </trkpt>
      <trkpt lat="49.26187" lon="2.38309">
        <ele>78.1</ele>
        <time>2017-05-07T10:44:02Z</time>
      </trkpt>
      <trkpt lat="49.26188" lon="2.38297">
        <ele>78.1</ele>
        <time>2017-05-07T10:44:09Z</time>
      </trkpt>
      <trkpt lat="49.26188" lon="2.38289">
        <ele>78.8</ele>
        <time>2017-05-07T10:44:16Z</time>
      </trkpt>
      <trkpt lat="49.26189" lon="2.38278">
        <ele>78.8</ele>
        <time>2017-05-07T10:44:23Z</time>
      </trkpt>
      <trkpt lat="49.26191" lon="2.38267">
        <ele>78.8</ele>
        <time>2017-05-07T10:44:28Z</time>
      </trkpt>
      <trkpt lat="49.26191" lon="2.38256">
        <ele>78.7</ele>
        <time>2017-05-07T10:44:34Z</time>
      </trkpt>
      <trkpt lat="49.2619" lon="2.38244">
        <ele>79.1</ele>
        <time>2017-05-07T10:44:39Z</time>
      </trkpt>
      <trkpt lat="49.2619" lon="2.38235">
        <ele>78.8</ele>
        <time>2017-05-07T10:44:46Z</time>
      </trkpt>
      <trkpt lat="49.26189" lon="2.38221">
        <ele>78.9</ele>
        <time>2017-05-07T10:44:53Z</time>
      </trkpt>
      <trkpt lat="49.26189" lon="2.38213">
        <ele>78.7</ele>
        <time>2017-05-07T10:45:00Z</time>
      </trkpt>
      <trkpt lat="49.26189" lon="2.38201">
        <ele>78.6</ele>
        <time>2017-05-07T10:45:05Z</time>
      </trkpt>
      <trkpt lat="49.26189" lon="2.3819">
        <ele>78.2</ele>
        <time>2017-05-07T10:45:12Z</time>
      </trkpt>
      <trkpt lat="49.26191" lon="2.38177">
        <ele>77.5</ele>
        <time>2017-05-07T10:45:17Z</time>
      </trkpt>
      <trkpt lat="49.26193" lon="2.38167">
        <ele>77.3</ele>
        <time>2017-05-07T10:45:23Z</time>
      </trkpt>
      <trkpt lat="49.26196" lon="2.3816">
        <ele>77.3</ele>
        <time>2017-05-07T10:45:30Z</time>
      </trkpt>
      <trkpt lat="49.262" lon="2.3815">
        <ele>77.6</ele>
        <time>2017-05-07T10:45:37Z</time>
      </trkpt>
      <trkpt lat="49.26205" lon="2.38143">
        <ele>77.3</ele>
        <time>2017-05-07T10:45:43Z</time>
      </trkpt>
      <trkpt lat="49.26207" lon="2.3814">
        <ele>76.6</ele>
        <time>2017-05-07T10:45:50Z</time>
      </trkpt>
      <trkpt lat="49.26212" lon="2.38136">
        <ele>75.9</ele>
        <time>2017-05-07T10:45:57Z</time>
      </trkpt>
      <trkpt lat="49.26218" lon="2.38129">
        <ele>76.1</ele>
        <time>2017-05-07T10:46:01Z</time>
      </trkpt>
      <trkpt lat="49.26225" lon="2.38122">
        <ele>76.3</ele>
        <time>2017-05-07T10:46:05Z</time>
      </trkpt>
      <trkpt lat="49.2623" lon="2.38114">
        <ele>76.6</ele>
        <time>2017-05-07T10:46:10Z</time>
      </trkpt>
      <trkpt lat="49.26233" lon="2.38104">
        <ele>77.5</ele>
        <time>2017-05-07T10:46:17Z</time>
      </trkpt>
      <trkpt lat="49.26237" lon="2.38101">
        <ele>77.5</ele>
        <time>2017-05-07T10:46:24Z</time>
      </trkpt>
      <trkpt lat="49.26245" lon="2.38101">
        <ele>77.8</ele>
        <time>2017-05-07T10:46:29Z</time>
      </trkpt>
      <trkpt lat="49.26252" lon="2.38098">
        <ele>77.6</ele>
        <time>2017-05-07T10:46:36Z</time>
      </trkpt>
      <trkpt lat="49.26256" lon="2.38103">
        <ele>77.1</ele>
        <time>2017-05-07T10:46:43Z</time>
      </trkpt>
      <trkpt lat="49.2626" lon="2.38106">
        <ele>76.5</ele>
        <time>2017-05-07T10:46:50Z</time>
      </trkpt>
      <trkpt lat="49.26263" lon="2.38104">
        <ele>76.3</ele>
        <time>2017-05-07T10:46:57Z</time>
      </trkpt>
      <trkpt lat="49.2627" lon="2.38107">
        <ele>76.2</ele>
        <time>2017-05-07T10:47:05Z</time>
      </trkpt>
      <trkpt lat="49.26276" lon="2.38112">
        <ele>75.3</ele>
        <time>2017-05-07T10:47:11Z</time>
      </trkpt>
      <trkpt lat="49.26282" lon="2.3812">
        <ele>74.7</ele>
        <time>2017-05-07T10:47:17Z</time>
      </trkpt>
      <trkpt lat="49.26287" lon="2.38129">
        <ele>74.2</ele>
        <time>2017-05-07T10:47:22Z</time>
      </trkpt>
      <trkpt lat="49.26292" lon="2.38134">
        <ele>73.7</ele>
        <time>2017-05-07T10:47:29Z</time>
      </trkpt>
      <trkpt lat="49.26295" lon="2.38141">
        <ele>73.3</ele>
        <time>2017-05-07T10:47:36Z</time>
      </trkpt>
      <trkpt lat="49.26301" lon="2.3815">
        <ele>73.1</ele>
        <time>2017-05-07T10:47:40Z</time>
      </trkpt>
      <trkpt lat="49.26305" lon="2.38159">
        <ele>72.5</ele>
        <time>2017-05-07T10:47:44Z</time>
      </trkpt>
      <trkpt lat="49.26312" lon="2.38165">
        <ele>72.4</ele>
        <time>2017-05-07T10:47:51Z</time>
      </trkpt>
      <trkpt lat="49.26319" lon="2.38173">
        <ele>72.6</ele>
        <time>2017-05-07T10:47:58Z</time>
      </trkpt>
      <trkpt lat="49.26325" lon="2.38179">
        <ele>73.1</ele>
        <time>2017-05-07T10:48:05Z</time>
      </trkpt>
      <trkpt lat="49.26329" lon="2.38188">
        <ele>73.5</ele>
        <time>2017-05-07T10:48:12Z</time>
      </trkpt>
      <trkpt lat="49.26334" lon="2.38197">
        <ele>73.9</ele>
        <time>2017-05-07T10:48:19Z</time>
      </trkpt>
      <trkpt lat="49.26338" lon="2.38206">
        <ele>74.2</ele>
        <time>2017-05-07T10:48:24Z</time>
      </trkpt>
      <trkpt lat="49.26341" lon="2.38214">
        <ele>74.7</ele>
        <time>2017-05-07T10:48:31Z</time>
      </trkpt>
      <trkpt lat="49.26339" lon="2.38223">
        <ele>74.7</ele>
        <time>2017-05-07T10:49:47Z</time>
      </trkpt>
      <trkpt lat="49.26341" lon="2.38227">
        <ele>74.6</ele>
        <time>2017-05-07T10:49:54Z</time>
      </trkpt>
      <trkpt lat="49.26345" lon="2.38229">
        <ele>72.7</ele>
        <time>2017-05-07T10:50:17Z</time>
      </trkpt>
      <trkpt lat="49.26346" lon="2.38223">
        <ele>73.1</ele>
        <time>2017-05-07T10:50:46Z</time>
      </trkpt>
      <trkpt lat="49.26351" lon="2.38219">
        <ele>76.5</ele>
        <time>2017-05-07T10:52:35Z</time>
      </trkpt>
      <trkpt lat="49.26353" lon="2.38227">
        <ele>77.1</ele>
        <time>2017-05-07T10:52:42Z</time>
      </trkpt>
      <trkpt lat="49.26355" lon="2.38233">
        <ele>77.3</ele>
        <time>2017-05-07T10:52:49Z</time>
      </trkpt>
      <trkpt lat="49.26361" lon="2.38245">
        <ele>77.6</ele>
        <time>2017-05-07T10:52:52Z</time>
      </trkpt>
      <trkpt lat="49.26363" lon="2.38259">
        <ele>77.7</ele>
        <time>2017-05-07T10:52:59Z</time>
      </trkpt>
      <trkpt lat="49.26366" lon="2.38271">
        <ele>77.8</ele>
        <time>2017-05-07T10:53:01Z</time>
      </trkpt>
      <trkpt lat="49.26368" lon="2.38276">
        <ele>78.5</ele>
        <time>2017-05-07T10:53:08Z</time>
      </trkpt>
      <trkpt lat="49.26371" lon="2.38287">
        <ele>79.4</ele>
        <time>2017-05-07T10:53:14Z</time>
      </trkpt>
      <trkpt lat="49.26372" lon="2.38298">
        <ele>79.1</ele>
        <time>2017-05-07T10:53:19Z</time>
      </trkpt>
      <trkpt lat="49.26373" lon="2.38303">
        <ele>79.1</ele>
        <time>2017-05-07T10:53:26Z</time>
      </trkpt>
      <trkpt lat="49.26377" lon="2.38312">
        <ele>79.3</ele>
        <time>2017-05-07T10:53:33Z</time>
      </trkpt>
      <trkpt lat="49.26377" lon="2.38318">
        <ele>78.6</ele>
        <time>2017-05-07T10:53:40Z</time>
      </trkpt>
      <trkpt lat="49.26378" lon="2.38325">
        <ele>78.9</ele>
        <time>2017-05-07T10:53:47Z</time>
      </trkpt>
      <trkpt lat="49.26378" lon="2.3834">
        <ele>79.5</ele>
        <time>2017-05-07T10:53:54Z</time>
      </trkpt>
      <trkpt lat="49.26375" lon="2.38351">
        <ele>80.6</ele>
        <time>2017-05-07T10:54:01Z</time>
      </trkpt>
      <trkpt lat="49.26373" lon="2.38363">
        <ele>80.8</ele>
        <time>2017-05-07T10:54:04Z</time>
      </trkpt>
      <trkpt lat="49.2637" lon="2.38375">
        <ele>81.4</ele>
        <time>2017-05-07T10:54:10Z</time>
      </trkpt>
      <trkpt lat="49.26369" lon="2.38384">
        <ele>81.5</ele>
        <time>2017-05-07T10:54:17Z</time>
      </trkpt>
      <trkpt lat="49.26369" lon="2.38393">
        <ele>81.6</ele>
        <time>2017-05-07T10:54:24Z</time>
      </trkpt>
      <trkpt lat="49.2637" lon="2.38404">
        <ele>81.6</ele>
        <time>2017-05-07T10:54:29Z</time>
      </trkpt>
      <trkpt lat="49.26372" lon="2.38415">
        <ele>82</ele>
        <time>2017-05-07T10:54:34Z</time>
      </trkpt>
      <trkpt lat="49.2638" lon="2.38424">
        <ele>81.9</ele>
        <time>2017-05-07T10:54:41Z</time>
      </trkpt>
      <trkpt lat="49.26387" lon="2.38428">
        <ele>81.9</ele>
        <time>2017-05-07T10:54:46Z</time>
      </trkpt>
      <trkpt lat="49.26392" lon="2.38432">
        <ele>81.9</ele>
        <time>2017-05-07T10:54:53Z</time>
      </trkpt>
      <trkpt lat="49.26399" lon="2.38436">
        <ele>82.3</ele>
        <time>2017-05-07T10:55:00Z</time>
      </trkpt>
      <trkpt lat="49.26405" lon="2.38439">
        <ele>83</ele>
        <time>2017-05-07T10:55:07Z</time>
      </trkpt>
      <trkpt lat="49.26413" lon="2.3844">
        <ele>83.5</ele>
        <time>2017-05-07T10:55:13Z</time>
      </trkpt>
      <trkpt lat="49.26423" lon="2.38444">
        <ele>83.3</ele>
        <time>2017-05-07T10:55:18Z</time>
      </trkpt>
      <trkpt lat="49.2643" lon="2.38447">
        <ele>83.2</ele>
        <time>2017-05-07T10:55:25Z</time>
      </trkpt>
      <trkpt lat="49.26434" lon="2.38447">
        <ele>82.7</ele>
        <time>2017-05-07T10:55:32Z</time>
      </trkpt>
      <trkpt lat="49.26442" lon="2.38447">
        <ele>82.7</ele>
        <time>2017-05-07T10:55:39Z</time>
      </trkpt>
      <trkpt lat="49.26449" lon="2.38452">
        <ele>82.5</ele>
        <time>2017-05-07T10:55:46Z</time>
      </trkpt>
      <trkpt lat="49.26457" lon="2.38449">
        <ele>81.4</ele>
        <time>2017-05-07T10:55:52Z</time>
      </trkpt>
      <trkpt lat="49.26464" lon="2.38449">
        <ele>80.6</ele>
        <time>2017-05-07T10:55:59Z</time>
      </trkpt>
      <trkpt lat="49.26471" lon="2.38449">
        <ele>80.2</ele>
        <time>2017-05-07T10:56:06Z</time>
      </trkpt>
      <trkpt lat="49.26476" lon="2.3845">
        <ele>80.5</ele>
        <time>2017-05-07T10:56:13Z</time>
      </trkpt>
      <trkpt lat="49.26484" lon="2.38453">
        <ele>79.9</ele>
        <time>2017-05-07T10:56:18Z</time>
      </trkpt>
      <trkpt lat="49.26492" lon="2.38457">
        <ele>80.1</ele>
        <time>2017-05-07T10:56:23Z</time>
      </trkpt>
      <trkpt lat="49.26499" lon="2.38461">
        <ele>80.8</ele>
        <time>2017-05-07T10:56:30Z</time>
      </trkpt>
      <trkpt lat="49.26505" lon="2.38464">
        <ele>81.8</ele>
        <time>2017-05-07T10:56:37Z</time>
      </trkpt>
      <trkpt lat="49.26509" lon="2.38464">
        <ele>82.7</ele>
        <time>2017-05-07T10:56:44Z</time>
      </trkpt>
      <trkpt lat="49.2652" lon="2.3847">
        <ele>84.4</ele>
        <time>2017-05-07T10:56:51Z</time>
      </trkpt>
      <trkpt lat="49.26526" lon="2.38476">
        <ele>85.9</ele>
        <time>2017-05-07T10:56:57Z</time>
      </trkpt>
      <trkpt lat="49.26534" lon="2.38474">
        <ele>87.1</ele>
        <time>2017-05-07T10:57:02Z</time>
      </trkpt>
      <trkpt lat="49.26541" lon="2.38476">
        <ele>87.3</ele>
        <time>2017-05-07T10:57:05Z</time>
      </trkpt>
      <trkpt lat="49.26548" lon="2.38478">
        <ele>86.9</ele>
        <time>2017-05-07T10:57:12Z</time>
      </trkpt>
      <trkpt lat="49.26555" lon="2.3848">
        <ele>86</ele>
        <time>2017-05-07T10:57:19Z</time>
      </trkpt>
      <trkpt lat="49.26562" lon="2.38481">
        <ele>84.6</ele>
        <time>2017-05-07T10:57:26Z</time>
      </trkpt>
      <trkpt lat="49.26572" lon="2.38478">
        <ele>83.8</ele>
        <time>2017-05-07T10:57:29Z</time>
      </trkpt>
      <trkpt lat="49.2658" lon="2.38479">
        <ele>82.7</ele>
        <time>2017-05-07T10:57:33Z</time>
      </trkpt>
      <trkpt lat="49.2659" lon="2.38484">
        <ele>81.9</ele>
        <time>2017-05-07T10:57:40Z</time>
      </trkpt>
      <trkpt lat="49.26593" lon="2.38494">
        <ele>81.5</ele>
        <time>2017-05-07T10:57:47Z</time>
      </trkpt>
      <trkpt lat="49.26595" lon="2.38493">
        <ele>80.1</ele>
        <time>2017-05-07T10:57:54Z</time>
      </trkpt>
      <trkpt lat="49.266" lon="2.38495">
        <ele>79.8</ele>
        <time>2017-05-07T10:58:01Z</time>
      </trkpt>
      <trkpt lat="49.26603" lon="2.38507">
        <ele>80.5</ele>
        <time>2017-05-07T10:58:08Z</time>
      </trkpt>
      <trkpt lat="49.26604" lon="2.38509">
        <ele>80.8</ele>
        <time>2017-05-07T10:58:15Z</time>
      </trkpt>
      <trkpt lat="49.26606" lon="2.38513">
        <ele>81.8</ele>
        <time>2017-05-07T10:58:22Z</time>
      </trkpt>
      <trkpt lat="49.26605" lon="2.38518">
        <ele>85</ele>
        <time>2017-05-07T10:58:49Z</time>
      </trkpt>
      <trkpt lat="49.26606" lon="2.3853">
        <ele>87</ele>
        <time>2017-05-07T10:58:56Z</time>
      </trkpt>
      <trkpt lat="49.26609" lon="2.38539">
        <ele>86.9</ele>
        <time>2017-05-07T10:59:03Z</time>
      </trkpt>
      <trkpt lat="49.26612" lon="2.38544">
        <ele>85.4</ele>
        <time>2017-05-07T10:59:10Z</time>
      </trkpt>
      <trkpt lat="49.26615" lon="2.38547">
        <ele>82.6</ele>
        <time>2017-05-07T10:59:17Z</time>
      </trkpt>
      <trkpt lat="49.26618" lon="2.38552">
        <ele>80.2</ele>
        <time>2017-05-07T10:59:24Z</time>
      </trkpt>
      <trkpt lat="49.26625" lon="2.38552">
        <ele>80.3</ele>
        <time>2017-05-07T10:59:31Z</time>
      </trkpt>
      <trkpt lat="49.26631" lon="2.3855">
        <ele>81</ele>
        <time>2017-05-07T10:59:38Z</time>
      </trkpt>
      <trkpt lat="49.26635" lon="2.38546">
        <ele>81.9</ele>
        <time>2017-05-07T10:59:45Z</time>
      </trkpt>
      <trkpt lat="49.26637" lon="2.38544">
        <ele>82.5</ele>
        <time>2017-05-07T10:59:52Z</time>
      </trkpt>
      <trkpt lat="49.26639" lon="2.38534">
        <ele>85.4</ele>
        <time>2017-05-07T11:00:07Z</time>
      </trkpt>
      <trkpt lat="49.26639" lon="2.38533">
        <ele>85.9</ele>
        <time>2017-05-07T11:00:14Z</time>
      </trkpt>
      <trkpt lat="49.26641" lon="2.38522">
        <ele>87</ele>
        <time>2017-05-07T11:00:25Z</time>
      </trkpt>
      <trkpt lat="49.26646" lon="2.38517">
        <ele>88.6</ele>
        <time>2017-05-07T11:00:32Z</time>
      </trkpt>
      <trkpt lat="49.2665" lon="2.38514">
        <ele>89.8</ele>
        <time>2017-05-07T11:00:39Z</time>
      </trkpt>
      <trkpt lat="49.26649" lon="2.38522">
        <ele>91.3</ele>
        <time>2017-05-07T11:00:52Z</time>
      </trkpt>
      <trkpt lat="49.26651" lon="2.38522">
        <ele>91.5</ele>
        <time>2017-05-07T11:00:59Z</time>
      </trkpt>
      <trkpt lat="49.26647" lon="2.38524">
        <ele>92</ele>
        <time>2017-05-07T11:01:13Z</time>
      </trkpt>
      <trkpt lat="49.26647" lon="2.38529">
        <ele>91.8</ele>
        <time>2017-05-07T11:01:20Z</time>
      </trkpt>
      <trkpt lat="49.26645" lon="2.38525">
        <ele>92</ele>
        <time>2017-05-07T11:03:05Z</time>
      </trkpt>
      <trkpt lat="49.26644" lon="2.38525">
        <ele>92</ele>
        <time>2017-05-07T11:03:12Z</time>
      </trkpt>
      <trkpt lat="49.26647" lon="2.38526">
        <ele>91.2</ele>
        <time>2017-05-07T11:05:08Z</time>
      </trkpt>
      <trkpt lat="49.26648" lon="2.38526">
        <ele>95.1</ele>
        <time>2017-05-07T11:11:57Z</time>
      </trkpt>
      <trkpt lat="49.2665" lon="2.38523">
        <ele>94.5</ele>
        <time>2017-05-07T11:12:18Z</time>
      </trkpt>
      <trkpt lat="49.26648" lon="2.38524">
        <ele>93.7</ele>
        <time>2017-05-07T11:16:16Z</time>
      </trkpt>
      <trkpt lat="49.26647" lon="2.38526">
        <ele>95.5</ele>
        <time>2017-05-07T11:33:22Z</time>
      </trkpt>
      <trkpt lat="49.26649" lon="2.38522">
        <ele>95.1</ele>
        <time>2017-05-07T11:33:29Z</time>
      </trkpt>
      <trkpt lat="49.26648" lon="2.38528">
        <ele>96.2</ele>
        <time>2017-05-07T11:34:35Z</time>
      </trkpt>
      <trkpt lat="49.26646" lon="2.38538">
        <ele>96.6</ele>
        <time>2017-05-07T11:34:40Z</time>
      </trkpt>
      <trkpt lat="49.26644" lon="2.38544">
        <ele>96.1</ele>
        <time>2017-05-07T11:34:47Z</time>
      </trkpt>
      <trkpt lat="49.26643" lon="2.38538">
        <ele>95.8</ele>
        <time>2017-05-07T11:34:54Z</time>
      </trkpt>
      <trkpt lat="49.26641" lon="2.38534">
        <ele>96.5</ele>
        <time>2017-05-07T11:35:01Z</time>
      </trkpt>
      <trkpt lat="49.26639" lon="2.38533">
        <ele>97</ele>
        <time>2017-05-07T11:35:08Z</time>
      </trkpt>
      <trkpt lat="49.26643" lon="2.3854">
        <ele>97.2</ele>
        <time>2017-05-07T11:34:41Z</time>
      </trkpt>
      <trkpt lat="49.26646" lon="2.38541">
        <ele>97.5</ele>
        <time>2017-05-07T11:35:53Z</time>
      </trkpt>
      <trkpt lat="49.26646" lon="2.38548">
        <ele>97.1</ele>
        <time>2017-05-07T11:36:44Z</time>
      </trkpt>
      <trkpt lat="49.26648" lon="2.38558">
        <ele>96.6</ele>
        <time>2017-05-07T11:37:32Z</time>
      </trkpt>
      <trkpt lat="49.26652" lon="2.38567">
        <ele>96.9</ele>
        <time>2017-05-07T11:37:39Z</time>
      </trkpt>
      <trkpt lat="49.26653" lon="2.38579">
        <ele>97.3</ele>
        <time>2017-05-07T11:37:45Z</time>
      </trkpt>
      <trkpt lat="49.26654" lon="2.3859">
        <ele>97.7</ele>
        <time>2017-05-07T11:37:51Z</time>
      </trkpt>
      <trkpt lat="49.26658" lon="2.38602">
        <ele>98.2</ele>
        <time>2017-05-07T11:37:58Z</time>
      </trkpt>
      <trkpt lat="49.26659" lon="2.3861">
        <ele>98</ele>
        <time>2017-05-07T11:38:05Z</time>
      </trkpt>
      <trkpt lat="49.26665" lon="2.38617">
        <ele>97.7</ele>
        <time>2017-05-07T11:38:12Z</time>
      </trkpt>
      <trkpt lat="49.2667" lon="2.38623">
        <ele>97.6</ele>
        <time>2017-05-07T11:38:18Z</time>
      </trkpt>
      <trkpt lat="49.26675" lon="2.38632">
        <ele>97.9</ele>
        <time>2017-05-07T11:38:25Z</time>
      </trkpt>
      <trkpt lat="49.26678" lon="2.38644">
        <ele>98.4</ele>
        <time>2017-05-07T11:38:32Z</time>
      </trkpt>
      <trkpt lat="49.26681" lon="2.38651">
        <ele>98.4</ele>
        <time>2017-05-07T11:38:39Z</time>
      </trkpt>
      <trkpt lat="49.26685" lon="2.38662">
        <ele>98.7</ele>
        <time>2017-05-07T11:38:46Z</time>
      </trkpt>
      <trkpt lat="49.26684" lon="2.38667">
        <ele>99.1</ele>
        <time>2017-05-07T11:38:53Z</time>
      </trkpt>
      <trkpt lat="49.26686" lon="2.38676">
        <ele>99.1</ele>
        <time>2017-05-07T11:39:00Z</time>
      </trkpt>
      <trkpt lat="49.26689" lon="2.38688">
        <ele>98.8</ele>
        <time>2017-05-07T11:39:06Z</time>
      </trkpt>
      <trkpt lat="49.26692" lon="2.38696">
        <ele>98.7</ele>
        <time>2017-05-07T11:39:13Z</time>
      </trkpt>
      <trkpt lat="49.26694" lon="2.38705">
        <ele>99</ele>
        <time>2017-05-07T11:39:20Z</time>
      </trkpt>
      <trkpt lat="49.26692" lon="2.38718">
        <ele>99.2</ele>
        <time>2017-05-07T11:39:25Z</time>
      </trkpt>
      <trkpt lat="49.26691" lon="2.38729">
        <ele>99.7</ele>
        <time>2017-05-07T11:39:32Z</time>
      </trkpt>
      <trkpt lat="49.26692" lon="2.38737">
        <ele>99.7</ele>
        <time>2017-05-07T11:39:39Z</time>
      </trkpt>
      <trkpt lat="49.26691" lon="2.38741">
        <ele>99.6</ele>
        <time>2017-05-07T11:39:46Z</time>
      </trkpt>
      <trkpt lat="49.26684" lon="2.38745">
        <ele>99.1</ele>
        <time>2017-05-07T11:39:53Z</time>
      </trkpt>
      <trkpt lat="49.26683" lon="2.38752">
        <ele>99</ele>
        <time>2017-05-07T11:40:00Z</time>
      </trkpt>
      <trkpt lat="49.26682" lon="2.3876">
        <ele>98.9</ele>
        <time>2017-05-07T11:40:07Z</time>
      </trkpt>
      <trkpt lat="49.2668" lon="2.38771">
        <ele>98.9</ele>
        <time>2017-05-07T11:40:14Z</time>
      </trkpt>
      <trkpt lat="49.26676" lon="2.3878">
        <ele>99.4</ele>
        <time>2017-05-07T11:40:20Z</time>
      </trkpt>
      <trkpt lat="49.26672" lon="2.38788">
        <ele>100</ele>
        <time>2017-05-07T11:40:27Z</time>
      </trkpt>
      <trkpt lat="49.26668" lon="2.38799">
        <ele>100.7</ele>
        <time>2017-05-07T11:40:33Z</time>
      </trkpt>
      <trkpt lat="49.26665" lon="2.3881">
        <ele>101.5</ele>
        <time>2017-05-07T11:40:39Z</time>
      </trkpt>
      <trkpt lat="49.26665" lon="2.38822">
        <ele>102.1</ele>
        <time>2017-05-07T11:40:45Z</time>
      </trkpt>
      <trkpt lat="49.26668" lon="2.38834">
        <ele>102.5</ele>
        <time>2017-05-07T11:40:52Z</time>
      </trkpt>
      <trkpt lat="49.2667" lon="2.38843">
        <ele>102.8</ele>
        <time>2017-05-07T11:40:59Z</time>
      </trkpt>
      <trkpt lat="49.2667" lon="2.38854">
        <ele>103.7</ele>
        <time>2017-05-07T11:41:06Z</time>
      </trkpt>
      <trkpt lat="49.26673" lon="2.38865">
        <ele>104.6</ele>
        <time>2017-05-07T11:41:12Z</time>
      </trkpt>
      <trkpt lat="49.26674" lon="2.38874">
        <ele>105.7</ele>
        <time>2017-05-07T11:41:19Z</time>
      </trkpt>
      <trkpt lat="49.26675" lon="2.38885">
        <ele>106.7</ele>
        <time>2017-05-07T11:41:25Z</time>
      </trkpt>
      <trkpt lat="49.26677" lon="2.38896">
        <ele>107.4</ele>
        <time>2017-05-07T11:41:32Z</time>
      </trkpt>
      <trkpt lat="49.26683" lon="2.389">
        <ele>108.1</ele>
        <time>2017-05-07T11:41:39Z</time>
      </trkpt>
      <trkpt lat="49.2669" lon="2.38901">
        <ele>108.2</ele>
        <time>2017-05-07T11:41:46Z</time>
      </trkpt>
      <trkpt lat="49.26695" lon="2.38903">
        <ele>108.4</ele>
        <time>2017-05-07T11:41:53Z</time>
      </trkpt>
      <trkpt lat="49.26696" lon="2.38906">
        <ele>108.3</ele>
        <time>2017-05-07T11:42:00Z</time>
      </trkpt>
      <trkpt lat="49.26696" lon="2.38902">
        <ele>108.9</ele>
        <time>2017-05-07T11:42:15Z</time>
      </trkpt>
      <trkpt lat="49.26693" lon="2.38899">
        <ele>111</ele>
        <time>2017-05-07T11:44:03Z</time>
      </trkpt>
      <trkpt lat="49.2669" lon="2.38892">
        <ele>111</ele>
        <time>2017-05-07T11:44:10Z</time>
      </trkpt>
      <trkpt lat="49.26698" lon="2.38898">
        <ele>112.5</ele>
        <time>2017-05-07T11:44:30Z</time>
      </trkpt>
      <trkpt lat="49.26699" lon="2.38901">
        <ele>113</ele>
        <time>2017-05-07T11:44:37Z</time>
      </trkpt>
      <trkpt lat="49.26702" lon="2.38902">
        <ele>113.5</ele>
        <time>2017-05-07T11:45:02Z</time>
      </trkpt>
      <trkpt lat="49.26706" lon="2.38909">
        <ele>114.4</ele>
        <time>2017-05-07T11:45:22Z</time>
      </trkpt>
      <trkpt lat="49.26706" lon="2.38916">
        <ele>114.1</ele>
        <time>2017-05-07T11:45:29Z</time>
      </trkpt>
      <trkpt lat="49.2671" lon="2.38924">
        <ele>113.5</ele>
        <time>2017-05-07T11:45:36Z</time>
      </trkpt>
      <trkpt lat="49.26715" lon="2.38929">
        <ele>113.5</ele>
        <time>2017-05-07T11:45:43Z</time>
      </trkpt>
      <trkpt lat="49.26722" lon="2.38934">
        <ele>113.9</ele>
        <time>2017-05-07T11:45:48Z</time>
      </trkpt>
      <trkpt lat="49.26725" lon="2.38936">
        <ele>113.6</ele>
        <time>2017-05-07T11:45:55Z</time>
      </trkpt>
      <trkpt lat="49.26731" lon="2.38943">
        <ele>113.8</ele>
        <time>2017-05-07T11:46:02Z</time>
      </trkpt>
      <trkpt lat="49.26735" lon="2.38951">
        <ele>113.9</ele>
        <time>2017-05-07T11:46:09Z</time>
      </trkpt>
      <trkpt lat="49.26742" lon="2.38956">
        <ele>113.3</ele>
        <time>2017-05-07T11:46:14Z</time>
      </trkpt>
      <trkpt lat="49.2675" lon="2.38959">
        <ele>113.2</ele>
        <time>2017-05-07T11:46:19Z</time>
      </trkpt>
      <trkpt lat="49.26757" lon="2.38963">
        <ele>114</ele>
        <time>2017-05-07T11:46:26Z</time>
      </trkpt>
      <trkpt lat="49.26763" lon="2.38968">
        <ele>114.7</ele>
        <time>2017-05-07T11:46:31Z</time>
      </trkpt>
      <trkpt lat="49.26769" lon="2.38972">
        <ele>114.7</ele>
        <time>2017-05-07T11:46:38Z</time>
      </trkpt>
      <trkpt lat="49.26773" lon="2.38974">
        <ele>115.4</ele>
        <time>2017-05-07T11:46:45Z</time>
      </trkpt>
      <trkpt lat="49.2678" lon="2.38977">
        <ele>116.1</ele>
        <time>2017-05-07T11:46:51Z</time>
      </trkpt>
      <trkpt lat="49.26787" lon="2.38981">
        <ele>116.3</ele>
        <time>2017-05-07T11:46:58Z</time>
      </trkpt>
      <trkpt lat="49.26793" lon="2.38986">
        <ele>116.7</ele>
        <time>2017-05-07T11:47:04Z</time>
      </trkpt>
      <trkpt lat="49.26801" lon="2.38991">
        <ele>117.6</ele>
        <time>2017-05-07T11:47:11Z</time>
      </trkpt>
      <trkpt lat="49.2681" lon="2.38992">
        <ele>117.9</ele>
        <time>2017-05-07T11:47:18Z</time>
      </trkpt>
      <trkpt lat="49.26816" lon="2.38992">
        <ele>118.3</ele>
        <time>2017-05-07T11:47:25Z</time>
      </trkpt>
      <trkpt lat="49.26825" lon="2.38993">
        <ele>118.5</ele>
        <time>2017-05-07T11:47:32Z</time>
      </trkpt>
      <trkpt lat="49.26833" lon="2.38991">
        <ele>119.3</ele>
        <time>2017-05-07T11:47:38Z</time>
      </trkpt>
      <trkpt lat="49.26836" lon="2.38988">
        <ele>120.1</ele>
        <time>2017-05-07T11:47:45Z</time>
      </trkpt>
      <trkpt lat="49.26845" lon="2.38986">
        <ele>119.8</ele>
        <time>2017-05-07T11:47:51Z</time>
      </trkpt>
      <trkpt lat="49.26852" lon="2.38986">
        <ele>119.6</ele>
        <time>2017-05-07T11:47:57Z</time>
      </trkpt>
      <trkpt lat="49.26859" lon="2.38984">
        <ele>119.5</ele>
        <time>2017-05-07T11:48:04Z</time>
      </trkpt>
      <trkpt lat="49.26867" lon="2.38982">
        <ele>119.8</ele>
        <time>2017-05-07T11:48:08Z</time>
      </trkpt>
      <trkpt lat="49.26876" lon="2.3898">
        <ele>120.2</ele>
        <time>2017-05-07T11:48:12Z</time>
      </trkpt>
      <trkpt lat="49.26882" lon="2.38978">
        <ele>121.1</ele>
        <time>2017-05-07T11:48:19Z</time>
      </trkpt>
      <trkpt lat="49.2689" lon="2.38974">
        <ele>121.9</ele>
        <time>2017-05-07T11:48:25Z</time>
      </trkpt>
      <trkpt lat="49.26897" lon="2.38972">
        <ele>122.7</ele>
        <time>2017-05-07T11:48:32Z</time>
      </trkpt>
      <trkpt lat="49.26903" lon="2.38972">
        <ele>123.4</ele>
        <time>2017-05-07T11:48:39Z</time>
      </trkpt>
      <trkpt lat="49.2691" lon="2.38973">
        <ele>123.9</ele>
        <time>2017-05-07T11:48:46Z</time>
      </trkpt>
      <trkpt lat="49.26917" lon="2.38976">
        <ele>123.9</ele>
        <time>2017-05-07T11:48:53Z</time>
      </trkpt>
      <trkpt lat="49.26924" lon="2.3898">
        <ele>124.1</ele>
        <time>2017-05-07T11:48:59Z</time>
      </trkpt>
      <trkpt lat="49.26931" lon="2.38985">
        <ele>124.4</ele>
        <time>2017-05-07T11:49:06Z</time>
      </trkpt>
      <trkpt lat="49.26937" lon="2.38991">
        <ele>124.6</ele>
        <time>2017-05-07T11:49:12Z</time>
      </trkpt>
      <trkpt lat="49.2694" lon="2.38999">
        <ele>124.9</ele>
        <time>2017-05-07T11:49:19Z</time>
      </trkpt>
      <trkpt lat="49.26946" lon="2.39008">
        <ele>125.2</ele>
        <time>2017-05-07T11:49:25Z</time>
      </trkpt>
      <trkpt lat="49.26952" lon="2.39016">
        <ele>125.6</ele>
        <time>2017-05-07T11:49:31Z</time>
      </trkpt>
      <trkpt lat="49.26958" lon="2.39024">
        <ele>126.3</ele>
        <time>2017-05-07T11:49:38Z</time>
      </trkpt>
      <trkpt lat="49.26959" lon="2.39033">
        <ele>126.9</ele>
        <time>2017-05-07T11:49:45Z</time>
      </trkpt>
      <trkpt lat="49.26959" lon="2.39042">
        <ele>126.8</ele>
        <time>2017-05-07T11:49:52Z</time>
      </trkpt>
      <trkpt lat="49.26961" lon="2.39054">
        <ele>126.8</ele>
        <time>2017-05-07T11:49:58Z</time>
      </trkpt>
      <trkpt lat="49.26956" lon="2.39065">
        <ele>126.9</ele>
        <time>2017-05-07T11:50:05Z</time>
      </trkpt>
      <trkpt lat="49.26952" lon="2.39072">
        <ele>126.4</ele>
        <time>2017-05-07T11:50:11Z</time>
      </trkpt>
      <trkpt lat="49.26947" lon="2.39081">
        <ele>125.8</ele>
        <time>2017-05-07T11:50:18Z</time>
      </trkpt>
      <trkpt lat="49.26944" lon="2.39085">
        <ele>124.8</ele>
        <time>2017-05-07T11:50:25Z</time>
      </trkpt>
      <trkpt lat="49.26938" lon="2.39087">
        <ele>124.7</ele>
        <time>2017-05-07T11:50:32Z</time>
      </trkpt>
      <trkpt lat="49.26931" lon="2.39092">
        <ele>124.7</ele>
        <time>2017-05-07T11:50:37Z</time>
      </trkpt>
      <trkpt lat="49.26924" lon="2.39097">
        <ele>124.6</ele>
        <time>2017-05-07T11:50:44Z</time>
      </trkpt>
      <trkpt lat="49.26917" lon="2.39099">
        <ele>124.3</ele>
        <time>2017-05-07T11:50:50Z</time>
      </trkpt>
      <trkpt lat="49.26912" lon="2.39105">
        <ele>124.5</ele>
        <time>2017-05-07T11:50:57Z</time>
      </trkpt>
      <trkpt lat="49.26904" lon="2.39106">
        <ele>124.5</ele>
        <time>2017-05-07T11:51:03Z</time>
      </trkpt>
      <trkpt lat="49.26897" lon="2.39113">
        <ele>124.6</ele>
        <time>2017-05-07T11:51:10Z</time>
      </trkpt>
      <trkpt lat="49.26895" lon="2.39114">
        <ele>124.1</ele>
        <time>2017-05-07T11:51:17Z</time>
      </trkpt>
      <trkpt lat="49.2689" lon="2.39116">
        <ele>122.7</ele>
        <time>2017-05-07T11:51:24Z</time>
      </trkpt>
      <trkpt lat="49.26885" lon="2.39121">
        <ele>122</ele>
        <time>2017-05-07T11:51:31Z</time>
      </trkpt>
      <trkpt lat="49.26878" lon="2.39127">
        <ele>121.5</ele>
        <time>2017-05-07T11:51:37Z</time>
      </trkpt>
      <trkpt lat="49.26871" lon="2.39132">
        <ele>121.5</ele>
        <time>2017-05-07T11:51:44Z</time>
      </trkpt>
      <trkpt lat="49.26866" lon="2.39139">
        <ele>121.7</ele>
        <time>2017-05-07T11:51:51Z</time>
      </trkpt>
      <trkpt lat="49.26862" lon="2.39147">
        <ele>121.6</ele>
        <time>2017-05-07T11:51:58Z</time>
      </trkpt>
      <trkpt lat="49.26859" lon="2.39154">
        <ele>121.1</ele>
        <time>2017-05-07T11:52:05Z</time>
      </trkpt>
      <trkpt lat="49.26855" lon="2.39164">
        <ele>120</ele>
        <time>2017-05-07T11:52:11Z</time>
      </trkpt>
      <trkpt lat="49.26851" lon="2.39172">
        <ele>118.7</ele>
        <time>2017-05-07T11:52:18Z</time>
      </trkpt>
      <trkpt lat="49.2685" lon="2.39183">
        <ele>117.7</ele>
        <time>2017-05-07T11:52:25Z</time>
      </trkpt>
      <trkpt lat="49.26849" lon="2.39193">
        <ele>116.5</ele>
        <time>2017-05-07T11:52:33Z</time>
      </trkpt>
      <trkpt lat="49.26848" lon="2.39205">
        <ele>115.3</ele>
        <time>2017-05-07T11:52:39Z</time>
      </trkpt>
      <trkpt lat="49.26847" lon="2.39215">
        <ele>114.9</ele>
        <time>2017-05-07T11:52:46Z</time>
      </trkpt>
      <trkpt lat="49.26845" lon="2.39225">
        <ele>114.1</ele>
        <time>2017-05-07T11:52:53Z</time>
      </trkpt>
      <trkpt lat="49.26838" lon="2.39231">
        <ele>113.7</ele>
        <time>2017-05-07T11:53:00Z</time>
      </trkpt>
      <trkpt lat="49.2683" lon="2.39228">
        <ele>113.5</ele>
        <time>2017-05-07T11:53:06Z</time>
      </trkpt>
      <trkpt lat="49.26823" lon="2.39225">
        <ele>113.4</ele>
        <time>2017-05-07T11:53:13Z</time>
      </trkpt>
      <trkpt lat="49.26817" lon="2.39224">
        <ele>113.2</ele>
        <time>2017-05-07T11:53:20Z</time>
      </trkpt>
      <trkpt lat="49.26812" lon="2.39223">
        <ele>113.1</ele>
        <time>2017-05-07T11:53:27Z</time>
      </trkpt>
      <trkpt lat="49.26805" lon="2.39225">
        <ele>114.3</ele>
        <time>2017-05-07T11:53:33Z</time>
      </trkpt>
      <trkpt lat="49.26797" lon="2.39227">
        <ele>114.9</ele>
        <time>2017-05-07T11:53:39Z</time>
      </trkpt>
      <trkpt lat="49.26791" lon="2.39228">
        <ele>115.3</ele>
        <time>2017-05-07T11:53:46Z</time>
      </trkpt>
      <trkpt lat="49.26785" lon="2.39232">
        <ele>115.5</ele>
        <time>2017-05-07T11:53:53Z</time>
      </trkpt>
      <trkpt lat="49.26777" lon="2.39235">
        <ele>115.3</ele>
        <time>2017-05-07T11:54:00Z</time>
      </trkpt>
      <trkpt lat="49.2677" lon="2.39238">
        <ele>115.2</ele>
        <time>2017-05-07T11:54:05Z</time>
      </trkpt>
      <trkpt lat="49.26763" lon="2.39243">
        <ele>114.8</ele>
        <time>2017-05-07T11:54:12Z</time>
      </trkpt>
      <trkpt lat="49.26761" lon="2.39254">
        <ele>115</ele>
        <time>2017-05-07T11:54:19Z</time>
      </trkpt>
      <trkpt lat="49.26759" lon="2.39265">
        <ele>114.8</ele>
        <time>2017-05-07T11:54:25Z</time>
      </trkpt>
      <trkpt lat="49.26755" lon="2.39275">
        <ele>114.3</ele>
        <time>2017-05-07T11:54:31Z</time>
      </trkpt>
      <trkpt lat="49.2675" lon="2.39285">
        <ele>113.7</ele>
        <time>2017-05-07T11:54:38Z</time>
      </trkpt>
      <trkpt lat="49.26745" lon="2.39295">
        <ele>113.1</ele>
        <time>2017-05-07T11:54:45Z</time>
      </trkpt>
      <trkpt lat="49.26739" lon="2.39303">
        <ele>112.7</ele>
        <time>2017-05-07T11:54:52Z</time>
      </trkpt>
      <trkpt lat="49.26734" lon="2.39314">
        <ele>111.9</ele>
        <time>2017-05-07T11:54:58Z</time>
      </trkpt>
      <trkpt lat="49.26731" lon="2.39325">
        <ele>111.4</ele>
        <time>2017-05-07T11:55:05Z</time>
      </trkpt>
      <trkpt lat="49.26728" lon="2.39336">
        <ele>111.6</ele>
        <time>2017-05-07T11:55:12Z</time>
      </trkpt>
      <trkpt lat="49.26724" lon="2.39345">
        <ele>112</ele>
        <time>2017-05-07T11:55:19Z</time>
      </trkpt>
      <trkpt lat="49.26723" lon="2.39353">
        <ele>111.5</ele>
        <time>2017-05-07T11:55:26Z</time>
      </trkpt>
      <trkpt lat="49.26714" lon="2.39355">
        <ele>111</ele>
        <time>2017-05-07T11:55:33Z</time>
      </trkpt>
      <trkpt lat="49.26708" lon="2.39363">
        <ele>109.9</ele>
        <time>2017-05-07T11:55:39Z</time>
      </trkpt>
      <trkpt lat="49.26702" lon="2.39369">
        <ele>109.2</ele>
        <time>2017-05-07T11:55:45Z</time>
      </trkpt>
      <trkpt lat="49.26697" lon="2.39374">
        <ele>107.9</ele>
        <time>2017-05-07T11:55:52Z</time>
      </trkpt>
      <trkpt lat="49.2669" lon="2.39382">
        <ele>107.5</ele>
        <time>2017-05-07T11:55:59Z</time>
      </trkpt>
      <trkpt lat="49.26685" lon="2.3939">
        <ele>107.5</ele>
        <time>2017-05-07T11:56:05Z</time>
      </trkpt>
      <trkpt lat="49.26681" lon="2.39399">
        <ele>107.5</ele>
        <time>2017-05-07T11:56:11Z</time>
      </trkpt>
      <trkpt lat="49.26674" lon="2.39409">
        <ele>107.4</ele>
        <time>2017-05-07T11:56:18Z</time>
      </trkpt>
      <trkpt lat="49.2667" lon="2.39418">
        <ele>107.8</ele>
        <time>2017-05-07T11:56:26Z</time>
      </trkpt>
      <trkpt lat="49.26671" lon="2.39424">
        <ele>108.6</ele>
        <time>2017-05-07T11:56:32Z</time>
      </trkpt>
      <trkpt lat="49.26672" lon="2.39435">
        <ele>109.1</ele>
        <time>2017-05-07T11:56:38Z</time>
      </trkpt>
      <trkpt lat="49.26674" lon="2.39448">
        <ele>109.1</ele>
        <time>2017-05-07T11:56:45Z</time>
      </trkpt>
      <trkpt lat="49.26677" lon="2.3946">
        <ele>109.3</ele>
        <time>2017-05-07T11:56:52Z</time>
      </trkpt>
      <trkpt lat="49.26683" lon="2.39469">
        <ele>109.3</ele>
        <time>2017-05-07T11:56:57Z</time>
      </trkpt>
      <trkpt lat="49.2669" lon="2.39475">
        <ele>109.4</ele>
        <time>2017-05-07T11:57:04Z</time>
      </trkpt>
      <trkpt lat="49.26696" lon="2.3948">
        <ele>109.6</ele>
        <time>2017-05-07T11:57:09Z</time>
      </trkpt>
      <trkpt lat="49.26702" lon="2.39487">
        <ele>110.2</ele>
        <time>2017-05-07T11:57:15Z</time>
      </trkpt>
      <trkpt lat="49.26708" lon="2.39494">
        <ele>110.4</ele>
        <time>2017-05-07T11:57:21Z</time>
      </trkpt>
      <trkpt lat="49.26717" lon="2.39498">
        <ele>110.5</ele>
        <time>2017-05-07T11:57:27Z</time>
      </trkpt>
      <trkpt lat="49.26724" lon="2.39504">
        <ele>110.9</ele>
        <time>2017-05-07T11:57:35Z</time>
      </trkpt>
      <trkpt lat="49.26729" lon="2.39507">
        <ele>110.5</ele>
        <time>2017-05-07T11:57:41Z</time>
      </trkpt>
      <trkpt lat="49.26736" lon="2.39512">
        <ele>110</ele>
        <time>2017-05-07T11:57:47Z</time>
      </trkpt>
      <trkpt lat="49.26743" lon="2.39516">
        <ele>109.5</ele>
        <time>2017-05-07T11:57:54Z</time>
      </trkpt>
      <trkpt lat="49.2675" lon="2.39517">
        <ele>109.9</ele>
        <time>2017-05-07T11:58:01Z</time>
      </trkpt>
      <trkpt lat="49.26758" lon="2.39521">
        <ele>110.7</ele>
        <time>2017-05-07T11:58:08Z</time>
      </trkpt>
      <trkpt lat="49.26766" lon="2.39523">
        <ele>111.6</ele>
        <time>2017-05-07T11:58:14Z</time>
      </trkpt>
      <trkpt lat="49.26773" lon="2.39529">
        <ele>113.2</ele>
        <time>2017-05-07T11:58:21Z</time>
      </trkpt>
      <trkpt lat="49.26779" lon="2.39533">
        <ele>114.5</ele>
        <time>2017-05-07T11:58:28Z</time>
      </trkpt>
      <trkpt lat="49.26783" lon="2.39533">
        <ele>115.3</ele>
        <time>2017-05-07T11:58:35Z</time>
      </trkpt>
      <trkpt lat="49.26781" lon="2.39529">
        <ele>115.4</ele>
        <time>2017-05-07T11:58:42Z</time>
      </trkpt>
      <trkpt lat="49.26785" lon="2.39536">
        <ele>116.3</ele>
        <time>2017-05-07T11:58:54Z</time>
      </trkpt>
      <trkpt lat="49.26787" lon="2.39541">
        <ele>116.4</ele>
        <time>2017-05-07T11:59:01Z</time>
      </trkpt>
      <trkpt lat="49.26791" lon="2.39545">
        <ele>115.5</ele>
        <time>2017-05-07T11:59:08Z</time>
      </trkpt>
      <trkpt lat="49.26797" lon="2.39548">
        <ele>115.5</ele>
        <time>2017-05-07T11:59:13Z</time>
      </trkpt>
      <trkpt lat="49.26804" lon="2.39556">
        <ele>115.2</ele>
        <time>2017-05-07T11:59:19Z</time>
      </trkpt>
      <trkpt lat="49.2681" lon="2.3956">
        <ele>115.2</ele>
        <time>2017-05-07T11:59:26Z</time>
      </trkpt>
      <trkpt lat="49.26814" lon="2.39567">
        <ele>115.6</ele>
        <time>2017-05-07T11:59:33Z</time>
      </trkpt>
      <trkpt lat="49.2682" lon="2.39569">
        <ele>116.3</ele>
        <time>2017-05-07T11:59:40Z</time>
      </trkpt>
      <trkpt lat="49.26827" lon="2.39577">
        <ele>116.7</ele>
        <time>2017-05-07T11:59:47Z</time>
      </trkpt>
      <trkpt lat="49.26832" lon="2.39585">
        <ele>117.5</ele>
        <time>2017-05-07T11:59:54Z</time>
      </trkpt>
      <trkpt lat="49.26839" lon="2.39593">
        <ele>118.1</ele>
        <time>2017-05-07T11:59:57Z</time>
      </trkpt>
      <trkpt lat="49.26844" lon="2.39601">
        <ele>119</ele>
        <time>2017-05-07T12:00:02Z</time>
      </trkpt>
      <trkpt lat="49.26849" lon="2.39608">
        <ele>119.9</ele>
        <time>2017-05-07T12:00:09Z</time>
      </trkpt>
      <trkpt lat="49.26852" lon="2.39615">
        <ele>120.8</ele>
        <time>2017-05-07T12:00:16Z</time>
      </trkpt>
      <trkpt lat="49.26856" lon="2.39623">
        <ele>121.4</ele>
        <time>2017-05-07T12:00:23Z</time>
      </trkpt>
      <trkpt lat="49.2686" lon="2.3963">
        <ele>121.6</ele>
        <time>2017-05-07T12:00:30Z</time>
      </trkpt>
      <trkpt lat="49.26864" lon="2.39631">
        <ele>122.3</ele>
        <time>2017-05-07T12:00:37Z</time>
      </trkpt>
      <trkpt lat="49.26871" lon="2.39637">
        <ele>123.3</ele>
        <time>2017-05-07T12:00:43Z</time>
      </trkpt>
      <trkpt lat="49.26874" lon="2.39647">
        <ele>123.9</ele>
        <time>2017-05-07T12:00:48Z</time>
      </trkpt>
      <trkpt lat="49.26879" lon="2.39657">
        <ele>124.3</ele>
        <time>2017-05-07T12:00:55Z</time>
      </trkpt>
      <trkpt lat="49.26885" lon="2.39667">
        <ele>124.6</ele>
        <time>2017-05-07T12:00:59Z</time>
      </trkpt>
      <trkpt lat="49.2689" lon="2.39674">
        <ele>125</ele>
        <time>2017-05-07T12:01:06Z</time>
      </trkpt>
      <trkpt lat="49.26896" lon="2.39682">
        <ele>125.5</ele>
        <time>2017-05-07T12:01:11Z</time>
      </trkpt>
      <trkpt lat="49.269" lon="2.39688">
        <ele>126.5</ele>
        <time>2017-05-07T12:01:18Z</time>
      </trkpt>
      <trkpt lat="49.26903" lon="2.39697">
        <ele>127.6</ele>
        <time>2017-05-07T12:01:25Z</time>
      </trkpt>
      <trkpt lat="49.26904" lon="2.39708">
        <ele>128.5</ele>
        <time>2017-05-07T12:01:31Z</time>
      </trkpt>
      <trkpt lat="49.26906" lon="2.39717">
        <ele>129.1</ele>
        <time>2017-05-07T12:01:38Z</time>
      </trkpt>
      <trkpt lat="49.26912" lon="2.39726">
        <ele>129.3</ele>
        <time>2017-05-07T12:01:44Z</time>
      </trkpt>
      <trkpt lat="49.26918" lon="2.39733">
        <ele>129.3</ele>
        <time>2017-05-07T12:01:51Z</time>
      </trkpt>
      <trkpt lat="49.2692" lon="2.39734">
        <ele>129.8</ele>
        <time>2017-05-07T12:01:58Z</time>
      </trkpt>
      <trkpt lat="49.2692" lon="2.3973">
        <ele>129.6</ele>
        <time>2017-05-07T12:02:05Z</time>
      </trkpt>
      <trkpt lat="49.26921" lon="2.3973">
        <ele>129.5</ele>
        <time>2017-05-07T12:02:12Z</time>
      </trkpt>
      <trkpt lat="49.26924" lon="2.39735">
        <ele>129.2</ele>
        <time>2017-05-07T12:02:21Z</time>
      </trkpt>
      <trkpt lat="49.26929" lon="2.39739">
        <ele>129.3</ele>
        <time>2017-05-07T12:02:28Z</time>
      </trkpt>
      <trkpt lat="49.26946" lon="2.39752">
        <ele>128.4</ele>
        <time>2017-05-07T12:03:13Z</time>
      </trkpt>
      <trkpt lat="49.26952" lon="2.39756">
        <ele>129.2</ele>
        <time>2017-05-07T12:03:19Z</time>
      </trkpt>
      <trkpt lat="49.26957" lon="2.39753">
        <ele>130.2</ele>
        <time>2017-05-07T12:03:26Z</time>
      </trkpt>
      <trkpt lat="49.26962" lon="2.39756">
        <ele>130.6</ele>
        <time>2017-05-07T12:03:33Z</time>
      </trkpt>
      <trkpt lat="49.26969" lon="2.39757">
        <ele>130.6</ele>
        <time>2017-05-07T12:03:40Z</time>
      </trkpt>
      <trkpt lat="49.26975" lon="2.39762">
        <ele>130.7</ele>
        <time>2017-05-07T12:03:45Z</time>
      </trkpt>
      <trkpt lat="49.26982" lon="2.39767">
        <ele>131.4</ele>
        <time>2017-05-07T12:03:52Z</time>
      </trkpt>
      <trkpt lat="49.26988" lon="2.39768">
        <ele>132</ele>
        <time>2017-05-07T12:03:58Z</time>
      </trkpt>
      <trkpt lat="49.26995" lon="2.3977">
        <ele>132.2</ele>
        <time>2017-05-07T12:04:03Z</time>
      </trkpt>
      <trkpt lat="49.27003" lon="2.39774">
        <ele>132.4</ele>
        <time>2017-05-07T12:04:08Z</time>
      </trkpt>
      <trkpt lat="49.27011" lon="2.39774">
        <ele>132.4</ele>
        <time>2017-05-07T12:04:15Z</time>
      </trkpt>
      <trkpt lat="49.27011" lon="2.39773">
        <ele>132.3</ele>
        <time>2017-05-07T12:04:22Z</time>
      </trkpt>
      <trkpt lat="49.27018" lon="2.39774">
        <ele>132.6</ele>
        <time>2017-05-07T12:04:32Z</time>
      </trkpt>
      <trkpt lat="49.27024" lon="2.3978">
        <ele>132.7</ele>
        <time>2017-05-07T12:04:39Z</time>
      </trkpt>
      <trkpt lat="49.27031" lon="2.39783">
        <ele>132.8</ele>
        <time>2017-05-07T12:04:45Z</time>
      </trkpt>
      <trkpt lat="49.27039" lon="2.39787">
        <ele>132.6</ele>
        <time>2017-05-07T12:04:52Z</time>
      </trkpt>
      <trkpt lat="49.27046" lon="2.3979">
        <ele>133.2</ele>
        <time>2017-05-07T12:04:59Z</time>
      </trkpt>
      <trkpt lat="49.27054" lon="2.39794">
        <ele>133.8</ele>
        <time>2017-05-07T12:05:06Z</time>
      </trkpt>
      <trkpt lat="49.27062" lon="2.39797">
        <ele>133.9</ele>
        <time>2017-05-07T12:05:11Z</time>
      </trkpt>
      <trkpt lat="49.27068" lon="2.39803">
        <ele>134</ele>
        <time>2017-05-07T12:05:18Z</time>
      </trkpt>
      <trkpt lat="49.27073" lon="2.39809">
        <ele>133.6</ele>
        <time>2017-05-07T12:05:25Z</time>
      </trkpt>
      <trkpt lat="49.27078" lon="2.39818">
        <ele>133.1</ele>
        <time>2017-05-07T12:05:32Z</time>
      </trkpt>
      <trkpt lat="49.27084" lon="2.39825">
        <ele>132.9</ele>
        <time>2017-05-07T12:05:40Z</time>
      </trkpt>
      <trkpt lat="49.27089" lon="2.39833">
        <ele>133</ele>
        <time>2017-05-07T12:05:45Z</time>
      </trkpt>
      <trkpt lat="49.27093" lon="2.39841">
        <ele>133</ele>
        <time>2017-05-07T12:05:52Z</time>
      </trkpt>
      <trkpt lat="49.27096" lon="2.39851">
        <ele>132.9</ele>
        <time>2017-05-07T12:05:59Z</time>
      </trkpt>
      <trkpt lat="49.27098" lon="2.39862">
        <ele>132.8</ele>
        <time>2017-05-07T12:06:05Z</time>
      </trkpt>
      <trkpt lat="49.27097" lon="2.39874">
        <ele>133.1</ele>
        <time>2017-05-07T12:06:11Z</time>
      </trkpt>
      <trkpt lat="49.27098" lon="2.39885">
        <ele>133.3</ele>
        <time>2017-05-07T12:06:18Z</time>
      </trkpt>
      <trkpt lat="49.27099" lon="2.39898">
        <ele>133.4</ele>
        <time>2017-05-07T12:06:25Z</time>
      </trkpt>
      <trkpt lat="49.27098" lon="2.3991">
        <ele>133.1</ele>
        <time>2017-05-07T12:06:32Z</time>
      </trkpt>
      <trkpt lat="49.27097" lon="2.39922">
        <ele>133.2</ele>
        <time>2017-05-07T12:06:38Z</time>
      </trkpt>
      <trkpt lat="49.27096" lon="2.39932">
        <ele>133.5</ele>
        <time>2017-05-07T12:06:45Z</time>
      </trkpt>
      <trkpt lat="49.27098" lon="2.39943">
        <ele>133.8</ele>
        <time>2017-05-07T12:06:52Z</time>
      </trkpt>
      <trkpt lat="49.27098" lon="2.39953">
        <ele>134.4</ele>
        <time>2017-05-07T12:06:59Z</time>
      </trkpt>
      <trkpt lat="49.27096" lon="2.39955">
        <ele>134.2</ele>
        <time>2017-05-07T12:07:06Z</time>
      </trkpt>
      <trkpt lat="49.27093" lon="2.39965">
        <ele>134</ele>
        <time>2017-05-07T12:07:13Z</time>
      </trkpt>
      <trkpt lat="49.27087" lon="2.39973">
        <ele>133.4</ele>
        <time>2017-05-07T12:07:19Z</time>
      </trkpt>
      <trkpt lat="49.27082" lon="2.3998">
        <ele>133.1</ele>
        <time>2017-05-07T12:07:26Z</time>
      </trkpt>
      <trkpt lat="49.27079" lon="2.39989">
        <ele>132.9</ele>
        <time>2017-05-07T12:07:33Z</time>
      </trkpt>
      <trkpt lat="49.27076" lon="2.39997">
        <ele>133.1</ele>
        <time>2017-05-07T12:07:41Z</time>
      </trkpt>
      <trkpt lat="49.27072" lon="2.40005">
        <ele>132.9</ele>
        <time>2017-05-07T12:07:47Z</time>
      </trkpt>
      <trkpt lat="49.2707" lon="2.40017">
        <ele>132.4</ele>
        <time>2017-05-07T12:07:52Z</time>
      </trkpt>
      <trkpt lat="49.27064" lon="2.40026">
        <ele>132</ele>
        <time>2017-05-07T12:07:58Z</time>
      </trkpt>
      <trkpt lat="49.27061" lon="2.40033">
        <ele>131.8</ele>
        <time>2017-05-07T12:08:05Z</time>
      </trkpt>
      <trkpt lat="49.27056" lon="2.40041">
        <ele>131.9</ele>
        <time>2017-05-07T12:08:11Z</time>
      </trkpt>
      <trkpt lat="49.27051" lon="2.40051">
        <ele>131.9</ele>
        <time>2017-05-07T12:08:17Z</time>
      </trkpt>
      <trkpt lat="49.27047" lon="2.4006">
        <ele>131.7</ele>
        <time>2017-05-07T12:08:24Z</time>
      </trkpt>
      <trkpt lat="49.27043" lon="2.4007">
        <ele>131.7</ele>
        <time>2017-05-07T12:08:30Z</time>
      </trkpt>
      <trkpt lat="49.27041" lon="2.40081">
        <ele>131.9</ele>
        <time>2017-05-07T12:08:37Z</time>
      </trkpt>
      <trkpt lat="49.2704" lon="2.40093">
        <ele>132</ele>
        <time>2017-05-07T12:08:43Z</time>
      </trkpt>
      <trkpt lat="49.27036" lon="2.40103">
        <ele>132.3</ele>
        <time>2017-05-07T12:08:50Z</time>
      </trkpt>
      <trkpt lat="49.27035" lon="2.40115">
        <ele>132.8</ele>
        <time>2017-05-07T12:08:57Z</time>
      </trkpt>
      <trkpt lat="49.27038" lon="2.40119">
        <ele>132.8</ele>
        <time>2017-05-07T12:09:04Z</time>
      </trkpt>
      <trkpt lat="49.27041" lon="2.40121">
        <ele>133.2</ele>
        <time>2017-05-07T12:09:19Z</time>
      </trkpt>
      <trkpt lat="49.27044" lon="2.40121">
        <ele>133.5</ele>
        <time>2017-05-07T12:09:26Z</time>
      </trkpt>
      <trkpt lat="49.27046" lon="2.40121">
        <ele>133.3</ele>
        <time>2017-05-07T12:09:33Z</time>
      </trkpt>
      <trkpt lat="49.27045" lon="2.40114">
        <ele>132.6</ele>
        <time>2017-05-07T12:12:23Z</time>
      </trkpt>
      <trkpt lat="49.27045" lon="2.40119">
        <ele>132.2</ele>
        <time>2017-05-07T12:12:34Z</time>
      </trkpt>
      <trkpt lat="49.27033" lon="2.40116">
        <ele>130.5</ele>
        <time>2017-05-07T12:13:11Z</time>
      </trkpt>
      <trkpt lat="49.27032" lon="2.40114">
        <ele>128.3</ele>
        <time>2017-05-07T12:13:18Z</time>
      </trkpt>
      <trkpt lat="49.27037" lon="2.40114">
        <ele>127.2</ele>
        <time>2017-05-07T12:13:32Z</time>
      </trkpt>
      <trkpt lat="49.27039" lon="2.40111">
        <ele>127.9</ele>
        <time>2017-05-07T12:13:38Z</time>
      </trkpt>
      <trkpt lat="49.27039" lon="2.40108">
        <ele>128.3</ele>
        <time>2017-05-07T12:13:45Z</time>
      </trkpt>
      <trkpt lat="49.2704" lon="2.40098">
        <ele>128.5</ele>
        <time>2017-05-07T12:13:52Z</time>
      </trkpt>
      <trkpt lat="49.27042" lon="2.40095">
        <ele>128.5</ele>
        <time>2017-05-07T12:13:59Z</time>
      </trkpt>
      <trkpt lat="49.27042" lon="2.40093">
        <ele>129</ele>
        <time>2017-05-07T12:14:06Z</time>
      </trkpt>
      <trkpt lat="49.27043" lon="2.40086">
        <ele>129.9</ele>
        <time>2017-05-07T12:14:22Z</time>
      </trkpt>
      <trkpt lat="49.27044" lon="2.40079">
        <ele>129.8</ele>
        <time>2017-05-07T12:14:32Z</time>
      </trkpt>
      <trkpt lat="49.27047" lon="2.40073">
        <ele>130.5</ele>
        <time>2017-05-07T12:14:39Z</time>
      </trkpt>
      <trkpt lat="49.27051" lon="2.40063">
        <ele>130.3</ele>
        <time>2017-05-07T12:14:46Z</time>
      </trkpt>
      <trkpt lat="49.27054" lon="2.40053">
        <ele>130</ele>
        <time>2017-05-07T12:14:52Z</time>
      </trkpt>
      <trkpt lat="49.27058" lon="2.40045">
        <ele>129.9</ele>
        <time>2017-05-07T12:14:59Z</time>
      </trkpt>
      <trkpt lat="49.27061" lon="2.40036">
        <ele>130.3</ele>
        <time>2017-05-07T12:15:06Z</time>
      </trkpt>
      <trkpt lat="49.27063" lon="2.40028">
        <ele>130.5</ele>
        <time>2017-05-07T12:15:13Z</time>
      </trkpt>
      <trkpt lat="49.27067" lon="2.4002">
        <ele>130.5</ele>
        <time>2017-05-07T12:15:20Z</time>
      </trkpt>
      <trkpt lat="49.27067" lon="2.40011">
        <ele>130</ele>
        <time>2017-05-07T12:15:27Z</time>
      </trkpt>
      <trkpt lat="49.2707" lon="2.40008">
        <ele>130.6</ele>
        <time>2017-05-07T12:15:34Z</time>
      </trkpt>
      <trkpt lat="49.27073" lon="2.40001">
        <ele>131.1</ele>
        <time>2017-05-07T12:15:41Z</time>
      </trkpt>
      <trkpt lat="49.27077" lon="2.39994">
        <ele>131.8</ele>
        <time>2017-05-07T12:15:48Z</time>
      </trkpt>
      <trkpt lat="49.27083" lon="2.39988">
        <ele>132.1</ele>
        <time>2017-05-07T12:15:54Z</time>
      </trkpt>
      <trkpt lat="49.27089" lon="2.39983">
        <ele>132.3</ele>
        <time>2017-05-07T12:16:01Z</time>
      </trkpt>
      <trkpt lat="49.27094" lon="2.39973">
        <ele>132.3</ele>
        <time>2017-05-07T12:16:08Z</time>
      </trkpt>
      <trkpt lat="49.27098" lon="2.39966">
        <ele>132</ele>
        <time>2017-05-07T12:16:15Z</time>
      </trkpt>
      <trkpt lat="49.27101" lon="2.39959">
        <ele>131.7</ele>
        <time>2017-05-07T12:16:22Z</time>
      </trkpt>
      <trkpt lat="49.27102" lon="2.39951">
        <ele>131</ele>
        <time>2017-05-07T12:16:29Z</time>
      </trkpt>
      <trkpt lat="49.27102" lon="2.39945">
        <ele>130.5</ele>
        <time>2017-05-07T12:16:36Z</time>
      </trkpt>
      <trkpt lat="49.27108" lon="2.39939">
        <ele>130.2</ele>
        <time>2017-05-07T12:16:45Z</time>
      </trkpt>
      <trkpt lat="49.2711" lon="2.39938">
        <ele>130.8</ele>
        <time>2017-05-07T12:16:52Z</time>
      </trkpt>
      <trkpt lat="49.27117" lon="2.39939">
        <ele>131.7</ele>
        <time>2017-05-07T12:17:04Z</time>
      </trkpt>
      <trkpt lat="49.27124" lon="2.39932">
        <ele>131.9</ele>
        <time>2017-05-07T12:17:09Z</time>
      </trkpt>
      <trkpt lat="49.2713" lon="2.39925">
        <ele>131.2</ele>
        <time>2017-05-07T12:17:15Z</time>
      </trkpt>
      <trkpt lat="49.27135" lon="2.39916">
        <ele>130.6</ele>
        <time>2017-05-07T12:17:22Z</time>
      </trkpt>
      <trkpt lat="49.27139" lon="2.39911">
        <ele>130.3</ele>
        <time>2017-05-07T12:17:29Z</time>
      </trkpt>
      <trkpt lat="49.27145" lon="2.39907">
        <ele>130.1</ele>
        <time>2017-05-07T12:17:36Z</time>
      </trkpt>
      <trkpt lat="49.27147" lon="2.39899">
        <ele>130.2</ele>
        <time>2017-05-07T12:17:43Z</time>
      </trkpt>
      <trkpt lat="49.27153" lon="2.3989">
        <ele>130.4</ele>
        <time>2017-05-07T12:17:50Z</time>
      </trkpt>
      <trkpt lat="49.27156" lon="2.39881">
        <ele>130.6</ele>
        <time>2017-05-07T12:17:57Z</time>
      </trkpt>
      <trkpt lat="49.27162" lon="2.39874">
        <ele>131</ele>
        <time>2017-05-07T12:18:04Z</time>
      </trkpt>
      <trkpt lat="49.27166" lon="2.39875">
        <ele>132.1</ele>
        <time>2017-05-07T12:18:11Z</time>
      </trkpt>
      <trkpt lat="49.27172" lon="2.39876">
        <ele>133</ele>
        <time>2017-05-07T12:18:18Z</time>
      </trkpt>
      <trkpt lat="49.27179" lon="2.39877">
        <ele>133.3</ele>
        <time>2017-05-07T12:18:25Z</time>
      </trkpt>
      <trkpt lat="49.27185" lon="2.3988">
        <ele>133.9</ele>
        <time>2017-05-07T12:18:32Z</time>
      </trkpt>
      <trkpt lat="49.27192" lon="2.39884">
        <ele>134.1</ele>
        <time>2017-05-07T12:18:37Z</time>
      </trkpt>
      <trkpt lat="49.27199" lon="2.39886">
        <ele>134.4</ele>
        <time>2017-05-07T12:18:44Z</time>
      </trkpt>
      <trkpt lat="49.27204" lon="2.3989">
        <ele>134.7</ele>
        <time>2017-05-07T12:18:51Z</time>
      </trkpt>
      <trkpt lat="49.27211" lon="2.39895">
        <ele>135.3</ele>
        <time>2017-05-07T12:18:58Z</time>
      </trkpt>
      <trkpt lat="49.27217" lon="2.39896">
        <ele>135.7</ele>
        <time>2017-05-07T12:19:05Z</time>
      </trkpt>
      <trkpt lat="49.27225" lon="2.39899">
        <ele>136.7</ele>
        <time>2017-05-07T12:19:12Z</time>
      </trkpt>
      <trkpt lat="49.27232" lon="2.39901">
        <ele>137.2</ele>
        <time>2017-05-07T12:19:18Z</time>
      </trkpt>
      <trkpt lat="49.27236" lon="2.39903">
        <ele>137.4</ele>
        <time>2017-05-07T12:19:25Z</time>
      </trkpt>
      <trkpt lat="49.27244" lon="2.39905">
        <ele>137.6</ele>
        <time>2017-05-07T12:19:32Z</time>
      </trkpt>
      <trkpt lat="49.27248" lon="2.39908">
        <ele>137.9</ele>
        <time>2017-05-07T12:19:39Z</time>
      </trkpt>
      <trkpt lat="49.27256" lon="2.39911">
        <ele>138.3</ele>
        <time>2017-05-07T12:19:45Z</time>
      </trkpt>
      <trkpt lat="49.27261" lon="2.39916">
        <ele>138.8</ele>
        <time>2017-05-07T12:19:53Z</time>
      </trkpt>
      <trkpt lat="49.27268" lon="2.39919">
        <ele>139.5</ele>
        <time>2017-05-07T12:19:59Z</time>
      </trkpt>
      <trkpt lat="49.27272" lon="2.39919">
        <ele>139.5</ele>
        <time>2017-05-07T12:20:06Z</time>
      </trkpt>
      <trkpt lat="49.27277" lon="2.39922">
        <ele>139.5</ele>
        <time>2017-05-07T12:20:13Z</time>
      </trkpt>
      <trkpt lat="49.27283" lon="2.39923">
        <ele>139.3</ele>
        <time>2017-05-07T12:20:20Z</time>
      </trkpt>
      <trkpt lat="49.27287" lon="2.39925">
        <ele>139.3</ele>
        <time>2017-05-07T12:20:27Z</time>
      </trkpt>
      <trkpt lat="49.27293" lon="2.39926">
        <ele>140</ele>
        <time>2017-05-07T12:20:34Z</time>
      </trkpt>
      <trkpt lat="49.27301" lon="2.39931">
        <ele>140.3</ele>
        <time>2017-05-07T12:20:40Z</time>
      </trkpt>
      <trkpt lat="49.27309" lon="2.39934">
        <ele>140.6</ele>
        <time>2017-05-07T12:20:46Z</time>
      </trkpt>
      <trkpt lat="49.27314" lon="2.39938">
        <ele>140.4</ele>
        <time>2017-05-07T12:20:53Z</time>
      </trkpt>
      <trkpt lat="49.2732" lon="2.39942">
        <ele>139.8</ele>
        <time>2017-05-07T12:21:00Z</time>
      </trkpt>
      <trkpt lat="49.27326" lon="2.39946">
        <ele>139.2</ele>
        <time>2017-05-07T12:21:07Z</time>
      </trkpt>
      <trkpt lat="49.27333" lon="2.3995">
        <ele>138.9</ele>
        <time>2017-05-07T12:21:13Z</time>
      </trkpt>
      <trkpt lat="49.27342" lon="2.39954">
        <ele>138.2</ele>
        <time>2017-05-07T12:21:18Z</time>
      </trkpt>
      <trkpt lat="49.27349" lon="2.3996">
        <ele>137.7</ele>
        <time>2017-05-07T12:21:24Z</time>
      </trkpt>
      <trkpt lat="49.27357" lon="2.39966">
        <ele>136.4</ele>
        <time>2017-05-07T12:21:30Z</time>
      </trkpt>
      <trkpt lat="49.27364" lon="2.3997">
        <ele>135.1</ele>
        <time>2017-05-07T12:21:37Z</time>
      </trkpt>
      <trkpt lat="49.2737" lon="2.39974">
        <ele>134</ele>
        <time>2017-05-07T12:21:44Z</time>
      </trkpt>
      <trkpt lat="49.27374" lon="2.39977">
        <ele>134.1</ele>
        <time>2017-05-07T12:21:51Z</time>
      </trkpt>
      <trkpt lat="49.27382" lon="2.39982">
        <ele>134.7</ele>
        <time>2017-05-07T12:21:57Z</time>
      </trkpt>
      <trkpt lat="49.27387" lon="2.39989">
        <ele>135.7</ele>
        <time>2017-05-07T12:22:04Z</time>
      </trkpt>
      <trkpt lat="49.27393" lon="2.39995">
        <ele>136.8</ele>
        <time>2017-05-07T12:22:11Z</time>
      </trkpt>
      <trkpt lat="49.27401" lon="2.39999">
        <ele>137.7</ele>
        <time>2017-05-07T12:22:18Z</time>
      </trkpt>
      <trkpt lat="49.27407" lon="2.40001">
        <ele>138.8</ele>
        <time>2017-05-07T12:22:25Z</time>
      </trkpt>
      <trkpt lat="49.27414" lon="2.40005">
        <ele>139.5</ele>
        <time>2017-05-07T12:22:30Z</time>
      </trkpt>
      <trkpt lat="49.2742" lon="2.40007">
        <ele>140</ele>
        <time>2017-05-07T12:22:36Z</time>
      </trkpt>
      <trkpt lat="49.27425" lon="2.40009">
        <ele>139.4</ele>
        <time>2017-05-07T12:22:43Z</time>
      </trkpt>
      <trkpt lat="49.27431" lon="2.40015">
        <ele>138.9</ele>
        <time>2017-05-07T12:22:47Z</time>
      </trkpt>
      <trkpt lat="49.27438" lon="2.40021">
        <ele>139.4</ele>
        <time>2017-05-07T12:22:53Z</time>
      </trkpt>
      <trkpt lat="49.27445" lon="2.40026">
        <ele>139.6</ele>
        <time>2017-05-07T12:22:57Z</time>
      </trkpt>
      <trkpt lat="49.2745" lon="2.40026">
        <ele>138.9</ele>
        <time>2017-05-07T12:23:04Z</time>
      </trkpt>
      <trkpt lat="49.27454" lon="2.40028">
        <ele>138.7</ele>
        <time>2017-05-07T12:23:11Z</time>
      </trkpt>
      <trkpt lat="49.27461" lon="2.40035">
        <ele>138.3</ele>
        <time>2017-05-07T12:23:16Z</time>
      </trkpt>
      <trkpt lat="49.27467" lon="2.4004">
        <ele>137.3</ele>
        <time>2017-05-07T12:23:22Z</time>
      </trkpt>
      <trkpt lat="49.27471" lon="2.40041">
        <ele>137</ele>
        <time>2017-05-07T12:23:29Z</time>
      </trkpt>
      <trkpt lat="49.27473" lon="2.40043">
        <ele>137.4</ele>
        <time>2017-05-07T12:23:36Z</time>
      </trkpt>
      <trkpt lat="49.2748" lon="2.40047">
        <ele>138.3</ele>
        <time>2017-05-07T12:23:42Z</time>
      </trkpt>
      <trkpt lat="49.27485" lon="2.40053">
        <ele>138.8</ele>
        <time>2017-05-07T12:23:49Z</time>
      </trkpt>
      <trkpt lat="49.27493" lon="2.40058">
        <ele>138.9</ele>
        <time>2017-05-07T12:23:55Z</time>
      </trkpt>
      <trkpt lat="49.27501" lon="2.40059">
        <ele>138.6</ele>
        <time>2017-05-07T12:24:01Z</time>
      </trkpt>
      <trkpt lat="49.27508" lon="2.40064">
        <ele>138.5</ele>
        <time>2017-05-07T12:24:05Z</time>
      </trkpt>
      <trkpt lat="49.2751" lon="2.40069">
        <ele>137.8</ele>
        <time>2017-05-07T12:24:12Z</time>
      </trkpt>
      <trkpt lat="49.27513" lon="2.40074">
        <ele>137.7</ele>
        <time>2017-05-07T12:24:19Z</time>
      </trkpt>
      <trkpt lat="49.27521" lon="2.40081">
        <ele>138.2</ele>
        <time>2017-05-07T12:24:26Z</time>
      </trkpt>
      <trkpt lat="49.27528" lon="2.40088">
        <ele>139.1</ele>
        <time>2017-05-07T12:24:32Z</time>
      </trkpt>
      <trkpt lat="49.27535" lon="2.40092">
        <ele>139.8</ele>
        <time>2017-05-07T12:24:39Z</time>
      </trkpt>
      <trkpt lat="49.27546" lon="2.4009">
        <ele>141.1</ele>
        <time>2017-05-07T12:24:46Z</time>
      </trkpt>
      <trkpt lat="49.27548" lon="2.40077">
        <ele>141.5</ele>
        <time>2017-05-07T12:24:53Z</time>
      </trkpt>
      <trkpt lat="49.27553" lon="2.40068">
        <ele>142</ele>
        <time>2017-05-07T12:24:58Z</time>
      </trkpt>
      <trkpt lat="49.27555" lon="2.40057">
        <ele>142.4</ele>
        <time>2017-05-07T12:25:06Z</time>
      </trkpt>
      <trkpt lat="49.27557" lon="2.40043">
        <ele>142.7</ele>
        <time>2017-05-07T12:25:12Z</time>
      </trkpt>
      <trkpt lat="49.27557" lon="2.40038">
        <ele>142.9</ele>
        <time>2017-05-07T12:25:19Z</time>
      </trkpt>
      <trkpt lat="49.27557" lon="2.40026">
        <ele>142.9</ele>
        <time>2017-05-07T12:25:25Z</time>
      </trkpt>
      <trkpt lat="49.2756" lon="2.40018">
        <ele>143</ele>
        <time>2017-05-07T12:25:32Z</time>
      </trkpt>
      <trkpt lat="49.2756" lon="2.40006">
        <ele>143.1</ele>
        <time>2017-05-07T12:25:35Z</time>
      </trkpt>
      <trkpt lat="49.27562" lon="2.39993">
        <ele>143.6</ele>
        <time>2017-05-07T12:25:42Z</time>
      </trkpt>
      <trkpt lat="49.27562" lon="2.39982">
        <ele>144</ele>
        <time>2017-05-07T12:25:49Z</time>
      </trkpt>
      <trkpt lat="49.27562" lon="2.39971">
        <ele>144.5</ele>
        <time>2017-05-07T12:25:55Z</time>
      </trkpt>
      <trkpt lat="49.2756" lon="2.39961">
        <ele>144.6</ele>
        <time>2017-05-07T12:26:02Z</time>
      </trkpt>
      <trkpt lat="49.27561" lon="2.39951">
        <ele>144.1</ele>
        <time>2017-05-07T12:26:09Z</time>
      </trkpt>
      <trkpt lat="49.27561" lon="2.39939">
        <ele>143.2</ele>
        <time>2017-05-07T12:26:15Z</time>
      </trkpt>
      <trkpt lat="49.27562" lon="2.39926">
        <ele>142.5</ele>
        <time>2017-05-07T12:26:22Z</time>
      </trkpt>
      <trkpt lat="49.27562" lon="2.39915">
        <ele>142.3</ele>
        <time>2017-05-07T12:26:29Z</time>
      </trkpt>
      <trkpt lat="49.27564" lon="2.39915">
        <ele>142.8</ele>
        <time>2017-05-07T12:26:36Z</time>
      </trkpt>
      <trkpt lat="49.27565" lon="2.3991">
        <ele>143.6</ele>
        <time>2017-05-07T12:26:43Z</time>
      </trkpt>
      <trkpt lat="49.27563" lon="2.399">
        <ele>143.8</ele>
        <time>2017-05-07T12:26:49Z</time>
      </trkpt>
      <trkpt lat="49.27561" lon="2.39889">
        <ele>143.9</ele>
        <time>2017-05-07T12:26:56Z</time>
      </trkpt>
      <trkpt lat="49.2756" lon="2.39876">
        <ele>143.3</ele>
        <time>2017-05-07T12:27:03Z</time>
      </trkpt>
      <trkpt lat="49.27562" lon="2.39864">
        <ele>142.4</ele>
        <time>2017-05-07T12:27:10Z</time>
      </trkpt>
      <trkpt lat="49.27561" lon="2.39853">
        <ele>142.2</ele>
        <time>2017-05-07T12:27:17Z</time>
      </trkpt>
      <trkpt lat="49.27561" lon="2.39843">
        <ele>142.4</ele>
        <time>2017-05-07T12:27:24Z</time>
      </trkpt>
      <trkpt lat="49.27563" lon="2.39837">
        <ele>142.7</ele>
        <time>2017-05-07T12:27:31Z</time>
      </trkpt>
      <trkpt lat="49.27563" lon="2.3983">
        <ele>142.6</ele>
        <time>2017-05-07T12:27:38Z</time>
      </trkpt>
      <trkpt lat="49.27561" lon="2.39832">
        <ele>141.4</ele>
        <time>2017-05-07T12:28:12Z</time>
      </trkpt>
      <trkpt lat="49.27561" lon="2.39834">
        <ele>140.9</ele>
        <time>2017-05-07T12:28:28Z</time>
      </trkpt>
      <trkpt lat="49.27562" lon="2.39828">
        <ele>142</ele>
        <time>2017-05-07T12:28:48Z</time>
      </trkpt>
      <trkpt lat="49.27562" lon="2.3982">
        <ele>142</ele>
        <time>2017-05-07T12:28:55Z</time>
      </trkpt>
      <trkpt lat="49.27561" lon="2.39812">
        <ele>141.6</ele>
        <time>2017-05-07T12:29:02Z</time>
      </trkpt>
      <trkpt lat="49.2756" lon="2.39801">
        <ele>141.7</ele>
        <time>2017-05-07T12:29:09Z</time>
      </trkpt>
      <trkpt lat="49.27559" lon="2.39789">
        <ele>142</ele>
        <time>2017-05-07T12:29:15Z</time>
      </trkpt>
      <trkpt lat="49.27561" lon="2.39779">
        <ele>142.2</ele>
        <time>2017-05-07T12:29:22Z</time>
      </trkpt>
      <trkpt lat="49.27565" lon="2.39775">
        <ele>141.9</ele>
        <time>2017-05-07T12:29:28Z</time>
      </trkpt>
      <trkpt lat="49.27572" lon="2.39774">
        <ele>141.9</ele>
        <time>2017-05-07T12:29:34Z</time>
      </trkpt>
      <trkpt lat="49.27577" lon="2.39779">
        <ele>141.9</ele>
        <time>2017-05-07T12:29:41Z</time>
      </trkpt>
      <trkpt lat="49.27582" lon="2.39785">
        <ele>141.8</ele>
        <time>2017-05-07T12:29:48Z</time>
      </trkpt>
      <trkpt lat="49.27588" lon="2.39791">
        <ele>142.6</ele>
        <time>2017-05-07T12:29:54Z</time>
      </trkpt>
      <trkpt lat="49.27593" lon="2.39796">
        <ele>142.9</ele>
        <time>2017-05-07T12:30:01Z</time>
      </trkpt>
      <trkpt lat="49.27599" lon="2.39802">
        <ele>143.3</ele>
        <time>2017-05-07T12:30:07Z</time>
      </trkpt>
      <trkpt lat="49.27606" lon="2.3981">
        <ele>143.9</ele>
        <time>2017-05-07T12:30:14Z</time>
      </trkpt>
      <trkpt lat="49.27613" lon="2.39815">
        <ele>144.5</ele>
        <time>2017-05-07T12:30:20Z</time>
      </trkpt>
      <trkpt lat="49.27619" lon="2.3982">
        <ele>144.8</ele>
        <time>2017-05-07T12:30:27Z</time>
      </trkpt>
      <trkpt lat="49.27624" lon="2.39827">
        <ele>145.2</ele>
        <time>2017-05-07T12:30:33Z</time>
      </trkpt>
      <trkpt lat="49.27632" lon="2.39832">
        <ele>146.1</ele>
        <time>2017-05-07T12:30:40Z</time>
      </trkpt>
      <trkpt lat="49.27639" lon="2.39836">
        <ele>146.5</ele>
        <time>2017-05-07T12:30:46Z</time>
      </trkpt>
      <trkpt lat="49.27645" lon="2.39841">
        <ele>146.5</ele>
        <time>2017-05-07T12:30:51Z</time>
      </trkpt>
      <trkpt lat="49.27652" lon="2.39846">
        <ele>146.7</ele>
        <time>2017-05-07T12:30:57Z</time>
      </trkpt>
      <trkpt lat="49.27659" lon="2.39851">
        <ele>147.2</ele>
        <time>2017-05-07T12:31:04Z</time>
      </trkpt>
      <trkpt lat="49.27666" lon="2.39857">
        <ele>147.6</ele>
        <time>2017-05-07T12:31:10Z</time>
      </trkpt>
      <trkpt lat="49.27673" lon="2.39862">
        <ele>147.7</ele>
        <time>2017-05-07T12:31:17Z</time>
      </trkpt>
      <trkpt lat="49.2768" lon="2.39865">
        <ele>147.8</ele>
        <time>2017-05-07T12:31:24Z</time>
      </trkpt>
      <trkpt lat="49.27688" lon="2.3987">
        <ele>148</ele>
        <time>2017-05-07T12:31:30Z</time>
      </trkpt>
      <trkpt lat="49.27697" lon="2.39873">
        <ele>148.6</ele>
        <time>2017-05-07T12:31:36Z</time>
      </trkpt>
      <trkpt lat="49.27703" lon="2.39878">
        <ele>148.6</ele>
        <time>2017-05-07T12:31:43Z</time>
      </trkpt>
      <trkpt lat="49.2771" lon="2.39882">
        <ele>149.1</ele>
        <time>2017-05-07T12:31:49Z</time>
      </trkpt>
      <trkpt lat="49.27717" lon="2.39886">
        <ele>149.5</ele>
        <time>2017-05-07T12:31:55Z</time>
      </trkpt>
      <trkpt lat="49.27724" lon="2.3989">
        <ele>149.5</ele>
        <time>2017-05-07T12:32:02Z</time>
      </trkpt>
      <trkpt lat="49.27726" lon="2.39888">
        <ele>149.7</ele>
        <time>2017-05-07T12:32:09Z</time>
      </trkpt>
      <trkpt lat="49.27728" lon="2.39892">
        <ele>150.2</ele>
        <time>2017-05-07T12:32:16Z</time>
      </trkpt>
      <trkpt lat="49.27734" lon="2.39897">
        <ele>149.8</ele>
        <time>2017-05-07T12:32:23Z</time>
      </trkpt>
      <trkpt lat="49.27738" lon="2.39901">
        <ele>149.5</ele>
        <time>2017-05-07T12:32:30Z</time>
      </trkpt>
      <trkpt lat="49.27746" lon="2.39906">
        <ele>149.7</ele>
        <time>2017-05-07T12:32:35Z</time>
      </trkpt>
      <trkpt lat="49.27753" lon="2.39911">
        <ele>149.9</ele>
        <time>2017-05-07T12:32:41Z</time>
      </trkpt>
      <trkpt lat="49.27759" lon="2.39914">
        <ele>149.7</ele>
        <time>2017-05-07T12:32:48Z</time>
      </trkpt>
      <trkpt lat="49.27766" lon="2.39919">
        <ele>149.6</ele>
        <time>2017-05-07T12:32:55Z</time>
      </trkpt>
      <trkpt lat="49.27773" lon="2.39925">
        <ele>149.8</ele>
        <time>2017-05-07T12:33:00Z</time>
      </trkpt>
      <trkpt lat="49.27778" lon="2.39933">
        <ele>149.9</ele>
        <time>2017-05-07T12:33:07Z</time>
      </trkpt>
      <trkpt lat="49.27785" lon="2.39939">
        <ele>150.1</ele>
        <time>2017-05-07T12:33:13Z</time>
      </trkpt>
      <trkpt lat="49.27792" lon="2.39944">
        <ele>150.4</ele>
        <time>2017-05-07T12:33:20Z</time>
      </trkpt>
      <trkpt lat="49.27798" lon="2.39951">
        <ele>150.5</ele>
        <time>2017-05-07T12:33:26Z</time>
      </trkpt>
      <trkpt lat="49.27804" lon="2.39958">
        <ele>150.7</ele>
        <time>2017-05-07T12:33:32Z</time>
      </trkpt>
      <trkpt lat="49.2781" lon="2.39965">
        <ele>150.9</ele>
        <time>2017-05-07T12:33:38Z</time>
      </trkpt>
      <trkpt lat="49.27817" lon="2.39969">
        <ele>151.1</ele>
        <time>2017-05-07T12:33:44Z</time>
      </trkpt>
      <trkpt lat="49.27823" lon="2.39974">
        <ele>151.2</ele>
        <time>2017-05-07T12:33:51Z</time>
      </trkpt>
      <trkpt lat="49.2783" lon="2.39979">
        <ele>151.8</ele>
        <time>2017-05-07T12:33:57Z</time>
      </trkpt>
      <trkpt lat="49.27838" lon="2.39982">
        <ele>152.1</ele>
        <time>2017-05-07T12:34:04Z</time>
      </trkpt>
      <trkpt lat="49.27845" lon="2.39987">
        <ele>152</ele>
        <time>2017-05-07T12:34:10Z</time>
      </trkpt>
      <trkpt lat="49.27852" lon="2.39991">
        <ele>152.1</ele>
        <time>2017-05-07T12:34:17Z</time>
      </trkpt>
      <trkpt lat="49.27859" lon="2.39996">
        <ele>152.2</ele>
        <time>2017-05-07T12:34:23Z</time>
      </trkpt>
      <trkpt lat="49.27867" lon="2.4">
        <ele>152.8</ele>
        <time>2017-05-07T12:34:30Z</time>
      </trkpt>
      <trkpt lat="49.27874" lon="2.40005">
        <ele>153.2</ele>
        <time>2017-05-07T12:34:36Z</time>
      </trkpt>
      <trkpt lat="49.27882" lon="2.40009">
        <ele>153.6</ele>
        <time>2017-05-07T12:34:43Z</time>
      </trkpt>
      <trkpt lat="49.27889" lon="2.40012">
        <ele>153.7</ele>
        <time>2017-05-07T12:34:49Z</time>
      </trkpt>
      <trkpt lat="49.27895" lon="2.40015">
        <ele>153.8</ele>
        <time>2017-05-07T12:34:56Z</time>
      </trkpt>
      <trkpt lat="49.27902" lon="2.40018">
        <ele>153.6</ele>
        <time>2017-05-07T12:35:03Z</time>
      </trkpt>
      <trkpt lat="49.27911" lon="2.4002">
        <ele>153.7</ele>
        <time>2017-05-07T12:35:08Z</time>
      </trkpt>
      <trkpt lat="49.27918" lon="2.40021">
        <ele>154</ele>
        <time>2017-05-07T12:35:14Z</time>
      </trkpt>
      <trkpt lat="49.27925" lon="2.40024">
        <ele>154</ele>
        <time>2017-05-07T12:35:21Z</time>
      </trkpt>
      <trkpt lat="49.27932" lon="2.40028">
        <ele>153.9</ele>
        <time>2017-05-07T12:35:27Z</time>
      </trkpt>
      <trkpt lat="49.2794" lon="2.40033">
        <ele>153.9</ele>
        <time>2017-05-07T12:35:33Z</time>
      </trkpt>
      <trkpt lat="49.27947" lon="2.40036">
        <ele>153.9</ele>
        <time>2017-05-07T12:35:40Z</time>
      </trkpt>
      <trkpt lat="49.27955" lon="2.4004">
        <ele>153.4</ele>
        <time>2017-05-07T12:35:47Z</time>
      </trkpt>
      <trkpt lat="49.27963" lon="2.40044">
        <ele>152.7</ele>
        <time>2017-05-07T12:35:54Z</time>
      </trkpt>
      <trkpt lat="49.27971" lon="2.40047">
        <ele>153</ele>
        <time>2017-05-07T12:36:00Z</time>
      </trkpt>
      <trkpt lat="49.27977" lon="2.40046">
        <ele>154</ele>
        <time>2017-05-07T12:36:07Z</time>
      </trkpt>
      <trkpt lat="49.27985" lon="2.40047">
        <ele>154.2</ele>
        <time>2017-05-07T12:36:12Z</time>
      </trkpt>
      <trkpt lat="49.27993" lon="2.40047">
        <ele>154.1</ele>
        <time>2017-05-07T12:36:19Z</time>
      </trkpt>
      <trkpt lat="49.28001" lon="2.40047">
        <ele>153.9</ele>
        <time>2017-05-07T12:36:26Z</time>
      </trkpt>
      <trkpt lat="49.28006" lon="2.40046">
        <ele>154</ele>
        <time>2017-05-07T12:36:33Z</time>
      </trkpt>
      <trkpt lat="49.28014" lon="2.40044">
        <ele>153.8</ele>
        <time>2017-05-07T12:36:38Z</time>
      </trkpt>
      <trkpt lat="49.28022" lon="2.40041">
        <ele>153.7</ele>
        <time>2017-05-07T12:36:45Z</time>
      </trkpt>
      <trkpt lat="49.2803" lon="2.4004">
        <ele>153.4</ele>
        <time>2017-05-07T12:36:51Z</time>
      </trkpt>
      <trkpt lat="49.28038" lon="2.40039">
        <ele>153.2</ele>
        <time>2017-05-07T12:36:57Z</time>
      </trkpt>
      <trkpt lat="49.28045" lon="2.40036">
        <ele>152.9</ele>
        <time>2017-05-07T12:37:03Z</time>
      </trkpt>
      <trkpt lat="49.28053" lon="2.40033">
        <ele>152.7</ele>
        <time>2017-05-07T12:37:10Z</time>
      </trkpt>
      <trkpt lat="49.2806" lon="2.40031">
        <ele>152.4</ele>
        <time>2017-05-07T12:37:17Z</time>
      </trkpt>
      <trkpt lat="49.28067" lon="2.4003">
        <ele>152.2</ele>
        <time>2017-05-07T12:37:22Z</time>
      </trkpt>
      <trkpt lat="49.28074" lon="2.40028">
        <ele>152.3</ele>
        <time>2017-05-07T12:37:28Z</time>
      </trkpt>
      <trkpt lat="49.28082" lon="2.40026">
        <ele>151.9</ele>
        <time>2017-05-07T12:37:35Z</time>
      </trkpt>
      <trkpt lat="49.28089" lon="2.40024">
        <ele>151.9</ele>
        <time>2017-05-07T12:37:41Z</time>
      </trkpt>
      <trkpt lat="49.28096" lon="2.40023">
        <ele>152.2</ele>
        <time>2017-05-07T12:37:48Z</time>
      </trkpt>
      <trkpt lat="49.28103" lon="2.40019">
        <ele>152.2</ele>
        <time>2017-05-07T12:37:54Z</time>
      </trkpt>
      <trkpt lat="49.28111" lon="2.40018">
        <ele>151.7</ele>
        <time>2017-05-07T12:38:02Z</time>
      </trkpt>
      <trkpt lat="49.28119" lon="2.40015">
        <ele>151.3</ele>
        <time>2017-05-07T12:38:06Z</time>
      </trkpt>
      <trkpt lat="49.28126" lon="2.40013">
        <ele>151.2</ele>
        <time>2017-05-07T12:38:13Z</time>
      </trkpt>
      <trkpt lat="49.28134" lon="2.40014">
        <ele>151.2</ele>
        <time>2017-05-07T12:38:18Z</time>
      </trkpt>
      <trkpt lat="49.28141" lon="2.40015">
        <ele>150.7</ele>
        <time>2017-05-07T12:38:25Z</time>
      </trkpt>
      <trkpt lat="49.28148" lon="2.40017">
        <ele>150.7</ele>
        <time>2017-05-07T12:38:32Z</time>
      </trkpt>
      <trkpt lat="49.28155" lon="2.40019">
        <ele>150.8</ele>
        <time>2017-05-07T12:38:37Z</time>
      </trkpt>
      <trkpt lat="49.28162" lon="2.40022">
        <ele>151</ele>
        <time>2017-05-07T12:38:43Z</time>
      </trkpt>
      <trkpt lat="49.2817" lon="2.40023">
        <ele>151.2</ele>
        <time>2017-05-07T12:38:50Z</time>
      </trkpt>
      <trkpt lat="49.28177" lon="2.40025">
        <ele>151.2</ele>
        <time>2017-05-07T12:38:57Z</time>
      </trkpt>
      <trkpt lat="49.28184" lon="2.40028">
        <ele>150.9</ele>
        <time>2017-05-07T12:39:04Z</time>
      </trkpt>
      <trkpt lat="49.28191" lon="2.40031">
        <ele>150.3</ele>
        <time>2017-05-07T12:39:11Z</time>
      </trkpt>
      <trkpt lat="49.28198" lon="2.40035">
        <ele>150.1</ele>
        <time>2017-05-07T12:39:17Z</time>
      </trkpt>
      <trkpt lat="49.28206" lon="2.40038">
        <ele>150</ele>
        <time>2017-05-07T12:39:23Z</time>
      </trkpt>
      <trkpt lat="49.28214" lon="2.40036">
        <ele>149.9</ele>
        <time>2017-05-07T12:39:31Z</time>
      </trkpt>
      <trkpt lat="49.28221" lon="2.40033">
        <ele>149.5</ele>
        <time>2017-05-07T12:39:37Z</time>
      </trkpt>
      <trkpt lat="49.28228" lon="2.4003">
        <ele>149.2</ele>
        <time>2017-05-07T12:39:43Z</time>
      </trkpt>
      <trkpt lat="49.28235" lon="2.40023">
        <ele>148.7</ele>
        <time>2017-05-07T12:39:50Z</time>
      </trkpt>
      <trkpt lat="49.28242" lon="2.40019">
        <ele>148.6</ele>
        <time>2017-05-07T12:39:57Z</time>
      </trkpt>
      <trkpt lat="49.28249" lon="2.40012">
        <ele>148.8</ele>
        <time>2017-05-07T12:40:03Z</time>
      </trkpt>
      <trkpt lat="49.28253" lon="2.40003">
        <ele>148.7</ele>
        <time>2017-05-07T12:40:10Z</time>
      </trkpt>
      <trkpt lat="49.28257" lon="2.39994">
        <ele>148.3</ele>
        <time>2017-05-07T12:40:15Z</time>
      </trkpt>
      <trkpt lat="49.28262" lon="2.39985">
        <ele>147.8</ele>
        <time>2017-05-07T12:40:22Z</time>
      </trkpt>
      <trkpt lat="49.28263" lon="2.39973">
        <ele>147.4</ele>
        <time>2017-05-07T12:40:28Z</time>
      </trkpt>
      <trkpt lat="49.28262" lon="2.39961">
        <ele>147.2</ele>
        <time>2017-05-07T12:40:35Z</time>
      </trkpt>
      <trkpt lat="49.28261" lon="2.3995">
        <ele>147.1</ele>
        <time>2017-05-07T12:40:40Z</time>
      </trkpt>
      <trkpt lat="49.28257" lon="2.39941">
        <ele>146.6</ele>
        <time>2017-05-07T12:40:46Z</time>
      </trkpt>
      <trkpt lat="49.28253" lon="2.39931">
        <ele>145.9</ele>
        <time>2017-05-07T12:40:53Z</time>
      </trkpt>
      <trkpt lat="49.28251" lon="2.39919">
        <ele>145.3</ele>
        <time>2017-05-07T12:40:59Z</time>
      </trkpt>
      <trkpt lat="49.28248" lon="2.39909">
        <ele>143.7</ele>
        <time>2017-05-07T12:41:06Z</time>
      </trkpt>
      <trkpt lat="49.28245" lon="2.39898">
        <ele>142.9</ele>
        <time>2017-05-07T12:41:11Z</time>
      </trkpt>
      <trkpt lat="49.28243" lon="2.3989">
        <ele>142.9</ele>
        <time>2017-05-07T12:41:18Z</time>
      </trkpt>
      <trkpt lat="49.28244" lon="2.39885">
        <ele>143</ele>
        <time>2017-05-07T12:41:25Z</time>
      </trkpt>
      <trkpt lat="49.28243" lon="2.39888">
        <ele>142.8</ele>
        <time>2017-05-07T12:41:32Z</time>
      </trkpt>
      <trkpt lat="49.28241" lon="2.39887">
        <ele>142.3</ele>
        <time>2017-05-07T12:41:39Z</time>
      </trkpt>
      <trkpt lat="49.28243" lon="2.39887">
        <ele>142.9</ele>
        <time>2017-05-07T12:41:51Z</time>
      </trkpt>
      <trkpt lat="49.28244" lon="2.39883">
        <ele>143.3</ele>
        <time>2017-05-07T12:41:58Z</time>
      </trkpt>
      <trkpt lat="49.28241" lon="2.39868">
        <ele>143.3</ele>
        <time>2017-05-07T12:42:12Z</time>
      </trkpt>
      <trkpt lat="49.2824" lon="2.39857">
        <ele>143.6</ele>
        <time>2017-05-07T12:42:19Z</time>
      </trkpt>
      <trkpt lat="49.28236" lon="2.39846">
        <ele>143</ele>
        <time>2017-05-07T12:42:26Z</time>
      </trkpt>
      <trkpt lat="49.28232" lon="2.39833">
        <ele>143.2</ele>
        <time>2017-05-07T12:42:32Z</time>
      </trkpt>
      <trkpt lat="49.2823" lon="2.3982">
        <ele>143.8</ele>
        <time>2017-05-07T12:42:40Z</time>
      </trkpt>
      <trkpt lat="49.2823" lon="2.39809">
        <ele>144.1</ele>
        <time>2017-05-07T12:42:46Z</time>
      </trkpt>
      <trkpt lat="49.28229" lon="2.39796">
        <ele>144</ele>
        <time>2017-05-07T12:42:53Z</time>
      </trkpt>
      <trkpt lat="49.28226" lon="2.39786">
        <ele>143.7</ele>
        <time>2017-05-07T12:42:59Z</time>
      </trkpt>
      <trkpt lat="49.28224" lon="2.39774">
        <ele>143</ele>
        <time>2017-05-07T12:43:06Z</time>
      </trkpt>
      <trkpt lat="49.28222" lon="2.39762">
        <ele>142.9</ele>
        <time>2017-05-07T12:43:13Z</time>
      </trkpt>
      <trkpt lat="49.28222" lon="2.39751">
        <ele>143</ele>
        <time>2017-05-07T12:43:19Z</time>
      </trkpt>
      <trkpt lat="49.28223" lon="2.39741">
        <ele>142.8</ele>
        <time>2017-05-07T12:43:26Z</time>
      </trkpt>
      <trkpt lat="49.28222" lon="2.3973">
        <ele>142.2</ele>
        <time>2017-05-07T12:43:33Z</time>
      </trkpt>
      <trkpt lat="49.28226" lon="2.39719">
        <ele>141.3</ele>
        <time>2017-05-07T12:43:39Z</time>
      </trkpt>
      <trkpt lat="49.28228" lon="2.3971">
        <ele>141.3</ele>
        <time>2017-05-07T12:43:46Z</time>
      </trkpt>
      <trkpt lat="49.28231" lon="2.39699">
        <ele>141.6</ele>
        <time>2017-05-07T12:43:52Z</time>
      </trkpt>
      <trkpt lat="49.28233" lon="2.39688">
        <ele>142.2</ele>
        <time>2017-05-07T12:43:59Z</time>
      </trkpt>
      <trkpt lat="49.28236" lon="2.39679">
        <ele>142.4</ele>
        <time>2017-05-07T12:44:06Z</time>
      </trkpt>
      <trkpt lat="49.28238" lon="2.39682">
        <ele>142.6</ele>
        <time>2017-05-07T12:44:13Z</time>
      </trkpt>
      <trkpt lat="49.28239" lon="2.39684">
        <ele>142.7</ele>
        <time>2017-05-07T12:44:20Z</time>
      </trkpt>
      <trkpt lat="49.28233" lon="2.39691">
        <ele>142.3</ele>
        <time>2017-05-07T12:44:27Z</time>
      </trkpt>
      <trkpt lat="49.28227" lon="2.39694">
        <ele>141.5</ele>
        <time>2017-05-07T12:44:34Z</time>
      </trkpt>
      <trkpt lat="49.28229" lon="2.39688">
        <ele>141</ele>
        <time>2017-05-07T12:44:41Z</time>
      </trkpt>
      <trkpt lat="49.28233" lon="2.39688">
        <ele>141.6</ele>
        <time>2017-05-07T12:44:48Z</time>
      </trkpt>
      <trkpt lat="49.28234" lon="2.39683">
        <ele>142.1</ele>
        <time>2017-05-07T12:44:55Z</time>
      </trkpt>
      <trkpt lat="49.28235" lon="2.39675">
        <ele>141.8</ele>
        <time>2017-05-07T12:45:02Z</time>
      </trkpt>
      <trkpt lat="49.28237" lon="2.39668">
        <ele>141.9</ele>
        <time>2017-05-07T12:45:15Z</time>
      </trkpt>
      <trkpt lat="49.28241" lon="2.39658">
        <ele>142.2</ele>
        <time>2017-05-07T12:45:19Z</time>
      </trkpt>
      <trkpt lat="49.28245" lon="2.3965">
        <ele>142.1</ele>
        <time>2017-05-07T12:45:26Z</time>
      </trkpt>
      <trkpt lat="49.28247" lon="2.39641">
        <ele>141.9</ele>
        <time>2017-05-07T12:45:33Z</time>
      </trkpt>
      <trkpt lat="49.28253" lon="2.39633">
        <ele>141.9</ele>
        <time>2017-05-07T12:45:39Z</time>
      </trkpt>
      <trkpt lat="49.28256" lon="2.39623">
        <ele>141.9</ele>
        <time>2017-05-07T12:45:46Z</time>
      </trkpt>
      <trkpt lat="49.28258" lon="2.39612">
        <ele>142.1</ele>
        <time>2017-05-07T12:45:53Z</time>
      </trkpt>
      <trkpt lat="49.28262" lon="2.39603">
        <ele>142.8</ele>
        <time>2017-05-07T12:46:00Z</time>
      </trkpt>
      <trkpt lat="49.28265" lon="2.39593">
        <ele>143.6</ele>
        <time>2017-05-07T12:46:07Z</time>
      </trkpt>
      <trkpt lat="49.28269" lon="2.39583">
        <ele>144.3</ele>
        <time>2017-05-07T12:46:14Z</time>
      </trkpt>
      <trkpt lat="49.28272" lon="2.39574">
        <ele>144.1</ele>
        <time>2017-05-07T12:46:21Z</time>
      </trkpt>
      <trkpt lat="49.28279" lon="2.39568">
        <ele>144.1</ele>
        <time>2017-05-07T12:46:28Z</time>
      </trkpt>
      <trkpt lat="49.28286" lon="2.39564">
        <ele>144.5</ele>
        <time>2017-05-07T12:46:35Z</time>
      </trkpt>
      <trkpt lat="49.28294" lon="2.39565">
        <ele>144.5</ele>
        <time>2017-05-07T12:46:42Z</time>
      </trkpt>
      <trkpt lat="49.283" lon="2.3956">
        <ele>144.7</ele>
        <time>2017-05-07T12:46:47Z</time>
      </trkpt>
      <trkpt lat="49.28307" lon="2.39552">
        <ele>145</ele>
        <time>2017-05-07T12:46:53Z</time>
      </trkpt>
      <trkpt lat="49.28311" lon="2.39546">
        <ele>145.7</ele>
        <time>2017-05-07T12:46:59Z</time>
      </trkpt>
      <trkpt lat="49.28315" lon="2.39537">
        <ele>145.7</ele>
        <time>2017-05-07T12:47:05Z</time>
      </trkpt>
      <trkpt lat="49.2832" lon="2.39526">
        <ele>145.6</ele>
        <time>2017-05-07T12:47:12Z</time>
      </trkpt>
      <trkpt lat="49.28325" lon="2.39519">
        <ele>145.5</ele>
        <time>2017-05-07T12:47:19Z</time>
      </trkpt>
      <trkpt lat="49.28328" lon="2.39509">
        <ele>145.5</ele>
        <time>2017-05-07T12:47:26Z</time>
      </trkpt>
      <trkpt lat="49.28334" lon="2.39501">
        <ele>145.1</ele>
        <time>2017-05-07T12:47:33Z</time>
      </trkpt>
      <trkpt lat="49.28336" lon="2.39489">
        <ele>144.6</ele>
        <time>2017-05-07T12:47:39Z</time>
      </trkpt>
      <trkpt lat="49.28337" lon="2.39478">
        <ele>144.4</ele>
        <time>2017-05-07T12:47:46Z</time>
      </trkpt>
      <trkpt lat="49.28336" lon="2.39468">
        <ele>144.6</ele>
        <time>2017-05-07T12:47:53Z</time>
      </trkpt>
      <trkpt lat="49.28337" lon="2.39456">
        <ele>144.9</ele>
        <time>2017-05-07T12:48:00Z</time>
      </trkpt>
      <trkpt lat="49.28338" lon="2.39445">
        <ele>144.7</ele>
        <time>2017-05-07T12:48:07Z</time>
      </trkpt>
      <trkpt lat="49.2834" lon="2.39435">
        <ele>144.1</ele>
        <time>2017-05-07T12:48:15Z</time>
      </trkpt>
      <trkpt lat="49.2834" lon="2.39422">
        <ele>143.7</ele>
        <time>2017-05-07T12:48:19Z</time>
      </trkpt>
      <trkpt lat="49.28339" lon="2.3941">
        <ele>143.4</ele>
        <time>2017-05-07T12:48:26Z</time>
      </trkpt>
      <trkpt lat="49.28337" lon="2.39403">
        <ele>143.2</ele>
        <time>2017-05-07T12:48:33Z</time>
      </trkpt>
      <trkpt lat="49.28337" lon="2.39391">
        <ele>143</ele>
        <time>2017-05-07T12:48:38Z</time>
      </trkpt>
      <trkpt lat="49.28338" lon="2.3939">
        <ele>142.9</ele>
        <time>2017-05-07T12:48:44Z</time>
      </trkpt>
      <trkpt lat="49.28343" lon="2.39385">
        <ele>141.2</ele>
        <time>2017-05-07T12:49:02Z</time>
      </trkpt>
      <trkpt lat="49.28344" lon="2.39372">
        <ele>140.1</ele>
        <time>2017-05-07T12:49:09Z</time>
      </trkpt>
      <trkpt lat="49.28342" lon="2.39361">
        <ele>139.7</ele>
        <time>2017-05-07T12:49:15Z</time>
      </trkpt>
      <trkpt lat="49.2834" lon="2.3935">
        <ele>139.1</ele>
        <time>2017-05-07T12:49:22Z</time>
      </trkpt>
      <trkpt lat="49.28342" lon="2.39338">
        <ele>139.2</ele>
        <time>2017-05-07T12:49:28Z</time>
      </trkpt>
      <trkpt lat="49.2834" lon="2.39327">
        <ele>139.2</ele>
        <time>2017-05-07T12:49:34Z</time>
      </trkpt>
      <trkpt lat="49.28341" lon="2.39314">
        <ele>139.4</ele>
        <time>2017-05-07T12:49:40Z</time>
      </trkpt>
      <trkpt lat="49.28341" lon="2.39302">
        <ele>139.6</ele>
        <time>2017-05-07T12:49:47Z</time>
      </trkpt>
      <trkpt lat="49.2834" lon="2.3929">
        <ele>139.8</ele>
        <time>2017-05-07T12:49:54Z</time>
      </trkpt>
      <trkpt lat="49.2834" lon="2.39277">
        <ele>139.7</ele>
        <time>2017-05-07T12:50:01Z</time>
      </trkpt>
      <trkpt lat="49.2834" lon="2.39265">
        <ele>139.7</ele>
        <time>2017-05-07T12:50:08Z</time>
      </trkpt>
      <trkpt lat="49.2834" lon="2.39255">
        <ele>139.9</ele>
        <time>2017-05-07T12:50:15Z</time>
      </trkpt>
      <trkpt lat="49.28337" lon="2.39244">
        <ele>139.8</ele>
        <time>2017-05-07T12:50:22Z</time>
      </trkpt>
      <trkpt lat="49.28333" lon="2.39235">
        <ele>139.8</ele>
        <time>2017-05-07T12:50:29Z</time>
      </trkpt>
      <trkpt lat="49.2833" lon="2.39226">
        <ele>140.1</ele>
        <time>2017-05-07T12:50:36Z</time>
      </trkpt>
      <trkpt lat="49.28326" lon="2.39217">
        <ele>140.3</ele>
        <time>2017-05-07T12:50:42Z</time>
      </trkpt>
      <trkpt lat="49.28322" lon="2.39208">
        <ele>140.5</ele>
        <time>2017-05-07T12:50:49Z</time>
      </trkpt>
      <trkpt lat="49.28316" lon="2.39199">
        <ele>140.8</ele>
        <time>2017-05-07T12:50:56Z</time>
      </trkpt>
      <trkpt lat="49.2831" lon="2.3919">
        <ele>141.1</ele>
        <time>2017-05-07T12:51:04Z</time>
      </trkpt>
      <trkpt lat="49.28305" lon="2.39187">
        <ele>140.7</ele>
        <time>2017-05-07T12:51:10Z</time>
      </trkpt>
      <trkpt lat="49.28299" lon="2.3918">
        <ele>140.4</ele>
        <time>2017-05-07T12:51:16Z</time>
      </trkpt>
      <trkpt lat="49.28293" lon="2.39172">
        <ele>139.8</ele>
        <time>2017-05-07T12:51:23Z</time>
      </trkpt>
      <trkpt lat="49.28288" lon="2.39164">
        <ele>139.4</ele>
        <time>2017-05-07T12:51:28Z</time>
      </trkpt>
      <trkpt lat="49.28282" lon="2.39157">
        <ele>139.3</ele>
        <time>2017-05-07T12:51:34Z</time>
      </trkpt>
      <trkpt lat="49.28278" lon="2.39148">
        <ele>139.1</ele>
        <time>2017-05-07T12:51:42Z</time>
      </trkpt>
      <trkpt lat="49.28275" lon="2.39143">
        <ele>138.5</ele>
        <time>2017-05-07T12:51:48Z</time>
      </trkpt>
      <trkpt lat="49.28269" lon="2.39133">
        <ele>138.5</ele>
        <time>2017-05-07T12:51:55Z</time>
      </trkpt>
      <trkpt lat="49.28266" lon="2.39123">
        <ele>138.4</ele>
        <time>2017-05-07T12:52:01Z</time>
      </trkpt>
      <trkpt lat="49.28263" lon="2.39117">
        <ele>139</ele>
        <time>2017-05-07T12:52:08Z</time>
      </trkpt>
      <trkpt lat="49.28259" lon="2.39108">
        <ele>139.4</ele>
        <time>2017-05-07T12:52:15Z</time>
      </trkpt>
      <trkpt lat="49.28253" lon="2.39099">
        <ele>139.5</ele>
        <time>2017-05-07T12:52:20Z</time>
      </trkpt>
      <trkpt lat="49.28248" lon="2.39091">
        <ele>139.3</ele>
        <time>2017-05-07T12:52:25Z</time>
      </trkpt>
      <trkpt lat="49.28243" lon="2.39081">
        <ele>139.4</ele>
        <time>2017-05-07T12:52:32Z</time>
      </trkpt>
      <trkpt lat="49.28238" lon="2.39071">
        <ele>139.4</ele>
        <time>2017-05-07T12:52:39Z</time>
      </trkpt>
      <trkpt lat="49.28231" lon="2.39064">
        <ele>139.3</ele>
        <time>2017-05-07T12:52:45Z</time>
      </trkpt>
      <trkpt lat="49.28227" lon="2.39056">
        <ele>139.2</ele>
        <time>2017-05-07T12:52:53Z</time>
      </trkpt>
      <trkpt lat="49.28221" lon="2.39049">
        <ele>139</ele>
        <time>2017-05-07T12:52:57Z</time>
      </trkpt>
      <trkpt lat="49.28217" lon="2.3904">
        <ele>139.3</ele>
        <time>2017-05-07T12:53:04Z</time>
      </trkpt>
      <trkpt lat="49.28211" lon="2.39031">
        <ele>139.1</ele>
        <time>2017-05-07T12:53:09Z</time>
      </trkpt>
      <trkpt lat="49.28205" lon="2.39024">
        <ele>138.5</ele>
        <time>2017-05-07T12:53:16Z</time>
      </trkpt>
      <trkpt lat="49.282" lon="2.39016">
        <ele>137.7</ele>
        <time>2017-05-07T12:53:23Z</time>
      </trkpt>
      <trkpt lat="49.28196" lon="2.39005">
        <ele>137.5</ele>
        <time>2017-05-07T12:53:28Z</time>
      </trkpt>
      <trkpt lat="49.28193" lon="2.38996">
        <ele>137.6</ele>
        <time>2017-05-07T12:53:35Z</time>
      </trkpt>
      <trkpt lat="49.28188" lon="2.38986">
        <ele>137.5</ele>
        <time>2017-05-07T12:53:41Z</time>
      </trkpt>
      <trkpt lat="49.28184" lon="2.38977">
        <ele>137.5</ele>
        <time>2017-05-07T12:53:48Z</time>
      </trkpt>
      <trkpt lat="49.28179" lon="2.38967">
        <ele>137.2</ele>
        <time>2017-05-07T12:53:53Z</time>
      </trkpt>
      <trkpt lat="49.28176" lon="2.38957">
        <ele>137.1</ele>
        <time>2017-05-07T12:53:59Z</time>
      </trkpt>
      <trkpt lat="49.28172" lon="2.38948">
        <ele>137.2</ele>
        <time>2017-05-07T12:54:07Z</time>
      </trkpt>
      <trkpt lat="49.2817" lon="2.38939">
        <ele>137.2</ele>
        <time>2017-05-07T12:54:13Z</time>
      </trkpt>
      <trkpt lat="49.28166" lon="2.38929">
        <ele>137.2</ele>
        <time>2017-05-07T12:54:19Z</time>
      </trkpt>
      <trkpt lat="49.28162" lon="2.38919">
        <ele>137.3</ele>
        <time>2017-05-07T12:54:26Z</time>
      </trkpt>
      <trkpt lat="49.28159" lon="2.38908">
        <ele>137.5</ele>
        <time>2017-05-07T12:54:31Z</time>
      </trkpt>
      <trkpt lat="49.28155" lon="2.38897">
        <ele>137.6</ele>
        <time>2017-05-07T12:54:37Z</time>
      </trkpt>
      <trkpt lat="49.28151" lon="2.38887">
        <ele>137.5</ele>
        <time>2017-05-07T12:54:44Z</time>
      </trkpt>
      <trkpt lat="49.28148" lon="2.38875">
        <ele>137.8</ele>
        <time>2017-05-07T12:54:50Z</time>
      </trkpt>
      <trkpt lat="49.28146" lon="2.38863">
        <ele>137.8</ele>
        <time>2017-05-07T12:54:56Z</time>
      </trkpt>
      <trkpt lat="49.28141" lon="2.38854">
        <ele>137.6</ele>
        <time>2017-05-07T12:55:03Z</time>
      </trkpt>
      <trkpt lat="49.28138" lon="2.38843">
        <ele>137.6</ele>
        <time>2017-05-07T12:55:10Z</time>
      </trkpt>
      <trkpt lat="49.28134" lon="2.38832">
        <ele>137.3</ele>
        <time>2017-05-07T12:55:17Z</time>
      </trkpt>
      <trkpt lat="49.2813" lon="2.38822">
        <ele>137.2</ele>
        <time>2017-05-07T12:55:24Z</time>
      </trkpt>
      <trkpt lat="49.28128" lon="2.38811">
        <ele>137.4</ele>
        <time>2017-05-07T12:55:29Z</time>
      </trkpt>
      <trkpt lat="49.28125" lon="2.388">
        <ele>137.4</ele>
        <time>2017-05-07T12:55:35Z</time>
      </trkpt>
      <trkpt lat="49.28122" lon="2.3879">
        <ele>137.3</ele>
        <time>2017-05-07T12:55:42Z</time>
      </trkpt>
      <trkpt lat="49.28118" lon="2.3878">
        <ele>137.2</ele>
        <time>2017-05-07T12:55:48Z</time>
      </trkpt>
      <trkpt lat="49.28116" lon="2.38768">
        <ele>137</ele>
        <time>2017-05-07T12:55:55Z</time>
      </trkpt>
      <trkpt lat="49.28112" lon="2.38757">
        <ele>136.7</ele>
        <time>2017-05-07T12:56:01Z</time>
      </trkpt>
      <trkpt lat="49.28107" lon="2.38748">
        <ele>136.7</ele>
        <time>2017-05-07T12:56:08Z</time>
      </trkpt>
      <trkpt lat="49.28102" lon="2.38738">
        <ele>136.6</ele>
        <time>2017-05-07T12:56:13Z</time>
      </trkpt>
      <trkpt lat="49.281" lon="2.38727">
        <ele>136.6</ele>
        <time>2017-05-07T12:56:20Z</time>
      </trkpt>
      <trkpt lat="49.28096" lon="2.38717">
        <ele>136.6</ele>
        <time>2017-05-07T12:56:27Z</time>
      </trkpt>
      <trkpt lat="49.28093" lon="2.38707">
        <ele>136.6</ele>
        <time>2017-05-07T12:56:33Z</time>
      </trkpt>
      <trkpt lat="49.28091" lon="2.38695">
        <ele>136.8</ele>
        <time>2017-05-07T12:56:39Z</time>
      </trkpt>
      <trkpt lat="49.28087" lon="2.38684">
        <ele>136.7</ele>
        <time>2017-05-07T12:56:44Z</time>
      </trkpt>
      <trkpt lat="49.28084" lon="2.38673">
        <ele>136.5</ele>
        <time>2017-05-07T12:56:51Z</time>
      </trkpt>
      <trkpt lat="49.28079" lon="2.38664">
        <ele>136.6</ele>
        <time>2017-05-07T12:56:58Z</time>
      </trkpt>
      <trkpt lat="49.28075" lon="2.38654">
        <ele>136.6</ele>
        <time>2017-05-07T12:57:05Z</time>
      </trkpt>
      <trkpt lat="49.2807" lon="2.38644">
        <ele>136.7</ele>
        <time>2017-05-07T12:57:11Z</time>
      </trkpt>
      <trkpt lat="49.28065" lon="2.38635">
        <ele>136.6</ele>
        <time>2017-05-07T12:57:16Z</time>
      </trkpt>
      <trkpt lat="49.28063" lon="2.38625">
        <ele>136.3</ele>
        <time>2017-05-07T12:57:22Z</time>
      </trkpt>
      <trkpt lat="49.2806" lon="2.38615">
        <ele>135.9</ele>
        <time>2017-05-07T12:57:29Z</time>
      </trkpt>
      <trkpt lat="49.28056" lon="2.38605">
        <ele>135.9</ele>
        <time>2017-05-07T12:57:36Z</time>
      </trkpt>
      <trkpt lat="49.28052" lon="2.38595">
        <ele>135.6</ele>
        <time>2017-05-07T12:57:42Z</time>
      </trkpt>
      <trkpt lat="49.28048" lon="2.38584">
        <ele>135.4</ele>
        <time>2017-05-07T12:57:48Z</time>
      </trkpt>
      <trkpt lat="49.28043" lon="2.38576">
        <ele>135.2</ele>
        <time>2017-05-07T12:57:55Z</time>
      </trkpt>
      <trkpt lat="49.28038" lon="2.38567">
        <ele>135</ele>
        <time>2017-05-07T12:58:01Z</time>
      </trkpt>
      <trkpt lat="49.28033" lon="2.38556">
        <ele>135.2</ele>
        <time>2017-05-07T12:58:08Z</time>
      </trkpt>
      <trkpt lat="49.28027" lon="2.38547">
        <ele>135.2</ele>
        <time>2017-05-07T12:58:14Z</time>
      </trkpt>
      <trkpt lat="49.28024" lon="2.38537">
        <ele>135</ele>
        <time>2017-05-07T12:58:20Z</time>
      </trkpt>
      <trkpt lat="49.28018" lon="2.3853">
        <ele>134.7</ele>
        <time>2017-05-07T12:58:26Z</time>
      </trkpt>
      <trkpt lat="49.28013" lon="2.38523">
        <ele>134.5</ele>
        <time>2017-05-07T12:58:31Z</time>
      </trkpt>
      <trkpt lat="49.28007" lon="2.38514">
        <ele>134.3</ele>
        <time>2017-05-07T12:58:38Z</time>
      </trkpt>
      <trkpt lat="49.28003" lon="2.38504">
        <ele>134.1</ele>
        <time>2017-05-07T12:58:46Z</time>
      </trkpt>
      <trkpt lat="49.27998" lon="2.38494">
        <ele>133.8</ele>
        <time>2017-05-07T12:58:52Z</time>
      </trkpt>
      <trkpt lat="49.27993" lon="2.38485">
        <ele>134</ele>
        <time>2017-05-07T12:58:58Z</time>
      </trkpt>
      <trkpt lat="49.27989" lon="2.38478">
        <ele>134</ele>
        <time>2017-05-07T12:59:05Z</time>
      </trkpt>
      <trkpt lat="49.27985" lon="2.38468">
        <ele>134.3</ele>
        <time>2017-05-07T12:59:10Z</time>
      </trkpt>
      <trkpt lat="49.2798" lon="2.38457">
        <ele>134.5</ele>
        <time>2017-05-07T12:59:17Z</time>
      </trkpt>
      <trkpt lat="49.27976" lon="2.38448">
        <ele>134.2</ele>
        <time>2017-05-07T12:59:23Z</time>
      </trkpt>
      <trkpt lat="49.27972" lon="2.38437">
        <ele>134.1</ele>
        <time>2017-05-07T12:59:29Z</time>
      </trkpt>
      <trkpt lat="49.27968" lon="2.38429">
        <ele>133.9</ele>
        <time>2017-05-07T12:59:37Z</time>
      </trkpt>
      <trkpt lat="49.27959" lon="2.38427">
        <ele>133.5</ele>
        <time>2017-05-07T12:59:43Z</time>
      </trkpt>
      <trkpt lat="49.27953" lon="2.38425">
        <ele>133</ele>
        <time>2017-05-07T12:59:50Z</time>
      </trkpt>
      <trkpt lat="49.2795" lon="2.38424">
        <ele>132.2</ele>
        <time>2017-05-07T12:59:57Z</time>
      </trkpt>
      <trkpt lat="49.27946" lon="2.38421">
        <ele>132.5</ele>
        <time>2017-05-07T13:00:04Z</time>
      </trkpt>
      <trkpt lat="49.27943" lon="2.38417">
        <ele>133.2</ele>
        <time>2017-05-07T13:00:11Z</time>
      </trkpt>
      <trkpt lat="49.27937" lon="2.38414">
        <ele>133.9</ele>
        <time>2017-05-07T13:00:18Z</time>
      </trkpt>
      <trkpt lat="49.27929" lon="2.38413">
        <ele>133.6</ele>
        <time>2017-05-07T13:00:25Z</time>
      </trkpt>
      <trkpt lat="49.27923" lon="2.38409">
        <ele>133.5</ele>
        <time>2017-05-07T13:00:29Z</time>
      </trkpt>
      <trkpt lat="49.27915" lon="2.38403">
        <ele>133.5</ele>
        <time>2017-05-07T13:00:36Z</time>
      </trkpt>
      <trkpt lat="49.2791" lon="2.38398">
        <ele>133.4</ele>
        <time>2017-05-07T13:00:43Z</time>
      </trkpt>
      <trkpt lat="49.27903" lon="2.38393">
        <ele>133.6</ele>
        <time>2017-05-07T13:00:49Z</time>
      </trkpt>
      <trkpt lat="49.27895" lon="2.38387">
        <ele>133.6</ele>
        <time>2017-05-07T13:00:53Z</time>
      </trkpt>
      <trkpt lat="49.27889" lon="2.38381">
        <ele>133.6</ele>
        <time>2017-05-07T13:01:00Z</time>
      </trkpt>
      <trkpt lat="49.27884" lon="2.38375">
        <ele>133.9</ele>
        <time>2017-05-07T13:01:07Z</time>
      </trkpt>
      <trkpt lat="49.27878" lon="2.38371">
        <ele>134.3</ele>
        <time>2017-05-07T13:01:14Z</time>
      </trkpt>
      <trkpt lat="49.27873" lon="2.38365">
        <ele>134.7</ele>
        <time>2017-05-07T13:01:21Z</time>
      </trkpt>
      <trkpt lat="49.27867" lon="2.38358">
        <ele>134.9</ele>
        <time>2017-05-07T13:01:27Z</time>
      </trkpt>
      <trkpt lat="49.27862" lon="2.38357">
        <ele>135.2</ele>
        <time>2017-05-07T13:01:34Z</time>
      </trkpt>
      <trkpt lat="49.27857" lon="2.38351">
        <ele>135.2</ele>
        <time>2017-05-07T13:01:41Z</time>
      </trkpt>
      <trkpt lat="49.2785" lon="2.38348">
        <ele>134.7</ele>
        <time>2017-05-07T13:01:48Z</time>
      </trkpt>
      <trkpt lat="49.27842" lon="2.38341">
        <ele>134.2</ele>
        <time>2017-05-07T13:01:56Z</time>
      </trkpt>
      <trkpt lat="49.27835" lon="2.38339">
        <ele>133.8</ele>
        <time>2017-05-07T13:02:00Z</time>
      </trkpt>
      <trkpt lat="49.2783" lon="2.38335">
        <ele>132.9</ele>
        <time>2017-05-07T13:02:08Z</time>
      </trkpt>
      <trkpt lat="49.2783" lon="2.38332">
        <ele>132.6</ele>
        <time>2017-05-07T13:02:14Z</time>
      </trkpt>
      <trkpt lat="49.27828" lon="2.38342">
        <ele>129.8</ele>
        <time>2017-05-07T13:02:30Z</time>
      </trkpt>
      <trkpt lat="49.27825" lon="2.38343">
        <ele>128.6</ele>
        <time>2017-05-07T13:02:37Z</time>
      </trkpt>
      <trkpt lat="49.27823" lon="2.38338">
        <ele>128.5</ele>
        <time>2017-05-07T13:02:45Z</time>
      </trkpt>
      <trkpt lat="49.27824" lon="2.38343">
        <ele>129.1</ele>
        <time>2017-05-07T13:02:51Z</time>
      </trkpt>
      <trkpt lat="49.27825" lon="2.38355">
        <ele>129.3</ele>
        <time>2017-05-07T13:02:54Z</time>
      </trkpt>
      <trkpt lat="49.27826" lon="2.38357">
        <ele>129.6</ele>
        <time>2017-05-07T13:03:01Z</time>
      </trkpt>
      <trkpt lat="49.27823" lon="2.38355">
        <ele>130.6</ele>
        <time>2017-05-07T13:03:28Z</time>
      </trkpt>
      <trkpt lat="49.27816" lon="2.38358">
        <ele>130.8</ele>
        <time>2017-05-07T13:03:33Z</time>
      </trkpt>
      <trkpt lat="49.27814" lon="2.38356">
        <ele>130.4</ele>
        <time>2017-05-07T13:03:40Z</time>
      </trkpt>
      <trkpt lat="49.27813" lon="2.3836">
        <ele>132.5</ele>
        <time>2017-05-07T13:04:54Z</time>
      </trkpt>
      <trkpt lat="49.27819" lon="2.38367">
        <ele>132.2</ele>
        <time>2017-05-07T13:05:00Z</time>
      </trkpt>
      <trkpt lat="49.27823" lon="2.38371">
        <ele>131.7</ele>
        <time>2017-05-07T13:05:07Z</time>
      </trkpt>
      <trkpt lat="49.27829" lon="2.38368">
        <ele>132.7</ele>
        <time>2017-05-07T13:05:14Z</time>
      </trkpt>
      <trkpt lat="49.27829" lon="2.38358">
        <ele>133</ele>
        <time>2017-05-07T13:05:21Z</time>
      </trkpt>
      <trkpt lat="49.27829" lon="2.38353">
        <ele>133.2</ele>
        <time>2017-05-07T13:05:28Z</time>
      </trkpt>
      <trkpt lat="49.27829" lon="2.38336">
        <ele>134.4</ele>
        <time>2017-05-07T13:05:13Z</time>
      </trkpt>
      <trkpt lat="49.27826" lon="2.38332">
        <ele>134.1</ele>
        <time>2017-05-07T13:06:25Z</time>
      </trkpt>
      <trkpt lat="49.27827" lon="2.3833">
        <ele>134.3</ele>
        <time>2017-05-07T13:06:33Z</time>
      </trkpt>
      <trkpt lat="49.27832" lon="2.38322">
        <ele>129.5</ele>
        <time>2017-05-07T13:06:54Z</time>
      </trkpt>
      <trkpt lat="49.2783" lon="2.38313">
        <ele>129.1</ele>
        <time>2017-05-07T13:07:00Z</time>
      </trkpt>
      <trkpt lat="49.2783" lon="2.38301">
        <ele>128.5</ele>
        <time>2017-05-07T13:07:07Z</time>
      </trkpt>
      <trkpt lat="49.2783" lon="2.38291">
        <ele>127.4</ele>
        <time>2017-05-07T13:07:14Z</time>
      </trkpt>
      <trkpt lat="49.27833" lon="2.38285">
        <ele>126.7</ele>
        <time>2017-05-07T13:07:21Z</time>
      </trkpt>
      <trkpt lat="49.27834" lon="2.38273">
        <ele>126.2</ele>
        <time>2017-05-07T13:07:27Z</time>
      </trkpt>
      <trkpt lat="49.27834" lon="2.38261">
        <ele>125.5</ele>
        <time>2017-05-07T13:07:33Z</time>
      </trkpt>
      <trkpt lat="49.2783" lon="2.3825">
        <ele>125.6</ele>
        <time>2017-05-07T13:07:39Z</time>
      </trkpt>
      <trkpt lat="49.27827" lon="2.3824">
        <ele>126.5</ele>
        <time>2017-05-07T13:07:46Z</time>
      </trkpt>
      <trkpt lat="49.27827" lon="2.38227">
        <ele>127.5</ele>
        <time>2017-05-07T13:07:54Z</time>
      </trkpt>
      <trkpt lat="49.27824" lon="2.38214">
        <ele>127.6</ele>
        <time>2017-05-07T13:08:01Z</time>
      </trkpt>
      <trkpt lat="49.27823" lon="2.38203">
        <ele>127.8</ele>
        <time>2017-05-07T13:08:07Z</time>
      </trkpt>
      <trkpt lat="49.27823" lon="2.38192">
        <ele>127.9</ele>
        <time>2017-05-07T13:08:13Z</time>
      </trkpt>
      <trkpt lat="49.27821" lon="2.38181">
        <ele>128.2</ele>
        <time>2017-05-07T13:08:21Z</time>
      </trkpt>
      <trkpt lat="49.27821" lon="2.38169">
        <ele>128.9</ele>
        <time>2017-05-07T13:08:28Z</time>
      </trkpt>
      <trkpt lat="49.27821" lon="2.38157">
        <ele>129.6</ele>
        <time>2017-05-07T13:08:33Z</time>
      </trkpt>
      <trkpt lat="49.27821" lon="2.38145">
        <ele>129.9</ele>
        <time>2017-05-07T13:08:38Z</time>
      </trkpt>
      <trkpt lat="49.2782" lon="2.38134">
        <ele>130.2</ele>
        <time>2017-05-07T13:08:46Z</time>
      </trkpt>
      <trkpt lat="49.27819" lon="2.38124">
        <ele>130.4</ele>
        <time>2017-05-07T13:08:53Z</time>
      </trkpt>
      <trkpt lat="49.27819" lon="2.38113">
        <ele>130.6</ele>
        <time>2017-05-07T13:08:57Z</time>
      </trkpt>
      <trkpt lat="49.27819" lon="2.38103">
        <ele>130.6</ele>
        <time>2017-05-07T13:09:04Z</time>
      </trkpt>
      <trkpt lat="49.2782" lon="2.3809">
        <ele>131.3</ele>
        <time>2017-05-07T13:09:11Z</time>
      </trkpt>
      <trkpt lat="49.2782" lon="2.38079">
        <ele>131.9</ele>
        <time>2017-05-07T13:09:18Z</time>
      </trkpt>
      <trkpt lat="49.27818" lon="2.38068">
        <ele>132</ele>
        <time>2017-05-07T13:09:24Z</time>
      </trkpt>
      <trkpt lat="49.27815" lon="2.38056">
        <ele>132.1</ele>
        <time>2017-05-07T13:09:30Z</time>
      </trkpt>
      <trkpt lat="49.27813" lon="2.38045">
        <ele>132.2</ele>
        <time>2017-05-07T13:09:37Z</time>
      </trkpt>
      <trkpt lat="49.27811" lon="2.38034">
        <ele>131.9</ele>
        <time>2017-05-07T13:09:43Z</time>
      </trkpt>
      <trkpt lat="49.27809" lon="2.38022">
        <ele>131.8</ele>
        <time>2017-05-07T13:09:50Z</time>
      </trkpt>
      <trkpt lat="49.27806" lon="2.3801">
        <ele>131.3</ele>
        <time>2017-05-07T13:09:56Z</time>
      </trkpt>
      <trkpt lat="49.27805" lon="2.37999">
        <ele>131.5</ele>
        <time>2017-05-07T13:10:03Z</time>
      </trkpt>
      <trkpt lat="49.27802" lon="2.3799">
        <ele>131.9</ele>
        <time>2017-05-07T13:10:10Z</time>
      </trkpt>
      <trkpt lat="49.27799" lon="2.37979">
        <ele>132.1</ele>
        <time>2017-05-07T13:10:17Z</time>
      </trkpt>
      <trkpt lat="49.27797" lon="2.37966">
        <ele>132.1</ele>
        <time>2017-05-07T13:10:21Z</time>
      </trkpt>
      <trkpt lat="49.27793" lon="2.37957">
        <ele>131.7</ele>
        <time>2017-05-07T13:10:27Z</time>
      </trkpt>
      <trkpt lat="49.27791" lon="2.37946">
        <ele>131.8</ele>
        <time>2017-05-07T13:10:34Z</time>
      </trkpt>
      <trkpt lat="49.27787" lon="2.37935">
        <ele>131.7</ele>
        <time>2017-05-07T13:10:40Z</time>
      </trkpt>
      <trkpt lat="49.27785" lon="2.37926">
        <ele>131.7</ele>
        <time>2017-05-07T13:10:47Z</time>
      </trkpt>
      <trkpt lat="49.27785" lon="2.37915">
        <ele>132.3</ele>
        <time>2017-05-07T13:10:53Z</time>
      </trkpt>
      <trkpt lat="49.27783" lon="2.37911">
        <ele>132.9</ele>
        <time>2017-05-07T13:11:00Z</time>
      </trkpt>
      <trkpt lat="49.27778" lon="2.379">
        <ele>132.6</ele>
        <time>2017-05-07T13:11:05Z</time>
      </trkpt>
      <trkpt lat="49.27774" lon="2.3789">
        <ele>132.6</ele>
        <time>2017-05-07T13:11:13Z</time>
      </trkpt>
      <trkpt lat="49.27771" lon="2.3788">
        <ele>132.3</ele>
        <time>2017-05-07T13:11:18Z</time>
      </trkpt>
      <trkpt lat="49.27768" lon="2.37868">
        <ele>131.8</ele>
        <time>2017-05-07T13:11:25Z</time>
      </trkpt>
      <trkpt lat="49.27766" lon="2.37858">
        <ele>131.9</ele>
        <time>2017-05-07T13:11:31Z</time>
      </trkpt>
      <trkpt lat="49.27763" lon="2.37846">
        <ele>131.5</ele>
        <time>2017-05-07T13:11:39Z</time>
      </trkpt>
      <trkpt lat="49.2776" lon="2.37836">
        <ele>131.2</ele>
        <time>2017-05-07T13:11:45Z</time>
      </trkpt>
      <trkpt lat="49.27757" lon="2.37825">
        <ele>131.6</ele>
        <time>2017-05-07T13:11:52Z</time>
      </trkpt>
      <trkpt lat="49.27754" lon="2.37815">
        <ele>131.8</ele>
        <time>2017-05-07T13:11:56Z</time>
      </trkpt>
      <trkpt lat="49.27751" lon="2.37803">
        <ele>131.9</ele>
        <time>2017-05-07T13:12:03Z</time>
      </trkpt>
      <trkpt lat="49.27746" lon="2.37794">
        <ele>131.7</ele>
        <time>2017-05-07T13:12:09Z</time>
      </trkpt>
      <trkpt lat="49.27745" lon="2.37783">
        <ele>131.5</ele>
        <time>2017-05-07T13:12:13Z</time>
      </trkpt>
      <trkpt lat="49.27743" lon="2.37774">
        <ele>131.1</ele>
        <time>2017-05-07T13:12:21Z</time>
      </trkpt>
      <trkpt lat="49.27742" lon="2.37765">
        <ele>131.5</ele>
        <time>2017-05-07T13:12:27Z</time>
      </trkpt>
      <trkpt lat="49.27743" lon="2.37757">
        <ele>132.1</ele>
        <time>2017-05-07T13:12:35Z</time>
      </trkpt>
      <trkpt lat="49.27742" lon="2.37744">
        <ele>132</ele>
        <time>2017-05-07T13:12:39Z</time>
      </trkpt>
      <trkpt lat="49.27738" lon="2.37735">
        <ele>131.9</ele>
        <time>2017-05-07T13:12:47Z</time>
      </trkpt>
      <trkpt lat="49.27734" lon="2.37723">
        <ele>131.8</ele>
        <time>2017-05-07T13:12:50Z</time>
      </trkpt>
      <trkpt lat="49.2773" lon="2.37713">
        <ele>131.8</ele>
        <time>2017-05-07T13:12:56Z</time>
      </trkpt>
      <trkpt lat="49.27728" lon="2.37702">
        <ele>131.8</ele>
        <time>2017-05-07T13:13:01Z</time>
      </trkpt>
      <trkpt lat="49.27726" lon="2.37692">
        <ele>131.8</ele>
        <time>2017-05-07T13:13:08Z</time>
      </trkpt>
      <trkpt lat="49.27723" lon="2.37683">
        <ele>132.2</ele>
        <time>2017-05-07T13:13:16Z</time>
      </trkpt>
      <trkpt lat="49.27723" lon="2.37684">
        <ele>133.1</ele>
        <time>2017-05-07T13:13:22Z</time>
      </trkpt>
      <trkpt lat="49.27726" lon="2.37688">
        <ele>133.8</ele>
        <time>2017-05-07T13:13:30Z</time>
      </trkpt>
      <trkpt lat="49.27723" lon="2.3768">
        <ele>137.8</ele>
        <time>2017-05-07T13:13:56Z</time>
      </trkpt>
      <trkpt lat="49.27724" lon="2.37677">
        <ele>135.2</ele>
        <time>2017-05-07T13:13:45Z</time>
      </trkpt>
      <trkpt lat="49.27725" lon="2.37669">
        <ele>129.6</ele>
        <time>2017-05-07T13:14:12Z</time>
      </trkpt>
      <trkpt lat="49.27719" lon="2.37661">
        <ele>128.1</ele>
        <time>2017-05-07T13:15:22Z</time>
      </trkpt>
      <trkpt lat="49.27717" lon="2.3765">
        <ele>127</ele>
        <time>2017-05-07T13:15:29Z</time>
      </trkpt>
      <trkpt lat="49.27715" lon="2.37638">
        <ele>126.8</ele>
        <time>2017-05-07T13:15:34Z</time>
      </trkpt>
      <trkpt lat="49.27712" lon="2.37627">
        <ele>126.5</ele>
        <time>2017-05-07T13:15:40Z</time>
      </trkpt>
      <trkpt lat="49.27708" lon="2.37615">
        <ele>126.8</ele>
        <time>2017-05-07T13:15:46Z</time>
      </trkpt>
      <trkpt lat="49.27705" lon="2.37605">
        <ele>126.6</ele>
        <time>2017-05-07T13:15:53Z</time>
      </trkpt>
      <trkpt lat="49.277" lon="2.37593">
        <ele>126.9</ele>
        <time>2017-05-07T13:16:00Z</time>
      </trkpt>
      <trkpt lat="49.27693" lon="2.37585">
        <ele>127.7</ele>
        <time>2017-05-07T13:16:05Z</time>
      </trkpt>
      <trkpt lat="49.2769" lon="2.37577">
        <ele>128.9</ele>
        <time>2017-05-07T13:16:12Z</time>
      </trkpt>
      <trkpt lat="49.27687" lon="2.37567">
        <ele>129.4</ele>
        <time>2017-05-07T13:16:19Z</time>
      </trkpt>
      <trkpt lat="49.27683" lon="2.37558">
        <ele>129.6</ele>
        <time>2017-05-07T13:16:24Z</time>
      </trkpt>
      <trkpt lat="49.2768" lon="2.37546">
        <ele>130.4</ele>
        <time>2017-05-07T13:16:30Z</time>
      </trkpt>
      <trkpt lat="49.27674" lon="2.37536">
        <ele>130.7</ele>
        <time>2017-05-07T13:16:37Z</time>
      </trkpt>
      <trkpt lat="49.27671" lon="2.37525">
        <ele>131</ele>
        <time>2017-05-07T13:16:40Z</time>
      </trkpt>
      <trkpt lat="49.27667" lon="2.37514">
        <ele>131.5</ele>
        <time>2017-05-07T13:16:45Z</time>
      </trkpt>
      <trkpt lat="49.27664" lon="2.37505">
        <ele>132.4</ele>
        <time>2017-05-07T13:16:52Z</time>
      </trkpt>
      <trkpt lat="49.27662" lon="2.37493">
        <ele>133.5</ele>
        <time>2017-05-07T13:16:59Z</time>
      </trkpt>
      <trkpt lat="49.27659" lon="2.37483">
        <ele>134.5</ele>
        <time>2017-05-07T13:17:06Z</time>
      </trkpt>
      <trkpt lat="49.27655" lon="2.37475">
        <ele>135.4</ele>
        <time>2017-05-07T13:17:13Z</time>
      </trkpt>
      <trkpt lat="49.27652" lon="2.37464">
        <ele>135.6</ele>
        <time>2017-05-07T13:17:20Z</time>
      </trkpt>
      <trkpt lat="49.27651" lon="2.37451">
        <ele>136</ele>
        <time>2017-05-07T13:17:25Z</time>
      </trkpt>
      <trkpt lat="49.27647" lon="2.3744">
        <ele>135.9</ele>
        <time>2017-05-07T13:17:32Z</time>
      </trkpt>
      <trkpt lat="49.27646" lon="2.37428">
        <ele>135.8</ele>
        <time>2017-05-07T13:17:39Z</time>
      </trkpt>
      <trkpt lat="49.27642" lon="2.37418">
        <ele>135.5</ele>
        <time>2017-05-07T13:17:45Z</time>
      </trkpt>
      <trkpt lat="49.2764" lon="2.37416">
        <ele>135.1</ele>
        <time>2017-05-07T13:17:52Z</time>
      </trkpt>
      <trkpt lat="49.27642" lon="2.37413">
        <ele>134.5</ele>
        <time>2017-05-07T13:17:59Z</time>
      </trkpt>
      <trkpt lat="49.27645" lon="2.37401">
        <ele>133.9</ele>
        <time>2017-05-07T13:18:06Z</time>
      </trkpt>
      <trkpt lat="49.27647" lon="2.37391">
        <ele>132.7</ele>
        <time>2017-05-07T13:18:14Z</time>
      </trkpt>
      <trkpt lat="49.2765" lon="2.3738">
        <ele>132.3</ele>
        <time>2017-05-07T13:18:19Z</time>
      </trkpt>
      <trkpt lat="49.27652" lon="2.37371">
        <ele>131.9</ele>
        <time>2017-05-07T13:18:26Z</time>
      </trkpt>
      <trkpt lat="49.27655" lon="2.3736">
        <ele>131.3</ele>
        <time>2017-05-07T13:18:32Z</time>
      </trkpt>
      <trkpt lat="49.2766" lon="2.37351">
        <ele>131.6</ele>
        <time>2017-05-07T13:18:39Z</time>
      </trkpt>
      <trkpt lat="49.27664" lon="2.37342">
        <ele>131.9</ele>
        <time>2017-05-07T13:18:43Z</time>
      </trkpt>
      <trkpt lat="49.27666" lon="2.37334">
        <ele>131.9</ele>
        <time>2017-05-07T13:18:51Z</time>
      </trkpt>
      <trkpt lat="49.27671" lon="2.37325">
        <ele>131.8</ele>
        <time>2017-05-07T13:18:54Z</time>
      </trkpt>
      <trkpt lat="49.27673" lon="2.37314">
        <ele>132.2</ele>
        <time>2017-05-07T13:19:01Z</time>
      </trkpt>
      <trkpt lat="49.27674" lon="2.37302">
        <ele>132.7</ele>
        <time>2017-05-07T13:19:08Z</time>
      </trkpt>
      <trkpt lat="49.27674" lon="2.37291">
        <ele>133.1</ele>
        <time>2017-05-07T13:19:13Z</time>
      </trkpt>
      <trkpt lat="49.27679" lon="2.37281">
        <ele>133.1</ele>
        <time>2017-05-07T13:19:20Z</time>
      </trkpt>
      <trkpt lat="49.27683" lon="2.37271">
        <ele>133.4</ele>
        <time>2017-05-07T13:19:25Z</time>
      </trkpt>
      <trkpt lat="49.27684" lon="2.37262">
        <ele>133.7</ele>
        <time>2017-05-07T13:19:31Z</time>
      </trkpt>
      <trkpt lat="49.27684" lon="2.37251">
        <ele>133.8</ele>
        <time>2017-05-07T13:19:38Z</time>
      </trkpt>
      <trkpt lat="49.27684" lon="2.37237">
        <ele>133.7</ele>
        <time>2017-05-07T13:19:45Z</time>
      </trkpt>
      <trkpt lat="49.27681" lon="2.37226">
        <ele>133.6</ele>
        <time>2017-05-07T13:19:50Z</time>
      </trkpt>
      <trkpt lat="49.27681" lon="2.37221">
        <ele>133.1</ele>
        <time>2017-05-07T13:19:56Z</time>
      </trkpt>
      <trkpt lat="49.27677" lon="2.37211">
        <ele>132</ele>
        <time>2017-05-07T13:20:03Z</time>
      </trkpt>
      <trkpt lat="49.27677" lon="2.37208">
        <ele>130.7</ele>
        <time>2017-05-07T13:20:10Z</time>
      </trkpt>
      <trkpt lat="49.27675" lon="2.372">
        <ele>130.6</ele>
        <time>2017-05-07T13:20:17Z</time>
      </trkpt>
      <trkpt lat="49.27674" lon="2.37195">
        <ele>130.3</ele>
        <time>2017-05-07T13:20:24Z</time>
      </trkpt>
      <trkpt lat="49.27675" lon="2.37188">
        <ele>130</ele>
        <time>2017-05-07T13:20:31Z</time>
      </trkpt>
      <trkpt lat="49.27673" lon="2.37187">
        <ele>129.4</ele>
        <time>2017-05-07T13:20:38Z</time>
      </trkpt>
      <trkpt lat="49.27669" lon="2.37185">
        <ele>129.1</ele>
        <time>2017-05-07T13:20:54Z</time>
      </trkpt>
      <trkpt lat="49.2766" lon="2.37183">
        <ele>128.8</ele>
        <time>2017-05-07T13:20:58Z</time>
      </trkpt>
      <trkpt lat="49.27655" lon="2.37172">
        <ele>128.8</ele>
        <time>2017-05-07T13:21:01Z</time>
      </trkpt>
      <trkpt lat="49.27653" lon="2.37166">
        <ele>128.7</ele>
        <time>2017-05-07T13:21:08Z</time>
      </trkpt>
      <trkpt lat="49.27647" lon="2.3716">
        <ele>129.2</ele>
        <time>2017-05-07T13:21:16Z</time>
      </trkpt>
      <trkpt lat="49.27643" lon="2.37153">
        <ele>128.8</ele>
        <time>2017-05-07T13:21:23Z</time>
      </trkpt>
      <trkpt lat="49.27638" lon="2.37144">
        <ele>129</ele>
        <time>2017-05-07T13:21:28Z</time>
      </trkpt>
      <trkpt lat="49.27633" lon="2.37136">
        <ele>129.1</ele>
        <time>2017-05-07T13:21:35Z</time>
      </trkpt>
      <trkpt lat="49.27631" lon="2.37133">
        <ele>128.3</ele>
        <time>2017-05-07T13:21:42Z</time>
      </trkpt>
      <trkpt lat="49.27629" lon="2.37129">
        <ele>127.5</ele>
        <time>2017-05-07T13:21:49Z</time>
      </trkpt>
      <trkpt lat="49.27624" lon="2.37121">
        <ele>126.8</ele>
        <time>2017-05-07T13:21:55Z</time>
      </trkpt>
      <trkpt lat="49.27617" lon="2.37112">
        <ele>126.2</ele>
        <time>2017-05-07T13:22:01Z</time>
      </trkpt>
      <trkpt lat="49.27612" lon="2.37104">
        <ele>125.5</ele>
        <time>2017-05-07T13:22:08Z</time>
      </trkpt>
      <trkpt lat="49.27605" lon="2.37098">
        <ele>124.9</ele>
        <time>2017-05-07T13:22:15Z</time>
      </trkpt>
      <trkpt lat="49.27599" lon="2.37093">
        <ele>124.3</ele>
        <time>2017-05-07T13:22:22Z</time>
      </trkpt>
      <trkpt lat="49.27597" lon="2.37088">
        <ele>123.8</ele>
        <time>2017-05-07T13:22:28Z</time>
      </trkpt>
      <trkpt lat="49.27593" lon="2.3708">
        <ele>122.3</ele>
        <time>2017-05-07T13:22:35Z</time>
      </trkpt>
      <trkpt lat="49.27588" lon="2.37073">
        <ele>121.5</ele>
        <time>2017-05-07T13:22:42Z</time>
      </trkpt>
      <trkpt lat="49.27583" lon="2.37063">
        <ele>121.2</ele>
        <time>2017-05-07T13:22:49Z</time>
      </trkpt>
      <trkpt lat="49.27577" lon="2.37054">
        <ele>120.6</ele>
        <time>2017-05-07T13:22:55Z</time>
      </trkpt>
      <trkpt lat="49.27572" lon="2.37054">
        <ele>119.9</ele>
        <time>2017-05-07T13:23:03Z</time>
      </trkpt>
      <trkpt lat="49.27568" lon="2.37049">
        <ele>119.3</ele>
        <time>2017-05-07T13:23:10Z</time>
      </trkpt>
      <trkpt lat="49.27562" lon="2.3704">
        <ele>118.2</ele>
        <time>2017-05-07T13:23:16Z</time>
      </trkpt>
      <trkpt lat="49.27555" lon="2.37035">
        <ele>117.6</ele>
        <time>2017-05-07T13:23:19Z</time>
      </trkpt>
      <trkpt lat="49.27552" lon="2.37021">
        <ele>116.3</ele>
        <time>2017-05-07T13:23:24Z</time>
      </trkpt>
      <trkpt lat="49.27546" lon="2.37015">
        <ele>115.3</ele>
        <time>2017-05-07T13:23:31Z</time>
      </trkpt>
      <trkpt lat="49.2754" lon="2.37008">
        <ele>115.1</ele>
        <time>2017-05-07T13:23:38Z</time>
      </trkpt>
      <trkpt lat="49.27536" lon="2.37001">
        <ele>115.6</ele>
        <time>2017-05-07T13:23:45Z</time>
      </trkpt>
      <trkpt lat="49.2753" lon="2.36992">
        <ele>116.1</ele>
        <time>2017-05-07T13:23:49Z</time>
      </trkpt>
      <trkpt lat="49.27525" lon="2.36984">
        <ele>116.3</ele>
        <time>2017-05-07T13:23:51Z</time>
      </trkpt>
      <trkpt lat="49.27519" lon="2.36975">
        <ele>116.5</ele>
        <time>2017-05-07T13:23:56Z</time>
      </trkpt>
      <trkpt lat="49.27517" lon="2.36973">
        <ele>116.2</ele>
        <time>2017-05-07T13:24:02Z</time>
      </trkpt>
      <trkpt lat="49.27509" lon="2.36972">
        <ele>115.8</ele>
        <time>2017-05-07T13:24:07Z</time>
      </trkpt>
      <trkpt lat="49.27503" lon="2.36973">
        <ele>115</ele>
        <time>2017-05-07T13:24:14Z</time>
      </trkpt>
      <trkpt lat="49.27501" lon="2.36968">
        <ele>113.6</ele>
        <time>2017-05-07T13:24:21Z</time>
      </trkpt>
      <trkpt lat="49.27492" lon="2.36966">
        <ele>111.9</ele>
        <time>2017-05-07T13:24:28Z</time>
      </trkpt>
      <trkpt lat="49.27485" lon="2.36959">
        <ele>110.6</ele>
        <time>2017-05-07T13:24:34Z</time>
      </trkpt>
      <trkpt lat="49.27479" lon="2.36951">
        <ele>109</ele>
        <time>2017-05-07T13:24:41Z</time>
      </trkpt>
      <trkpt lat="49.27472" lon="2.36944">
        <ele>107.7</ele>
        <time>2017-05-07T13:24:46Z</time>
      </trkpt>
      <trkpt lat="49.27466" lon="2.36936">
        <ele>106.9</ele>
        <time>2017-05-07T13:24:54Z</time>
      </trkpt>
      <trkpt lat="49.27459" lon="2.36928">
        <ele>106.8</ele>
        <time>2017-05-07T13:25:00Z</time>
      </trkpt>
      <trkpt lat="49.27453" lon="2.36921">
        <ele>106.9</ele>
        <time>2017-05-07T13:25:06Z</time>
      </trkpt>
      <trkpt lat="49.27447" lon="2.36916">
        <ele>107</ele>
        <time>2017-05-07T13:25:13Z</time>
      </trkpt>
      <trkpt lat="49.2744" lon="2.36908">
        <ele>107.6</ele>
        <time>2017-05-07T13:25:19Z</time>
      </trkpt>
      <trkpt lat="49.27434" lon="2.36901">
        <ele>108</ele>
        <time>2017-05-07T13:25:25Z</time>
      </trkpt>
      <trkpt lat="49.27429" lon="2.36895">
        <ele>108.6</ele>
        <time>2017-05-07T13:25:32Z</time>
      </trkpt>
      <trkpt lat="49.27424" lon="2.36889">
        <ele>108.2</ele>
        <time>2017-05-07T13:25:39Z</time>
      </trkpt>
      <trkpt lat="49.27419" lon="2.36884">
        <ele>106.7</ele>
        <time>2017-05-07T13:25:46Z</time>
      </trkpt>
      <trkpt lat="49.27419" lon="2.36879">
        <ele>105.8</ele>
        <time>2017-05-07T13:25:52Z</time>
      </trkpt>
      <trkpt lat="49.27418" lon="2.36871">
        <ele>99.1</ele>
        <time>2017-05-07T13:26:42Z</time>
      </trkpt>
      <trkpt lat="49.27416" lon="2.36866">
        <ele>98.4</ele>
        <time>2017-05-07T13:26:49Z</time>
      </trkpt>
      <trkpt lat="49.27416" lon="2.36863">
        <ele>97.3</ele>
        <time>2017-05-07T13:26:55Z</time>
      </trkpt>
      <trkpt lat="49.27415" lon="2.36858">
        <ele>96.6</ele>
        <time>2017-05-07T13:27:10Z</time>
      </trkpt>
      <trkpt lat="49.27414" lon="2.36848">
        <ele>94</ele>
        <time>2017-05-07T13:27:30Z</time>
      </trkpt>
      <trkpt lat="49.27412" lon="2.36844">
        <ele>93.2</ele>
        <time>2017-05-07T13:27:37Z</time>
      </trkpt>
      <trkpt lat="49.27412" lon="2.36842">
        <ele>91.3</ele>
        <time>2017-05-07T13:27:53Z</time>
      </trkpt>
      <trkpt lat="49.27413" lon="2.36833">
        <ele>86</ele>
        <time>2017-05-07T13:28:26Z</time>
      </trkpt>
      <trkpt lat="49.27409" lon="2.36841">
        <ele>80.7</ele>
        <time>2017-05-07T13:29:57Z</time>
      </trkpt>
      <trkpt lat="49.27402" lon="2.36846">
        <ele>80.5</ele>
        <time>2017-05-07T13:30:00Z</time>
      </trkpt>
      <trkpt lat="49.27406" lon="2.36835">
        <ele>78.5</ele>
        <time>2017-05-07T13:31:03Z</time>
      </trkpt>
      <trkpt lat="49.27407" lon="2.36834">
        <ele>77</ele>
        <time>2017-05-07T13:31:09Z</time>
      </trkpt>
      <trkpt lat="49.27408" lon="2.36834">
        <ele>78.3</ele>
        <time>2017-05-07T13:31:36Z</time>
      </trkpt>
      <trkpt lat="49.27415" lon="2.36834">
        <ele>79.8</ele>
        <time>2017-05-07T13:32:10Z</time>
      </trkpt>
      <trkpt lat="49.27422" lon="2.3683">
        <ele>79.7</ele>
        <time>2017-05-07T13:32:14Z</time>
      </trkpt>
      <trkpt lat="49.27426" lon="2.36829">
        <ele>80.1</ele>
        <time>2017-05-07T13:32:21Z</time>
      </trkpt>
      <trkpt lat="49.27433" lon="2.36834">
        <ele>81.2</ele>
        <time>2017-05-07T13:32:28Z</time>
      </trkpt>
      <trkpt lat="49.27441" lon="2.36837">
        <ele>80.7</ele>
        <time>2017-05-07T13:32:35Z</time>
      </trkpt>
      <trkpt lat="49.27449" lon="2.36841">
        <ele>80.1</ele>
        <time>2017-05-07T13:32:41Z</time>
      </trkpt>
      <trkpt lat="49.27455" lon="2.36842">
        <ele>79.9</ele>
        <time>2017-05-07T13:32:47Z</time>
      </trkpt>
      <trkpt lat="49.2746" lon="2.36843">
        <ele>79.7</ele>
        <time>2017-05-07T13:32:55Z</time>
      </trkpt>
      <trkpt lat="49.27467" lon="2.36848">
        <ele>80</ele>
        <time>2017-05-07T13:33:00Z</time>
      </trkpt>
      <trkpt lat="49.27473" lon="2.36851">
        <ele>80.2</ele>
        <time>2017-05-07T13:33:06Z</time>
      </trkpt>
      <trkpt lat="49.27481" lon="2.36853">
        <ele>80</ele>
        <time>2017-05-07T13:33:11Z</time>
      </trkpt>
      <trkpt lat="49.27488" lon="2.36856">
        <ele>80.1</ele>
        <time>2017-05-07T13:33:17Z</time>
      </trkpt>
      <trkpt lat="49.27495" lon="2.3686">
        <ele>80.3</ele>
        <time>2017-05-07T13:33:24Z</time>
      </trkpt>
      <trkpt lat="49.27503" lon="2.36864">
        <ele>80</ele>
        <time>2017-05-07T13:33:31Z</time>
      </trkpt>
      <trkpt lat="49.27512" lon="2.36868">
        <ele>79.5</ele>
        <time>2017-05-07T13:33:37Z</time>
      </trkpt>
      <trkpt lat="49.27519" lon="2.3687">
        <ele>79</ele>
        <time>2017-05-07T13:33:44Z</time>
      </trkpt>
      <trkpt lat="49.27525" lon="2.36873">
        <ele>79.1</ele>
        <time>2017-05-07T13:33:50Z</time>
      </trkpt>
      <trkpt lat="49.27532" lon="2.36877">
        <ele>79.5</ele>
        <time>2017-05-07T13:33:55Z</time>
      </trkpt>
      <trkpt lat="49.27539" lon="2.36881">
        <ele>80</ele>
        <time>2017-05-07T13:34:02Z</time>
      </trkpt>
      <trkpt lat="49.27547" lon="2.36886">
        <ele>80.3</ele>
        <time>2017-05-07T13:34:10Z</time>
      </trkpt>
      <trkpt lat="49.27554" lon="2.36889">
        <ele>80.7</ele>
        <time>2017-05-07T13:34:15Z</time>
      </trkpt>
      <trkpt lat="49.27562" lon="2.36893">
        <ele>81.1</ele>
        <time>2017-05-07T13:34:22Z</time>
      </trkpt>
      <trkpt lat="49.27569" lon="2.36896">
        <ele>81.8</ele>
        <time>2017-05-07T13:34:29Z</time>
      </trkpt>
      <trkpt lat="49.27576" lon="2.36901">
        <ele>81.8</ele>
        <time>2017-05-07T13:34:36Z</time>
      </trkpt>
      <trkpt lat="49.27584" lon="2.36903">
        <ele>82</ele>
        <time>2017-05-07T13:34:40Z</time>
      </trkpt>
      <trkpt lat="49.27591" lon="2.36906">
        <ele>81.9</ele>
        <time>2017-05-07T13:34:46Z</time>
      </trkpt>
      <trkpt lat="49.27598" lon="2.3691">
        <ele>81.6</ele>
        <time>2017-05-07T13:34:53Z</time>
      </trkpt>
      <trkpt lat="49.27606" lon="2.36915">
        <ele>81.5</ele>
        <time>2017-05-07T13:35:00Z</time>
      </trkpt>
      <trkpt lat="49.27612" lon="2.36919">
        <ele>81.4</ele>
        <time>2017-05-07T13:35:07Z</time>
      </trkpt>
      <trkpt lat="49.27619" lon="2.36923">
        <ele>81.5</ele>
        <time>2017-05-07T13:35:11Z</time>
      </trkpt>
      <trkpt lat="49.27626" lon="2.36927">
        <ele>81.9</ele>
        <time>2017-05-07T13:35:18Z</time>
      </trkpt>
      <trkpt lat="49.27633" lon="2.36931">
        <ele>82.3</ele>
        <time>2017-05-07T13:35:23Z</time>
      </trkpt>
      <trkpt lat="49.27639" lon="2.36935">
        <ele>82.6</ele>
        <time>2017-05-07T13:35:30Z</time>
      </trkpt>
      <trkpt lat="49.27646" lon="2.36941">
        <ele>82.8</ele>
        <time>2017-05-07T13:35:35Z</time>
      </trkpt>
      <trkpt lat="49.27653" lon="2.36946">
        <ele>82.6</ele>
        <time>2017-05-07T13:35:40Z</time>
      </trkpt>
      <trkpt lat="49.2766" lon="2.3695">
        <ele>81.9</ele>
        <time>2017-05-07T13:35:47Z</time>
      </trkpt>
      <trkpt lat="49.27666" lon="2.36956">
        <ele>81.8</ele>
        <time>2017-05-07T13:35:53Z</time>
      </trkpt>
      <trkpt lat="49.27673" lon="2.36961">
        <ele>81.7</ele>
        <time>2017-05-07T13:35:59Z</time>
      </trkpt>
      <trkpt lat="49.27678" lon="2.36967">
        <ele>81.7</ele>
        <time>2017-05-07T13:36:05Z</time>
      </trkpt>
      <trkpt lat="49.27687" lon="2.3697">
        <ele>81.4</ele>
        <time>2017-05-07T13:36:12Z</time>
      </trkpt>
      <trkpt lat="49.27693" lon="2.36977">
        <ele>81</ele>
        <time>2017-05-07T13:36:19Z</time>
      </trkpt>
      <trkpt lat="49.27699" lon="2.36984">
        <ele>80.9</ele>
        <time>2017-05-07T13:36:25Z</time>
      </trkpt>
      <trkpt lat="49.27706" lon="2.3699">
        <ele>80.9</ele>
        <time>2017-05-07T13:36:32Z</time>
      </trkpt>
      <trkpt lat="49.27712" lon="2.36995">
        <ele>81</ele>
        <time>2017-05-07T13:36:35Z</time>
      </trkpt>
      <trkpt lat="49.27716" lon="2.36999">
        <ele>80.6</ele>
        <time>2017-05-07T13:36:43Z</time>
      </trkpt>
      <trkpt lat="49.27723" lon="2.37007">
        <ele>80.9</ele>
        <time>2017-05-07T13:36:50Z</time>
      </trkpt>
      <trkpt lat="49.27729" lon="2.37013">
        <ele>81.1</ele>
        <time>2017-05-07T13:36:56Z</time>
      </trkpt>
      <trkpt lat="49.27736" lon="2.3702">
        <ele>81.7</ele>
        <time>2017-05-07T13:37:03Z</time>
      </trkpt>
      <trkpt lat="49.27742" lon="2.37024">
        <ele>82.2</ele>
        <time>2017-05-07T13:37:10Z</time>
      </trkpt>
      <trkpt lat="49.2775" lon="2.3703">
        <ele>82.9</ele>
        <time>2017-05-07T13:37:16Z</time>
      </trkpt>
      <trkpt lat="49.27756" lon="2.37036">
        <ele>83</ele>
        <time>2017-05-07T13:37:20Z</time>
      </trkpt>
      <trkpt lat="49.27761" lon="2.37043">
        <ele>83.1</ele>
        <time>2017-05-07T13:37:27Z</time>
      </trkpt>
      <trkpt lat="49.27769" lon="2.37048">
        <ele>83.5</ele>
        <time>2017-05-07T13:37:33Z</time>
      </trkpt>
      <trkpt lat="49.27776" lon="2.37053">
        <ele>83.8</ele>
        <time>2017-05-07T13:37:38Z</time>
      </trkpt>
      <trkpt lat="49.27783" lon="2.37058">
        <ele>84.1</ele>
        <time>2017-05-07T13:37:44Z</time>
      </trkpt>
      <trkpt lat="49.2779" lon="2.37064">
        <ele>84.3</ele>
        <time>2017-05-07T13:37:52Z</time>
      </trkpt>
      <trkpt lat="49.27798" lon="2.37069">
        <ele>84.3</ele>
        <time>2017-05-07T13:37:59Z</time>
      </trkpt>
      <trkpt lat="49.27804" lon="2.37075">
        <ele>84.3</ele>
        <time>2017-05-07T13:38:03Z</time>
      </trkpt>
      <trkpt lat="49.27812" lon="2.37082">
        <ele>84.3</ele>
        <time>2017-05-07T13:38:11Z</time>
      </trkpt>
      <trkpt lat="49.27818" lon="2.37088">
        <ele>84</ele>
        <time>2017-05-07T13:38:16Z</time>
      </trkpt>
      <trkpt lat="49.27826" lon="2.37093">
        <ele>83.7</ele>
        <time>2017-05-07T13:38:23Z</time>
      </trkpt>
      <trkpt lat="49.27832" lon="2.37099">
        <ele>83.3</ele>
        <time>2017-05-07T13:38:29Z</time>
      </trkpt>
      <trkpt lat="49.27837" lon="2.37108">
        <ele>82.9</ele>
        <time>2017-05-07T13:38:36Z</time>
      </trkpt>
      <trkpt lat="49.27844" lon="2.37115">
        <ele>82.6</ele>
        <time>2017-05-07T13:38:42Z</time>
      </trkpt>
      <trkpt lat="49.27851" lon="2.37118">
        <ele>82.6</ele>
        <time>2017-05-07T13:38:48Z</time>
      </trkpt>
      <trkpt lat="49.27859" lon="2.37122">
        <ele>82.4</ele>
        <time>2017-05-07T13:38:54Z</time>
      </trkpt>
      <trkpt lat="49.27866" lon="2.37127">
        <ele>82.3</ele>
        <time>2017-05-07T13:38:59Z</time>
      </trkpt>
      <trkpt lat="49.27869" lon="2.37132">
        <ele>82.3</ele>
        <time>2017-05-07T13:39:06Z</time>
      </trkpt>
      <trkpt lat="49.27875" lon="2.37136">
        <ele>82.5</ele>
        <time>2017-05-07T13:39:13Z</time>
      </trkpt>
      <trkpt lat="49.27881" lon="2.3714">
        <ele>82.7</ele>
        <time>2017-05-07T13:39:18Z</time>
      </trkpt>
      <trkpt lat="49.27888" lon="2.37147">
        <ele>82.9</ele>
        <time>2017-05-07T13:39:24Z</time>
      </trkpt>
      <trkpt lat="49.27895" lon="2.37153">
        <ele>83.1</ele>
        <time>2017-05-07T13:39:29Z</time>
      </trkpt>
      <trkpt lat="49.27902" lon="2.3716">
        <ele>82.8</ele>
        <time>2017-05-07T13:39:36Z</time>
      </trkpt>
      <trkpt lat="49.27909" lon="2.37166">
        <ele>82.5</ele>
        <time>2017-05-07T13:39:41Z</time>
      </trkpt>
      <trkpt lat="49.27914" lon="2.3717">
        <ele>82.3</ele>
        <time>2017-05-07T13:39:48Z</time>
      </trkpt>
      <trkpt lat="49.27922" lon="2.37175">
        <ele>82.2</ele>
        <time>2017-05-07T13:39:55Z</time>
      </trkpt>
      <trkpt lat="49.2793" lon="2.3718">
        <ele>82.1</ele>
        <time>2017-05-07T13:40:02Z</time>
      </trkpt>
      <trkpt lat="49.27937" lon="2.37184">
        <ele>82.1</ele>
        <time>2017-05-07T13:40:09Z</time>
      </trkpt>
      <trkpt lat="49.27943" lon="2.37188">
        <ele>81.4</ele>
        <time>2017-05-07T13:40:15Z</time>
      </trkpt>
      <trkpt lat="49.27947" lon="2.37184">
        <ele>80.8</ele>
        <time>2017-05-07T13:40:23Z</time>
      </trkpt>
      <trkpt lat="49.2795" lon="2.37179">
        <ele>80</ele>
        <time>2017-05-07T13:40:30Z</time>
      </trkpt>
      <trkpt lat="49.27953" lon="2.37171">
        <ele>79.2</ele>
        <time>2017-05-07T13:40:37Z</time>
      </trkpt>
      <trkpt lat="49.27958" lon="2.37162">
        <ele>79.1</ele>
        <time>2017-05-07T13:40:44Z</time>
      </trkpt>
      <trkpt lat="49.27961" lon="2.37152">
        <ele>79.2</ele>
        <time>2017-05-07T13:40:50Z</time>
      </trkpt>
      <trkpt lat="49.27965" lon="2.37142">
        <ele>78.7</ele>
        <time>2017-05-07T13:40:57Z</time>
      </trkpt>
      <trkpt lat="49.27969" lon="2.37132">
        <ele>78</ele>
        <time>2017-05-07T13:41:05Z</time>
      </trkpt>
      <trkpt lat="49.27973" lon="2.37122">
        <ele>77.4</ele>
        <time>2017-05-07T13:41:12Z</time>
      </trkpt>
      <trkpt lat="49.27975" lon="2.37111">
        <ele>76.9</ele>
        <time>2017-05-07T13:41:18Z</time>
      </trkpt>
      <trkpt lat="49.27979" lon="2.37101">
        <ele>76</ele>
        <time>2017-05-07T13:41:25Z</time>
      </trkpt>
      <trkpt lat="49.27981" lon="2.37089">
        <ele>75.5</ele>
        <time>2017-05-07T13:41:30Z</time>
      </trkpt>
      <trkpt lat="49.27985" lon="2.37081">
        <ele>74.7</ele>
        <time>2017-05-07T13:41:37Z</time>
      </trkpt>
      <trkpt lat="49.27988" lon="2.37069">
        <ele>74.6</ele>
        <time>2017-05-07T13:41:44Z</time>
      </trkpt>
      <trkpt lat="49.27992" lon="2.37059">
        <ele>74.4</ele>
        <time>2017-05-07T13:41:51Z</time>
      </trkpt>
      <trkpt lat="49.27993" lon="2.37046">
        <ele>74.4</ele>
        <time>2017-05-07T13:41:57Z</time>
      </trkpt>
      <trkpt lat="49.27993" lon="2.37035">
        <ele>74.8</ele>
        <time>2017-05-07T13:42:05Z</time>
      </trkpt>
      <trkpt lat="49.27995" lon="2.37023">
        <ele>74.6</ele>
        <time>2017-05-07T13:42:11Z</time>
      </trkpt>
      <trkpt lat="49.27999" lon="2.37011">
        <ele>73.8</ele>
        <time>2017-05-07T13:42:18Z</time>
      </trkpt>
      <trkpt lat="49.28003" lon="2.37001">
        <ele>73.5</ele>
        <time>2017-05-07T13:42:25Z</time>
      </trkpt>
      <trkpt lat="49.28007" lon="2.36992">
        <ele>73.7</ele>
        <time>2017-05-07T13:42:30Z</time>
      </trkpt>
      <trkpt lat="49.28011" lon="2.36983">
        <ele>74.4</ele>
        <time>2017-05-07T13:42:36Z</time>
      </trkpt>
      <trkpt lat="49.28016" lon="2.36973">
        <ele>75.3</ele>
        <time>2017-05-07T13:42:43Z</time>
      </trkpt>
      <trkpt lat="49.2802" lon="2.36964">
        <ele>75.5</ele>
        <time>2017-05-07T13:42:50Z</time>
      </trkpt>
      <trkpt lat="49.28022" lon="2.36957">
        <ele>75.1</ele>
        <time>2017-05-07T13:42:57Z</time>
      </trkpt>
      <trkpt lat="49.28026" lon="2.36954">
        <ele>75.3</ele>
        <time>2017-05-07T13:43:04Z</time>
      </trkpt>
      <trkpt lat="49.28033" lon="2.36946">
        <ele>75.9</ele>
        <time>2017-05-07T13:43:11Z</time>
      </trkpt>
      <trkpt lat="49.2804" lon="2.36941">
        <ele>76.5</ele>
        <time>2017-05-07T13:43:17Z</time>
      </trkpt>
      <trkpt lat="49.28045" lon="2.36932">
        <ele>76.7</ele>
        <time>2017-05-07T13:43:24Z</time>
      </trkpt>
      <trkpt lat="49.28048" lon="2.36923">
        <ele>76.3</ele>
        <time>2017-05-07T13:43:29Z</time>
      </trkpt>
      <trkpt lat="49.28051" lon="2.36912">
        <ele>76.2</ele>
        <time>2017-05-07T13:43:36Z</time>
      </trkpt>
      <trkpt lat="49.28051" lon="2.36901">
        <ele>76.4</ele>
        <time>2017-05-07T13:43:43Z</time>
      </trkpt>
      <trkpt lat="49.28051" lon="2.36892">
        <ele>75.7</ele>
        <time>2017-05-07T13:43:50Z</time>
      </trkpt>
      <trkpt lat="49.28049" lon="2.36883">
        <ele>74.9</ele>
        <time>2017-05-07T13:43:57Z</time>
      </trkpt>
      <trkpt lat="49.28051" lon="2.36878">
        <ele>74.1</ele>
        <time>2017-05-07T13:44:04Z</time>
      </trkpt>
      <trkpt lat="49.28052" lon="2.36878">
        <ele>74.8</ele>
        <time>2017-05-07T13:44:52Z</time>
      </trkpt>
      <trkpt lat="49.28057" lon="2.36881">
        <ele>75</ele>
        <time>2017-05-07T13:44:59Z</time>
      </trkpt>
      <trkpt lat="49.28065" lon="2.36883">
        <ele>75.2</ele>
        <time>2017-05-07T13:45:06Z</time>
      </trkpt>
      <trkpt lat="49.28069" lon="2.36885">
        <ele>75.1</ele>
        <time>2017-05-07T13:45:12Z</time>
      </trkpt>
      <trkpt lat="49.28076" lon="2.36889">
        <ele>75</ele>
        <time>2017-05-07T13:45:18Z</time>
      </trkpt>
      <trkpt lat="49.28082" lon="2.36891">
        <ele>74.9</ele>
        <time>2017-05-07T13:45:26Z</time>
      </trkpt>
      <trkpt lat="49.28087" lon="2.36898">
        <ele>75.5</ele>
        <time>2017-05-07T13:45:33Z</time>
      </trkpt>
      <trkpt lat="49.28094" lon="2.36899">
        <ele>76.3</ele>
        <time>2017-05-07T13:45:38Z</time>
      </trkpt>
      <trkpt lat="49.28102" lon="2.369">
        <ele>76.4</ele>
        <time>2017-05-07T13:45:46Z</time>
      </trkpt>
      <trkpt lat="49.2811" lon="2.36903">
        <ele>77.2</ele>
        <time>2017-05-07T13:45:51Z</time>
      </trkpt>
      <trkpt lat="49.28116" lon="2.36904">
        <ele>77.6</ele>
        <time>2017-05-07T13:45:58Z</time>
      </trkpt>
      <trkpt lat="49.28123" lon="2.36907">
        <ele>77.8</ele>
        <time>2017-05-07T13:46:05Z</time>
      </trkpt>
      <trkpt lat="49.2813" lon="2.36913">
        <ele>78.4</ele>
        <time>2017-05-07T13:46:11Z</time>
      </trkpt>
      <trkpt lat="49.28137" lon="2.36912">
        <ele>79.1</ele>
        <time>2017-05-07T13:46:18Z</time>
      </trkpt>
      <trkpt lat="49.28144" lon="2.36911">
        <ele>79.2</ele>
        <time>2017-05-07T13:46:25Z</time>
      </trkpt>
      <trkpt lat="49.2815" lon="2.36906">
        <ele>79.1</ele>
        <time>2017-05-07T13:46:32Z</time>
      </trkpt>
      <trkpt lat="49.28155" lon="2.36905">
        <ele>79.1</ele>
        <time>2017-05-07T13:46:38Z</time>
      </trkpt>
      <trkpt lat="49.28162" lon="2.36896">
        <ele>78.8</ele>
        <time>2017-05-07T13:46:45Z</time>
      </trkpt>
      <trkpt lat="49.28168" lon="2.36891">
        <ele>79.2</ele>
        <time>2017-05-07T13:46:51Z</time>
      </trkpt>
      <trkpt lat="49.28175" lon="2.36883">
        <ele>79</ele>
        <time>2017-05-07T13:46:58Z</time>
      </trkpt>
      <trkpt lat="49.28181" lon="2.36875">
        <ele>78.6</ele>
        <time>2017-05-07T13:47:03Z</time>
      </trkpt>
      <trkpt lat="49.28186" lon="2.36865">
        <ele>78</ele>
        <time>2017-05-07T13:47:10Z</time>
      </trkpt>
      <trkpt lat="49.28193" lon="2.36856">
        <ele>77.5</ele>
        <time>2017-05-07T13:47:16Z</time>
      </trkpt>
      <trkpt lat="49.282" lon="2.3685">
        <ele>77.2</ele>
        <time>2017-05-07T13:47:22Z</time>
      </trkpt>
      <trkpt lat="49.28208" lon="2.36845">
        <ele>77.2</ele>
        <time>2017-05-07T13:47:28Z</time>
      </trkpt>
      <trkpt lat="49.28215" lon="2.36841">
        <ele>76.8</ele>
        <time>2017-05-07T13:47:35Z</time>
      </trkpt>
      <trkpt lat="49.2822" lon="2.3684">
        <ele>77</ele>
        <time>2017-05-07T13:47:42Z</time>
      </trkpt>
      <trkpt lat="49.28227" lon="2.36837">
        <ele>77</ele>
        <time>2017-05-07T13:47:48Z</time>
      </trkpt>
      <trkpt lat="49.28232" lon="2.36834">
        <ele>77.2</ele>
        <time>2017-05-07T13:47:55Z</time>
      </trkpt>
      <trkpt lat="49.28238" lon="2.36828">
        <ele>77.1</ele>
        <time>2017-05-07T13:47:59Z</time>
      </trkpt>
      <trkpt lat="49.28245" lon="2.36821">
        <ele>76.9</ele>
        <time>2017-05-07T13:48:05Z</time>
      </trkpt>
      <trkpt lat="49.28252" lon="2.36816">
        <ele>76.3</ele>
        <time>2017-05-07T13:48:10Z</time>
      </trkpt>
      <trkpt lat="49.28259" lon="2.36807">
        <ele>76.1</ele>
        <time>2017-05-07T13:48:17Z</time>
      </trkpt>
      <trkpt lat="49.28263" lon="2.36799">
        <ele>76.3</ele>
        <time>2017-05-07T13:48:23Z</time>
      </trkpt>
      <trkpt lat="49.28267" lon="2.36794">
        <ele>76.7</ele>
        <time>2017-05-07T13:48:30Z</time>
      </trkpt>
      <trkpt lat="49.28272" lon="2.36786">
        <ele>76.7</ele>
        <time>2017-05-07T13:48:35Z</time>
      </trkpt>
      <trkpt lat="49.28276" lon="2.36776">
        <ele>76.2</ele>
        <time>2017-05-07T13:48:39Z</time>
      </trkpt>
      <trkpt lat="49.2828" lon="2.3677">
        <ele>75</ele>
        <time>2017-05-07T13:48:46Z</time>
      </trkpt>
      <trkpt lat="49.28286" lon="2.36762">
        <ele>74</ele>
        <time>2017-05-07T13:48:53Z</time>
      </trkpt>
      <trkpt lat="49.28288" lon="2.36753">
        <ele>73.2</ele>
        <time>2017-05-07T13:49:00Z</time>
      </trkpt>
      <trkpt lat="49.28292" lon="2.3675">
        <ele>72.5</ele>
        <time>2017-05-07T13:49:07Z</time>
      </trkpt>
      <trkpt lat="49.28297" lon="2.36742">
        <ele>71.8</ele>
        <time>2017-05-07T13:49:14Z</time>
      </trkpt>
      <trkpt lat="49.28301" lon="2.36732">
        <ele>71.8</ele>
        <time>2017-05-07T13:49:18Z</time>
      </trkpt>
      <trkpt lat="49.28304" lon="2.36722">
        <ele>71.9</ele>
        <time>2017-05-07T13:49:23Z</time>
      </trkpt>
      <trkpt lat="49.28309" lon="2.36712">
        <ele>71.2</ele>
        <time>2017-05-07T13:49:30Z</time>
      </trkpt>
      <trkpt lat="49.28312" lon="2.36702">
        <ele>70.6</ele>
        <time>2017-05-07T13:49:36Z</time>
      </trkpt>
      <trkpt lat="49.28317" lon="2.36693">
        <ele>70.4</ele>
        <time>2017-05-07T13:49:41Z</time>
      </trkpt>
      <trkpt lat="49.28322" lon="2.36686">
        <ele>71.1</ele>
        <time>2017-05-07T13:49:48Z</time>
      </trkpt>
      <trkpt lat="49.28329" lon="2.36679">
        <ele>72.4</ele>
        <time>2017-05-07T13:49:55Z</time>
      </trkpt>
      <trkpt lat="49.28336" lon="2.36674">
        <ele>73.6</ele>
        <time>2017-05-07T13:50:01Z</time>
      </trkpt>
      <trkpt lat="49.28342" lon="2.36668">
        <ele>74.3</ele>
        <time>2017-05-07T13:50:06Z</time>
      </trkpt>
      <trkpt lat="49.28346" lon="2.36658">
        <ele>74.6</ele>
        <time>2017-05-07T13:50:12Z</time>
      </trkpt>
      <trkpt lat="49.28349" lon="2.36649">
        <ele>74.4</ele>
        <time>2017-05-07T13:50:19Z</time>
      </trkpt>
      <trkpt lat="49.28351" lon="2.36637">
        <ele>74.7</ele>
        <time>2017-05-07T13:50:26Z</time>
      </trkpt>
      <trkpt lat="49.2835" lon="2.36627">
        <ele>75</ele>
        <time>2017-05-07T13:50:31Z</time>
      </trkpt>
      <trkpt lat="49.28352" lon="2.36616">
        <ele>75.1</ele>
        <time>2017-05-07T13:50:37Z</time>
      </trkpt>
      <trkpt lat="49.28354" lon="2.36604">
        <ele>74.5</ele>
        <time>2017-05-07T13:50:44Z</time>
      </trkpt>
      <trkpt lat="49.28355" lon="2.36592">
        <ele>73.5</ele>
        <time>2017-05-07T13:50:50Z</time>
      </trkpt>
      <trkpt lat="49.28354" lon="2.36582">
        <ele>72.8</ele>
        <time>2017-05-07T13:50:57Z</time>
      </trkpt>
      <trkpt lat="49.28355" lon="2.36571">
        <ele>72.7</ele>
        <time>2017-05-07T13:51:03Z</time>
      </trkpt>
      <trkpt lat="49.28356" lon="2.36559">
        <ele>72.5</ele>
        <time>2017-05-07T13:51:07Z</time>
      </trkpt>
      <trkpt lat="49.28355" lon="2.36552">
        <ele>72.5</ele>
        <time>2017-05-07T13:51:14Z</time>
      </trkpt>
      <trkpt lat="49.28357" lon="2.36547">
        <ele>72.9</ele>
        <time>2017-05-07T13:51:21Z</time>
      </trkpt>
      <trkpt lat="49.2836" lon="2.36537">
        <ele>73.5</ele>
        <time>2017-05-07T13:51:25Z</time>
      </trkpt>
      <trkpt lat="49.28364" lon="2.36527">
        <ele>73.9</ele>
        <time>2017-05-07T13:51:30Z</time>
      </trkpt>
      <trkpt lat="49.28365" lon="2.36515">
        <ele>74.4</ele>
        <time>2017-05-07T13:51:34Z</time>
      </trkpt>
      <trkpt lat="49.28361" lon="2.36503">
        <ele>74.8</ele>
        <time>2017-05-07T13:51:39Z</time>
      </trkpt>
      <trkpt lat="49.28358" lon="2.36495">
        <ele>74.9</ele>
        <time>2017-05-07T13:51:46Z</time>
      </trkpt>
      <trkpt lat="49.28354" lon="2.36489">
        <ele>75.4</ele>
        <time>2017-05-07T13:51:53Z</time>
      </trkpt>
      <trkpt lat="49.28345" lon="2.36484">
        <ele>75.7</ele>
        <time>2017-05-07T13:51:58Z</time>
      </trkpt>
      <trkpt lat="49.28338" lon="2.36481">
        <ele>76</ele>
        <time>2017-05-07T13:52:04Z</time>
      </trkpt>
      <trkpt lat="49.28331" lon="2.36481">
        <ele>76.4</ele>
        <time>2017-05-07T13:52:11Z</time>
      </trkpt>
      <trkpt lat="49.28329" lon="2.36488">
        <ele>76.1</ele>
        <time>2017-05-07T13:52:18Z</time>
      </trkpt>
      <trkpt lat="49.28329" lon="2.36493">
        <ele>76.1</ele>
        <time>2017-05-07T13:52:25Z</time>
      </trkpt>
      <trkpt lat="49.28329" lon="2.36491">
        <ele>76.2</ele>
        <time>2017-05-07T13:52:32Z</time>
      </trkpt>
      <trkpt lat="49.28331" lon="2.36489">
        <ele>76.6</ele>
        <time>2017-05-07T13:52:43Z</time>
      </trkpt>
      <trkpt lat="49.28326" lon="2.36495">
        <ele>77</ele>
        <time>2017-05-07T13:52:57Z</time>
      </trkpt>
      <trkpt lat="49.28328" lon="2.36498">
        <ele>76.6</ele>
        <time>2017-05-07T13:53:04Z</time>
      </trkpt>
      <trkpt lat="49.28329" lon="2.36503">
        <ele>76.8</ele>
        <time>2017-05-07T13:53:11Z</time>
      </trkpt>
      <trkpt lat="49.28329" lon="2.36505">
        <ele>76.1</ele>
        <time>2017-05-07T13:53:18Z</time>
      </trkpt>
      <trkpt lat="49.28327" lon="2.36488">
        <ele>66.9</ele>
        <time>2017-05-07T13:52:56Z</time>
      </trkpt>
      <trkpt lat="49.28327" lon="2.36483">
        <ele>66.7</ele>
        <time>2017-05-07T13:54:09Z</time>
      </trkpt>
      <trkpt lat="49.28325" lon="2.36484">
        <ele>67.2</ele>
        <time>2017-05-07T13:54:16Z</time>
      </trkpt>
      <trkpt lat="49.28317" lon="2.36484">
        <ele>67.4</ele>
        <time>2017-05-07T13:54:27Z</time>
      </trkpt>
      <trkpt lat="49.28309" lon="2.36483">
        <ele>67.9</ele>
        <time>2017-05-07T13:54:33Z</time>
      </trkpt>
      <trkpt lat="49.28301" lon="2.36481">
        <ele>68.7</ele>
        <time>2017-05-07T13:54:40Z</time>
      </trkpt>
      <trkpt lat="49.28295" lon="2.36478">
        <ele>69.3</ele>
        <time>2017-05-07T13:54:47Z</time>
      </trkpt>
      <trkpt lat="49.28287" lon="2.36479">
        <ele>69.7</ele>
        <time>2017-05-07T13:54:52Z</time>
      </trkpt>
      <trkpt lat="49.28279" lon="2.36478">
        <ele>70</ele>
        <time>2017-05-07T13:54:57Z</time>
      </trkpt>
      <trkpt lat="49.28272" lon="2.36478">
        <ele>69.7</ele>
        <time>2017-05-07T13:55:03Z</time>
      </trkpt>
      <trkpt lat="49.28265" lon="2.36476">
        <ele>69.4</ele>
        <time>2017-05-07T13:55:07Z</time>
      </trkpt>
      <trkpt lat="49.28259" lon="2.36473">
        <ele>69.7</ele>
        <time>2017-05-07T13:55:14Z</time>
      </trkpt>
      <trkpt lat="49.28252" lon="2.3647">
        <ele>69.7</ele>
        <time>2017-05-07T13:55:19Z</time>
      </trkpt>
      <trkpt lat="49.28246" lon="2.3647">
        <ele>70.2</ele>
        <time>2017-05-07T13:55:26Z</time>
      </trkpt>
      <trkpt lat="49.28238" lon="2.36468">
        <ele>70</ele>
        <time>2017-05-07T13:55:30Z</time>
      </trkpt>
      <trkpt lat="49.28231" lon="2.36468">
        <ele>69.5</ele>
        <time>2017-05-07T13:55:37Z</time>
      </trkpt>
      <trkpt lat="49.28222" lon="2.36469">
        <ele>69.1</ele>
        <time>2017-05-07T13:55:43Z</time>
      </trkpt>
      <trkpt lat="49.28214" lon="2.36467">
        <ele>69</ele>
        <time>2017-05-07T13:55:49Z</time>
      </trkpt>
      <trkpt lat="49.28205" lon="2.36468">
        <ele>69.4</ele>
        <time>2017-05-07T13:55:55Z</time>
      </trkpt>
      <trkpt lat="49.28202" lon="2.36468">
        <ele>69.9</ele>
        <time>2017-05-07T13:56:02Z</time>
      </trkpt>
      <trkpt lat="49.28197" lon="2.36464">
        <ele>70.4</ele>
        <time>2017-05-07T13:56:09Z</time>
      </trkpt>
      <trkpt lat="49.28189" lon="2.3646">
        <ele>71.1</ele>
        <time>2017-05-07T13:56:16Z</time>
      </trkpt>
      <trkpt lat="49.28182" lon="2.36455">
        <ele>71.8</ele>
        <time>2017-05-07T13:56:22Z</time>
      </trkpt>
      <trkpt lat="49.28177" lon="2.36453">
        <ele>72.4</ele>
        <time>2017-05-07T13:56:29Z</time>
      </trkpt>
      <trkpt lat="49.28169" lon="2.36449">
        <ele>73.1</ele>
        <time>2017-05-07T13:56:35Z</time>
      </trkpt>
      <trkpt lat="49.28161" lon="2.36448">
        <ele>73.7</ele>
        <time>2017-05-07T13:56:42Z</time>
      </trkpt>
      <trkpt lat="49.28154" lon="2.36444">
        <ele>74.1</ele>
        <time>2017-05-07T13:56:48Z</time>
      </trkpt>
      <trkpt lat="49.28146" lon="2.36439">
        <ele>74.7</ele>
        <time>2017-05-07T13:56:55Z</time>
      </trkpt>
      <trkpt lat="49.28138" lon="2.36435">
        <ele>75.1</ele>
        <time>2017-05-07T13:57:01Z</time>
      </trkpt>
      <trkpt lat="49.28131" lon="2.36432">
        <ele>75.5</ele>
        <time>2017-05-07T13:57:08Z</time>
      </trkpt>
      <trkpt lat="49.28124" lon="2.3643">
        <ele>75.6</ele>
        <time>2017-05-07T13:57:13Z</time>
      </trkpt>
      <trkpt lat="49.28116" lon="2.36429">
        <ele>75.9</ele>
        <time>2017-05-07T13:57:20Z</time>
      </trkpt>
      <trkpt lat="49.28109" lon="2.3643">
        <ele>76.1</ele>
        <time>2017-05-07T13:57:27Z</time>
      </trkpt>
      <trkpt lat="49.28102" lon="2.36428">
        <ele>76.2</ele>
        <time>2017-05-07T13:57:31Z</time>
      </trkpt>
      <trkpt lat="49.28094" lon="2.36429">
        <ele>76</ele>
        <time>2017-05-07T13:57:38Z</time>
      </trkpt>
      <trkpt lat="49.28091" lon="2.36432">
        <ele>75.2</ele>
        <time>2017-05-07T13:57:45Z</time>
      </trkpt>
      <trkpt lat="49.28083" lon="2.36437">
        <ele>75.2</ele>
        <time>2017-05-07T13:57:52Z</time>
      </trkpt>
      <trkpt lat="49.28075" lon="2.36439">
        <ele>74.5</ele>
        <time>2017-05-07T13:57:59Z</time>
      </trkpt>
      <trkpt lat="49.28068" lon="2.36444">
        <ele>74.3</ele>
        <time>2017-05-07T13:58:06Z</time>
      </trkpt>
      <trkpt lat="49.28061" lon="2.36447">
        <ele>73.8</ele>
        <time>2017-05-07T13:58:13Z</time>
      </trkpt>
      <trkpt lat="49.28052" lon="2.36448">
        <ele>73.6</ele>
        <time>2017-05-07T13:58:19Z</time>
      </trkpt>
      <trkpt lat="49.28044" lon="2.36449">
        <ele>73.4</ele>
        <time>2017-05-07T13:58:26Z</time>
      </trkpt>
      <trkpt lat="49.28036" lon="2.36447">
        <ele>73.2</ele>
        <time>2017-05-07T13:58:31Z</time>
      </trkpt>
      <trkpt lat="49.28027" lon="2.36448">
        <ele>72.9</ele>
        <time>2017-05-07T13:58:35Z</time>
      </trkpt>
      <trkpt lat="49.2802" lon="2.36446">
        <ele>72.8</ele>
        <time>2017-05-07T13:58:42Z</time>
      </trkpt>
      <trkpt lat="49.28013" lon="2.36445">
        <ele>73.2</ele>
        <time>2017-05-07T13:58:48Z</time>
      </trkpt>
      <trkpt lat="49.28005" lon="2.36442">
        <ele>73.4</ele>
        <time>2017-05-07T13:58:53Z</time>
      </trkpt>
      <trkpt lat="49.27998" lon="2.3644">
        <ele>73.5</ele>
        <time>2017-05-07T13:59:00Z</time>
      </trkpt>
      <trkpt lat="49.27989" lon="2.36438">
        <ele>73.4</ele>
        <time>2017-05-07T13:59:05Z</time>
      </trkpt>
      <trkpt lat="49.27981" lon="2.36437">
        <ele>73.4</ele>
        <time>2017-05-07T13:59:12Z</time>
      </trkpt>
      <trkpt lat="49.27973" lon="2.36437">
        <ele>73.7</ele>
        <time>2017-05-07T13:59:19Z</time>
      </trkpt>
      <trkpt lat="49.27965" lon="2.36435">
        <ele>74.3</ele>
        <time>2017-05-07T13:59:25Z</time>
      </trkpt>
      <trkpt lat="49.27959" lon="2.3643">
        <ele>75.1</ele>
        <time>2017-05-07T13:59:32Z</time>
      </trkpt>
      <trkpt lat="49.27955" lon="2.36425">
        <ele>75.2</ele>
        <time>2017-05-07T13:59:39Z</time>
      </trkpt>
      <trkpt lat="49.27949" lon="2.36419">
        <ele>75.2</ele>
        <time>2017-05-07T13:59:46Z</time>
      </trkpt>
      <trkpt lat="49.27943" lon="2.36411">
        <ele>74.8</ele>
        <time>2017-05-07T13:59:53Z</time>
      </trkpt>
      <trkpt lat="49.27944" lon="2.36399">
        <ele>74.3</ele>
        <time>2017-05-07T14:00:00Z</time>
      </trkpt>
      <trkpt lat="49.27944" lon="2.36391">
        <ele>74.2</ele>
        <time>2017-05-07T14:00:07Z</time>
      </trkpt>
      <trkpt lat="49.27946" lon="2.36379">
        <ele>73.5</ele>
        <time>2017-05-07T14:00:14Z</time>
      </trkpt>
      <trkpt lat="49.27946" lon="2.3637">
        <ele>73.3</ele>
        <time>2017-05-07T14:00:21Z</time>
      </trkpt>
      <trkpt lat="49.27943" lon="2.36358">
        <ele>73.4</ele>
        <time>2017-05-07T14:00:28Z</time>
      </trkpt>
      <trkpt lat="49.27942" lon="2.36349">
        <ele>74.1</ele>
        <time>2017-05-07T14:00:35Z</time>
      </trkpt>
      <trkpt lat="49.27938" lon="2.36341">
        <ele>74.9</ele>
        <time>2017-05-07T14:00:42Z</time>
      </trkpt>
      <trkpt lat="49.27931" lon="2.36338">
        <ele>75.1</ele>
        <time>2017-05-07T14:00:46Z</time>
      </trkpt>
      <trkpt lat="49.27922" lon="2.36339">
        <ele>75</ele>
        <time>2017-05-07T14:00:52Z</time>
      </trkpt>
      <trkpt lat="49.27917" lon="2.36339">
        <ele>74.9</ele>
        <time>2017-05-07T14:00:59Z</time>
      </trkpt>
      <trkpt lat="49.2791" lon="2.36341">
        <ele>75.1</ele>
        <time>2017-05-07T14:01:06Z</time>
      </trkpt>
      <trkpt lat="49.27902" lon="2.36343">
        <ele>75.5</ele>
        <time>2017-05-07T14:01:13Z</time>
      </trkpt>
      <trkpt lat="49.27895" lon="2.36349">
        <ele>75.3</ele>
        <time>2017-05-07T14:01:16Z</time>
      </trkpt>
      <trkpt lat="49.27887" lon="2.36356">
        <ele>75.5</ele>
        <time>2017-05-07T14:01:23Z</time>
      </trkpt>
      <trkpt lat="49.27881" lon="2.3636">
        <ele>75.2</ele>
        <time>2017-05-07T14:01:30Z</time>
      </trkpt>
      <trkpt lat="49.27875" lon="2.36363">
        <ele>75.5</ele>
        <time>2017-05-07T14:01:37Z</time>
      </trkpt>
      <trkpt lat="49.27867" lon="2.36367">
        <ele>75.8</ele>
        <time>2017-05-07T14:01:42Z</time>
      </trkpt>
      <trkpt lat="49.27859" lon="2.36367">
        <ele>76</ele>
        <time>2017-05-07T14:01:49Z</time>
      </trkpt>
      <trkpt lat="49.27851" lon="2.36368">
        <ele>76</ele>
        <time>2017-05-07T14:01:54Z</time>
      </trkpt>
      <trkpt lat="49.27843" lon="2.36364">
        <ele>76.3</ele>
        <time>2017-05-07T14:01:59Z</time>
      </trkpt>
      <trkpt lat="49.2784" lon="2.36364">
        <ele>76.6</ele>
        <time>2017-05-07T14:02:06Z</time>
      </trkpt>
      <trkpt lat="49.27835" lon="2.36364">
        <ele>77.6</ele>
        <time>2017-05-07T14:02:13Z</time>
      </trkpt>
      <trkpt lat="49.27825" lon="2.3636">
        <ele>78.4</ele>
        <time>2017-05-07T14:02:19Z</time>
      </trkpt>
      <trkpt lat="49.27816" lon="2.3636">
        <ele>79.1</ele>
        <time>2017-05-07T14:02:26Z</time>
      </trkpt>
      <trkpt lat="49.27809" lon="2.36359">
        <ele>79.2</ele>
        <time>2017-05-07T14:02:33Z</time>
      </trkpt>
      <trkpt lat="49.27802" lon="2.36355">
        <ele>78.7</ele>
        <time>2017-05-07T14:02:38Z</time>
      </trkpt>
      <trkpt lat="49.27797" lon="2.36353">
        <ele>78.5</ele>
        <time>2017-05-07T14:02:45Z</time>
      </trkpt>
      <trkpt lat="49.2779" lon="2.3635">
        <ele>78.5</ele>
        <time>2017-05-07T14:02:52Z</time>
      </trkpt>
      <trkpt lat="49.27783" lon="2.36348">
        <ele>78.8</ele>
        <time>2017-05-07T14:02:59Z</time>
      </trkpt>
      <trkpt lat="49.27776" lon="2.36344">
        <ele>78.9</ele>
        <time>2017-05-07T14:03:05Z</time>
      </trkpt>
      <trkpt lat="49.27768" lon="2.3634">
        <ele>79.2</ele>
        <time>2017-05-07T14:03:10Z</time>
      </trkpt>
      <trkpt lat="49.2776" lon="2.36338">
        <ele>79.6</ele>
        <time>2017-05-07T14:03:13Z</time>
      </trkpt>
      <trkpt lat="49.27754" lon="2.36331">
        <ele>80.4</ele>
        <time>2017-05-07T14:03:20Z</time>
      </trkpt>
      <trkpt lat="49.27751" lon="2.36331">
        <ele>80.9</ele>
        <time>2017-05-07T14:03:27Z</time>
      </trkpt>
      <trkpt lat="49.27743" lon="2.3633">
        <ele>81.2</ele>
        <time>2017-05-07T14:03:32Z</time>
      </trkpt>
      <trkpt lat="49.27733" lon="2.36326">
        <ele>81.8</ele>
        <time>2017-05-07T14:03:37Z</time>
      </trkpt>
      <trkpt lat="49.27727" lon="2.36325">
        <ele>81.5</ele>
        <time>2017-05-07T14:03:44Z</time>
      </trkpt>
      <trkpt lat="49.27719" lon="2.3632">
        <ele>81.1</ele>
        <time>2017-05-07T14:03:50Z</time>
      </trkpt>
      <trkpt lat="49.27711" lon="2.3632">
        <ele>80.5</ele>
        <time>2017-05-07T14:03:56Z</time>
      </trkpt>
      <trkpt lat="49.27707" lon="2.36322">
        <ele>79.7</ele>
        <time>2017-05-07T14:04:03Z</time>
      </trkpt>
      <trkpt lat="49.27702" lon="2.36321">
        <ele>79</ele>
        <time>2017-05-07T14:04:10Z</time>
      </trkpt>
      <trkpt lat="49.27695" lon="2.3632">
        <ele>78.4</ele>
        <time>2017-05-07T14:04:17Z</time>
      </trkpt>
      <trkpt lat="49.2769" lon="2.3632">
        <ele>77.5</ele>
        <time>2017-05-07T14:04:24Z</time>
      </trkpt>
      <trkpt lat="49.27683" lon="2.36321">
        <ele>76.3</ele>
        <time>2017-05-07T14:04:31Z</time>
      </trkpt>
      <trkpt lat="49.27676" lon="2.36322">
        <ele>75.7</ele>
        <time>2017-05-07T14:04:35Z</time>
      </trkpt>
      <trkpt lat="49.27667" lon="2.3632">
        <ele>75.2</ele>
        <time>2017-05-07T14:04:42Z</time>
      </trkpt>
      <trkpt lat="49.27659" lon="2.36317">
        <ele>75</ele>
        <time>2017-05-07T14:04:49Z</time>
      </trkpt>
      <trkpt lat="49.2765" lon="2.36321">
        <ele>75.1</ele>
        <time>2017-05-07T14:04:55Z</time>
      </trkpt>
      <trkpt lat="49.27643" lon="2.36318">
        <ele>74.8</ele>
        <time>2017-05-07T14:05:02Z</time>
      </trkpt>
      <trkpt lat="49.27635" lon="2.36322">
        <ele>74.8</ele>
        <time>2017-05-07T14:05:09Z</time>
      </trkpt>
      <trkpt lat="49.27628" lon="2.36322">
        <ele>75.3</ele>
        <time>2017-05-07T14:05:16Z</time>
      </trkpt>
      <trkpt lat="49.27621" lon="2.36327">
        <ele>76.3</ele>
        <time>2017-05-07T14:05:22Z</time>
      </trkpt>
      <trkpt lat="49.27616" lon="2.3633">
        <ele>77.4</ele>
        <time>2017-05-07T14:05:29Z</time>
      </trkpt>
      <trkpt lat="49.2761" lon="2.36333">
        <ele>77.4</ele>
        <time>2017-05-07T14:05:36Z</time>
      </trkpt>
      <trkpt lat="49.27603" lon="2.36333">
        <ele>78</ele>
        <time>2017-05-07T14:05:42Z</time>
      </trkpt>
      <trkpt lat="49.27596" lon="2.36336">
        <ele>78.7</ele>
        <time>2017-05-07T14:05:48Z</time>
      </trkpt>
      <trkpt lat="49.27586" lon="2.36332">
        <ele>79</ele>
        <time>2017-05-07T14:05:50Z</time>
      </trkpt>
      <trkpt lat="49.27579" lon="2.36328">
        <ele>78.8</ele>
        <time>2017-05-07T14:05:55Z</time>
      </trkpt>
      <trkpt lat="49.27572" lon="2.36322">
        <ele>76.2</ele>
        <time>2017-05-07T14:06:21Z</time>
      </trkpt>
      <trkpt lat="49.27564" lon="2.3632">
        <ele>76.7</ele>
        <time>2017-05-07T14:06:25Z</time>
      </trkpt>
      <trkpt lat="49.27557" lon="2.36313">
        <ele>77.1</ele>
        <time>2017-05-07T14:06:32Z</time>
      </trkpt>
      <trkpt lat="49.27551" lon="2.36309">
        <ele>77.4</ele>
        <time>2017-05-07T14:06:36Z</time>
      </trkpt>
      <trkpt lat="49.27547" lon="2.36304">
        <ele>78.5</ele>
        <time>2017-05-07T14:06:43Z</time>
      </trkpt>
      <trkpt lat="49.27543" lon="2.36302">
        <ele>79</ele>
        <time>2017-05-07T14:06:50Z</time>
      </trkpt>
      <trkpt lat="49.27533" lon="2.36298">
        <ele>79.9</ele>
        <time>2017-05-07T14:06:56Z</time>
      </trkpt>
      <trkpt lat="49.27526" lon="2.36293">
        <ele>80.4</ele>
        <time>2017-05-07T14:06:58Z</time>
      </trkpt>
      <trkpt lat="49.27519" lon="2.36288">
        <ele>80.8</ele>
        <time>2017-05-07T14:07:04Z</time>
      </trkpt>
      <trkpt lat="49.27514" lon="2.36287">
        <ele>81.6</ele>
        <time>2017-05-07T14:07:11Z</time>
      </trkpt>
      <trkpt lat="49.27503" lon="2.36287">
        <ele>82.1</ele>
        <time>2017-05-07T14:07:14Z</time>
      </trkpt>
      <trkpt lat="49.27502" lon="2.36286">
        <ele>82.2</ele>
        <time>2017-05-07T14:07:21Z</time>
      </trkpt>
      <trkpt lat="49.27503" lon="2.36287">
        <ele>82</ele>
        <time>2017-05-07T14:07:30Z</time>
      </trkpt>
      <trkpt lat="49.27499" lon="2.36287">
        <ele>77.9</ele>
        <time>2017-05-07T14:07:15Z</time>
      </trkpt>
      <trkpt lat="49.27495" lon="2.36287">
        <ele>77.5</ele>
        <time>2017-05-07T14:08:28Z</time>
      </trkpt>
      <trkpt lat="49.27488" lon="2.3629">
        <ele>77.6</ele>
        <time>2017-05-07T14:08:35Z</time>
      </trkpt>
      <trkpt lat="49.2748" lon="2.36289">
        <ele>77.5</ele>
        <time>2017-05-07T14:08:39Z</time>
      </trkpt>
      <trkpt lat="49.27472" lon="2.36288">
        <ele>77.5</ele>
        <time>2017-05-07T14:08:46Z</time>
      </trkpt>
      <trkpt lat="49.27469" lon="2.36287">
        <ele>77.8</ele>
        <time>2017-05-07T14:08:53Z</time>
      </trkpt>
      <trkpt lat="49.2746" lon="2.36285">
        <ele>78.5</ele>
        <time>2017-05-07T14:09:00Z</time>
      </trkpt>
      <trkpt lat="49.27455" lon="2.36281">
        <ele>78.8</ele>
        <time>2017-05-07T14:09:07Z</time>
      </trkpt>
      <trkpt lat="49.27447" lon="2.36278">
        <ele>79.1</ele>
        <time>2017-05-07T14:09:12Z</time>
      </trkpt>
      <trkpt lat="49.27443" lon="2.36278">
        <ele>79.3</ele>
        <time>2017-05-07T14:09:19Z</time>
      </trkpt>
      <trkpt lat="49.27434" lon="2.36274">
        <ele>79.4</ele>
        <time>2017-05-07T14:09:26Z</time>
      </trkpt>
      <trkpt lat="49.27427" lon="2.36274">
        <ele>79.2</ele>
        <time>2017-05-07T14:09:33Z</time>
      </trkpt>
      <trkpt lat="49.2742" lon="2.36276">
        <ele>79.8</ele>
        <time>2017-05-07T14:09:40Z</time>
      </trkpt>
      <trkpt lat="49.27412" lon="2.36278">
        <ele>79.6</ele>
        <time>2017-05-07T14:09:47Z</time>
      </trkpt>
      <trkpt lat="49.27405" lon="2.36281">
        <ele>78.7</ele>
        <time>2017-05-07T14:09:54Z</time>
      </trkpt>
      <trkpt lat="49.27402" lon="2.36283">
        <ele>78.1</ele>
        <time>2017-05-07T14:10:01Z</time>
      </trkpt>
      <trkpt lat="49.274" lon="2.36282">
        <ele>77.4</ele>
        <time>2017-05-07T14:10:08Z</time>
      </trkpt>
      <trkpt lat="49.27399" lon="2.36283">
        <ele>77.2</ele>
        <time>2017-05-07T14:10:15Z</time>
      </trkpt>
      <trkpt lat="49.27396" lon="2.36292">
        <ele>77.9</ele>
        <time>2017-05-07T14:09:43Z</time>
      </trkpt>
      <trkpt lat="49.27391" lon="2.36297">
        <ele>77.5</ele>
        <time>2017-05-07T14:10:56Z</time>
      </trkpt>
      <trkpt lat="49.27384" lon="2.36304">
        <ele>77.2</ele>
        <time>2017-05-07T14:11:02Z</time>
      </trkpt>
      <trkpt lat="49.2738" lon="2.36311">
        <ele>76.5</ele>
        <time>2017-05-07T14:11:09Z</time>
      </trkpt>
      <trkpt lat="49.27378" lon="2.36319">
        <ele>75.7</ele>
        <time>2017-05-07T14:11:16Z</time>
      </trkpt>
      <trkpt lat="49.27373" lon="2.36329">
        <ele>75.2</ele>
        <time>2017-05-07T14:11:22Z</time>
      </trkpt>
      <trkpt lat="49.27367" lon="2.36339">
        <ele>75.2</ele>
        <time>2017-05-07T14:11:29Z</time>
      </trkpt>
      <trkpt lat="49.27363" lon="2.36349">
        <ele>74.7</ele>
        <time>2017-05-07T14:11:36Z</time>
      </trkpt>
      <trkpt lat="49.2736" lon="2.3636">
        <ele>74.4</ele>
        <time>2017-05-07T14:11:42Z</time>
      </trkpt>
      <trkpt lat="49.27357" lon="2.36368">
        <ele>74.3</ele>
        <time>2017-05-07T14:11:49Z</time>
      </trkpt>
      <trkpt lat="49.27356" lon="2.36378">
        <ele>74.1</ele>
        <time>2017-05-07T14:11:56Z</time>
      </trkpt>
      <trkpt lat="49.27351" lon="2.36386">
        <ele>74.1</ele>
        <time>2017-05-07T14:12:03Z</time>
      </trkpt>
      <trkpt lat="49.27344" lon="2.36396">
        <ele>73.7</ele>
        <time>2017-05-07T14:12:10Z</time>
      </trkpt>
      <trkpt lat="49.2734" lon="2.36403">
        <ele>73.3</ele>
        <time>2017-05-07T14:12:16Z</time>
      </trkpt>
      <trkpt lat="49.27334" lon="2.36411">
        <ele>73.1</ele>
        <time>2017-05-07T14:12:22Z</time>
      </trkpt>
      <trkpt lat="49.27331" lon="2.36422">
        <ele>73.4</ele>
        <time>2017-05-07T14:12:29Z</time>
      </trkpt>
      <trkpt lat="49.27327" lon="2.36432">
        <ele>73.6</ele>
        <time>2017-05-07T14:12:36Z</time>
      </trkpt>
      <trkpt lat="49.27324" lon="2.36439">
        <ele>73.8</ele>
        <time>2017-05-07T14:12:43Z</time>
      </trkpt>
      <trkpt lat="49.2732" lon="2.36447">
        <ele>74.1</ele>
        <time>2017-05-07T14:12:50Z</time>
      </trkpt>
      <trkpt lat="49.27318" lon="2.36451">
        <ele>75.1</ele>
        <time>2017-05-07T14:12:57Z</time>
      </trkpt>
      <trkpt lat="49.27314" lon="2.36456">
        <ele>75.6</ele>
        <time>2017-05-07T14:13:04Z</time>
      </trkpt>
      <trkpt lat="49.27311" lon="2.36454">
        <ele>75.9</ele>
        <time>2017-05-07T14:13:11Z</time>
      </trkpt>
      <trkpt lat="49.27308" lon="2.36448">
        <ele>76.2</ele>
        <time>2017-05-07T14:13:18Z</time>
      </trkpt>
      <trkpt lat="49.273" lon="2.36443">
        <ele>76.5</ele>
        <time>2017-05-07T14:13:24Z</time>
      </trkpt>
      <trkpt lat="49.27294" lon="2.36438">
        <ele>77.2</ele>
        <time>2017-05-07T14:13:30Z</time>
      </trkpt>
      <trkpt lat="49.27288" lon="2.36431">
        <ele>77.8</ele>
        <time>2017-05-07T14:13:36Z</time>
      </trkpt>
      <trkpt lat="49.27289" lon="2.36429">
        <ele>79</ele>
        <time>2017-05-07T14:13:43Z</time>
      </trkpt>
      <trkpt lat="49.27283" lon="2.36426">
        <ele>79.7</ele>
        <time>2017-05-07T14:13:50Z</time>
      </trkpt>
      <trkpt lat="49.27277" lon="2.3642">
        <ele>79.9</ele>
        <time>2017-05-07T14:13:56Z</time>
      </trkpt>
      <trkpt lat="49.27275" lon="2.36414">
        <ele>79.2</ele>
        <time>2017-05-07T14:14:03Z</time>
      </trkpt>
      <trkpt lat="49.27272" lon="2.36411">
        <ele>78.7</ele>
        <time>2017-05-07T14:14:10Z</time>
      </trkpt>
      <trkpt lat="49.2727" lon="2.3641">
        <ele>79.4</ele>
        <time>2017-05-07T14:14:17Z</time>
      </trkpt>
      <trkpt lat="49.27268" lon="2.36407">
        <ele>80.5</ele>
        <time>2017-05-07T14:14:24Z</time>
      </trkpt>
      <trkpt lat="49.27268" lon="2.36405">
        <ele>79.5</ele>
        <time>2017-05-07T14:14:35Z</time>
      </trkpt>
      <trkpt lat="49.27273" lon="2.364">
        <ele>79.4</ele>
        <time>2017-05-07T14:14:44Z</time>
      </trkpt>
      <trkpt lat="49.27277" lon="2.36404">
        <ele>79</ele>
        <time>2017-05-07T14:14:51Z</time>
      </trkpt>
      <trkpt lat="49.27277" lon="2.36405">
        <ele>78.8</ele>
        <time>2017-05-07T14:14:58Z</time>
      </trkpt>
      <trkpt lat="49.27273" lon="2.36406">
        <ele>79.1</ele>
        <time>2017-05-07T14:15:17Z</time>
      </trkpt>
      <trkpt lat="49.2727" lon="2.36411">
        <ele>78.1</ele>
        <time>2017-05-07T14:15:31Z</time>
      </trkpt>
      <trkpt lat="49.27265" lon="2.36413">
        <ele>76.7</ele>
        <time>2017-05-07T14:15:38Z</time>
      </trkpt>
      <trkpt lat="49.27265" lon="2.3641">
        <ele>76.2</ele>
        <time>2017-05-07T14:15:45Z</time>
      </trkpt>
      <trkpt lat="49.2727" lon="2.36401">
        <ele>78.3</ele>
        <time>2017-05-07T14:16:11Z</time>
      </trkpt>
      <trkpt lat="49.2727" lon="2.36407">
        <ele>82.7</ele>
        <time>2017-05-07T14:16:27Z</time>
      </trkpt>
      <trkpt lat="49.27268" lon="2.36401">
        <ele>81.3</ele>
        <time>2017-05-07T14:16:38Z</time>
      </trkpt>
      <trkpt lat="49.2727" lon="2.36392">
        <ele>81.6</ele>
        <time>2017-05-07T14:16:45Z</time>
      </trkpt>
      <trkpt lat="49.2727" lon="2.36394">
        <ele>81.7</ele>
        <time>2017-05-07T14:16:58Z</time>
      </trkpt>
      <trkpt lat="49.27266" lon="2.36394">
        <ele>81.9</ele>
        <time>2017-05-07T14:16:29Z</time>
      </trkpt>
      <trkpt lat="49.27259" lon="2.36397">
        <ele>82</ele>
        <time>2017-05-07T14:17:41Z</time>
      </trkpt>
      <trkpt lat="49.27256" lon="2.36391">
        <ele>81.2</ele>
        <time>2017-05-07T14:17:48Z</time>
      </trkpt>
      <trkpt lat="49.27251" lon="2.36386">
        <ele>80.1</ele>
        <time>2017-05-07T14:17:55Z</time>
      </trkpt>
      <trkpt lat="49.2725" lon="2.36376">
        <ele>79.5</ele>
        <time>2017-05-07T14:18:02Z</time>
      </trkpt>
      <trkpt lat="49.27248" lon="2.36367">
        <ele>79.6</ele>
        <time>2017-05-07T14:18:09Z</time>
      </trkpt>
      <trkpt lat="49.27248" lon="2.36368">
        <ele>79.8</ele>
        <time>2017-05-07T14:18:16Z</time>
      </trkpt>
      <trkpt lat="49.27241" lon="2.36374">
        <ele>80.6</ele>
        <time>2017-05-07T14:18:25Z</time>
      </trkpt>
      <trkpt lat="49.27239" lon="2.36371">
        <ele>81.2</ele>
        <time>2017-05-07T14:18:32Z</time>
      </trkpt>
      <trkpt lat="49.27238" lon="2.36359">
        <ele>81.2</ele>
        <time>2017-05-07T14:18:39Z</time>
      </trkpt>
      <trkpt lat="49.27241" lon="2.3635">
        <ele>81.1</ele>
        <time>2017-05-07T14:18:46Z</time>
      </trkpt>
      <trkpt lat="49.2724" lon="2.36339">
        <ele>80.5</ele>
        <time>2017-05-07T14:18:50Z</time>
      </trkpt>
      <trkpt lat="49.27239" lon="2.36327">
        <ele>79.2</ele>
        <time>2017-05-07T14:18:57Z</time>
      </trkpt>
      <trkpt lat="49.27243" lon="2.36318">
        <ele>78.2</ele>
        <time>2017-05-07T14:19:04Z</time>
      </trkpt>
      <trkpt lat="49.27244" lon="2.36309">
        <ele>77.8</ele>
        <time>2017-05-07T14:19:11Z</time>
      </trkpt>
      <trkpt lat="49.27246" lon="2.36298">
        <ele>77</ele>
        <time>2017-05-07T14:19:17Z</time>
      </trkpt>
      <trkpt lat="49.27248" lon="2.36295">
        <ele>75.9</ele>
        <time>2017-05-07T14:19:24Z</time>
      </trkpt>
      <trkpt lat="49.27251" lon="2.36286">
        <ele>75.4</ele>
        <time>2017-05-07T14:19:31Z</time>
      </trkpt>
      <trkpt lat="49.27255" lon="2.36276">
        <ele>75.1</ele>
        <time>2017-05-07T14:19:38Z</time>
      </trkpt>
      <trkpt lat="49.27258" lon="2.36264">
        <ele>75</ele>
        <time>2017-05-07T14:19:44Z</time>
      </trkpt>
      <trkpt lat="49.27261" lon="2.36254">
        <ele>75.4</ele>
        <time>2017-05-07T14:19:50Z</time>
      </trkpt>
      <trkpt lat="49.27261" lon="2.36251">
        <ele>76.1</ele>
        <time>2017-05-07T14:19:57Z</time>
      </trkpt>
      <trkpt lat="49.27263" lon="2.36247">
        <ele>76.8</ele>
        <time>2017-05-07T14:20:48Z</time>
      </trkpt>
      <trkpt lat="49.27263" lon="2.3624">
        <ele>76.1</ele>
        <time>2017-05-07T14:21:08Z</time>
      </trkpt>
      <trkpt lat="49.27264" lon="2.36227">
        <ele>75.5</ele>
        <time>2017-05-07T14:21:22Z</time>
      </trkpt>
      <trkpt lat="49.27266" lon="2.36216">
        <ele>74.8</ele>
        <time>2017-05-07T14:21:29Z</time>
      </trkpt>
      <trkpt lat="49.27264" lon="2.36204">
        <ele>74.8</ele>
        <time>2017-05-07T14:21:34Z</time>
      </trkpt>
      <trkpt lat="49.27264" lon="2.36193">
        <ele>74.7</ele>
        <time>2017-05-07T14:21:41Z</time>
      </trkpt>
      <trkpt lat="49.27266" lon="2.36182">
        <ele>74.3</ele>
        <time>2017-05-07T14:21:48Z</time>
      </trkpt>
      <trkpt lat="49.27264" lon="2.3617">
        <ele>74.2</ele>
        <time>2017-05-07T14:21:55Z</time>
      </trkpt>
      <trkpt lat="49.27262" lon="2.36159">
        <ele>74.1</ele>
        <time>2017-05-07T14:22:02Z</time>
      </trkpt>
      <trkpt lat="49.27259" lon="2.36148">
        <ele>73.7</ele>
        <time>2017-05-07T14:22:08Z</time>
      </trkpt>
      <trkpt lat="49.27258" lon="2.36136">
        <ele>73.3</ele>
        <time>2017-05-07T14:22:14Z</time>
      </trkpt>
      <trkpt lat="49.27259" lon="2.36127">
        <ele>73.3</ele>
        <time>2017-05-07T14:22:21Z</time>
      </trkpt>
      <trkpt lat="49.2726" lon="2.36116">
        <ele>74</ele>
        <time>2017-05-07T14:22:28Z</time>
      </trkpt>
      <trkpt lat="49.2726" lon="2.36108">
        <ele>74.2</ele>
        <time>2017-05-07T14:22:35Z</time>
      </trkpt>
      <trkpt lat="49.27261" lon="2.36096">
        <ele>73.7</ele>
        <time>2017-05-07T14:22:41Z</time>
      </trkpt>
      <trkpt lat="49.27262" lon="2.36082">
        <ele>73.6</ele>
        <time>2017-05-07T14:22:46Z</time>
      </trkpt>
      <trkpt lat="49.2726" lon="2.36071">
        <ele>73.7</ele>
        <time>2017-05-07T14:22:53Z</time>
      </trkpt>
      <trkpt lat="49.27259" lon="2.36061">
        <ele>73.5</ele>
        <time>2017-05-07T14:23:00Z</time>
      </trkpt>
      <trkpt lat="49.27257" lon="2.36052">
        <ele>73.8</ele>
        <time>2017-05-07T14:23:07Z</time>
      </trkpt>
      <trkpt lat="49.27253" lon="2.36046">
        <ele>74.1</ele>
        <time>2017-05-07T14:23:14Z</time>
      </trkpt>
      <trkpt lat="49.27254" lon="2.36035">
        <ele>74.1</ele>
        <time>2017-05-07T14:23:21Z</time>
      </trkpt>
      <trkpt lat="49.27256" lon="2.36026">
        <ele>73.8</ele>
        <time>2017-05-07T14:23:28Z</time>
      </trkpt>
      <trkpt lat="49.27254" lon="2.36016">
        <ele>74</ele>
        <time>2017-05-07T14:23:35Z</time>
      </trkpt>
      <trkpt lat="49.2725" lon="2.36014">
        <ele>74.4</ele>
        <time>2017-05-07T14:23:42Z</time>
      </trkpt>
      <trkpt lat="49.27246" lon="2.36004">
        <ele>75.8</ele>
        <time>2017-05-07T14:23:49Z</time>
      </trkpt>
      <trkpt lat="49.27242" lon="2.36004">
        <ele>76.4</ele>
        <time>2017-05-07T14:23:56Z</time>
      </trkpt>
      <trkpt lat="49.27234" lon="2.36001">
        <ele>76.7</ele>
        <time>2017-05-07T14:24:03Z</time>
      </trkpt>
      <trkpt lat="49.27228" lon="2.35999">
        <ele>77.3</ele>
        <time>2017-05-07T14:24:10Z</time>
      </trkpt>
      <trkpt lat="49.27223" lon="2.35999">
        <ele>76.9</ele>
        <time>2017-05-07T14:24:17Z</time>
      </trkpt>
      <trkpt lat="49.27215" lon="2.35998">
        <ele>76.4</ele>
        <time>2017-05-07T14:24:22Z</time>
      </trkpt>
      <trkpt lat="49.27208" lon="2.35997">
        <ele>76.1</ele>
        <time>2017-05-07T14:24:28Z</time>
      </trkpt>
      <trkpt lat="49.27205" lon="2.35997">
        <ele>76.2</ele>
        <time>2017-05-07T14:24:35Z</time>
      </trkpt>
      <trkpt lat="49.27205" lon="2.36">
        <ele>76.3</ele>
        <time>2017-05-07T14:24:42Z</time>
      </trkpt>
      <trkpt lat="49.27199" lon="2.36">
        <ele>78.7</ele>
        <time>2017-05-07T14:25:07Z</time>
      </trkpt>
      <trkpt lat="49.27199" lon="2.35998">
        <ele>78.8</ele>
        <time>2017-05-07T14:25:14Z</time>
      </trkpt>
    </trkseg>
  </trk>
</gpx>